<?xml version="1.0" encoding="UTF-8" standalone="no" ?>
<gpx xmlns="http://www.topografix.com/GPX/1/1" xmlns:xsi="http://www.w3.org/2001/XMLSchema-instance" xsi:schemaLocation="http://www.topografix.com/GPX/1/1 http://www.topografix.com/GPX/1/1/gpx.xsd" version="1.1" creator="VisuGPX - https://www.visugpx.com">
  <metadata>
    <name>La Motte Servolex -St Pierre </name>
    <desc><![CDATA[Au départ des Crinières d\'ange centre équestre jusqu\'à St Pierre ]]></desc>
  </metadata>
  <trk>
    <name><![CDATA[La Motte Servolex -St Pierre _1]]></name>
    <trkseg>
      <trkpt lat="45.57124" lon="5.86424">
        <ele>399.4</ele>
        <time>2015-11-08T10:43:35Z</time>
      </trkpt>
      <trkpt lat="45.57126" lon="5.8642">
        <ele>399.4</ele>
        <time>2015-11-08T10:43:40Z</time>
      </trkpt>
      <trkpt lat="45.57127" lon="5.86412">
        <ele>398.02132243746</ele>
        <time>2015-11-08T10:43:50Z</time>
      </trkpt>
      <trkpt lat="45.57127" lon="5.86412">
        <ele>398.02132243746</ele>
        <time>2015-11-08T10:43:55Z</time>
      </trkpt>
      <trkpt lat="45.57128" lon="5.86411">
        <ele>398.02132243746</ele>
        <time>2015-11-08T10:44:05Z</time>
      </trkpt>
      <trkpt lat="45.57129" lon="5.86408">
        <ele>398.02132243746</ele>
        <time>2015-11-08T10:44:10Z</time>
      </trkpt>
      <trkpt lat="45.5713" lon="5.86407">
        <ele>398.02132243746</ele>
        <time>2015-11-08T10:44:20Z</time>
      </trkpt>
      <trkpt lat="45.57131" lon="5.86406">
        <ele>398.02132243746</ele>
        <time>2015-11-08T10:44:25Z</time>
      </trkpt>
      <trkpt lat="45.57131" lon="5.86406">
        <ele>398.02132243746</ele>
        <time>2015-11-08T10:44:35Z</time>
      </trkpt>
      <trkpt lat="45.57131" lon="5.86406">
        <ele>398.02132243746</ele>
        <time>2015-11-08T10:44:40Z</time>
      </trkpt>
      <trkpt lat="45.57131" lon="5.86406">
        <ele>398.02132243746</ele>
        <time>2015-11-08T10:44:50Z</time>
      </trkpt>
      <trkpt lat="45.57131" lon="5.86406">
        <ele>398.02132243746</ele>
        <time>2015-11-08T10:44:55Z</time>
      </trkpt>
      <trkpt lat="45.57131" lon="5.86406">
        <ele>398.02132243746</ele>
        <time>2015-11-08T10:45:05Z</time>
      </trkpt>
      <trkpt lat="45.57131" lon="5.86406">
        <ele>398.02132243746</ele>
        <time>2015-11-08T10:45:10Z</time>
      </trkpt>
      <trkpt lat="45.57135" lon="5.86409">
        <ele>396.48671170023</ele>
        <time>2015-11-08T10:45:25Z</time>
      </trkpt>
      <trkpt lat="45.57136" lon="5.86409">
        <ele>396.48671170023</ele>
        <time>2015-11-08T10:45:30Z</time>
      </trkpt>
      <trkpt lat="45.57135" lon="5.86412">
        <ele>396.48671170023</ele>
        <time>2015-11-08T10:45:40Z</time>
      </trkpt>
      <trkpt lat="45.57137" lon="5.86414">
        <ele>396.48671170023</ele>
        <time>2015-11-08T10:45:45Z</time>
      </trkpt>
      <trkpt lat="45.57143" lon="5.8642">
        <ele>397.48394908832</ele>
        <time>2015-11-08T10:45:55Z</time>
      </trkpt>
      <trkpt lat="45.57147" lon="5.86421">
        <ele>397.48394908832</ele>
        <time>2015-11-08T10:46:00Z</time>
      </trkpt>
      <trkpt lat="45.57154" lon="5.86414">
        <ele>399.59804190584</ele>
        <time>2015-11-08T10:46:10Z</time>
      </trkpt>
      <trkpt lat="45.57157" lon="5.86407">
        <ele>399.59804190584</ele>
        <time>2015-11-08T10:46:15Z</time>
      </trkpt>
      <trkpt lat="45.57163" lon="5.86392">
        <ele>401.28426455335</ele>
        <time>2015-11-08T10:46:25Z</time>
      </trkpt>
      <trkpt lat="45.57165" lon="5.86386">
        <ele>401.28426455335</ele>
        <time>2015-11-08T10:46:30Z</time>
      </trkpt>
      <trkpt lat="45.5717" lon="5.86374">
        <ele>403.44457909516</ele>
        <time>2015-11-08T10:46:40Z</time>
      </trkpt>
      <trkpt lat="45.57173" lon="5.86367">
        <ele>403.44457909516</ele>
        <time>2015-11-08T10:46:45Z</time>
      </trkpt>
      <trkpt lat="45.57182" lon="5.86357">
        <ele>405.9799570137</ele>
        <time>2015-11-08T10:46:55Z</time>
      </trkpt>
      <trkpt lat="45.57186" lon="5.86353">
        <ele>405.9799570137</ele>
        <time>2015-11-08T10:47:00Z</time>
      </trkpt>
      <trkpt lat="45.57201" lon="5.86341">
        <ele>408.64135888919</ele>
        <time>2015-11-08T10:47:15Z</time>
      </trkpt>
      <trkpt lat="45.57206" lon="5.86337">
        <ele>408.64135888919</ele>
        <time>2015-11-08T10:47:20Z</time>
      </trkpt>
      <trkpt lat="45.57215" lon="5.86331">
        <ele>411.03591283974</ele>
        <time>2015-11-08T10:47:30Z</time>
      </trkpt>
      <trkpt lat="45.5722" lon="5.86327">
        <ele>411.03591283974</ele>
        <time>2015-11-08T10:47:35Z</time>
      </trkpt>
      <trkpt lat="45.57229" lon="5.86319">
        <ele>413.55550152643</ele>
        <time>2015-11-08T10:47:45Z</time>
      </trkpt>
      <trkpt lat="45.57234" lon="5.86316">
        <ele>413.55550152643</ele>
        <time>2015-11-08T10:47:50Z</time>
      </trkpt>
      <trkpt lat="45.57244" lon="5.86306">
        <ele>416.07969861593</ele>
        <time>2015-11-08T10:48:00Z</time>
      </trkpt>
      <trkpt lat="45.57247" lon="5.86298">
        <ele>416.07969861593</ele>
        <time>2015-11-08T10:48:05Z</time>
      </trkpt>
      <trkpt lat="45.57253" lon="5.86285">
        <ele>418.47534183027</ele>
        <time>2015-11-08T10:48:15Z</time>
      </trkpt>
      <trkpt lat="45.57255" lon="5.86279">
        <ele>418.47534183027</ele>
        <time>2015-11-08T10:48:20Z</time>
      </trkpt>
      <trkpt lat="45.5726" lon="5.86263">
        <ele>420.64235668451</ele>
        <time>2015-11-08T10:48:30Z</time>
      </trkpt>
      <trkpt lat="45.57262" lon="5.86256">
        <ele>420.64235668451</ele>
        <time>2015-11-08T10:48:35Z</time>
      </trkpt>
      <trkpt lat="45.57263" lon="5.8623">
        <ele>421.71038252581</ele>
        <time>2015-11-08T10:48:50Z</time>
      </trkpt>
      <trkpt lat="45.57263" lon="5.86224">
        <ele>421.71038252581</ele>
        <time>2015-11-08T10:48:55Z</time>
      </trkpt>
      <trkpt lat="45.5727" lon="5.86206">
        <ele>422.41388753575</ele>
        <time>2015-11-08T10:49:05Z</time>
      </trkpt>
      <trkpt lat="45.57272" lon="5.86199">
        <ele>422.41388753575</ele>
        <time>2015-11-08T10:49:10Z</time>
      </trkpt>
      <trkpt lat="45.57272" lon="5.86183">
        <ele>423.33954228229</ele>
        <time>2015-11-08T10:49:20Z</time>
      </trkpt>
      <trkpt lat="45.57274" lon="5.86175">
        <ele>423.33954228229</ele>
        <time>2015-11-08T10:49:25Z</time>
      </trkpt>
      <trkpt lat="45.5728" lon="5.86156">
        <ele>424.3526634549</ele>
        <time>2015-11-08T10:49:35Z</time>
      </trkpt>
      <trkpt lat="45.57281" lon="5.86147">
        <ele>424.3526634549</ele>
        <time>2015-11-08T10:49:40Z</time>
      </trkpt>
      <trkpt lat="45.57279" lon="5.86136">
        <ele>425.47428213557</ele>
        <time>2015-11-08T10:49:50Z</time>
      </trkpt>
      <trkpt lat="45.57275" lon="5.86132">
        <ele>425.47428213557</ele>
        <time>2015-11-08T10:49:55Z</time>
      </trkpt>
      <trkpt lat="45.57269" lon="5.86124">
        <ele>425.97051870675</ele>
        <time>2015-11-08T10:50:05Z</time>
      </trkpt>
      <trkpt lat="45.57268" lon="5.86127">
        <ele>425.97051870675</ele>
        <time>2015-11-08T10:50:10Z</time>
      </trkpt>
      <trkpt lat="45.57269" lon="5.86128">
        <ele>425.97051870675</ele>
        <time>2015-11-08T10:50:20Z</time>
      </trkpt>
      <trkpt lat="45.5727" lon="5.86129">
        <ele>425.97051870675</ele>
        <time>2015-11-08T10:50:25Z</time>
      </trkpt>
      <trkpt lat="45.57268" lon="5.86131">
        <ele>425.97051870675</ele>
        <time>2015-11-08T10:50:35Z</time>
      </trkpt>
      <trkpt lat="45.57269" lon="5.8613">
        <ele>425.97051870675</ele>
        <time>2015-11-08T10:50:40Z</time>
      </trkpt>
      <trkpt lat="45.57268" lon="5.86127">
        <ele>426.17490703211</ele>
        <time>2015-11-08T10:50:50Z</time>
      </trkpt>
      <trkpt lat="45.57268" lon="5.86128">
        <ele>426.17490703211</ele>
        <time>2015-11-08T10:50:55Z</time>
      </trkpt>
      <trkpt lat="45.57267" lon="5.86129">
        <ele>426.17490703211</ele>
        <time>2015-11-08T10:51:10Z</time>
      </trkpt>
      <trkpt lat="45.57267" lon="5.8613">
        <ele>426.17490703211</ele>
        <time>2015-11-08T10:51:15Z</time>
      </trkpt>
      <trkpt lat="45.57269" lon="5.86131">
        <ele>426.17490703211</ele>
        <time>2015-11-08T10:51:25Z</time>
      </trkpt>
      <trkpt lat="45.57269" lon="5.86131">
        <ele>426.17490703211</ele>
        <time>2015-11-08T10:51:30Z</time>
      </trkpt>
      <trkpt lat="45.57269" lon="5.86131">
        <ele>426.17490703211</ele>
        <time>2015-11-08T10:51:40Z</time>
      </trkpt>
      <trkpt lat="45.57269" lon="5.86131">
        <ele>426.17490703211</ele>
        <time>2015-11-08T10:51:45Z</time>
      </trkpt>
      <trkpt lat="45.57269" lon="5.86129">
        <ele>426.17490703211</ele>
        <time>2015-11-08T10:51:55Z</time>
      </trkpt>
      <trkpt lat="45.57269" lon="5.8613">
        <ele>426.17490703211</ele>
        <time>2015-11-08T10:52:00Z</time>
      </trkpt>
      <trkpt lat="45.57269" lon="5.8613">
        <ele>426.17490703211</ele>
        <time>2015-11-08T10:52:10Z</time>
      </trkpt>
      <trkpt lat="45.57269" lon="5.8613">
        <ele>426.17490703211</ele>
        <time>2015-11-08T10:52:15Z</time>
      </trkpt>
      <trkpt lat="45.57268" lon="5.86127">
        <ele>425.97652883346</ele>
        <time>2015-11-08T10:52:25Z</time>
      </trkpt>
      <trkpt lat="45.57266" lon="5.86121">
        <ele>425.97652883346</ele>
        <time>2015-11-08T10:52:30Z</time>
      </trkpt>
      <trkpt lat="45.57262" lon="5.86109">
        <ele>425.67383199248</ele>
        <time>2015-11-08T10:52:40Z</time>
      </trkpt>
      <trkpt lat="45.57259" lon="5.86102">
        <ele>425.67383199248</ele>
        <time>2015-11-08T10:52:45Z</time>
      </trkpt>
      <trkpt lat="45.57252" lon="5.86077">
        <ele>425.76466304598</ele>
        <time>2015-11-08T10:53:00Z</time>
      </trkpt>
      <trkpt lat="45.5725" lon="5.86069">
        <ele>425.76466304598</ele>
        <time>2015-11-08T10:53:05Z</time>
      </trkpt>
      <trkpt lat="45.57246" lon="5.86052">
        <ele>426.11993425414</ele>
        <time>2015-11-08T10:53:15Z</time>
      </trkpt>
      <trkpt lat="45.57245" lon="5.86044">
        <ele>426.11993425414</ele>
        <time>2015-11-08T10:53:20Z</time>
      </trkpt>
      <trkpt lat="45.57242" lon="5.86029">
        <ele>426.52303856253</ele>
        <time>2015-11-08T10:53:30Z</time>
      </trkpt>
      <trkpt lat="45.57241" lon="5.86022">
        <ele>426.52303856253</ele>
        <time>2015-11-08T10:53:35Z</time>
      </trkpt>
      <trkpt lat="45.57242" lon="5.86004">
        <ele>427.27184145583</ele>
        <time>2015-11-08T10:53:45Z</time>
      </trkpt>
      <trkpt lat="45.57244" lon="5.85996">
        <ele>427.27184145583</ele>
        <time>2015-11-08T10:53:50Z</time>
      </trkpt>
      <trkpt lat="45.57241" lon="5.8598">
        <ele>428.38811979739</ele>
        <time>2015-11-08T10:54:00Z</time>
      </trkpt>
      <trkpt lat="45.5724" lon="5.85973">
        <ele>428.38811979739</ele>
        <time>2015-11-08T10:54:05Z</time>
      </trkpt>
      <trkpt lat="45.57235" lon="5.8596">
        <ele>429.44047829172</ele>
        <time>2015-11-08T10:54:15Z</time>
      </trkpt>
      <trkpt lat="45.57232" lon="5.85951">
        <ele>429.44047829172</ele>
        <time>2015-11-08T10:54:20Z</time>
      </trkpt>
      <trkpt lat="45.57223" lon="5.85929">
        <ele>430.51816641723</ele>
        <time>2015-11-08T10:54:30Z</time>
      </trkpt>
      <trkpt lat="45.57221" lon="5.85919">
        <ele>430.51816641723</ele>
        <time>2015-11-08T10:54:35Z</time>
      </trkpt>
      <trkpt lat="45.57214" lon="5.85897">
        <ele>432.09227440658</ele>
        <time>2015-11-08T10:54:50Z</time>
      </trkpt>
      <trkpt lat="45.57209" lon="5.85892">
        <ele>432.09227440658</ele>
        <time>2015-11-08T10:54:55Z</time>
      </trkpt>
      <trkpt lat="45.57195" lon="5.85891">
        <ele>433.16245288003</ele>
        <time>2015-11-08T10:55:05Z</time>
      </trkpt>
      <trkpt lat="45.57189" lon="5.85891">
        <ele>433.16245288003</ele>
        <time>2015-11-08T10:55:10Z</time>
      </trkpt>
      <trkpt lat="45.57174" lon="5.85887">
        <ele>434.58573808198</ele>
        <time>2015-11-08T10:55:20Z</time>
      </trkpt>
      <trkpt lat="45.57167" lon="5.85883">
        <ele>434.58573808198</ele>
        <time>2015-11-08T10:55:25Z</time>
      </trkpt>
      <trkpt lat="45.57157" lon="5.8587">
        <ele>436.25247393249</ele>
        <time>2015-11-08T10:55:35Z</time>
      </trkpt>
      <trkpt lat="45.57153" lon="5.85865">
        <ele>436.25247393249</ele>
        <time>2015-11-08T10:55:40Z</time>
      </trkpt>
      <trkpt lat="45.57148" lon="5.85853">
        <ele>437.53334240207</ele>
        <time>2015-11-08T10:55:50Z</time>
      </trkpt>
      <trkpt lat="45.57144" lon="5.85847">
        <ele>437.53334240207</ele>
        <time>2015-11-08T10:55:55Z</time>
      </trkpt>
      <trkpt lat="45.57137" lon="5.85836">
        <ele>438.74610074715</ele>
        <time>2015-11-08T10:56:05Z</time>
      </trkpt>
      <trkpt lat="45.57134" lon="5.85829">
        <ele>438.74610074715</ele>
        <time>2015-11-08T10:56:10Z</time>
      </trkpt>
      <trkpt lat="45.57134" lon="5.85829">
        <ele>438.74610074715</ele>
        <time>2015-11-08T10:56:25Z</time>
      </trkpt>
      <trkpt lat="45.57134" lon="5.85829">
        <ele>438.74610074715</ele>
        <time>2015-11-08T10:56:30Z</time>
      </trkpt>
      <trkpt lat="45.57128" lon="5.85818">
        <ele>439.68461291115</ele>
        <time>2015-11-08T10:56:40Z</time>
      </trkpt>
      <trkpt lat="45.57122" lon="5.85816">
        <ele>439.68461291115</ele>
        <time>2015-11-08T10:56:45Z</time>
      </trkpt>
      <trkpt lat="45.57109" lon="5.85814">
        <ele>440.16853053934</ele>
        <time>2015-11-08T10:56:55Z</time>
      </trkpt>
      <trkpt lat="45.57103" lon="5.85813">
        <ele>440.16853053934</ele>
        <time>2015-11-08T10:57:00Z</time>
      </trkpt>
      <trkpt lat="45.57085" lon="5.8581">
        <ele>441.34635328651</ele>
        <time>2015-11-08T10:57:10Z</time>
      </trkpt>
      <trkpt lat="45.57082" lon="5.8581">
        <ele>441.34635328651</ele>
        <time>2015-11-08T10:57:15Z</time>
      </trkpt>
      <trkpt lat="45.57073" lon="5.8581">
        <ele>441.79473015831</ele>
        <time>2015-11-08T10:57:25Z</time>
      </trkpt>
      <trkpt lat="45.57068" lon="5.85809">
        <ele>441.79473015831</ele>
        <time>2015-11-08T10:57:30Z</time>
      </trkpt>
      <trkpt lat="45.57055" lon="5.85806">
        <ele>441.42839474045</ele>
        <time>2015-11-08T10:57:40Z</time>
      </trkpt>
      <trkpt lat="45.5705" lon="5.85806">
        <ele>441.42839474045</ele>
        <time>2015-11-08T10:57:45Z</time>
      </trkpt>
      <trkpt lat="45.57039" lon="5.85793">
        <ele>441.2114650837</ele>
        <time>2015-11-08T10:57:55Z</time>
      </trkpt>
      <trkpt lat="45.57033" lon="5.85787">
        <ele>441.2114650837</ele>
        <time>2015-11-08T10:58:00Z</time>
      </trkpt>
      <trkpt lat="45.57024" lon="5.85777">
        <ele>440.92330510096</ele>
        <time>2015-11-08T10:58:10Z</time>
      </trkpt>
      <trkpt lat="45.57019" lon="5.85771">
        <ele>440.92330510096</ele>
        <time>2015-11-08T10:58:15Z</time>
      </trkpt>
      <trkpt lat="45.57006" lon="5.8576">
        <ele>441.49881587519</ele>
        <time>2015-11-08T10:58:25Z</time>
      </trkpt>
      <trkpt lat="45.56999" lon="5.85755">
        <ele>441.49881587519</ele>
        <time>2015-11-08T10:58:30Z</time>
      </trkpt>
      <trkpt lat="45.56989" lon="5.85744">
        <ele>441.99014828311</ele>
        <time>2015-11-08T10:58:40Z</time>
      </trkpt>
      <trkpt lat="45.56984" lon="5.85737">
        <ele>441.99014828311</ele>
        <time>2015-11-08T10:58:45Z</time>
      </trkpt>
      <trkpt lat="45.56959" lon="5.85722">
        <ele>442.43557765989</ele>
        <time>2015-11-08T10:59:00Z</time>
      </trkpt>
      <trkpt lat="45.56953" lon="5.85713">
        <ele>442.43557765989</ele>
        <time>2015-11-08T10:59:05Z</time>
      </trkpt>
      <trkpt lat="45.56941" lon="5.85691">
        <ele>443.78015958744</ele>
        <time>2015-11-08T10:59:15Z</time>
      </trkpt>
      <trkpt lat="45.56938" lon="5.85683">
        <ele>443.78015958744</ele>
        <time>2015-11-08T10:59:20Z</time>
      </trkpt>
      <trkpt lat="45.56929" lon="5.85669">
        <ele>444.99243189871</ele>
        <time>2015-11-08T10:59:30Z</time>
      </trkpt>
      <trkpt lat="45.56925" lon="5.85663">
        <ele>444.99243189871</ele>
        <time>2015-11-08T10:59:35Z</time>
      </trkpt>
      <trkpt lat="45.56917" lon="5.85648">
        <ele>446.38112133364</ele>
        <time>2015-11-08T10:59:45Z</time>
      </trkpt>
      <trkpt lat="45.56911" lon="5.85637">
        <ele>447.78249896618</ele>
        <time>2015-11-08T10:59:50Z</time>
      </trkpt>
      <trkpt lat="45.56902" lon="5.8562">
        <ele>449.14929170809</ele>
        <time>2015-11-08T11:00:00Z</time>
      </trkpt>
      <trkpt lat="45.56898" lon="5.85612">
        <ele>449.14929170809</ele>
        <time>2015-11-08T11:00:05Z</time>
      </trkpt>
      <trkpt lat="45.56891" lon="5.856">
        <ele>450.78481991611</ele>
        <time>2015-11-08T11:00:15Z</time>
      </trkpt>
      <trkpt lat="45.56887" lon="5.85592">
        <ele>450.78481991611</ele>
        <time>2015-11-08T11:00:20Z</time>
      </trkpt>
      <trkpt lat="45.56884" lon="5.85587">
        <ele>452.41033783312</ele>
        <time>2015-11-08T11:00:30Z</time>
      </trkpt>
      <trkpt lat="45.56881" lon="5.8558">
        <ele>452.41033783312</ele>
        <time>2015-11-08T11:00:35Z</time>
      </trkpt>
      <trkpt lat="45.56872" lon="5.85566">
        <ele>453.81332750942</ele>
        <time>2015-11-08T11:00:45Z</time>
      </trkpt>
      <trkpt lat="45.56869" lon="5.85558">
        <ele>453.81332750942</ele>
        <time>2015-11-08T11:00:50Z</time>
      </trkpt>
      <trkpt lat="45.56861" lon="5.85542">
        <ele>455.29673810333</ele>
        <time>2015-11-08T11:01:00Z</time>
      </trkpt>
      <trkpt lat="45.56859" lon="5.85535">
        <ele>455.29673810333</ele>
        <time>2015-11-08T11:01:05Z</time>
      </trkpt>
      <trkpt lat="45.56854" lon="5.85512">
        <ele>456.70232432587</ele>
        <time>2015-11-08T11:01:20Z</time>
      </trkpt>
      <trkpt lat="45.56853" lon="5.85505">
        <ele>456.70232432587</ele>
        <time>2015-11-08T11:01:25Z</time>
      </trkpt>
      <trkpt lat="45.56854" lon="5.85495">
        <ele>457.79458721609</ele>
        <time>2015-11-08T11:01:35Z</time>
      </trkpt>
      <trkpt lat="45.56855" lon="5.85487">
        <ele>457.79458721609</ele>
        <time>2015-11-08T11:01:40Z</time>
      </trkpt>
      <trkpt lat="45.56859" lon="5.85473">
        <ele>458.52384532865</ele>
        <time>2015-11-08T11:01:50Z</time>
      </trkpt>
      <trkpt lat="45.56863" lon="5.85464">
        <ele>458.52384532865</ele>
        <time>2015-11-08T11:01:55Z</time>
      </trkpt>
      <trkpt lat="45.5687" lon="5.85449">
        <ele>459.23590766432</ele>
        <time>2015-11-08T11:02:05Z</time>
      </trkpt>
      <trkpt lat="45.56872" lon="5.85442">
        <ele>459.23590766432</ele>
        <time>2015-11-08T11:02:10Z</time>
      </trkpt>
      <trkpt lat="45.56877" lon="5.85432">
        <ele>460.03838666422</ele>
        <time>2015-11-08T11:02:20Z</time>
      </trkpt>
      <trkpt lat="45.5688" lon="5.85424">
        <ele>460.03838666422</ele>
        <time>2015-11-08T11:02:25Z</time>
      </trkpt>
      <trkpt lat="45.56881" lon="5.85408">
        <ele>460.9996511417</ele>
        <time>2015-11-08T11:02:35Z</time>
      </trkpt>
      <trkpt lat="45.56875" lon="5.85398">
        <ele>461.49663582293</ele>
        <time>2015-11-08T11:02:40Z</time>
      </trkpt>
      <trkpt lat="45.56859" lon="5.85369">
        <ele>462.56464940546</ele>
        <time>2015-11-08T11:02:55Z</time>
      </trkpt>
      <trkpt lat="45.56853" lon="5.85358">
        <ele>463.49031020714</ele>
        <time>2015-11-08T11:03:00Z</time>
      </trkpt>
      <trkpt lat="45.56843" lon="5.85341">
        <ele>464.72931070907</ele>
        <time>2015-11-08T11:03:10Z</time>
      </trkpt>
      <trkpt lat="45.56839" lon="5.85332">
        <ele>464.72931070907</ele>
        <time>2015-11-08T11:03:15Z</time>
      </trkpt>
      <trkpt lat="45.5683" lon="5.85317">
        <ele>465.79873723251</ele>
        <time>2015-11-08T11:03:25Z</time>
      </trkpt>
      <trkpt lat="45.56827" lon="5.85311">
        <ele>465.79873723251</ele>
        <time>2015-11-08T11:03:30Z</time>
      </trkpt>
      <trkpt lat="45.56822" lon="5.85297">
        <ele>466.72722225289</ele>
        <time>2015-11-08T11:03:40Z</time>
      </trkpt>
      <trkpt lat="45.5682" lon="5.8529">
        <ele>466.72722225289</ele>
        <time>2015-11-08T11:03:45Z</time>
      </trkpt>
      <trkpt lat="45.56814" lon="5.85277">
        <ele>468.05508694024</ele>
        <time>2015-11-08T11:03:55Z</time>
      </trkpt>
      <trkpt lat="45.5681" lon="5.85271">
        <ele>468.05508694024</ele>
        <time>2015-11-08T11:04:00Z</time>
      </trkpt>
      <trkpt lat="45.56799" lon="5.85262">
        <ele>469.91088942588</ele>
        <time>2015-11-08T11:04:10Z</time>
      </trkpt>
      <trkpt lat="45.56796" lon="5.85254">
        <ele>469.91088942588</ele>
        <time>2015-11-08T11:04:15Z</time>
      </trkpt>
      <trkpt lat="45.56788" lon="5.85243">
        <ele>471.7682861105</ele>
        <time>2015-11-08T11:04:25Z</time>
      </trkpt>
      <trkpt lat="45.56785" lon="5.85234">
        <ele>471.7682861105</ele>
        <time>2015-11-08T11:04:30Z</time>
      </trkpt>
      <trkpt lat="45.56778" lon="5.85218">
        <ele>474.09221022976</ele>
        <time>2015-11-08T11:04:40Z</time>
      </trkpt>
      <trkpt lat="45.56776" lon="5.85211">
        <ele>474.09221022976</ele>
        <time>2015-11-08T11:04:45Z</time>
      </trkpt>
      <trkpt lat="45.56771" lon="5.85197">
        <ele>476.62441706551</ele>
        <time>2015-11-08T11:04:55Z</time>
      </trkpt>
      <trkpt lat="45.56769" lon="5.85188">
        <ele>476.62441706551</ele>
        <time>2015-11-08T11:05:00Z</time>
      </trkpt>
      <trkpt lat="45.56765" lon="5.85172">
        <ele>479.57776501509</ele>
        <time>2015-11-08T11:05:10Z</time>
      </trkpt>
      <trkpt lat="45.56763" lon="5.85163">
        <ele>479.57776501509</ele>
        <time>2015-11-08T11:05:15Z</time>
      </trkpt>
      <trkpt lat="45.56754" lon="5.85139">
        <ele>483.04561560244</ele>
        <time>2015-11-08T11:05:30Z</time>
      </trkpt>
      <trkpt lat="45.56752" lon="5.85131">
        <ele>483.04561560244</ele>
        <time>2015-11-08T11:05:35Z</time>
      </trkpt>
      <trkpt lat="45.56748" lon="5.85095">
        <ele>487.18537910498</ele>
        <time>2015-11-08T11:05:45Z</time>
      </trkpt>
      <trkpt lat="45.56748" lon="5.85074">
        <ele>491.08309769097</ele>
        <time>2015-11-08T11:05:50Z</time>
      </trkpt>
      <trkpt lat="45.56749" lon="5.85059">
        <ele>494.95298290876</ele>
        <time>2015-11-08T11:06:00Z</time>
      </trkpt>
      <trkpt lat="45.5675" lon="5.85051">
        <ele>494.95298290876</ele>
        <time>2015-11-08T11:06:05Z</time>
      </trkpt>
      <trkpt lat="45.56748" lon="5.85034">
        <ele>498.99275964476</ele>
        <time>2015-11-08T11:06:15Z</time>
      </trkpt>
      <trkpt lat="45.56747" lon="5.85028">
        <ele>498.99275964476</ele>
        <time>2015-11-08T11:06:20Z</time>
      </trkpt>
      <trkpt lat="45.56748" lon="5.85012">
        <ele>502.79212739561</ele>
        <time>2015-11-08T11:06:30Z</time>
      </trkpt>
      <trkpt lat="45.56749" lon="5.85003">
        <ele>502.79212739561</ele>
        <time>2015-11-08T11:06:35Z</time>
      </trkpt>
      <trkpt lat="45.56749" lon="5.84989">
        <ele>505.87153149018</ele>
        <time>2015-11-08T11:06:45Z</time>
      </trkpt>
      <trkpt lat="45.56748" lon="5.84983">
        <ele>505.87153149018</ele>
        <time>2015-11-08T11:06:50Z</time>
      </trkpt>
      <trkpt lat="45.56746" lon="5.84976">
        <ele>508.98763092664</ele>
        <time>2015-11-08T11:07:05Z</time>
      </trkpt>
      <trkpt lat="45.56743" lon="5.84967">
        <ele>508.98763092664</ele>
        <time>2015-11-08T11:07:10Z</time>
      </trkpt>
      <trkpt lat="45.56736" lon="5.84956">
        <ele>511.5125052989</ele>
        <time>2015-11-08T11:07:20Z</time>
      </trkpt>
      <trkpt lat="45.56732" lon="5.84951">
        <ele>511.5125052989</ele>
        <time>2015-11-08T11:07:25Z</time>
      </trkpt>
      <trkpt lat="45.56721" lon="5.84939">
        <ele>514.09303593124</ele>
        <time>2015-11-08T11:07:35Z</time>
      </trkpt>
      <trkpt lat="45.56709" lon="5.84929">
        <ele>516.36149022945</ele>
        <time>2015-11-08T11:07:40Z</time>
      </trkpt>
      <trkpt lat="45.56695" lon="5.84914">
        <ele>518.91570962082</ele>
        <time>2015-11-08T11:07:50Z</time>
      </trkpt>
      <trkpt lat="45.56689" lon="5.84911">
        <ele>518.91570962082</ele>
        <time>2015-11-08T11:07:55Z</time>
      </trkpt>
      <trkpt lat="45.56681" lon="5.84904">
        <ele>520.37651465687</ele>
        <time>2015-11-08T11:08:05Z</time>
      </trkpt>
      <trkpt lat="45.56676" lon="5.84901">
        <ele>520.37651465687</ele>
        <time>2015-11-08T11:08:10Z</time>
      </trkpt>
      <trkpt lat="45.5667" lon="5.84884">
        <ele>521.81974998887</ele>
        <time>2015-11-08T11:08:20Z</time>
      </trkpt>
      <trkpt lat="45.56667" lon="5.84875">
        <ele>521.81974998887</ele>
        <time>2015-11-08T11:08:25Z</time>
      </trkpt>
      <trkpt lat="45.56663" lon="5.84859">
        <ele>523.0598666581</ele>
        <time>2015-11-08T11:08:35Z</time>
      </trkpt>
      <trkpt lat="45.5666" lon="5.8485">
        <ele>523.0598666581</ele>
        <time>2015-11-08T11:08:40Z</time>
      </trkpt>
      <trkpt lat="45.56656" lon="5.84831">
        <ele>524.40142814218</ele>
        <time>2015-11-08T11:08:50Z</time>
      </trkpt>
      <trkpt lat="45.56655" lon="5.84823">
        <ele>524.40142814218</ele>
        <time>2015-11-08T11:08:55Z</time>
      </trkpt>
      <trkpt lat="45.5664" lon="5.84799">
        <ele>525.59298609805</ele>
        <time>2015-11-08T11:09:10Z</time>
      </trkpt>
      <trkpt lat="45.56635" lon="5.84793">
        <ele>525.59298609805</ele>
        <time>2015-11-08T11:09:15Z</time>
      </trkpt>
      <trkpt lat="45.56628" lon="5.84777">
        <ele>527.13741878675</ele>
        <time>2015-11-08T11:09:25Z</time>
      </trkpt>
      <trkpt lat="45.56624" lon="5.84769">
        <ele>527.13741878675</ele>
        <time>2015-11-08T11:09:30Z</time>
      </trkpt>
      <trkpt lat="45.56624" lon="5.84754">
        <ele>528.36068865421</ele>
        <time>2015-11-08T11:09:40Z</time>
      </trkpt>
      <trkpt lat="45.56625" lon="5.84743">
        <ele>528.36068865421</ele>
        <time>2015-11-08T11:09:45Z</time>
      </trkpt>
      <trkpt lat="45.56628" lon="5.84726">
        <ele>529.90813856734</ele>
        <time>2015-11-08T11:09:55Z</time>
      </trkpt>
      <trkpt lat="45.56628" lon="5.84717">
        <ele>529.90813856734</ele>
        <time>2015-11-08T11:10:00Z</time>
      </trkpt>
      <trkpt lat="45.56627" lon="5.847">
        <ele>531.38189813597</ele>
        <time>2015-11-08T11:10:10Z</time>
      </trkpt>
      <trkpt lat="45.56629" lon="5.84691">
        <ele>531.38189813597</ele>
        <time>2015-11-08T11:10:15Z</time>
      </trkpt>
      <trkpt lat="45.56633" lon="5.84674">
        <ele>532.71638732746</ele>
        <time>2015-11-08T11:10:25Z</time>
      </trkpt>
      <trkpt lat="45.56635" lon="5.84667">
        <ele>532.71638732746</ele>
        <time>2015-11-08T11:10:30Z</time>
      </trkpt>
      <trkpt lat="45.56643" lon="5.84653">
        <ele>533.64935672688</ele>
        <time>2015-11-08T11:10:40Z</time>
      </trkpt>
      <trkpt lat="45.56645" lon="5.84646">
        <ele>533.64935672688</ele>
        <time>2015-11-08T11:10:45Z</time>
      </trkpt>
      <trkpt lat="45.56648" lon="5.84641">
        <ele>534.84762980955</ele>
        <time>2015-11-08T11:11:00Z</time>
      </trkpt>
      <trkpt lat="45.56651" lon="5.84632">
        <ele>534.84762980955</ele>
        <time>2015-11-08T11:11:05Z</time>
      </trkpt>
      <trkpt lat="45.56661" lon="5.84624">
        <ele>536.26488535062</ele>
        <time>2015-11-08T11:11:15Z</time>
      </trkpt>
      <trkpt lat="45.56668" lon="5.84625">
        <ele>536.26488535062</ele>
        <time>2015-11-08T11:11:20Z</time>
      </trkpt>
      <trkpt lat="45.56681" lon="5.84625">
        <ele>537.69892919333</ele>
        <time>2015-11-08T11:11:30Z</time>
      </trkpt>
      <trkpt lat="45.56687" lon="5.84623">
        <ele>537.69892919333</ele>
        <time>2015-11-08T11:11:35Z</time>
      </trkpt>
      <trkpt lat="45.56696" lon="5.84611">
        <ele>539.4239547376</ele>
        <time>2015-11-08T11:11:45Z</time>
      </trkpt>
      <trkpt lat="45.56698" lon="5.84602">
        <ele>539.4239547376</ele>
        <time>2015-11-08T11:11:50Z</time>
      </trkpt>
      <trkpt lat="45.56698" lon="5.84585">
        <ele>541.62106577017</ele>
        <time>2015-11-08T11:12:00Z</time>
      </trkpt>
      <trkpt lat="45.56699" lon="5.84575">
        <ele>541.62106577017</ele>
        <time>2015-11-08T11:12:05Z</time>
      </trkpt>
      <trkpt lat="45.56704" lon="5.84561">
        <ele>543.9662866232</ele>
        <time>2015-11-08T11:12:15Z</time>
      </trkpt>
      <trkpt lat="45.56706" lon="5.84554">
        <ele>543.9662866232</ele>
        <time>2015-11-08T11:12:20Z</time>
      </trkpt>
      <trkpt lat="45.56714" lon="5.84541">
        <ele>546.88025779682</ele>
        <time>2015-11-08T11:12:30Z</time>
      </trkpt>
      <trkpt lat="45.56717" lon="5.84534">
        <ele>546.88025779682</ele>
        <time>2015-11-08T11:12:35Z</time>
      </trkpt>
      <trkpt lat="45.56725" lon="5.84525">
        <ele>549.77024910804</ele>
        <time>2015-11-08T11:12:45Z</time>
      </trkpt>
      <trkpt lat="45.56729" lon="5.8452">
        <ele>549.77024910804</ele>
        <time>2015-11-08T11:12:50Z</time>
      </trkpt>
      <trkpt lat="45.5674" lon="5.84503">
        <ele>552.8516791573</ele>
        <time>2015-11-08T11:13:05Z</time>
      </trkpt>
      <trkpt lat="45.56743" lon="5.84493">
        <ele>552.8516791573</ele>
        <time>2015-11-08T11:13:10Z</time>
      </trkpt>
      <trkpt lat="45.56744" lon="5.84464">
        <ele>555.80436676055</ele>
        <time>2015-11-08T11:13:20Z</time>
      </trkpt>
      <trkpt lat="45.56743" lon="5.84455">
        <ele>555.80436676055</ele>
        <time>2015-11-08T11:13:25Z</time>
      </trkpt>
      <trkpt lat="45.56735" lon="5.84441">
        <ele>558.54843982112</ele>
        <time>2015-11-08T11:13:35Z</time>
      </trkpt>
      <trkpt lat="45.5673" lon="5.84436">
        <ele>558.54843982112</ele>
        <time>2015-11-08T11:13:40Z</time>
      </trkpt>
      <trkpt lat="45.56718" lon="5.84425">
        <ele>561.19801861877</ele>
        <time>2015-11-08T11:13:50Z</time>
      </trkpt>
      <trkpt lat="45.56713" lon="5.84419">
        <ele>561.19801861877</ele>
        <time>2015-11-08T11:13:55Z</time>
      </trkpt>
      <trkpt lat="45.567" lon="5.84408">
        <ele>564.10428284007</ele>
        <time>2015-11-08T11:14:05Z</time>
      </trkpt>
      <trkpt lat="45.56692" lon="5.84401">
        <ele>566.72664482569</ele>
        <time>2015-11-08T11:14:10Z</time>
      </trkpt>
      <trkpt lat="45.56679" lon="5.84396">
        <ele>568.88242072237</ele>
        <time>2015-11-08T11:14:20Z</time>
      </trkpt>
      <trkpt lat="45.56672" lon="5.84394">
        <ele>568.88242072237</ele>
        <time>2015-11-08T11:14:25Z</time>
      </trkpt>
      <trkpt lat="45.5665" lon="5.84391">
        <ele>570.9516578834</ele>
        <time>2015-11-08T11:14:40Z</time>
      </trkpt>
      <trkpt lat="45.56643" lon="5.84389">
        <ele>570.9516578834</ele>
        <time>2015-11-08T11:14:45Z</time>
      </trkpt>
      <trkpt lat="45.56629" lon="5.84385">
        <ele>572.95507560101</ele>
        <time>2015-11-08T11:14:55Z</time>
      </trkpt>
      <trkpt lat="45.56623" lon="5.84384">
        <ele>572.95507560101</ele>
        <time>2015-11-08T11:15:00Z</time>
      </trkpt>
      <trkpt lat="45.56612" lon="5.84381">
        <ele>574.73908498151</ele>
        <time>2015-11-08T11:15:10Z</time>
      </trkpt>
      <trkpt lat="45.56607" lon="5.84377">
        <ele>574.73908498151</ele>
        <time>2015-11-08T11:15:15Z</time>
      </trkpt>
      <trkpt lat="45.56593" lon="5.84371">
        <ele>576.32064571485</ele>
        <time>2015-11-08T11:15:25Z</time>
      </trkpt>
      <trkpt lat="45.56585" lon="5.84367">
        <ele>576.32064571485</ele>
        <time>2015-11-08T11:15:30Z</time>
      </trkpt>
      <trkpt lat="45.56578" lon="5.84363">
        <ele>578.16296271288</ele>
        <time>2015-11-08T11:15:40Z</time>
      </trkpt>
      <trkpt lat="45.56578" lon="5.84363">
        <ele>578.16296271288</ele>
        <time>2015-11-08T11:15:45Z</time>
      </trkpt>
      <trkpt lat="45.5658" lon="5.84362">
        <ele>578.16296271288</ele>
        <time>2015-11-08T11:15:55Z</time>
      </trkpt>
      <trkpt lat="45.56579" lon="5.84363">
        <ele>578.16296271288</ele>
        <time>2015-11-08T11:16:00Z</time>
      </trkpt>
      <trkpt lat="45.56579" lon="5.84363">
        <ele>578.16296271288</ele>
        <time>2015-11-08T11:16:10Z</time>
      </trkpt>
      <trkpt lat="45.56579" lon="5.84363">
        <ele>578.16296271288</ele>
        <time>2015-11-08T11:16:15Z</time>
      </trkpt>
      <trkpt lat="45.56579" lon="5.84363">
        <ele>578.16296271288</ele>
        <time>2015-11-08T11:16:25Z</time>
      </trkpt>
      <trkpt lat="45.56579" lon="5.84363">
        <ele>578.16296271288</ele>
        <time>2015-11-08T11:16:30Z</time>
      </trkpt>
      <trkpt lat="45.56579" lon="5.84362">
        <ele>578.16296271288</ele>
        <time>2015-11-08T11:16:40Z</time>
      </trkpt>
      <trkpt lat="45.56578" lon="5.84361">
        <ele>578.16296271288</ele>
        <time>2015-11-08T11:16:45Z</time>
      </trkpt>
      <trkpt lat="45.56564" lon="5.84346">
        <ele>579.988075392</ele>
        <time>2015-11-08T11:17:00Z</time>
      </trkpt>
      <trkpt lat="45.56561" lon="5.8434">
        <ele>579.988075392</ele>
        <time>2015-11-08T11:17:05Z</time>
      </trkpt>
      <trkpt lat="45.56555" lon="5.84328">
        <ele>581.62504972427</ele>
        <time>2015-11-08T11:17:15Z</time>
      </trkpt>
      <trkpt lat="45.56554" lon="5.84326">
        <ele>581.62504972427</ele>
        <time>2015-11-08T11:17:20Z</time>
      </trkpt>
      <trkpt lat="45.5655" lon="5.84318">
        <ele>581.62504972427</ele>
        <time>2015-11-08T11:17:30Z</time>
      </trkpt>
      <trkpt lat="45.56547" lon="5.84312">
        <ele>583.08904947399</ele>
        <time>2015-11-08T11:17:35Z</time>
      </trkpt>
      <trkpt lat="45.5654" lon="5.843">
        <ele>584.92792733178</ele>
        <time>2015-11-08T11:17:45Z</time>
      </trkpt>
      <trkpt lat="45.56537" lon="5.84293">
        <ele>584.92792733178</ele>
        <time>2015-11-08T11:17:50Z</time>
      </trkpt>
      <trkpt lat="45.56532" lon="5.84277">
        <ele>587.14371603004</ele>
        <time>2015-11-08T11:18:00Z</time>
      </trkpt>
      <trkpt lat="45.56529" lon="5.84269">
        <ele>587.14371603004</ele>
        <time>2015-11-08T11:18:05Z</time>
      </trkpt>
      <trkpt lat="45.56525" lon="5.84253">
        <ele>589.13191021394</ele>
        <time>2015-11-08T11:18:15Z</time>
      </trkpt>
      <trkpt lat="45.56519" lon="5.84248">
        <ele>589.13191021394</ele>
        <time>2015-11-08T11:18:20Z</time>
      </trkpt>
      <trkpt lat="45.56508" lon="5.84227">
        <ele>591.57259757005</ele>
        <time>2015-11-08T11:18:35Z</time>
      </trkpt>
      <trkpt lat="45.56507" lon="5.84219">
        <ele>591.57259757005</ele>
        <time>2015-11-08T11:18:40Z</time>
      </trkpt>
      <trkpt lat="45.56503" lon="5.84203">
        <ele>593.99925179119</ele>
        <time>2015-11-08T11:18:50Z</time>
      </trkpt>
      <trkpt lat="45.56502" lon="5.84196">
        <ele>593.99925179119</ele>
        <time>2015-11-08T11:18:55Z</time>
      </trkpt>
      <trkpt lat="45.56502" lon="5.84188">
        <ele>596.1814674209</ele>
        <time>2015-11-08T11:19:05Z</time>
      </trkpt>
      <trkpt lat="45.56499" lon="5.8418">
        <ele>596.1814674209</ele>
        <time>2015-11-08T11:19:10Z</time>
      </trkpt>
      <trkpt lat="45.56494" lon="5.84162">
        <ele>598.5550019543</ele>
        <time>2015-11-08T11:19:20Z</time>
      </trkpt>
      <trkpt lat="45.5649" lon="5.84155">
        <ele>598.5550019543</ele>
        <time>2015-11-08T11:19:25Z</time>
      </trkpt>
      <trkpt lat="45.56482" lon="5.84144">
        <ele>601.26364197575</ele>
        <time>2015-11-08T11:19:35Z</time>
      </trkpt>
      <trkpt lat="45.56477" lon="5.8414">
        <ele>601.26364197575</ele>
        <time>2015-11-08T11:19:40Z</time>
      </trkpt>
      <trkpt lat="45.56473" lon="5.84124">
        <ele>603.92086362241</ele>
        <time>2015-11-08T11:19:50Z</time>
      </trkpt>
      <trkpt lat="45.56475" lon="5.84115">
        <ele>603.92086362241</ele>
        <time>2015-11-08T11:19:55Z</time>
      </trkpt>
      <trkpt lat="45.5648" lon="5.84099">
        <ele>606.78839971361</ele>
        <time>2015-11-08T11:20:05Z</time>
      </trkpt>
      <trkpt lat="45.56483" lon="5.84091">
        <ele>606.78839971361</ele>
        <time>2015-11-08T11:20:10Z</time>
      </trkpt>
      <trkpt lat="45.56478" lon="5.84076">
        <ele>608.79674244023</ele>
        <time>2015-11-08T11:20:20Z</time>
      </trkpt>
      <trkpt lat="45.56472" lon="5.8407">
        <ele>608.79674244023</ele>
        <time>2015-11-08T11:20:25Z</time>
      </trkpt>
      <trkpt lat="45.56462" lon="5.84054">
        <ele>611.29202559225</ele>
        <time>2015-11-08T11:20:35Z</time>
      </trkpt>
      <trkpt lat="45.56459" lon="5.84045">
        <ele>611.29202559225</ele>
        <time>2015-11-08T11:20:40Z</time>
      </trkpt>
      <trkpt lat="45.56456" lon="5.84029">
        <ele>614.05018375265</ele>
        <time>2015-11-08T11:20:50Z</time>
      </trkpt>
      <trkpt lat="45.56454" lon="5.84022">
        <ele>614.05018375265</ele>
        <time>2015-11-08T11:20:55Z</time>
      </trkpt>
      <trkpt lat="45.56453" lon="5.83998">
        <ele>617.30964896241</ele>
        <time>2015-11-08T11:21:10Z</time>
      </trkpt>
      <trkpt lat="45.56454" lon="5.83991">
        <ele>617.30964896241</ele>
        <time>2015-11-08T11:21:15Z</time>
      </trkpt>
      <trkpt lat="45.56458" lon="5.83981">
        <ele>620.20911389162</ele>
        <time>2015-11-08T11:21:25Z</time>
      </trkpt>
      <trkpt lat="45.56462" lon="5.83976">
        <ele>620.20911389162</ele>
        <time>2015-11-08T11:21:30Z</time>
      </trkpt>
      <trkpt lat="45.56462" lon="5.8396">
        <ele>623.04683783467</ele>
        <time>2015-11-08T11:21:40Z</time>
      </trkpt>
      <trkpt lat="45.56463" lon="5.83953">
        <ele>623.04683783467</ele>
        <time>2015-11-08T11:21:45Z</time>
      </trkpt>
      <trkpt lat="45.56464" lon="5.83948">
        <ele>625.65262671711</ele>
        <time>2015-11-08T11:21:55Z</time>
      </trkpt>
      <trkpt lat="45.56462" lon="5.8394">
        <ele>625.65262671711</ele>
        <time>2015-11-08T11:22:00Z</time>
      </trkpt>
      <trkpt lat="45.56462" lon="5.83924">
        <ele>628.86385504659</ele>
        <time>2015-11-08T11:22:10Z</time>
      </trkpt>
      <trkpt lat="45.5646" lon="5.83918">
        <ele>628.86385504659</ele>
        <time>2015-11-08T11:22:15Z</time>
      </trkpt>
      <trkpt lat="45.56455" lon="5.8391">
        <ele>632.79181034397</ele>
        <time>2015-11-08T11:22:25Z</time>
      </trkpt>
      <trkpt lat="45.56451" lon="5.83906">
        <ele>632.79181034397</ele>
        <time>2015-11-08T11:22:30Z</time>
      </trkpt>
      <trkpt lat="45.5644" lon="5.83899">
        <ele>636.8458978914</ele>
        <time>2015-11-08T11:22:40Z</time>
      </trkpt>
      <trkpt lat="45.56436" lon="5.83897">
        <ele>636.8458978914</ele>
        <time>2015-11-08T11:22:45Z</time>
      </trkpt>
      <trkpt lat="45.56443" lon="5.83896">
        <ele>639.5274531257</ele>
        <time>2015-11-08T11:22:55Z</time>
      </trkpt>
      <trkpt lat="45.56447" lon="5.83896">
        <ele>639.5274531257</ele>
        <time>2015-11-08T11:23:00Z</time>
      </trkpt>
      <trkpt lat="45.5646" lon="5.83901">
        <ele>641.75762742283</ele>
        <time>2015-11-08T11:23:15Z</time>
      </trkpt>
      <trkpt lat="45.56463" lon="5.83907">
        <ele>641.75762742283</ele>
        <time>2015-11-08T11:23:20Z</time>
      </trkpt>
      <trkpt lat="45.56471" lon="5.83923">
        <ele>644.13183024444</ele>
        <time>2015-11-08T11:23:30Z</time>
      </trkpt>
      <trkpt lat="45.56475" lon="5.83934">
        <ele>644.13183024444</ele>
        <time>2015-11-08T11:23:35Z</time>
      </trkpt>
      <trkpt lat="45.56481" lon="5.83958">
        <ele>645.76024412839</ele>
        <time>2015-11-08T11:23:45Z</time>
      </trkpt>
      <trkpt lat="45.56482" lon="5.83966">
        <ele>645.76024412839</ele>
        <time>2015-11-08T11:23:50Z</time>
      </trkpt>
      <trkpt lat="45.56487" lon="5.83982">
        <ele>646.87259396835</ele>
        <time>2015-11-08T11:24:00Z</time>
      </trkpt>
      <trkpt lat="45.56488" lon="5.83992">
        <ele>646.87259396835</ele>
        <time>2015-11-08T11:24:05Z</time>
      </trkpt>
      <trkpt lat="45.56495" lon="5.84006">
        <ele>647.17881644034</ele>
        <time>2015-11-08T11:24:15Z</time>
      </trkpt>
      <trkpt lat="45.565" lon="5.84013">
        <ele>647.17881644034</ele>
        <time>2015-11-08T11:24:20Z</time>
      </trkpt>
      <trkpt lat="45.56513" lon="5.84042">
        <ele>646.68626127809</ele>
        <time>2015-11-08T11:24:30Z</time>
      </trkpt>
      <trkpt lat="45.56518" lon="5.84051">
        <ele>646.68626127809</ele>
        <time>2015-11-08T11:24:35Z</time>
      </trkpt>
      <trkpt lat="45.56529" lon="5.84069">
        <ele>646.4416138829</ele>
        <time>2015-11-08T11:24:45Z</time>
      </trkpt>
      <trkpt lat="45.56533" lon="5.84077">
        <ele>646.4416138829</ele>
        <time>2015-11-08T11:24:50Z</time>
      </trkpt>
      <trkpt lat="45.56545" lon="5.84086">
        <ele>645.38194025291</ele>
        <time>2015-11-08T11:25:00Z</time>
      </trkpt>
      <trkpt lat="45.56551" lon="5.84091">
        <ele>645.38194025291</ele>
        <time>2015-11-08T11:25:05Z</time>
      </trkpt>
      <trkpt lat="45.56564" lon="5.84103">
        <ele>644.7295969428</ele>
        <time>2015-11-08T11:25:15Z</time>
      </trkpt>
      <trkpt lat="45.56569" lon="5.8411">
        <ele>644.7295969428</ele>
        <time>2015-11-08T11:25:20Z</time>
      </trkpt>
      <trkpt lat="45.5658" lon="5.84122">
        <ele>644.04509008862</ele>
        <time>2015-11-08T11:25:30Z</time>
      </trkpt>
      <trkpt lat="45.56585" lon="5.84126">
        <ele>644.04509008862</ele>
        <time>2015-11-08T11:25:35Z</time>
      </trkpt>
      <trkpt lat="45.56598" lon="5.84134">
        <ele>643.90120180757</ele>
        <time>2015-11-08T11:25:45Z</time>
      </trkpt>
      <trkpt lat="45.5661" lon="5.84133">
        <ele>643.64528120685</ele>
        <time>2015-11-08T11:25:50Z</time>
      </trkpt>
      <trkpt lat="45.56634" lon="5.84134">
        <ele>643.11957873813</ele>
        <time>2015-11-08T11:26:05Z</time>
      </trkpt>
      <trkpt lat="45.56638" lon="5.84133">
        <ele>643.11957873813</ele>
        <time>2015-11-08T11:26:10Z</time>
      </trkpt>
      <trkpt lat="45.56651" lon="5.84137">
        <ele>642.52443735497</ele>
        <time>2015-11-08T11:26:20Z</time>
      </trkpt>
      <trkpt lat="45.56657" lon="5.84139">
        <ele>642.52443735497</ele>
        <time>2015-11-08T11:26:25Z</time>
      </trkpt>
      <trkpt lat="45.56681" lon="5.84134">
        <ele>641.18085135351</ele>
        <time>2015-11-08T11:26:35Z</time>
      </trkpt>
      <trkpt lat="45.56686" lon="5.84135">
        <ele>641.18085135351</ele>
        <time>2015-11-08T11:26:40Z</time>
      </trkpt>
      <trkpt lat="45.56702" lon="5.84135">
        <ele>639.67219865777</ele>
        <time>2015-11-08T11:26:50Z</time>
      </trkpt>
      <trkpt lat="45.56709" lon="5.84134">
        <ele>639.67219865777</ele>
        <time>2015-11-08T11:26:55Z</time>
      </trkpt>
      <trkpt lat="45.56724" lon="5.84135">
        <ele>637.83313429034</ele>
        <time>2015-11-08T11:27:05Z</time>
      </trkpt>
      <trkpt lat="45.5673" lon="5.84133">
        <ele>637.83313429034</ele>
        <time>2015-11-08T11:27:10Z</time>
      </trkpt>
      <trkpt lat="45.5674" lon="5.84131">
        <ele>634.9347443747</ele>
        <time>2015-11-08T11:27:20Z</time>
      </trkpt>
      <trkpt lat="45.56748" lon="5.84131">
        <ele>634.9347443747</ele>
        <time>2015-11-08T11:27:25Z</time>
      </trkpt>
      <trkpt lat="45.56771" lon="5.84133">
        <ele>632.98493505357</ele>
        <time>2015-11-08T11:27:40Z</time>
      </trkpt>
      <trkpt lat="45.56778" lon="5.84134">
        <ele>632.98493505357</ele>
        <time>2015-11-08T11:27:45Z</time>
      </trkpt>
      <trkpt lat="45.56783" lon="5.84133">
        <ele>630.31044510547</ele>
        <time>2015-11-08T11:27:55Z</time>
      </trkpt>
      <trkpt lat="45.56784" lon="5.84132">
        <ele>630.31044510547</ele>
        <time>2015-11-08T11:28:00Z</time>
      </trkpt>
      <trkpt lat="45.56785" lon="5.84129">
        <ele>630.31044510547</ele>
        <time>2015-11-08T11:28:10Z</time>
      </trkpt>
      <trkpt lat="45.56785" lon="5.84127">
        <ele>630.31044510547</ele>
        <time>2015-11-08T11:28:15Z</time>
      </trkpt>
      <trkpt lat="45.56784" lon="5.84126">
        <ele>630.31044510547</ele>
        <time>2015-11-08T11:28:25Z</time>
      </trkpt>
      <trkpt lat="45.56784" lon="5.84126">
        <ele>630.31044510547</ele>
        <time>2015-11-08T11:28:30Z</time>
      </trkpt>
      <trkpt lat="45.56784" lon="5.84126">
        <ele>630.31044510547</ele>
        <time>2015-11-08T11:28:40Z</time>
      </trkpt>
      <trkpt lat="45.56784" lon="5.84126">
        <ele>630.31044510547</ele>
        <time>2015-11-08T11:28:45Z</time>
      </trkpt>
      <trkpt lat="45.56784" lon="5.84126">
        <ele>630.31044510547</ele>
        <time>2015-11-08T11:28:55Z</time>
      </trkpt>
      <trkpt lat="45.56784" lon="5.84126">
        <ele>630.31044510547</ele>
        <time>2015-11-08T11:29:00Z</time>
      </trkpt>
      <trkpt lat="45.56784" lon="5.84126">
        <ele>630.31044510547</ele>
        <time>2015-11-08T11:29:10Z</time>
      </trkpt>
      <trkpt lat="45.56784" lon="5.84128">
        <ele>630.31044510547</ele>
        <time>2015-11-08T11:29:15Z</time>
      </trkpt>
      <trkpt lat="45.56785" lon="5.84128">
        <ele>630.31044510547</ele>
        <time>2015-11-08T11:29:25Z</time>
      </trkpt>
      <trkpt lat="45.56785" lon="5.8413">
        <ele>627.06325796092</ele>
        <time>2015-11-08T11:29:30Z</time>
      </trkpt>
      <trkpt lat="45.56785" lon="5.8413">
        <ele>627.06325796092</ele>
        <time>2015-11-08T11:29:45Z</time>
      </trkpt>
      <trkpt lat="45.56785" lon="5.84131">
        <ele>627.06325796092</ele>
        <time>2015-11-08T11:29:50Z</time>
      </trkpt>
      <trkpt lat="45.56786" lon="5.84134">
        <ele>627.06325796092</ele>
        <time>2015-11-08T11:30:00Z</time>
      </trkpt>
      <trkpt lat="45.56786" lon="5.84134">
        <ele>627.06325796092</ele>
        <time>2015-11-08T11:30:05Z</time>
      </trkpt>
      <trkpt lat="45.56786" lon="5.84134">
        <ele>627.06325796092</ele>
        <time>2015-11-08T11:30:15Z</time>
      </trkpt>
      <trkpt lat="45.56786" lon="5.84134">
        <ele>627.06325796092</ele>
        <time>2015-11-08T11:30:20Z</time>
      </trkpt>
      <trkpt lat="45.56786" lon="5.84134">
        <ele>627.06325796092</ele>
        <time>2015-11-08T11:30:30Z</time>
      </trkpt>
      <trkpt lat="45.56784" lon="5.84136">
        <ele>627.06325796092</ele>
        <time>2015-11-08T11:30:35Z</time>
      </trkpt>
      <trkpt lat="45.56786" lon="5.84136">
        <ele>627.06325796092</ele>
        <time>2015-11-08T11:30:45Z</time>
      </trkpt>
      <trkpt lat="45.56786" lon="5.84136">
        <ele>627.06325796092</ele>
        <time>2015-11-08T11:30:50Z</time>
      </trkpt>
      <trkpt lat="45.56786" lon="5.84136">
        <ele>627.06325796092</ele>
        <time>2015-11-08T11:31:00Z</time>
      </trkpt>
      <trkpt lat="45.56786" lon="5.84136">
        <ele>627.06325796092</ele>
        <time>2015-11-08T11:31:05Z</time>
      </trkpt>
      <trkpt lat="45.56786" lon="5.84136">
        <ele>627.06325796092</ele>
        <time>2015-11-08T11:31:15Z</time>
      </trkpt>
      <trkpt lat="45.56786" lon="5.84136">
        <ele>627.06325796092</ele>
        <time>2015-11-08T11:31:20Z</time>
      </trkpt>
      <trkpt lat="45.56785" lon="5.84135">
        <ele>627.06325796092</ele>
        <time>2015-11-08T11:31:30Z</time>
      </trkpt>
      <trkpt lat="45.56783" lon="5.84135">
        <ele>624.4663790584</ele>
        <time>2015-11-08T11:31:35Z</time>
      </trkpt>
      <trkpt lat="45.56783" lon="5.84135">
        <ele>624.4663790584</ele>
        <time>2015-11-08T11:31:45Z</time>
      </trkpt>
      <trkpt lat="45.56783" lon="5.84135">
        <ele>624.4663790584</ele>
        <time>2015-11-08T11:31:50Z</time>
      </trkpt>
      <trkpt lat="45.56783" lon="5.84136">
        <ele>624.4663790584</ele>
        <time>2015-11-08T11:32:05Z</time>
      </trkpt>
      <trkpt lat="45.56783" lon="5.84136">
        <ele>624.4663790584</ele>
        <time>2015-11-08T11:32:10Z</time>
      </trkpt>
      <trkpt lat="45.56783" lon="5.84136">
        <ele>624.4663790584</ele>
        <time>2015-11-08T11:32:20Z</time>
      </trkpt>
      <trkpt lat="45.56783" lon="5.84137">
        <ele>624.4663790584</ele>
        <time>2015-11-08T11:32:25Z</time>
      </trkpt>
      <trkpt lat="45.56784" lon="5.84137">
        <ele>624.4663790584</ele>
        <time>2015-11-08T11:32:35Z</time>
      </trkpt>
      <trkpt lat="45.56784" lon="5.84137">
        <ele>624.4663790584</ele>
        <time>2015-11-08T11:32:40Z</time>
      </trkpt>
      <trkpt lat="45.56784" lon="5.84137">
        <ele>624.4663790584</ele>
        <time>2015-11-08T11:32:50Z</time>
      </trkpt>
      <trkpt lat="45.56784" lon="5.84137">
        <ele>624.4663790584</ele>
        <time>2015-11-08T11:32:55Z</time>
      </trkpt>
      <trkpt lat="45.56784" lon="5.84137">
        <ele>624.4663790584</ele>
        <time>2015-11-08T11:33:05Z</time>
      </trkpt>
      <trkpt lat="45.56784" lon="5.84137">
        <ele>624.4663790584</ele>
        <time>2015-11-08T11:33:10Z</time>
      </trkpt>
      <trkpt lat="45.56784" lon="5.84138">
        <ele>624.4663790584</ele>
        <time>2015-11-08T11:33:20Z</time>
      </trkpt>
      <trkpt lat="45.56782" lon="5.84138">
        <ele>624.4663790584</ele>
        <time>2015-11-08T11:33:25Z</time>
      </trkpt>
      <trkpt lat="45.56782" lon="5.84137">
        <ele>624.4663790584</ele>
        <time>2015-11-08T11:33:35Z</time>
      </trkpt>
      <trkpt lat="45.56782" lon="5.84137">
        <ele>624.4663790584</ele>
        <time>2015-11-08T11:33:40Z</time>
      </trkpt>
      <trkpt lat="45.56782" lon="5.84137">
        <ele>624.4663790584</ele>
        <time>2015-11-08T11:33:50Z</time>
      </trkpt>
      <trkpt lat="45.56782" lon="5.84137">
        <ele>624.4663790584</ele>
        <time>2015-11-08T11:33:55Z</time>
      </trkpt>
      <trkpt lat="45.56782" lon="5.84137">
        <ele>624.4663790584</ele>
        <time>2015-11-08T11:34:05Z</time>
      </trkpt>
      <trkpt lat="45.56782" lon="5.84137">
        <ele>624.4663790584</ele>
        <time>2015-11-08T11:34:10Z</time>
      </trkpt>
      <trkpt lat="45.56782" lon="5.84137">
        <ele>624.4663790584</ele>
        <time>2015-11-08T11:34:20Z</time>
      </trkpt>
      <trkpt lat="45.56782" lon="5.84137">
        <ele>624.4663790584</ele>
        <time>2015-11-08T11:34:25Z</time>
      </trkpt>
      <trkpt lat="45.56782" lon="5.84137">
        <ele>624.4663790584</ele>
        <time>2015-11-08T11:34:35Z</time>
      </trkpt>
      <trkpt lat="45.56782" lon="5.84137">
        <ele>624.4663790584</ele>
        <time>2015-11-08T11:34:40Z</time>
      </trkpt>
      <trkpt lat="45.56782" lon="5.84137">
        <ele>624.4663790584</ele>
        <time>2015-11-08T11:34:55Z</time>
      </trkpt>
      <trkpt lat="45.56782" lon="5.84137">
        <ele>624.4663790584</ele>
        <time>2015-11-08T11:35:00Z</time>
      </trkpt>
      <trkpt lat="45.56782" lon="5.84137">
        <ele>624.4663790584</ele>
        <time>2015-11-08T11:35:10Z</time>
      </trkpt>
      <trkpt lat="45.56782" lon="5.84137">
        <ele>624.4663790584</ele>
        <time>2015-11-08T11:35:15Z</time>
      </trkpt>
      <trkpt lat="45.56782" lon="5.84137">
        <ele>624.4663790584</ele>
        <time>2015-11-08T11:35:25Z</time>
      </trkpt>
      <trkpt lat="45.56782" lon="5.84137">
        <ele>624.4663790584</ele>
        <time>2015-11-08T11:35:30Z</time>
      </trkpt>
      <trkpt lat="45.56782" lon="5.84137">
        <ele>624.4663790584</ele>
        <time>2015-11-08T11:35:40Z</time>
      </trkpt>
      <trkpt lat="45.56782" lon="5.84137">
        <ele>624.4663790584</ele>
        <time>2015-11-08T11:35:45Z</time>
      </trkpt>
      <trkpt lat="45.56782" lon="5.84137">
        <ele>624.4663790584</ele>
        <time>2015-11-08T11:35:55Z</time>
      </trkpt>
      <trkpt lat="45.56782" lon="5.84137">
        <ele>624.4663790584</ele>
        <time>2015-11-08T11:36:00Z</time>
      </trkpt>
      <trkpt lat="45.56782" lon="5.84137">
        <ele>624.4663790584</ele>
        <time>2015-11-08T11:36:10Z</time>
      </trkpt>
      <trkpt lat="45.56782" lon="5.84137">
        <ele>624.4663790584</ele>
        <time>2015-11-08T11:36:15Z</time>
      </trkpt>
      <trkpt lat="45.56782" lon="5.84137">
        <ele>624.4663790584</ele>
        <time>2015-11-08T11:36:25Z</time>
      </trkpt>
      <trkpt lat="45.56782" lon="5.84137">
        <ele>624.4663790584</ele>
        <time>2015-11-08T11:36:30Z</time>
      </trkpt>
      <trkpt lat="45.56782" lon="5.84137">
        <ele>624.4663790584</ele>
        <time>2015-11-08T11:36:40Z</time>
      </trkpt>
      <trkpt lat="45.56782" lon="5.84137">
        <ele>624.4663790584</ele>
        <time>2015-11-08T11:36:45Z</time>
      </trkpt>
      <trkpt lat="45.56782" lon="5.84137">
        <ele>624.4663790584</ele>
        <time>2015-11-08T11:37:00Z</time>
      </trkpt>
      <trkpt lat="45.56782" lon="5.84138">
        <ele>624.4663790584</ele>
        <time>2015-11-08T11:37:05Z</time>
      </trkpt>
      <trkpt lat="45.56781" lon="5.84138">
        <ele>624.4663790584</ele>
        <time>2015-11-08T11:37:15Z</time>
      </trkpt>
      <trkpt lat="45.56784" lon="5.8414">
        <ele>622.16650458046</ele>
        <time>2015-11-08T11:37:20Z</time>
      </trkpt>
      <trkpt lat="45.56787" lon="5.84149">
        <ele>622.16650458046</ele>
        <time>2015-11-08T11:37:30Z</time>
      </trkpt>
      <trkpt lat="45.56788" lon="5.84157">
        <ele>619.46046694356</ele>
        <time>2015-11-08T11:37:35Z</time>
      </trkpt>
      <trkpt lat="45.56791" lon="5.84173">
        <ele>617.06665486275</ele>
        <time>2015-11-08T11:37:45Z</time>
      </trkpt>
      <trkpt lat="45.56791" lon="5.84181">
        <ele>617.06665486275</ele>
        <time>2015-11-08T11:37:50Z</time>
      </trkpt>
      <trkpt lat="45.56792" lon="5.84186">
        <ele>614.55424025261</ele>
        <time>2015-11-08T11:38:00Z</time>
      </trkpt>
      <trkpt lat="45.56792" lon="5.84192">
        <ele>614.55424025261</ele>
        <time>2015-11-08T11:38:05Z</time>
      </trkpt>
      <trkpt lat="45.56792" lon="5.84205">
        <ele>611.40876538244</ele>
        <time>2015-11-08T11:38:15Z</time>
      </trkpt>
      <trkpt lat="45.56793" lon="5.84211">
        <ele>611.40876538244</ele>
        <time>2015-11-08T11:38:20Z</time>
      </trkpt>
      <trkpt lat="45.56795" lon="5.84224">
        <ele>607.74586832309</ele>
        <time>2015-11-08T11:38:30Z</time>
      </trkpt>
      <trkpt lat="45.56796" lon="5.84231">
        <ele>607.74586832309</ele>
        <time>2015-11-08T11:38:35Z</time>
      </trkpt>
      <trkpt lat="45.56795" lon="5.84246">
        <ele>603.74585831143</ele>
        <time>2015-11-08T11:38:45Z</time>
      </trkpt>
      <trkpt lat="45.56796" lon="5.84253">
        <ele>603.74585831143</ele>
        <time>2015-11-08T11:38:50Z</time>
      </trkpt>
      <trkpt lat="45.56799" lon="5.84268">
        <ele>599.46110306068</ele>
        <time>2015-11-08T11:39:00Z</time>
      </trkpt>
      <trkpt lat="45.56801" lon="5.84271">
        <ele>599.46110306068</ele>
        <time>2015-11-08T11:39:05Z</time>
      </trkpt>
      <trkpt lat="45.56806" lon="5.84289">
        <ele>595.02702449886</ele>
        <time>2015-11-08T11:39:20Z</time>
      </trkpt>
      <trkpt lat="45.56809" lon="5.84295">
        <ele>595.02702449886</ele>
        <time>2015-11-08T11:39:25Z</time>
      </trkpt>
      <trkpt lat="45.5681" lon="5.84306">
        <ele>590.38179309006</ele>
        <time>2015-11-08T11:39:35Z</time>
      </trkpt>
      <trkpt lat="45.5681" lon="5.84306">
        <ele>590.38179309006</ele>
        <time>2015-11-08T11:39:40Z</time>
      </trkpt>
      <trkpt lat="45.56808" lon="5.84308">
        <ele>590.38179309006</ele>
        <time>2015-11-08T11:39:50Z</time>
      </trkpt>
      <trkpt lat="45.56808" lon="5.84306">
        <ele>590.38179309006</ele>
        <time>2015-11-08T11:39:55Z</time>
      </trkpt>
      <trkpt lat="45.56808" lon="5.84307">
        <ele>590.38179309006</ele>
        <time>2015-11-08T11:40:05Z</time>
      </trkpt>
      <trkpt lat="45.56808" lon="5.84307">
        <ele>590.38179309006</ele>
        <time>2015-11-08T11:40:10Z</time>
      </trkpt>
      <trkpt lat="45.56808" lon="5.84309">
        <ele>590.38179309006</ele>
        <time>2015-11-08T11:40:20Z</time>
      </trkpt>
      <trkpt lat="45.56808" lon="5.84309">
        <ele>590.38179309006</ele>
        <time>2015-11-08T11:40:25Z</time>
      </trkpt>
      <trkpt lat="45.56808" lon="5.8431">
        <ele>590.38179309006</ele>
        <time>2015-11-08T11:40:35Z</time>
      </trkpt>
      <trkpt lat="45.56808" lon="5.84316">
        <ele>585.65566871138</ele>
        <time>2015-11-08T11:40:40Z</time>
      </trkpt>
      <trkpt lat="45.56809" lon="5.84327">
        <ele>585.65566871138</ele>
        <time>2015-11-08T11:40:50Z</time>
      </trkpt>
      <trkpt lat="45.56812" lon="5.84331">
        <ele>580.85387868033</ele>
        <time>2015-11-08T11:40:55Z</time>
      </trkpt>
      <trkpt lat="45.56821" lon="5.84345">
        <ele>576.57192375609</ele>
        <time>2015-11-08T11:41:05Z</time>
      </trkpt>
      <trkpt lat="45.56826" lon="5.84349">
        <ele>576.57192375609</ele>
        <time>2015-11-08T11:41:10Z</time>
      </trkpt>
      <trkpt lat="45.56839" lon="5.84356">
        <ele>572.97058309382</ele>
        <time>2015-11-08T11:41:20Z</time>
      </trkpt>
      <trkpt lat="45.56845" lon="5.8436">
        <ele>572.97058309382</ele>
        <time>2015-11-08T11:41:25Z</time>
      </trkpt>
      <trkpt lat="45.56858" lon="5.84359">
        <ele>569.92268516074</ele>
        <time>2015-11-08T11:41:35Z</time>
      </trkpt>
      <trkpt lat="45.56863" lon="5.84358">
        <ele>569.92268516074</ele>
        <time>2015-11-08T11:41:40Z</time>
      </trkpt>
      <trkpt lat="45.56869" lon="5.84367">
        <ele>566.29965169045</ele>
        <time>2015-11-08T11:41:50Z</time>
      </trkpt>
      <trkpt lat="45.56868" lon="5.84374">
        <ele>566.29965169045</ele>
        <time>2015-11-08T11:41:55Z</time>
      </trkpt>
      <trkpt lat="45.56867" lon="5.84387">
        <ele>562.29636596292</ele>
        <time>2015-11-08T11:42:05Z</time>
      </trkpt>
      <trkpt lat="45.56864" lon="5.84394">
        <ele>562.29636596292</ele>
        <time>2015-11-08T11:42:10Z</time>
      </trkpt>
      <trkpt lat="45.56865" lon="5.84413">
        <ele>558.46874373823</ele>
        <time>2015-11-08T11:42:25Z</time>
      </trkpt>
      <trkpt lat="45.56872" lon="5.84414">
        <ele>558.46874373823</ele>
        <time>2015-11-08T11:42:30Z</time>
      </trkpt>
      <trkpt lat="45.56884" lon="5.84414">
        <ele>554.82658039753</ele>
        <time>2015-11-08T11:42:40Z</time>
      </trkpt>
      <trkpt lat="45.56892" lon="5.8441">
        <ele>554.82658039753</ele>
        <time>2015-11-08T11:42:45Z</time>
      </trkpt>
      <trkpt lat="45.56905" lon="5.84401">
        <ele>551.78154884582</ele>
        <time>2015-11-08T11:42:55Z</time>
      </trkpt>
      <trkpt lat="45.56911" lon="5.84396">
        <ele>551.78154884582</ele>
        <time>2015-11-08T11:43:00Z</time>
      </trkpt>
      <trkpt lat="45.56924" lon="5.84387">
        <ele>550.07330066788</ele>
        <time>2015-11-08T11:43:10Z</time>
      </trkpt>
      <trkpt lat="45.5693" lon="5.84382">
        <ele>550.07330066788</ele>
        <time>2015-11-08T11:43:15Z</time>
      </trkpt>
      <trkpt lat="45.56943" lon="5.84371">
        <ele>548.84104587851</ele>
        <time>2015-11-08T11:43:25Z</time>
      </trkpt>
      <trkpt lat="45.56949" lon="5.84365">
        <ele>548.84104587851</ele>
        <time>2015-11-08T11:43:30Z</time>
      </trkpt>
      <trkpt lat="45.56965" lon="5.84349">
        <ele>548.43843680312</ele>
        <time>2015-11-08T11:43:45Z</time>
      </trkpt>
      <trkpt lat="45.56971" lon="5.84344">
        <ele>548.43843680312</ele>
        <time>2015-11-08T11:43:50Z</time>
      </trkpt>
      <trkpt lat="45.56983" lon="5.84332">
        <ele>548.44112332805</ele>
        <time>2015-11-08T11:44:00Z</time>
      </trkpt>
      <trkpt lat="45.56989" lon="5.84328">
        <ele>548.44112332805</ele>
        <time>2015-11-08T11:44:05Z</time>
      </trkpt>
      <trkpt lat="45.57002" lon="5.84319">
        <ele>548.94448380118</ele>
        <time>2015-11-08T11:44:15Z</time>
      </trkpt>
      <trkpt lat="45.57009" lon="5.84314">
        <ele>548.94448380118</ele>
        <time>2015-11-08T11:44:20Z</time>
      </trkpt>
      <trkpt lat="45.5702" lon="5.84304">
        <ele>549.76142413106</ele>
        <time>2015-11-08T11:44:30Z</time>
      </trkpt>
      <trkpt lat="45.57025" lon="5.84299">
        <ele>549.76142413106</ele>
        <time>2015-11-08T11:44:35Z</time>
      </trkpt>
      <trkpt lat="45.57038" lon="5.84288">
        <ele>551.06336865703</ele>
        <time>2015-11-08T11:44:45Z</time>
      </trkpt>
      <trkpt lat="45.57045" lon="5.84284">
        <ele>551.06336865703</ele>
        <time>2015-11-08T11:44:50Z</time>
      </trkpt>
      <trkpt lat="45.57058" lon="5.84274">
        <ele>552.6185138497</ele>
        <time>2015-11-08T11:45:00Z</time>
      </trkpt>
      <trkpt lat="45.57064" lon="5.84269">
        <ele>552.6185138497</ele>
        <time>2015-11-08T11:45:05Z</time>
      </trkpt>
      <trkpt lat="45.57076" lon="5.84259">
        <ele>554.41299474273</ele>
        <time>2015-11-08T11:45:15Z</time>
      </trkpt>
      <trkpt lat="45.57082" lon="5.84254">
        <ele>554.41299474273</ele>
        <time>2015-11-08T11:45:20Z</time>
      </trkpt>
      <trkpt lat="45.571" lon="5.84239">
        <ele>556.66377606705</ele>
        <time>2015-11-08T11:45:35Z</time>
      </trkpt>
      <trkpt lat="45.57107" lon="5.84235">
        <ele>556.66377606705</ele>
        <time>2015-11-08T11:45:40Z</time>
      </trkpt>
      <trkpt lat="45.5712" lon="5.84226">
        <ele>558.84999168067</ele>
        <time>2015-11-08T11:45:50Z</time>
      </trkpt>
      <trkpt lat="45.57127" lon="5.84223">
        <ele>558.84999168067</ele>
        <time>2015-11-08T11:45:55Z</time>
      </trkpt>
      <trkpt lat="45.57141" lon="5.84218">
        <ele>561.49798024772</ele>
        <time>2015-11-08T11:46:05Z</time>
      </trkpt>
      <trkpt lat="45.57148" lon="5.84216">
        <ele>561.49798024772</ele>
        <time>2015-11-08T11:46:10Z</time>
      </trkpt>
      <trkpt lat="45.57161" lon="5.84207">
        <ele>564.53210704116</ele>
        <time>2015-11-08T11:46:20Z</time>
      </trkpt>
      <trkpt lat="45.57167" lon="5.84203">
        <ele>564.53210704116</ele>
        <time>2015-11-08T11:46:25Z</time>
      </trkpt>
      <trkpt lat="45.57178" lon="5.84195">
        <ele>567.91009070855</ele>
        <time>2015-11-08T11:46:35Z</time>
      </trkpt>
      <trkpt lat="45.57184" lon="5.8419">
        <ele>567.91009070855</ele>
        <time>2015-11-08T11:46:40Z</time>
      </trkpt>
      <trkpt lat="45.57197" lon="5.84181">
        <ele>571.37571958272</ele>
        <time>2015-11-08T11:46:50Z</time>
      </trkpt>
      <trkpt lat="45.57203" lon="5.84175">
        <ele>571.37571958272</ele>
        <time>2015-11-08T11:46:55Z</time>
      </trkpt>
      <trkpt lat="45.57214" lon="5.84164">
        <ele>575.02294482786</ele>
        <time>2015-11-08T11:47:05Z</time>
      </trkpt>
      <trkpt lat="45.57221" lon="5.84159">
        <ele>575.02294482786</ele>
        <time>2015-11-08T11:47:10Z</time>
      </trkpt>
      <trkpt lat="45.57234" lon="5.84153">
        <ele>578.40526094507</ele>
        <time>2015-11-08T11:47:20Z</time>
      </trkpt>
      <trkpt lat="45.57239" lon="5.84147">
        <ele>578.40526094507</ele>
        <time>2015-11-08T11:47:25Z</time>
      </trkpt>
      <trkpt lat="45.5725" lon="5.8414">
        <ele>582.01780489383</ele>
        <time>2015-11-08T11:47:35Z</time>
      </trkpt>
      <trkpt lat="45.57255" lon="5.84138">
        <ele>582.01780489383</ele>
        <time>2015-11-08T11:47:40Z</time>
      </trkpt>
      <trkpt lat="45.57272" lon="5.84122">
        <ele>584.60399748156</ele>
        <time>2015-11-08T11:47:55Z</time>
      </trkpt>
      <trkpt lat="45.57277" lon="5.84115">
        <ele>584.60399748156</ele>
        <time>2015-11-08T11:48:00Z</time>
      </trkpt>
      <trkpt lat="45.57286" lon="5.84098">
        <ele>587.07789796232</ele>
        <time>2015-11-08T11:48:10Z</time>
      </trkpt>
      <trkpt lat="45.5729" lon="5.84089">
        <ele>587.07789796232</ele>
        <time>2015-11-08T11:48:15Z</time>
      </trkpt>
      <trkpt lat="45.57294" lon="5.8407">
        <ele>589.37910155849</ele>
        <time>2015-11-08T11:48:25Z</time>
      </trkpt>
      <trkpt lat="45.57296" lon="5.84061">
        <ele>589.37910155849</ele>
        <time>2015-11-08T11:48:30Z</time>
      </trkpt>
      <trkpt lat="45.57302" lon="5.84043">
        <ele>591.56769629378</ele>
        <time>2015-11-08T11:48:40Z</time>
      </trkpt>
      <trkpt lat="45.57306" lon="5.84035">
        <ele>591.56769629378</ele>
        <time>2015-11-08T11:48:45Z</time>
      </trkpt>
      <trkpt lat="45.57309" lon="5.84019">
        <ele>594.49257697982</ele>
        <time>2015-11-08T11:48:55Z</time>
      </trkpt>
      <trkpt lat="45.57307" lon="5.84018">
        <ele>594.49257697982</ele>
        <time>2015-11-08T11:49:00Z</time>
      </trkpt>
      <trkpt lat="45.57299" lon="5.84026">
        <ele>597.65592692132</ele>
        <time>2015-11-08T11:49:10Z</time>
      </trkpt>
      <trkpt lat="45.57293" lon="5.84028">
        <ele>597.65592692132</ele>
        <time>2015-11-08T11:49:15Z</time>
      </trkpt>
      <trkpt lat="45.57282" lon="5.84031">
        <ele>601.17258837786</ele>
        <time>2015-11-08T11:49:25Z</time>
      </trkpt>
      <trkpt lat="45.57276" lon="5.84034">
        <ele>601.17258837786</ele>
        <time>2015-11-08T11:49:30Z</time>
      </trkpt>
      <trkpt lat="45.5726" lon="5.84042">
        <ele>605.50858025937</ele>
        <time>2015-11-08T11:49:45Z</time>
      </trkpt>
      <trkpt lat="45.57255" lon="5.84044">
        <ele>605.50858025937</ele>
        <time>2015-11-08T11:49:50Z</time>
      </trkpt>
      <trkpt lat="45.57244" lon="5.84048">
        <ele>609.83996176112</ele>
        <time>2015-11-08T11:50:00Z</time>
      </trkpt>
      <trkpt lat="45.57237" lon="5.84046">
        <ele>609.83996176112</ele>
        <time>2015-11-08T11:50:05Z</time>
      </trkpt>
      <trkpt lat="45.57223" lon="5.84043">
        <ele>614.71509829041</ele>
        <time>2015-11-08T11:50:15Z</time>
      </trkpt>
      <trkpt lat="45.57219" lon="5.84043">
        <ele>614.71509829041</ele>
        <time>2015-11-08T11:50:20Z</time>
      </trkpt>
      <trkpt lat="45.57207" lon="5.8404">
        <ele>618.78188232651</ele>
        <time>2015-11-08T11:50:30Z</time>
      </trkpt>
      <trkpt lat="45.57201" lon="5.84039">
        <ele>618.78188232651</ele>
        <time>2015-11-08T11:50:35Z</time>
      </trkpt>
      <trkpt lat="45.57191" lon="5.84042">
        <ele>623.29771762014</ele>
        <time>2015-11-08T11:50:45Z</time>
      </trkpt>
      <trkpt lat="45.57186" lon="5.84042">
        <ele>623.29771762014</ele>
        <time>2015-11-08T11:50:50Z</time>
      </trkpt>
      <trkpt lat="45.57172" lon="5.84038">
        <ele>627.43804057258</ele>
        <time>2015-11-08T11:51:00Z</time>
      </trkpt>
      <trkpt lat="45.57165" lon="5.84038">
        <ele>627.43804057258</ele>
        <time>2015-11-08T11:51:05Z</time>
      </trkpt>
      <trkpt lat="45.57155" lon="5.84036">
        <ele>631.88142921648</ele>
        <time>2015-11-08T11:51:15Z</time>
      </trkpt>
      <trkpt lat="45.57148" lon="5.84041">
        <ele>631.88142921648</ele>
        <time>2015-11-08T11:51:20Z</time>
      </trkpt>
      <trkpt lat="45.57134" lon="5.84047">
        <ele>635.12332699203</ele>
        <time>2015-11-08T11:51:30Z</time>
      </trkpt>
      <trkpt lat="45.57128" lon="5.84046">
        <ele>635.12332699203</ele>
        <time>2015-11-08T11:51:35Z</time>
      </trkpt>
      <trkpt lat="45.57104" lon="5.84043">
        <ele>637.89191638402</ele>
        <time>2015-11-08T11:51:50Z</time>
      </trkpt>
      <trkpt lat="45.57097" lon="5.84045">
        <ele>637.89191638402</ele>
        <time>2015-11-08T11:51:55Z</time>
      </trkpt>
      <trkpt lat="45.57083" lon="5.84045">
        <ele>640.43128889145</ele>
        <time>2015-11-08T11:52:05Z</time>
      </trkpt>
      <trkpt lat="45.57076" lon="5.84045">
        <ele>640.43128889145</ele>
        <time>2015-11-08T11:52:10Z</time>
      </trkpt>
      <trkpt lat="45.57069" lon="5.84045">
        <ele>642.75247995725</ele>
        <time>2015-11-08T11:52:20Z</time>
      </trkpt>
      <trkpt lat="45.57063" lon="5.84045">
        <ele>642.75247995725</ele>
        <time>2015-11-08T11:52:25Z</time>
      </trkpt>
      <trkpt lat="45.5705" lon="5.84042">
        <ele>645.48639161581</ele>
        <time>2015-11-08T11:52:35Z</time>
      </trkpt>
      <trkpt lat="45.57043" lon="5.84041">
        <ele>645.48639161581</ele>
        <time>2015-11-08T11:52:40Z</time>
      </trkpt>
      <trkpt lat="45.57031" lon="5.84032">
        <ele>648.10714064594</ele>
        <time>2015-11-08T11:52:50Z</time>
      </trkpt>
      <trkpt lat="45.57024" lon="5.84029">
        <ele>648.10714064594</ele>
        <time>2015-11-08T11:52:55Z</time>
      </trkpt>
      <trkpt lat="45.5701" lon="5.84029">
        <ele>650.92076535183</ele>
        <time>2015-11-08T11:53:05Z</time>
      </trkpt>
      <trkpt lat="45.57004" lon="5.84027">
        <ele>650.92076535183</ele>
        <time>2015-11-08T11:53:10Z</time>
      </trkpt>
      <trkpt lat="45.56996" lon="5.8401">
        <ele>654.36915419559</ele>
        <time>2015-11-08T11:53:25Z</time>
      </trkpt>
      <trkpt lat="45.56997" lon="5.84003">
        <ele>654.36915419559</ele>
        <time>2015-11-08T11:53:30Z</time>
      </trkpt>
      <trkpt lat="45.56996" lon="5.83987">
        <ele>657.24624850962</ele>
        <time>2015-11-08T11:53:40Z</time>
      </trkpt>
      <trkpt lat="45.56996" lon="5.83977">
        <ele>657.24624850962</ele>
        <time>2015-11-08T11:53:45Z</time>
      </trkpt>
      <trkpt lat="45.56995" lon="5.8396">
        <ele>660.30996344391</ele>
        <time>2015-11-08T11:53:55Z</time>
      </trkpt>
      <trkpt lat="45.56994" lon="5.83951">
        <ele>660.30996344391</ele>
        <time>2015-11-08T11:54:00Z</time>
      </trkpt>
      <trkpt lat="45.56993" lon="5.83938">
        <ele>664.80995959051</ele>
        <time>2015-11-08T11:54:10Z</time>
      </trkpt>
      <trkpt lat="45.5699" lon="5.83929">
        <ele>664.80995959051</ele>
        <time>2015-11-08T11:54:15Z</time>
      </trkpt>
      <trkpt lat="45.56989" lon="5.83914">
        <ele>669.2487404941</ele>
        <time>2015-11-08T11:54:25Z</time>
      </trkpt>
      <trkpt lat="45.56988" lon="5.83905">
        <ele>669.2487404941</ele>
        <time>2015-11-08T11:54:30Z</time>
      </trkpt>
      <trkpt lat="45.56988" lon="5.83867">
        <ele>673.01749910776</ele>
        <time>2015-11-08T11:54:40Z</time>
      </trkpt>
      <trkpt lat="45.56989" lon="5.83857">
        <ele>673.01749910776</ele>
        <time>2015-11-08T11:54:45Z</time>
      </trkpt>
      <trkpt lat="45.56991" lon="5.8384">
        <ele>677.12515178621</ele>
        <time>2015-11-08T11:54:55Z</time>
      </trkpt>
      <trkpt lat="45.5699" lon="5.83834">
        <ele>677.12515178621</ele>
        <time>2015-11-08T11:55:00Z</time>
      </trkpt>
      <trkpt lat="45.56978" lon="5.83826">
        <ele>680.94945561151</ele>
        <time>2015-11-08T11:55:10Z</time>
      </trkpt>
      <trkpt lat="45.56974" lon="5.83823">
        <ele>680.94945561151</ele>
        <time>2015-11-08T11:55:15Z</time>
      </trkpt>
      <trkpt lat="45.56957" lon="5.83816">
        <ele>685.18315274748</ele>
        <time>2015-11-08T11:55:30Z</time>
      </trkpt>
      <trkpt lat="45.5695" lon="5.83811">
        <ele>685.18315274748</ele>
        <time>2015-11-08T11:55:35Z</time>
      </trkpt>
      <trkpt lat="45.5693" lon="5.83804">
        <ele>689.91962424805</ele>
        <time>2015-11-08T11:55:45Z</time>
      </trkpt>
      <trkpt lat="45.56924" lon="5.83803">
        <ele>689.91962424805</ele>
        <time>2015-11-08T11:55:50Z</time>
      </trkpt>
      <trkpt lat="45.5691" lon="5.83805">
        <ele>694.4660753288</ele>
        <time>2015-11-08T11:56:00Z</time>
      </trkpt>
      <trkpt lat="45.56905" lon="5.83808">
        <ele>694.4660753288</ele>
        <time>2015-11-08T11:56:05Z</time>
      </trkpt>
      <trkpt lat="45.56892" lon="5.83813">
        <ele>698.78669467827</ele>
        <time>2015-11-08T11:56:15Z</time>
      </trkpt>
      <trkpt lat="45.56887" lon="5.83811">
        <ele>698.78669467827</ele>
        <time>2015-11-08T11:56:20Z</time>
      </trkpt>
      <trkpt lat="45.56876" lon="5.83813">
        <ele>703.62742444318</ele>
        <time>2015-11-08T11:56:30Z</time>
      </trkpt>
      <trkpt lat="45.56872" lon="5.83816">
        <ele>703.62742444318</ele>
        <time>2015-11-08T11:56:35Z</time>
      </trkpt>
      <trkpt lat="45.56858" lon="5.83818">
        <ele>709.4908950165</ele>
        <time>2015-11-08T11:56:45Z</time>
      </trkpt>
      <trkpt lat="45.56853" lon="5.83817">
        <ele>709.4908950165</ele>
        <time>2015-11-08T11:56:50Z</time>
      </trkpt>
      <trkpt lat="45.56838" lon="5.83812">
        <ele>714.44798635232</ele>
        <time>2015-11-08T11:57:00Z</time>
      </trkpt>
      <trkpt lat="45.56832" lon="5.83809">
        <ele>714.44798635232</ele>
        <time>2015-11-08T11:57:05Z</time>
      </trkpt>
      <trkpt lat="45.56818" lon="5.83805">
        <ele>718.27051825957</ele>
        <time>2015-11-08T11:57:15Z</time>
      </trkpt>
      <trkpt lat="45.56809" lon="5.83806">
        <ele>718.27051825957</ele>
        <time>2015-11-08T11:57:20Z</time>
      </trkpt>
      <trkpt lat="45.56788" lon="5.83814">
        <ele>720.93787861162</ele>
        <time>2015-11-08T11:57:35Z</time>
      </trkpt>
      <trkpt lat="45.56772" lon="5.83821">
        <ele>723.2270891274</ele>
        <time>2015-11-08T11:57:40Z</time>
      </trkpt>
      <trkpt lat="45.5676" lon="5.83824">
        <ele>725.61441417281</ele>
        <time>2015-11-08T11:57:50Z</time>
      </trkpt>
      <trkpt lat="45.56755" lon="5.83827">
        <ele>725.61441417281</ele>
        <time>2015-11-08T11:57:55Z</time>
      </trkpt>
      <trkpt lat="45.56742" lon="5.8383">
        <ele>726.88380553324</ele>
        <time>2015-11-08T11:58:05Z</time>
      </trkpt>
      <trkpt lat="45.56736" lon="5.8383">
        <ele>726.88380553324</ele>
        <time>2015-11-08T11:58:10Z</time>
      </trkpt>
      <trkpt lat="45.56721" lon="5.8383">
        <ele>727.56916024376</ele>
        <time>2015-11-08T11:58:20Z</time>
      </trkpt>
      <trkpt lat="45.56714" lon="5.8383">
        <ele>727.56916024376</ele>
        <time>2015-11-08T11:58:25Z</time>
      </trkpt>
      <trkpt lat="45.56701" lon="5.8383">
        <ele>729.72336894022</ele>
        <time>2015-11-08T11:58:35Z</time>
      </trkpt>
      <trkpt lat="45.56695" lon="5.83826">
        <ele>729.72336894022</ele>
        <time>2015-11-08T11:58:40Z</time>
      </trkpt>
      <trkpt lat="45.56692" lon="5.83814">
        <ele>732.37673449243</ele>
        <time>2015-11-08T11:58:50Z</time>
      </trkpt>
      <trkpt lat="45.56691" lon="5.8381">
        <ele>732.37673449243</ele>
        <time>2015-11-08T11:58:55Z</time>
      </trkpt>
      <trkpt lat="45.56687" lon="5.83798">
        <ele>734.98979727556</ele>
        <time>2015-11-08T11:59:05Z</time>
      </trkpt>
      <trkpt lat="45.56683" lon="5.83783">
        <ele>737.8411480516</ele>
        <time>2015-11-08T11:59:10Z</time>
      </trkpt>
      <trkpt lat="45.5668" lon="5.83769">
        <ele>739.87692597575</ele>
        <time>2015-11-08T11:59:20Z</time>
      </trkpt>
      <trkpt lat="45.56677" lon="5.8376">
        <ele>739.87692597575</ele>
        <time>2015-11-08T11:59:25Z</time>
      </trkpt>
      <trkpt lat="45.56671" lon="5.83742">
        <ele>741.29035296327</ele>
        <time>2015-11-08T11:59:35Z</time>
      </trkpt>
      <trkpt lat="45.56666" lon="5.83731">
        <ele>741.29035296327</ele>
        <time>2015-11-08T11:59:40Z</time>
      </trkpt>
      <trkpt lat="45.56662" lon="5.83721">
        <ele>743.31427739056</ele>
        <time>2015-11-08T11:59:50Z</time>
      </trkpt>
      <trkpt lat="45.56661" lon="5.83713">
        <ele>743.31427739056</ele>
        <time>2015-11-08T11:59:55Z</time>
      </trkpt>
      <trkpt lat="45.56653" lon="5.83694">
        <ele>745.37439473833</ele>
        <time>2015-11-08T12:00:05Z</time>
      </trkpt>
      <trkpt lat="45.56651" lon="5.83685">
        <ele>745.37439473833</ele>
        <time>2015-11-08T12:00:10Z</time>
      </trkpt>
      <trkpt lat="45.56647" lon="5.83665">
        <ele>747.08262851222</ele>
        <time>2015-11-08T12:00:20Z</time>
      </trkpt>
      <trkpt lat="45.56644" lon="5.83658">
        <ele>747.08262851222</ele>
        <time>2015-11-08T12:00:25Z</time>
      </trkpt>
      <trkpt lat="45.56636" lon="5.83639">
        <ele>748.08041081689</ele>
        <time>2015-11-08T12:00:40Z</time>
      </trkpt>
      <trkpt lat="45.56634" lon="5.83632">
        <ele>748.08041081689</ele>
        <time>2015-11-08T12:00:45Z</time>
      </trkpt>
      <trkpt lat="45.56633" lon="5.83613">
        <ele>748.34013646321</ele>
        <time>2015-11-08T12:00:55Z</time>
      </trkpt>
      <trkpt lat="45.56635" lon="5.83601">
        <ele>748.34013646321</ele>
        <time>2015-11-08T12:01:00Z</time>
      </trkpt>
      <trkpt lat="45.56637" lon="5.83583">
        <ele>747.10330576842</ele>
        <time>2015-11-08T12:01:10Z</time>
      </trkpt>
      <trkpt lat="45.5664" lon="5.83574">
        <ele>747.10330576842</ele>
        <time>2015-11-08T12:01:15Z</time>
      </trkpt>
      <trkpt lat="45.56649" lon="5.83554">
        <ele>747.53346702158</ele>
        <time>2015-11-08T12:01:25Z</time>
      </trkpt>
      <trkpt lat="45.56651" lon="5.8354">
        <ele>748.13281452623</ele>
        <time>2015-11-08T12:01:30Z</time>
      </trkpt>
      <trkpt lat="45.5665" lon="5.83519">
        <ele>747.70034420811</ele>
        <time>2015-11-08T12:01:40Z</time>
      </trkpt>
      <trkpt lat="45.5665" lon="5.8351">
        <ele>747.70034420811</ele>
        <time>2015-11-08T12:01:45Z</time>
      </trkpt>
      <trkpt lat="45.56658" lon="5.83494">
        <ele>747.24448799949</ele>
        <time>2015-11-08T12:01:55Z</time>
      </trkpt>
      <trkpt lat="45.56659" lon="5.83485">
        <ele>747.24448799949</ele>
        <time>2015-11-08T12:02:00Z</time>
      </trkpt>
      <trkpt lat="45.56663" lon="5.83475">
        <ele>747.31042850595</ele>
        <time>2015-11-08T12:02:10Z</time>
      </trkpt>
      <trkpt lat="45.56665" lon="5.83473">
        <ele>747.31042850595</ele>
        <time>2015-11-08T12:02:15Z</time>
      </trkpt>
      <trkpt lat="45.56676" lon="5.83467">
        <ele>747.81082718125</ele>
        <time>2015-11-08T12:02:30Z</time>
      </trkpt>
      <trkpt lat="45.5668" lon="5.83468">
        <ele>747.81082718125</ele>
        <time>2015-11-08T12:02:35Z</time>
      </trkpt>
      <trkpt lat="45.56693" lon="5.83471">
        <ele>748.62014207768</ele>
        <time>2015-11-08T12:02:45Z</time>
      </trkpt>
      <trkpt lat="45.56696" lon="5.83471">
        <ele>748.62014207768</ele>
        <time>2015-11-08T12:02:50Z</time>
      </trkpt>
      <trkpt lat="45.56706" lon="5.83472">
        <ele>749.28955343715</ele>
        <time>2015-11-08T12:03:00Z</time>
      </trkpt>
      <trkpt lat="45.56711" lon="5.8347">
        <ele>749.28955343715</ele>
        <time>2015-11-08T12:03:05Z</time>
      </trkpt>
      <trkpt lat="45.56727" lon="5.83473">
        <ele>749.34577342877</ele>
        <time>2015-11-08T12:03:15Z</time>
      </trkpt>
      <trkpt lat="45.56736" lon="5.83471">
        <ele>748.45268484941</ele>
        <time>2015-11-08T12:03:20Z</time>
      </trkpt>
      <trkpt lat="45.56755" lon="5.83466">
        <ele>747.31009762794</ele>
        <time>2015-11-08T12:03:30Z</time>
      </trkpt>
      <trkpt lat="45.56761" lon="5.83467">
        <ele>747.31009762794</ele>
        <time>2015-11-08T12:03:35Z</time>
      </trkpt>
      <trkpt lat="45.56774" lon="5.83464">
        <ele>746.76865298909</ele>
        <time>2015-11-08T12:03:45Z</time>
      </trkpt>
      <trkpt lat="45.5678" lon="5.83462">
        <ele>746.76865298909</ele>
        <time>2015-11-08T12:03:50Z</time>
      </trkpt>
      <trkpt lat="45.56791" lon="5.83458">
        <ele>746.14465507196</ele>
        <time>2015-11-08T12:04:00Z</time>
      </trkpt>
      <trkpt lat="45.56796" lon="5.8346">
        <ele>746.14465507196</ele>
        <time>2015-11-08T12:04:05Z</time>
      </trkpt>
      <trkpt lat="45.56806" lon="5.83458">
        <ele>744.40110950719</ele>
        <time>2015-11-08T12:04:15Z</time>
      </trkpt>
      <trkpt lat="45.56812" lon="5.83461">
        <ele>744.40110950719</ele>
        <time>2015-11-08T12:04:20Z</time>
      </trkpt>
      <trkpt lat="45.56827" lon="5.83455">
        <ele>740.92594807548</ele>
        <time>2015-11-08T12:04:30Z</time>
      </trkpt>
      <trkpt lat="45.56831" lon="5.83451">
        <ele>740.92594807548</ele>
        <time>2015-11-08T12:04:35Z</time>
      </trkpt>
      <trkpt lat="45.56843" lon="5.83448">
        <ele>736.69863470081</ele>
        <time>2015-11-08T12:04:45Z</time>
      </trkpt>
      <trkpt lat="45.56851" lon="5.83447">
        <ele>736.69863470081</ele>
        <time>2015-11-08T12:04:50Z</time>
      </trkpt>
      <trkpt lat="45.56874" lon="5.83441">
        <ele>731.74941236455</ele>
        <time>2015-11-08T12:05:05Z</time>
      </trkpt>
      <trkpt lat="45.56884" lon="5.83431">
        <ele>727.18883054774</ele>
        <time>2015-11-08T12:05:10Z</time>
      </trkpt>
      <trkpt lat="45.56919" lon="5.83393">
        <ele>723.19415207038</ele>
        <time>2015-11-08T12:05:20Z</time>
      </trkpt>
      <trkpt lat="45.56926" lon="5.83391">
        <ele>723.19415207038</ele>
        <time>2015-11-08T12:05:25Z</time>
      </trkpt>
      <trkpt lat="45.56935" lon="5.83389">
        <ele>719.94205579941</ele>
        <time>2015-11-08T12:05:35Z</time>
      </trkpt>
      <trkpt lat="45.56938" lon="5.83386">
        <ele>719.94205579941</ele>
        <time>2015-11-08T12:05:40Z</time>
      </trkpt>
      <trkpt lat="45.56949" lon="5.83386">
        <ele>717.26229748085</ele>
        <time>2015-11-08T12:05:50Z</time>
      </trkpt>
      <trkpt lat="45.56957" lon="5.83387">
        <ele>717.26229748085</ele>
        <time>2015-11-08T12:05:55Z</time>
      </trkpt>
      <trkpt lat="45.56974" lon="5.83381">
        <ele>714.87982640724</ele>
        <time>2015-11-08T12:06:05Z</time>
      </trkpt>
      <trkpt lat="45.56982" lon="5.83376">
        <ele>714.87982640724</ele>
        <time>2015-11-08T12:06:10Z</time>
      </trkpt>
      <trkpt lat="45.56993" lon="5.83362">
        <ele>712.99969517834</ele>
        <time>2015-11-08T12:06:20Z</time>
      </trkpt>
      <trkpt lat="45.56999" lon="5.83356">
        <ele>712.99969517834</ele>
        <time>2015-11-08T12:06:25Z</time>
      </trkpt>
      <trkpt lat="45.57009" lon="5.83355">
        <ele>712.9629527796</ele>
        <time>2015-11-08T12:06:35Z</time>
      </trkpt>
      <trkpt lat="45.57014" lon="5.83358">
        <ele>712.9629527796</ele>
        <time>2015-11-08T12:06:40Z</time>
      </trkpt>
      <trkpt lat="45.57022" lon="5.83351">
        <ele>711.7552708894</ele>
        <time>2015-11-08T12:06:50Z</time>
      </trkpt>
      <trkpt lat="45.57027" lon="5.8335">
        <ele>711.7552708894</ele>
        <time>2015-11-08T12:06:55Z</time>
      </trkpt>
      <trkpt lat="45.5704" lon="5.83352">
        <ele>709.16622139326</ele>
        <time>2015-11-08T12:07:05Z</time>
      </trkpt>
      <trkpt lat="45.57059" lon="5.83352">
        <ele>706.87775898482</ele>
        <time>2015-11-08T12:07:10Z</time>
      </trkpt>
      <trkpt lat="45.57084" lon="5.83351">
        <ele>704.84741883326</ele>
        <time>2015-11-08T12:07:25Z</time>
      </trkpt>
      <trkpt lat="45.57088" lon="5.83348">
        <ele>704.84741883326</ele>
        <time>2015-11-08T12:07:30Z</time>
      </trkpt>
      <trkpt lat="45.57098" lon="5.83346">
        <ele>701.82421461092</ele>
        <time>2015-11-08T12:07:40Z</time>
      </trkpt>
      <trkpt lat="45.57105" lon="5.83345">
        <ele>701.82421461092</ele>
        <time>2015-11-08T12:07:45Z</time>
      </trkpt>
      <trkpt lat="45.57112" lon="5.8334">
        <ele>699.02929629235</ele>
        <time>2015-11-08T12:07:55Z</time>
      </trkpt>
      <trkpt lat="45.5712" lon="5.83337">
        <ele>699.02929629235</ele>
        <time>2015-11-08T12:08:00Z</time>
      </trkpt>
      <trkpt lat="45.57134" lon="5.83333">
        <ele>695.87816822677</ele>
        <time>2015-11-08T12:08:10Z</time>
      </trkpt>
      <trkpt lat="45.57133" lon="5.83334">
        <ele>695.87816822677</ele>
        <time>2015-11-08T12:08:15Z</time>
      </trkpt>
      <trkpt lat="45.57132" lon="5.83336">
        <ele>695.87816822677</ele>
        <time>2015-11-08T12:08:25Z</time>
      </trkpt>
      <trkpt lat="45.57132" lon="5.83336">
        <ele>695.87816822677</ele>
        <time>2015-11-08T12:08:30Z</time>
      </trkpt>
      <trkpt lat="45.57137" lon="5.83336">
        <ele>695.87816822677</ele>
        <time>2015-11-08T12:08:40Z</time>
      </trkpt>
      <trkpt lat="45.57142" lon="5.83335">
        <ele>692.53603963124</ele>
        <time>2015-11-08T12:08:45Z</time>
      </trkpt>
      <trkpt lat="45.57154" lon="5.83334">
        <ele>688.60852076671</ele>
        <time>2015-11-08T12:08:55Z</time>
      </trkpt>
      <trkpt lat="45.5716" lon="5.83336">
        <ele>688.60852076671</ele>
        <time>2015-11-08T12:09:00Z</time>
      </trkpt>
      <trkpt lat="45.57169" lon="5.8334">
        <ele>684.37995853757</ele>
        <time>2015-11-08T12:09:10Z</time>
      </trkpt>
      <trkpt lat="45.57175" lon="5.83338">
        <ele>684.37995853757</ele>
        <time>2015-11-08T12:09:15Z</time>
      </trkpt>
      <trkpt lat="45.57186" lon="5.83333">
        <ele>680.24397667459</ele>
        <time>2015-11-08T12:09:25Z</time>
      </trkpt>
      <trkpt lat="45.57188" lon="5.83332">
        <ele>680.24397667459</ele>
        <time>2015-11-08T12:09:30Z</time>
      </trkpt>
      <trkpt lat="45.572" lon="5.83329">
        <ele>676.56464189787</ele>
        <time>2015-11-08T12:09:40Z</time>
      </trkpt>
      <trkpt lat="45.57207" lon="5.83326">
        <ele>676.56464189787</ele>
        <time>2015-11-08T12:09:45Z</time>
      </trkpt>
      <trkpt lat="45.57226" lon="5.83323">
        <ele>672.35178876507</ele>
        <time>2015-11-08T12:10:00Z</time>
      </trkpt>
      <trkpt lat="45.57234" lon="5.83321">
        <ele>672.35178876507</ele>
        <time>2015-11-08T12:10:05Z</time>
      </trkpt>
      <trkpt lat="45.57246" lon="5.83321">
        <ele>667.26554335203</ele>
        <time>2015-11-08T12:10:15Z</time>
      </trkpt>
      <trkpt lat="45.57251" lon="5.83319">
        <ele>667.26554335203</ele>
        <time>2015-11-08T12:10:20Z</time>
      </trkpt>
      <trkpt lat="45.57263" lon="5.83321">
        <ele>661.72802577198</ele>
        <time>2015-11-08T12:10:30Z</time>
      </trkpt>
      <trkpt lat="45.57268" lon="5.83324">
        <ele>661.72802577198</ele>
        <time>2015-11-08T12:10:35Z</time>
      </trkpt>
      <trkpt lat="45.57288" lon="5.83318">
        <ele>658.14877855629</ele>
        <time>2015-11-08T12:10:45Z</time>
      </trkpt>
      <trkpt lat="45.57291" lon="5.83313">
        <ele>658.14877855629</ele>
        <time>2015-11-08T12:10:50Z</time>
      </trkpt>
      <trkpt lat="45.57303" lon="5.83303">
        <ele>655.09403255531</ele>
        <time>2015-11-08T12:11:00Z</time>
      </trkpt>
      <trkpt lat="45.57309" lon="5.83299">
        <ele>655.09403255531</ele>
        <time>2015-11-08T12:11:05Z</time>
      </trkpt>
      <trkpt lat="45.57323" lon="5.83291">
        <ele>653.26545374848</ele>
        <time>2015-11-08T12:11:15Z</time>
      </trkpt>
      <trkpt lat="45.57329" lon="5.83286">
        <ele>653.26545374848</ele>
        <time>2015-11-08T12:11:20Z</time>
      </trkpt>
      <trkpt lat="45.57343" lon="5.83274">
        <ele>652.12764211842</ele>
        <time>2015-11-08T12:11:30Z</time>
      </trkpt>
      <trkpt lat="45.57349" lon="5.83267">
        <ele>652.12764211842</ele>
        <time>2015-11-08T12:11:35Z</time>
      </trkpt>
      <trkpt lat="45.57357" lon="5.83252">
        <ele>651.22547435361</ele>
        <time>2015-11-08T12:11:45Z</time>
      </trkpt>
      <trkpt lat="45.57362" lon="5.83245">
        <ele>651.22547435361</ele>
        <time>2015-11-08T12:11:50Z</time>
      </trkpt>
      <trkpt lat="45.57372" lon="5.8323">
        <ele>651.21711146416</ele>
        <time>2015-11-08T12:12:00Z</time>
      </trkpt>
      <trkpt lat="45.57376" lon="5.83223">
        <ele>651.21711146416</ele>
        <time>2015-11-08T12:12:05Z</time>
      </trkpt>
      <trkpt lat="45.57388" lon="5.83209">
        <ele>650.5046665528</ele>
        <time>2015-11-08T12:12:15Z</time>
      </trkpt>
      <trkpt lat="45.57394" lon="5.83204">
        <ele>650.5046665528</ele>
        <time>2015-11-08T12:12:20Z</time>
      </trkpt>
      <trkpt lat="45.57405" lon="5.83192">
        <ele>651.38506231276</ele>
        <time>2015-11-08T12:12:30Z</time>
      </trkpt>
      <trkpt lat="45.57411" lon="5.83187">
        <ele>651.38506231276</ele>
        <time>2015-11-08T12:12:35Z</time>
      </trkpt>
      <trkpt lat="45.57422" lon="5.83177">
        <ele>652.36460898608</ele>
        <time>2015-11-08T12:12:45Z</time>
      </trkpt>
      <trkpt lat="45.57428" lon="5.83171">
        <ele>652.36460898608</ele>
        <time>2015-11-08T12:12:50Z</time>
      </trkpt>
      <trkpt lat="45.57445" lon="5.83157">
        <ele>652.28945309492</ele>
        <time>2015-11-08T12:13:05Z</time>
      </trkpt>
      <trkpt lat="45.57452" lon="5.83153">
        <ele>652.28945309492</ele>
        <time>2015-11-08T12:13:10Z</time>
      </trkpt>
      <trkpt lat="45.57465" lon="5.83147">
        <ele>653.65285377055</ele>
        <time>2015-11-08T12:13:20Z</time>
      </trkpt>
      <trkpt lat="45.57471" lon="5.83142">
        <ele>653.65285377055</ele>
        <time>2015-11-08T12:13:25Z</time>
      </trkpt>
      <trkpt lat="45.57484" lon="5.83136">
        <ele>655.67678557152</ele>
        <time>2015-11-08T12:13:35Z</time>
      </trkpt>
      <trkpt lat="45.57491" lon="5.83132">
        <ele>655.67678557152</ele>
        <time>2015-11-08T12:13:40Z</time>
      </trkpt>
      <trkpt lat="45.57505" lon="5.83129">
        <ele>658.28694405481</ele>
        <time>2015-11-08T12:13:50Z</time>
      </trkpt>
      <trkpt lat="45.57511" lon="5.83128">
        <ele>658.28694405481</ele>
        <time>2015-11-08T12:13:55Z</time>
      </trkpt>
      <trkpt lat="45.57526" lon="5.83131">
        <ele>661.87395458802</ele>
        <time>2015-11-08T12:14:05Z</time>
      </trkpt>
      <trkpt lat="45.57533" lon="5.83133">
        <ele>661.87395458802</ele>
        <time>2015-11-08T12:14:10Z</time>
      </trkpt>
      <trkpt lat="45.57546" lon="5.83134">
        <ele>666.24938895007</ele>
        <time>2015-11-08T12:14:20Z</time>
      </trkpt>
      <trkpt lat="45.57554" lon="5.83134">
        <ele>666.24938895007</ele>
        <time>2015-11-08T12:14:25Z</time>
      </trkpt>
      <trkpt lat="45.57565" lon="5.83141">
        <ele>670.54476537543</ele>
        <time>2015-11-08T12:14:35Z</time>
      </trkpt>
      <trkpt lat="45.57571" lon="5.83146">
        <ele>670.54476537543</ele>
        <time>2015-11-08T12:14:40Z</time>
      </trkpt>
      <trkpt lat="45.57603" lon="5.83146">
        <ele>674.12865329903</ele>
        <time>2015-11-08T12:14:50Z</time>
      </trkpt>
      <trkpt lat="45.57614" lon="5.8314">
        <ele>677.8304304203</ele>
        <time>2015-11-08T12:14:55Z</time>
      </trkpt>
      <trkpt lat="45.57625" lon="5.83143">
        <ele>681.20786135139</ele>
        <time>2015-11-08T12:15:05Z</time>
      </trkpt>
      <trkpt lat="45.57629" lon="5.83141">
        <ele>681.20786135139</ele>
        <time>2015-11-08T12:15:10Z</time>
      </trkpt>
      <trkpt lat="45.57639" lon="5.83135">
        <ele>684.0108386931</ele>
        <time>2015-11-08T12:15:20Z</time>
      </trkpt>
      <trkpt lat="45.57645" lon="5.83133">
        <ele>684.0108386931</ele>
        <time>2015-11-08T12:15:25Z</time>
      </trkpt>
      <trkpt lat="45.57669" lon="5.8313">
        <ele>688.73318031814</ele>
        <time>2015-11-08T12:15:40Z</time>
      </trkpt>
      <trkpt lat="45.57676" lon="5.83127">
        <ele>688.73318031814</ele>
        <time>2015-11-08T12:15:45Z</time>
      </trkpt>
      <trkpt lat="45.5769" lon="5.83126">
        <ele>693.7461593092</ele>
        <time>2015-11-08T12:15:55Z</time>
      </trkpt>
      <trkpt lat="45.57696" lon="5.83127">
        <ele>693.7461593092</ele>
        <time>2015-11-08T12:16:00Z</time>
      </trkpt>
      <trkpt lat="45.57709" lon="5.83123">
        <ele>698.96687709249</ele>
        <time>2015-11-08T12:16:10Z</time>
      </trkpt>
      <trkpt lat="45.57715" lon="5.83123">
        <ele>698.96687709249</ele>
        <time>2015-11-08T12:16:15Z</time>
      </trkpt>
      <trkpt lat="45.57725" lon="5.83127">
        <ele>704.77942634016</ele>
        <time>2015-11-08T12:16:25Z</time>
      </trkpt>
      <trkpt lat="45.5773" lon="5.83129">
        <ele>704.77942634016</ele>
        <time>2015-11-08T12:16:30Z</time>
      </trkpt>
      <trkpt lat="45.57744" lon="5.83112">
        <ele>710.03962761885</ele>
        <time>2015-11-08T12:16:40Z</time>
      </trkpt>
      <trkpt lat="45.57744" lon="5.831">
        <ele>710.03962761885</ele>
        <time>2015-11-08T12:16:45Z</time>
      </trkpt>
      <trkpt lat="45.57743" lon="5.83089">
        <ele>716.26888156749</ele>
        <time>2015-11-08T12:16:55Z</time>
      </trkpt>
      <trkpt lat="45.5774" lon="5.83085">
        <ele>716.26888156749</ele>
        <time>2015-11-08T12:17:00Z</time>
      </trkpt>
      <trkpt lat="45.57734" lon="5.83073">
        <ele>723.17401706349</ele>
        <time>2015-11-08T12:17:10Z</time>
      </trkpt>
      <trkpt lat="45.57729" lon="5.83067">
        <ele>723.17401706349</ele>
        <time>2015-11-08T12:17:15Z</time>
      </trkpt>
      <trkpt lat="45.57718" lon="5.83053">
        <ele>729.15612725738</ele>
        <time>2015-11-08T12:17:30Z</time>
      </trkpt>
      <trkpt lat="45.57718" lon="5.83051">
        <ele>729.15612725738</ele>
        <time>2015-11-08T12:17:35Z</time>
      </trkpt>
      <trkpt lat="45.57719" lon="5.8305">
        <ele>729.15612725738</ele>
        <time>2015-11-08T12:17:45Z</time>
      </trkpt>
      <trkpt lat="45.57719" lon="5.8305">
        <ele>729.15612725738</ele>
        <time>2015-11-08T12:17:50Z</time>
      </trkpt>
      <trkpt lat="45.57717" lon="5.83049">
        <ele>729.15612725738</ele>
        <time>2015-11-08T12:18:00Z</time>
      </trkpt>
      <trkpt lat="45.57714" lon="5.83046">
        <ele>729.15612725738</ele>
        <time>2015-11-08T12:18:05Z</time>
      </trkpt>
      <trkpt lat="45.5771" lon="5.83041">
        <ele>734.09146453697</ele>
        <time>2015-11-08T12:18:15Z</time>
      </trkpt>
      <trkpt lat="45.57709" lon="5.8304">
        <ele>734.09146453697</ele>
        <time>2015-11-08T12:18:20Z</time>
      </trkpt>
      <trkpt lat="45.57708" lon="5.83038">
        <ele>734.09146453697</ele>
        <time>2015-11-08T12:18:30Z</time>
      </trkpt>
      <trkpt lat="45.57708" lon="5.83034">
        <ele>734.09146453697</ele>
        <time>2015-11-08T12:18:35Z</time>
      </trkpt>
      <trkpt lat="45.57705" lon="5.83025">
        <ele>738.63258632242</ele>
        <time>2015-11-08T12:18:45Z</time>
      </trkpt>
      <trkpt lat="45.57704" lon="5.83025">
        <ele>738.63258632242</ele>
        <time>2015-11-08T12:18:50Z</time>
      </trkpt>
      <trkpt lat="45.57704" lon="5.83023">
        <ele>738.63258632242</ele>
        <time>2015-11-08T12:19:00Z</time>
      </trkpt>
      <trkpt lat="45.57704" lon="5.83022">
        <ele>738.63258632242</ele>
        <time>2015-11-08T12:19:05Z</time>
      </trkpt>
      <trkpt lat="45.57703" lon="5.83021">
        <ele>738.63258632242</ele>
        <time>2015-11-08T12:19:15Z</time>
      </trkpt>
      <trkpt lat="45.57703" lon="5.8302">
        <ele>738.63258632242</ele>
        <time>2015-11-08T12:19:20Z</time>
      </trkpt>
      <trkpt lat="45.57696" lon="5.83009">
        <ele>744.10627805568</ele>
        <time>2015-11-08T12:19:30Z</time>
      </trkpt>
      <trkpt lat="45.57692" lon="5.83002">
        <ele>744.10627805568</ele>
        <time>2015-11-08T12:19:35Z</time>
      </trkpt>
      <trkpt lat="45.57675" lon="5.82992">
        <ele>749.43397641872</ele>
        <time>2015-11-08T12:19:50Z</time>
      </trkpt>
      <trkpt lat="45.57674" lon="5.82985">
        <ele>749.43397641872</ele>
        <time>2015-11-08T12:19:55Z</time>
      </trkpt>
      <trkpt lat="45.57684" lon="5.82982">
        <ele>754.55399689547</ele>
        <time>2015-11-08T12:20:05Z</time>
      </trkpt>
      <trkpt lat="45.57688" lon="5.82983">
        <ele>754.55399689547</ele>
        <time>2015-11-08T12:20:10Z</time>
      </trkpt>
      <trkpt lat="45.57695" lon="5.82993">
        <ele>759.88585604508</ele>
        <time>2015-11-08T12:20:20Z</time>
      </trkpt>
      <trkpt lat="45.577" lon="5.82997">
        <ele>759.88585604508</ele>
        <time>2015-11-08T12:20:25Z</time>
      </trkpt>
      <trkpt lat="45.57709" lon="5.82997">
        <ele>765.14085963393</ele>
        <time>2015-11-08T12:20:35Z</time>
      </trkpt>
      <trkpt lat="45.57714" lon="5.82998">
        <ele>765.14085963393</ele>
        <time>2015-11-08T12:20:40Z</time>
      </trkpt>
      <trkpt lat="45.57723" lon="5.83">
        <ele>770.75840606705</ele>
        <time>2015-11-08T12:20:50Z</time>
      </trkpt>
      <trkpt lat="45.5773" lon="5.82999">
        <ele>770.75840606705</ele>
        <time>2015-11-08T12:20:55Z</time>
      </trkpt>
      <trkpt lat="45.57741" lon="5.82992">
        <ele>775.89135615021</ele>
        <time>2015-11-08T12:21:05Z</time>
      </trkpt>
      <trkpt lat="45.57746" lon="5.82987">
        <ele>775.89135615021</ele>
        <time>2015-11-08T12:21:10Z</time>
      </trkpt>
      <trkpt lat="45.57754" lon="5.8298">
        <ele>780.54929380475</ele>
        <time>2015-11-08T12:21:20Z</time>
      </trkpt>
      <trkpt lat="45.57759" lon="5.82973">
        <ele>780.54929380475</ele>
        <time>2015-11-08T12:21:25Z</time>
      </trkpt>
      <trkpt lat="45.57776" lon="5.8296">
        <ele>785.66526063537</ele>
        <time>2015-11-08T12:21:40Z</time>
      </trkpt>
      <trkpt lat="45.57782" lon="5.82956">
        <ele>785.66526063537</ele>
        <time>2015-11-08T12:21:45Z</time>
      </trkpt>
      <trkpt lat="45.57792" lon="5.82954">
        <ele>789.73955910594</ele>
        <time>2015-11-08T12:21:55Z</time>
      </trkpt>
      <trkpt lat="45.57791" lon="5.82952">
        <ele>789.73955910594</ele>
        <time>2015-11-08T12:22:00Z</time>
      </trkpt>
      <trkpt lat="45.57797" lon="5.8295">
        <ele>789.73955910594</ele>
        <time>2015-11-08T12:22:10Z</time>
      </trkpt>
      <trkpt lat="45.57798" lon="5.8295">
        <ele>789.73955910594</ele>
        <time>2015-11-08T12:22:15Z</time>
      </trkpt>
      <trkpt lat="45.57806" lon="5.82944">
        <ele>793.04335633074</ele>
        <time>2015-11-08T12:22:25Z</time>
      </trkpt>
      <trkpt lat="45.57807" lon="5.82944">
        <ele>793.04335633074</ele>
        <time>2015-11-08T12:22:30Z</time>
      </trkpt>
      <trkpt lat="45.57808" lon="5.82945">
        <ele>793.04335633074</ele>
        <time>2015-11-08T12:22:40Z</time>
      </trkpt>
      <trkpt lat="45.57809" lon="5.82944">
        <ele>793.04335633074</ele>
        <time>2015-11-08T12:22:45Z</time>
      </trkpt>
      <trkpt lat="45.57815" lon="5.82946">
        <ele>795.67201892172</ele>
        <time>2015-11-08T12:22:55Z</time>
      </trkpt>
      <trkpt lat="45.57819" lon="5.82946">
        <ele>795.67201892172</ele>
        <time>2015-11-08T12:23:00Z</time>
      </trkpt>
      <trkpt lat="45.57834" lon="5.82936">
        <ele>798.71062853287</ele>
        <time>2015-11-08T12:23:10Z</time>
      </trkpt>
      <trkpt lat="45.57843" lon="5.82934">
        <ele>798.71062853287</ele>
        <time>2015-11-08T12:23:15Z</time>
      </trkpt>
      <trkpt lat="45.57857" lon="5.82933">
        <ele>801.85243143751</ele>
        <time>2015-11-08T12:23:25Z</time>
      </trkpt>
      <trkpt lat="45.57862" lon="5.8293">
        <ele>801.85243143751</ele>
        <time>2015-11-08T12:23:30Z</time>
      </trkpt>
      <trkpt lat="45.5788" lon="5.82928">
        <ele>805.04390723393</ele>
        <time>2015-11-08T12:23:45Z</time>
      </trkpt>
      <trkpt lat="45.57886" lon="5.82925">
        <ele>805.04390723393</ele>
        <time>2015-11-08T12:23:50Z</time>
      </trkpt>
      <trkpt lat="45.57898" lon="5.82916">
        <ele>807.61603575611</ele>
        <time>2015-11-08T12:24:00Z</time>
      </trkpt>
      <trkpt lat="45.57905" lon="5.82913">
        <ele>807.61603575611</ele>
        <time>2015-11-08T12:24:05Z</time>
      </trkpt>
      <trkpt lat="45.5791" lon="5.82909">
        <ele>810.4353873784</ele>
        <time>2015-11-08T12:24:15Z</time>
      </trkpt>
      <trkpt lat="45.57915" lon="5.82906">
        <ele>810.4353873784</ele>
        <time>2015-11-08T12:24:20Z</time>
      </trkpt>
      <trkpt lat="45.57925" lon="5.82899">
        <ele>813.12280787903</ele>
        <time>2015-11-08T12:24:30Z</time>
      </trkpt>
      <trkpt lat="45.57932" lon="5.82896">
        <ele>813.12280787903</ele>
        <time>2015-11-08T12:24:35Z</time>
      </trkpt>
      <trkpt lat="45.57945" lon="5.82893">
        <ele>815.42855697273</ele>
        <time>2015-11-08T12:24:45Z</time>
      </trkpt>
      <trkpt lat="45.57952" lon="5.8289">
        <ele>815.42855697273</ele>
        <time>2015-11-08T12:24:50Z</time>
      </trkpt>
      <trkpt lat="45.57964" lon="5.8288">
        <ele>817.51169929635</ele>
        <time>2015-11-08T12:25:00Z</time>
      </trkpt>
      <trkpt lat="45.57969" lon="5.82875">
        <ele>817.51169929635</ele>
        <time>2015-11-08T12:25:05Z</time>
      </trkpt>
      <trkpt lat="45.57981" lon="5.82869">
        <ele>819.95283636137</ele>
        <time>2015-11-08T12:25:15Z</time>
      </trkpt>
      <trkpt lat="45.57987" lon="5.82868">
        <ele>819.95283636137</ele>
        <time>2015-11-08T12:25:20Z</time>
      </trkpt>
      <trkpt lat="45.58002" lon="5.82875">
        <ele>821.34365142635</ele>
        <time>2015-11-08T12:25:35Z</time>
      </trkpt>
      <trkpt lat="45.58006" lon="5.82883">
        <ele>821.34365142635</ele>
        <time>2015-11-08T12:25:40Z</time>
      </trkpt>
      <trkpt lat="45.58016" lon="5.82894">
        <ele>823.17819653565</ele>
        <time>2015-11-08T12:25:50Z</time>
      </trkpt>
      <trkpt lat="45.58021" lon="5.82898">
        <ele>823.17819653565</ele>
        <time>2015-11-08T12:25:55Z</time>
      </trkpt>
      <trkpt lat="45.58032" lon="5.82893">
        <ele>824.63481115017</ele>
        <time>2015-11-08T12:26:05Z</time>
      </trkpt>
      <trkpt lat="45.58039" lon="5.8289">
        <ele>824.63481115017</ele>
        <time>2015-11-08T12:26:10Z</time>
      </trkpt>
      <trkpt lat="45.58053" lon="5.82877">
        <ele>825.52985648589</ele>
        <time>2015-11-08T12:26:20Z</time>
      </trkpt>
      <trkpt lat="45.58058" lon="5.82869">
        <ele>825.52985648589</ele>
        <time>2015-11-08T12:26:25Z</time>
      </trkpt>
      <trkpt lat="45.58065" lon="5.82849">
        <ele>826.18486730568</ele>
        <time>2015-11-08T12:26:35Z</time>
      </trkpt>
      <trkpt lat="45.58069" lon="5.82844">
        <ele>826.18486730568</ele>
        <time>2015-11-08T12:26:40Z</time>
      </trkpt>
      <trkpt lat="45.58081" lon="5.82842">
        <ele>827.57585810811</ele>
        <time>2015-11-08T12:26:50Z</time>
      </trkpt>
      <trkpt lat="45.58087" lon="5.82846">
        <ele>827.57585810811</ele>
        <time>2015-11-08T12:26:55Z</time>
      </trkpt>
      <trkpt lat="45.58097" lon="5.82858">
        <ele>829.39462588238</ele>
        <time>2015-11-08T12:27:05Z</time>
      </trkpt>
      <trkpt lat="45.58103" lon="5.82863">
        <ele>829.39462588238</ele>
        <time>2015-11-08T12:27:10Z</time>
      </trkpt>
      <trkpt lat="45.58115" lon="5.82868">
        <ele>829.50983775432</ele>
        <time>2015-11-08T12:27:20Z</time>
      </trkpt>
      <trkpt lat="45.58121" lon="5.8287">
        <ele>829.50983775432</ele>
        <time>2015-11-08T12:27:25Z</time>
      </trkpt>
      <trkpt lat="45.58139" lon="5.82878">
        <ele>829.46784702256</ele>
        <time>2015-11-08T12:27:40Z</time>
      </trkpt>
      <trkpt lat="45.58143" lon="5.82878">
        <ele>829.46784702256</ele>
        <time>2015-11-08T12:27:45Z</time>
      </trkpt>
      <trkpt lat="45.58157" lon="5.82872">
        <ele>829.85160240207</ele>
        <time>2015-11-08T12:27:55Z</time>
      </trkpt>
      <trkpt lat="45.58163" lon="5.82868">
        <ele>829.85160240207</ele>
        <time>2015-11-08T12:28:00Z</time>
      </trkpt>
      <trkpt lat="45.58178" lon="5.82866">
        <ele>830.27770376814</ele>
        <time>2015-11-08T12:28:10Z</time>
      </trkpt>
      <trkpt lat="45.58186" lon="5.82865">
        <ele>830.27770376814</ele>
        <time>2015-11-08T12:28:15Z</time>
      </trkpt>
      <trkpt lat="45.58197" lon="5.82868">
        <ele>831.51482086607</ele>
        <time>2015-11-08T12:28:25Z</time>
      </trkpt>
      <trkpt lat="45.58205" lon="5.82866">
        <ele>831.51482086607</ele>
        <time>2015-11-08T12:28:30Z</time>
      </trkpt>
      <trkpt lat="45.58221" lon="5.82857">
        <ele>832.6443639802</ele>
        <time>2015-11-08T12:28:40Z</time>
      </trkpt>
      <trkpt lat="45.58229" lon="5.82855">
        <ele>832.6443639802</ele>
        <time>2015-11-08T12:28:45Z</time>
      </trkpt>
      <trkpt lat="45.58244" lon="5.8285">
        <ele>834.40067055921</ele>
        <time>2015-11-08T12:28:55Z</time>
      </trkpt>
      <trkpt lat="45.58248" lon="5.8285">
        <ele>834.40067055921</ele>
        <time>2015-11-08T12:29:00Z</time>
      </trkpt>
      <trkpt lat="45.5826" lon="5.82854">
        <ele>836.06441004881</ele>
        <time>2015-11-08T12:29:10Z</time>
      </trkpt>
      <trkpt lat="45.58265" lon="5.8286">
        <ele>836.06441004881</ele>
        <time>2015-11-08T12:29:15Z</time>
      </trkpt>
      <trkpt lat="45.58277" lon="5.8286">
        <ele>837.71863600852</ele>
        <time>2015-11-08T12:29:25Z</time>
      </trkpt>
      <trkpt lat="45.58283" lon="5.82856">
        <ele>837.71863600852</ele>
        <time>2015-11-08T12:29:30Z</time>
      </trkpt>
      <trkpt lat="45.58295" lon="5.82859">
        <ele>839.32493736134</ele>
        <time>2015-11-08T12:29:45Z</time>
      </trkpt>
      <trkpt lat="45.58298" lon="5.8286">
        <ele>839.32493736134</ele>
        <time>2015-11-08T12:29:50Z</time>
      </trkpt>
      <trkpt lat="45.58309" lon="5.82852">
        <ele>840.94863090725</ele>
        <time>2015-11-08T12:30:00Z</time>
      </trkpt>
      <trkpt lat="45.58315" lon="5.82844">
        <ele>840.94863090725</ele>
        <time>2015-11-08T12:30:05Z</time>
      </trkpt>
      <trkpt lat="45.58318" lon="5.82844">
        <ele>842.2177421175</ele>
        <time>2015-11-08T12:30:15Z</time>
      </trkpt>
      <trkpt lat="45.58318" lon="5.82845">
        <ele>842.2177421175</ele>
        <time>2015-11-08T12:30:20Z</time>
      </trkpt>
      <trkpt lat="45.58325" lon="5.82843">
        <ele>842.2177421175</ele>
        <time>2015-11-08T12:30:30Z</time>
      </trkpt>
      <trkpt lat="45.58333" lon="5.82834">
        <ele>842.90378850645</ele>
        <time>2015-11-08T12:30:35Z</time>
      </trkpt>
      <trkpt lat="45.58345" lon="5.8282">
        <ele>844.0791745748</ele>
        <time>2015-11-08T12:30:45Z</time>
      </trkpt>
      <trkpt lat="45.58348" lon="5.82818">
        <ele>844.0791745748</ele>
        <time>2015-11-08T12:30:50Z</time>
      </trkpt>
      <trkpt lat="45.58356" lon="5.82824">
        <ele>845.8569485026</ele>
        <time>2015-11-08T12:31:00Z</time>
      </trkpt>
      <trkpt lat="45.58362" lon="5.82823">
        <ele>845.8569485026</ele>
        <time>2015-11-08T12:31:05Z</time>
      </trkpt>
      <trkpt lat="45.58374" lon="5.82823">
        <ele>847.96534435733</ele>
        <time>2015-11-08T12:31:15Z</time>
      </trkpt>
      <trkpt lat="45.5838" lon="5.82822">
        <ele>847.96534435733</ele>
        <time>2015-11-08T12:31:20Z</time>
      </trkpt>
      <trkpt lat="45.58389" lon="5.82822">
        <ele>850.92970255205</ele>
        <time>2015-11-08T12:31:30Z</time>
      </trkpt>
      <trkpt lat="45.58394" lon="5.82821">
        <ele>850.92970255205</ele>
        <time>2015-11-08T12:31:35Z</time>
      </trkpt>
      <trkpt lat="45.58404" lon="5.82816">
        <ele>853.69225558748</ele>
        <time>2015-11-08T12:31:45Z</time>
      </trkpt>
      <trkpt lat="45.5841" lon="5.82811">
        <ele>853.69225558748</ele>
        <time>2015-11-08T12:31:50Z</time>
      </trkpt>
      <trkpt lat="45.58419" lon="5.82806">
        <ele>855.79218535566</ele>
        <time>2015-11-08T12:32:00Z</time>
      </trkpt>
      <trkpt lat="45.58426" lon="5.82801">
        <ele>855.79218535566</ele>
        <time>2015-11-08T12:32:05Z</time>
      </trkpt>
      <trkpt lat="45.58435" lon="5.82792">
        <ele>856.44399053117</ele>
        <time>2015-11-08T12:32:15Z</time>
      </trkpt>
      <trkpt lat="45.58443" lon="5.82789">
        <ele>856.44399053117</ele>
        <time>2015-11-08T12:32:20Z</time>
      </trkpt>
      <trkpt lat="45.58456" lon="5.82786">
        <ele>857.97897915604</ele>
        <time>2015-11-08T12:32:30Z</time>
      </trkpt>
      <trkpt lat="45.58459" lon="5.82784">
        <ele>857.97897915604</ele>
        <time>2015-11-08T12:32:35Z</time>
      </trkpt>
      <trkpt lat="45.58462" lon="5.82782">
        <ele>857.97897915604</ele>
        <time>2015-11-08T12:32:45Z</time>
      </trkpt>
      <trkpt lat="45.58464" lon="5.82783">
        <ele>859.51386733871</ele>
        <time>2015-11-08T12:32:50Z</time>
      </trkpt>
      <trkpt lat="45.58467" lon="5.82777">
        <ele>859.51386733871</ele>
        <time>2015-11-08T12:33:00Z</time>
      </trkpt>
      <trkpt lat="45.58464" lon="5.82774">
        <ele>861.62802249556</ele>
        <time>2015-11-08T12:33:05Z</time>
      </trkpt>
      <trkpt lat="45.58455" lon="5.82767">
        <ele>863.67480291562</ele>
        <time>2015-11-08T12:33:15Z</time>
      </trkpt>
      <trkpt lat="45.58451" lon="5.82763">
        <ele>863.67480291562</ele>
        <time>2015-11-08T12:33:20Z</time>
      </trkpt>
      <trkpt lat="45.58432" lon="5.82754">
        <ele>866.89977310612</ele>
        <time>2015-11-08T12:33:35Z</time>
      </trkpt>
      <trkpt lat="45.58424" lon="5.82753">
        <ele>866.89977310612</ele>
        <time>2015-11-08T12:33:40Z</time>
      </trkpt>
      <trkpt lat="45.5841" lon="5.82745">
        <ele>870.34957115418</ele>
        <time>2015-11-08T12:33:50Z</time>
      </trkpt>
      <trkpt lat="45.58403" lon="5.82742">
        <ele>870.34957115418</ele>
        <time>2015-11-08T12:33:55Z</time>
      </trkpt>
      <trkpt lat="45.58393" lon="5.82737">
        <ele>873.35631497822</ele>
        <time>2015-11-08T12:34:05Z</time>
      </trkpt>
      <trkpt lat="45.5839" lon="5.82732">
        <ele>873.35631497822</ele>
        <time>2015-11-08T12:34:10Z</time>
      </trkpt>
      <trkpt lat="45.58383" lon="5.8273">
        <ele>876.84434011053</ele>
        <time>2015-11-08T12:34:20Z</time>
      </trkpt>
      <trkpt lat="45.58378" lon="5.82729">
        <ele>876.84434011053</ele>
        <time>2015-11-08T12:34:25Z</time>
      </trkpt>
      <trkpt lat="45.58363" lon="5.82723">
        <ele>879.79522139127</ele>
        <time>2015-11-08T12:34:35Z</time>
      </trkpt>
      <trkpt lat="45.58356" lon="5.82722">
        <ele>879.79522139127</ele>
        <time>2015-11-08T12:34:40Z</time>
      </trkpt>
      <trkpt lat="45.58344" lon="5.82722">
        <ele>883.1690689664</ele>
        <time>2015-11-08T12:34:50Z</time>
      </trkpt>
      <trkpt lat="45.58336" lon="5.82719">
        <ele>883.1690689664</ele>
        <time>2015-11-08T12:34:55Z</time>
      </trkpt>
      <trkpt lat="45.58322" lon="5.82719">
        <ele>885.93755731556</ele>
        <time>2015-11-08T12:35:05Z</time>
      </trkpt>
      <trkpt lat="45.58314" lon="5.82719">
        <ele>885.93755731556</ele>
        <time>2015-11-08T12:35:10Z</time>
      </trkpt>
      <trkpt lat="45.58296" lon="5.82721">
        <ele>887.8989438495</ele>
        <time>2015-11-08T12:35:25Z</time>
      </trkpt>
      <trkpt lat="45.5829" lon="5.8272">
        <ele>887.8989438495</ele>
        <time>2015-11-08T12:35:30Z</time>
      </trkpt>
      <trkpt lat="45.58282" lon="5.82715">
        <ele>890.20877617624</ele>
        <time>2015-11-08T12:35:40Z</time>
      </trkpt>
      <trkpt lat="45.5828" lon="5.82711">
        <ele>890.20877617624</ele>
        <time>2015-11-08T12:35:45Z</time>
      </trkpt>
      <trkpt lat="45.58285" lon="5.82701">
        <ele>892.69735878548</ele>
        <time>2015-11-08T12:35:55Z</time>
      </trkpt>
      <trkpt lat="45.5829" lon="5.82703">
        <ele>892.69735878548</ele>
        <time>2015-11-08T12:36:00Z</time>
      </trkpt>
      <trkpt lat="45.583" lon="5.82706">
        <ele>894.25580364336</ele>
        <time>2015-11-08T12:36:10Z</time>
      </trkpt>
      <trkpt lat="45.58304" lon="5.82708">
        <ele>894.25580364336</ele>
        <time>2015-11-08T12:36:15Z</time>
      </trkpt>
      <trkpt lat="45.58306" lon="5.82709">
        <ele>894.25580364336</ele>
        <time>2015-11-08T12:36:25Z</time>
      </trkpt>
      <trkpt lat="45.58308" lon="5.82708">
        <ele>894.25580364336</ele>
        <time>2015-11-08T12:36:30Z</time>
      </trkpt>
      <trkpt lat="45.58317" lon="5.82707">
        <ele>896.12181240401</ele>
        <time>2015-11-08T12:36:40Z</time>
      </trkpt>
      <trkpt lat="45.58325" lon="5.82704">
        <ele>896.12181240401</ele>
        <time>2015-11-08T12:36:45Z</time>
      </trkpt>
      <trkpt lat="45.58337" lon="5.82702">
        <ele>896.73198707962</ele>
        <time>2015-11-08T12:36:55Z</time>
      </trkpt>
      <trkpt lat="45.58343" lon="5.82703">
        <ele>896.73198707962</ele>
        <time>2015-11-08T12:37:00Z</time>
      </trkpt>
      <trkpt lat="45.58358" lon="5.82703">
        <ele>897.32173532421</ele>
        <time>2015-11-08T12:37:10Z</time>
      </trkpt>
      <trkpt lat="45.58366" lon="5.82701">
        <ele>897.32173532421</ele>
        <time>2015-11-08T12:37:15Z</time>
      </trkpt>
      <trkpt lat="45.58379" lon="5.82704">
        <ele>898.58898696414</ele>
        <time>2015-11-08T12:37:25Z</time>
      </trkpt>
      <trkpt lat="45.58385" lon="5.82702">
        <ele>898.58898696414</ele>
        <time>2015-11-08T12:37:30Z</time>
      </trkpt>
      <trkpt lat="45.58402" lon="5.82701">
        <ele>899.40588795297</ele>
        <time>2015-11-08T12:37:45Z</time>
      </trkpt>
      <trkpt lat="45.58409" lon="5.82699">
        <ele>899.40588795297</ele>
        <time>2015-11-08T12:37:50Z</time>
      </trkpt>
      <trkpt lat="45.58424" lon="5.82699">
        <ele>900.87590180024</ele>
        <time>2015-11-08T12:38:00Z</time>
      </trkpt>
      <trkpt lat="45.58431" lon="5.82697">
        <ele>900.87590180024</ele>
        <time>2015-11-08T12:38:05Z</time>
      </trkpt>
      <trkpt lat="45.58442" lon="5.82692">
        <ele>901.51200534256</ele>
        <time>2015-11-08T12:38:15Z</time>
      </trkpt>
      <trkpt lat="45.58451" lon="5.8269">
        <ele>901.51200534256</ele>
        <time>2015-11-08T12:38:20Z</time>
      </trkpt>
      <trkpt lat="45.58464" lon="5.82689">
        <ele>902.53268608337</ele>
        <time>2015-11-08T12:38:30Z</time>
      </trkpt>
      <trkpt lat="45.5847" lon="5.82689">
        <ele>902.53268608337</ele>
        <time>2015-11-08T12:38:35Z</time>
      </trkpt>
      <trkpt lat="45.58482" lon="5.82689">
        <ele>903.76877258952</ele>
        <time>2015-11-08T12:38:45Z</time>
      </trkpt>
      <trkpt lat="45.58488" lon="5.82689">
        <ele>903.76877258952</ele>
        <time>2015-11-08T12:38:50Z</time>
      </trkpt>
      <trkpt lat="45.58502" lon="5.82682">
        <ele>904.39992996349</ele>
        <time>2015-11-08T12:39:00Z</time>
      </trkpt>
      <trkpt lat="45.5851" lon="5.82679">
        <ele>904.39992996349</ele>
        <time>2015-11-08T12:39:05Z</time>
      </trkpt>
      <trkpt lat="45.58527" lon="5.8267">
        <ele>905.26733595117</ele>
        <time>2015-11-08T12:39:20Z</time>
      </trkpt>
      <trkpt lat="45.58534" lon="5.82667">
        <ele>905.26733595117</ele>
        <time>2015-11-08T12:39:25Z</time>
      </trkpt>
      <trkpt lat="45.58548" lon="5.8266">
        <ele>906.29937394444</ele>
        <time>2015-11-08T12:39:35Z</time>
      </trkpt>
      <trkpt lat="45.58557" lon="5.82657">
        <ele>907.19856166147</ele>
        <time>2015-11-08T12:39:40Z</time>
      </trkpt>
      <trkpt lat="45.58574" lon="5.82652">
        <ele>908.46775320801</ele>
        <time>2015-11-08T12:39:50Z</time>
      </trkpt>
      <trkpt lat="45.58581" lon="5.82652">
        <ele>908.46775320801</ele>
        <time>2015-11-08T12:39:55Z</time>
      </trkpt>
      <trkpt lat="45.58594" lon="5.82648">
        <ele>909.82235671728</ele>
        <time>2015-11-08T12:40:05Z</time>
      </trkpt>
      <trkpt lat="45.58601" lon="5.82647">
        <ele>909.82235671728</ele>
        <time>2015-11-08T12:40:10Z</time>
      </trkpt>
      <trkpt lat="45.58615" lon="5.82646">
        <ele>911.57480154808</ele>
        <time>2015-11-08T12:40:20Z</time>
      </trkpt>
      <trkpt lat="45.58622" lon="5.82644">
        <ele>911.57480154808</ele>
        <time>2015-11-08T12:40:25Z</time>
      </trkpt>
      <trkpt lat="45.58635" lon="5.82645">
        <ele>912.97576158626</ele>
        <time>2015-11-08T12:40:35Z</time>
      </trkpt>
      <trkpt lat="45.58642" lon="5.82648">
        <ele>912.97576158626</ele>
        <time>2015-11-08T12:40:40Z</time>
      </trkpt>
      <trkpt lat="45.58654" lon="5.82649">
        <ele>913.60566634482</ele>
        <time>2015-11-08T12:40:50Z</time>
      </trkpt>
      <trkpt lat="45.5866" lon="5.82652">
        <ele>913.60566634482</ele>
        <time>2015-11-08T12:40:55Z</time>
      </trkpt>
      <trkpt lat="45.58672" lon="5.82634">
        <ele>914.05779950799</ele>
        <time>2015-11-08T12:41:10Z</time>
      </trkpt>
      <trkpt lat="45.5867" lon="5.82628">
        <ele>914.05779950799</ele>
        <time>2015-11-08T12:41:15Z</time>
      </trkpt>
      <trkpt lat="45.58659" lon="5.82626">
        <ele>915.77576512858</ele>
        <time>2015-11-08T12:41:25Z</time>
      </trkpt>
      <trkpt lat="45.58654" lon="5.82621">
        <ele>915.77576512858</ele>
        <time>2015-11-08T12:41:30Z</time>
      </trkpt>
      <trkpt lat="45.5864" lon="5.82619">
        <ele>918.03269629429</ele>
        <time>2015-11-08T12:41:40Z</time>
      </trkpt>
      <trkpt lat="45.58633" lon="5.82619">
        <ele>918.03269629429</ele>
        <time>2015-11-08T12:41:45Z</time>
      </trkpt>
      <trkpt lat="45.58619" lon="5.82616">
        <ele>920.4417514295</ele>
        <time>2015-11-08T12:41:55Z</time>
      </trkpt>
      <trkpt lat="45.58611" lon="5.82616">
        <ele>920.4417514295</ele>
        <time>2015-11-08T12:42:00Z</time>
      </trkpt>
      <trkpt lat="45.58598" lon="5.82612">
        <ele>923.19162937761</ele>
        <time>2015-11-08T12:42:10Z</time>
      </trkpt>
      <trkpt lat="45.58593" lon="5.82611">
        <ele>923.19162937761</ele>
        <time>2015-11-08T12:42:15Z</time>
      </trkpt>
      <trkpt lat="45.58581" lon="5.82613">
        <ele>926.11028326994</ele>
        <time>2015-11-08T12:42:25Z</time>
      </trkpt>
      <trkpt lat="45.58575" lon="5.82612">
        <ele>926.11028326994</ele>
        <time>2015-11-08T12:42:30Z</time>
      </trkpt>
      <trkpt lat="45.58564" lon="5.82611">
        <ele>928.17311425139</ele>
        <time>2015-11-08T12:42:40Z</time>
      </trkpt>
      <trkpt lat="45.58557" lon="5.82611">
        <ele>928.17311425139</ele>
        <time>2015-11-08T12:42:45Z</time>
      </trkpt>
      <trkpt lat="45.58544" lon="5.8261">
        <ele>929.9895514228</ele>
        <time>2015-11-08T12:42:55Z</time>
      </trkpt>
      <trkpt lat="45.58537" lon="5.82606">
        <ele>929.9895514228</ele>
        <time>2015-11-08T12:43:00Z</time>
      </trkpt>
      <trkpt lat="45.58516" lon="5.82608">
        <ele>932.60048324803</ele>
        <time>2015-11-08T12:43:15Z</time>
      </trkpt>
      <trkpt lat="45.58509" lon="5.82609">
        <ele>932.60048324803</ele>
        <time>2015-11-08T12:43:20Z</time>
      </trkpt>
      <trkpt lat="45.58495" lon="5.82608">
        <ele>934.48937060049</ele>
        <time>2015-11-08T12:43:30Z</time>
      </trkpt>
      <trkpt lat="45.58489" lon="5.82608">
        <ele>934.48937060049</ele>
        <time>2015-11-08T12:43:35Z</time>
      </trkpt>
      <trkpt lat="45.58475" lon="5.82608">
        <ele>936.50121998803</ele>
        <time>2015-11-08T12:43:45Z</time>
      </trkpt>
      <trkpt lat="45.58469" lon="5.82609">
        <ele>936.50121998803</ele>
        <time>2015-11-08T12:43:50Z</time>
      </trkpt>
      <trkpt lat="45.58454" lon="5.82607">
        <ele>938.26571640732</ele>
        <time>2015-11-08T12:44:00Z</time>
      </trkpt>
      <trkpt lat="45.58447" lon="5.82606">
        <ele>938.26571640732</ele>
        <time>2015-11-08T12:44:05Z</time>
      </trkpt>
      <trkpt lat="45.58434" lon="5.82606">
        <ele>939.62777601897</ele>
        <time>2015-11-08T12:44:15Z</time>
      </trkpt>
      <trkpt lat="45.58427" lon="5.82606">
        <ele>939.62777601897</ele>
        <time>2015-11-08T12:44:20Z</time>
      </trkpt>
      <trkpt lat="45.58414" lon="5.82598">
        <ele>940.94921612866</ele>
        <time>2015-11-08T12:44:30Z</time>
      </trkpt>
      <trkpt lat="45.58407" lon="5.82594">
        <ele>940.94921612866</ele>
        <time>2015-11-08T12:44:35Z</time>
      </trkpt>
      <trkpt lat="45.58392" lon="5.82598">
        <ele>942.70949162371</ele>
        <time>2015-11-08T12:44:45Z</time>
      </trkpt>
      <trkpt lat="45.58385" lon="5.82596">
        <ele>942.70949162371</ele>
        <time>2015-11-08T12:44:50Z</time>
      </trkpt>
      <trkpt lat="45.58365" lon="5.82594">
        <ele>944.2851742113</ele>
        <time>2015-11-08T12:45:05Z</time>
      </trkpt>
      <trkpt lat="45.58358" lon="5.82594">
        <ele>944.2851742113</ele>
        <time>2015-11-08T12:45:10Z</time>
      </trkpt>
      <trkpt lat="45.58347" lon="5.82596">
        <ele>945.64676288085</ele>
        <time>2015-11-08T12:45:20Z</time>
      </trkpt>
      <trkpt lat="45.58341" lon="5.82597">
        <ele>945.64676288085</ele>
        <time>2015-11-08T12:45:25Z</time>
      </trkpt>
      <trkpt lat="45.58331" lon="5.82597">
        <ele>947.53130435192</ele>
        <time>2015-11-08T12:45:35Z</time>
      </trkpt>
      <trkpt lat="45.58325" lon="5.82596">
        <ele>947.53130435192</ele>
        <time>2015-11-08T12:45:40Z</time>
      </trkpt>
      <trkpt lat="45.58309" lon="5.82592">
        <ele>949.46733783782</ele>
        <time>2015-11-08T12:45:50Z</time>
      </trkpt>
      <trkpt lat="45.58302" lon="5.82591">
        <ele>949.46733783782</ele>
        <time>2015-11-08T12:45:55Z</time>
      </trkpt>
      <trkpt lat="45.58287" lon="5.82591">
        <ele>951.5366851153</ele>
        <time>2015-11-08T12:46:05Z</time>
      </trkpt>
      <trkpt lat="45.5828" lon="5.8259">
        <ele>951.5366851153</ele>
        <time>2015-11-08T12:46:10Z</time>
      </trkpt>
      <trkpt lat="45.58265" lon="5.82585">
        <ele>953.18068973352</ele>
        <time>2015-11-08T12:46:20Z</time>
      </trkpt>
      <trkpt lat="45.58259" lon="5.82586">
        <ele>953.18068973352</ele>
        <time>2015-11-08T12:46:25Z</time>
      </trkpt>
      <trkpt lat="45.58245" lon="5.82582">
        <ele>954.73318049388</ele>
        <time>2015-11-08T12:46:35Z</time>
      </trkpt>
      <trkpt lat="45.5824" lon="5.82585">
        <ele>954.73318049388</ele>
        <time>2015-11-08T12:46:40Z</time>
      </trkpt>
      <trkpt lat="45.58228" lon="5.8258">
        <ele>956.28755218926</ele>
        <time>2015-11-08T12:46:50Z</time>
      </trkpt>
      <trkpt lat="45.58223" lon="5.82577">
        <ele>956.28755218926</ele>
        <time>2015-11-08T12:46:55Z</time>
      </trkpt>
      <trkpt lat="45.58214" lon="5.82565">
        <ele>956.9503753657</ele>
        <time>2015-11-08T12:47:05Z</time>
      </trkpt>
      <trkpt lat="45.58208" lon="5.82562">
        <ele>956.9503753657</ele>
        <time>2015-11-08T12:47:10Z</time>
      </trkpt>
      <trkpt lat="45.58196" lon="5.82557">
        <ele>957.78420364454</ele>
        <time>2015-11-08T12:47:20Z</time>
      </trkpt>
      <trkpt lat="45.58189" lon="5.82555">
        <ele>957.78420364454</ele>
        <time>2015-11-08T12:47:25Z</time>
      </trkpt>
      <trkpt lat="45.58176" lon="5.82561">
        <ele>959.72981562727</ele>
        <time>2015-11-08T12:47:35Z</time>
      </trkpt>
      <trkpt lat="45.58168" lon="5.8256">
        <ele>959.72981562727</ele>
        <time>2015-11-08T12:47:40Z</time>
      </trkpt>
      <trkpt lat="45.58146" lon="5.82561">
        <ele>962.60374265137</ele>
        <time>2015-11-08T12:47:55Z</time>
      </trkpt>
      <trkpt lat="45.5814" lon="5.82559">
        <ele>962.60374265137</ele>
        <time>2015-11-08T12:48:00Z</time>
      </trkpt>
      <trkpt lat="45.58125" lon="5.82561">
        <ele>965.13813835783</ele>
        <time>2015-11-08T12:48:10Z</time>
      </trkpt>
      <trkpt lat="45.58118" lon="5.82564">
        <ele>965.13813835783</ele>
        <time>2015-11-08T12:48:15Z</time>
      </trkpt>
      <trkpt lat="45.58105" lon="5.82566">
        <ele>968.07592268697</ele>
        <time>2015-11-08T12:48:25Z</time>
      </trkpt>
      <trkpt lat="45.58102" lon="5.82567">
        <ele>968.07592268697</ele>
        <time>2015-11-08T12:48:30Z</time>
      </trkpt>
      <trkpt lat="45.581" lon="5.82566">
        <ele>968.07592268697</ele>
        <time>2015-11-08T12:48:40Z</time>
      </trkpt>
      <trkpt lat="45.581" lon="5.82567">
        <ele>968.07592268697</ele>
        <time>2015-11-08T12:48:45Z</time>
      </trkpt>
      <trkpt lat="45.58102" lon="5.82571">
        <ele>970.04352709213</ele>
        <time>2015-11-08T12:48:55Z</time>
      </trkpt>
      <trkpt lat="45.58102" lon="5.82572">
        <ele>970.04352709213</ele>
        <time>2015-11-08T12:49:00Z</time>
      </trkpt>
      <trkpt lat="45.58098" lon="5.82575">
        <ele>970.04352709213</ele>
        <time>2015-11-08T12:49:10Z</time>
      </trkpt>
      <trkpt lat="45.58099" lon="5.82576">
        <ele>970.04352709213</ele>
        <time>2015-11-08T12:49:15Z</time>
      </trkpt>
      <trkpt lat="45.58099" lon="5.82578">
        <ele>970.04352709213</ele>
        <time>2015-11-08T12:49:25Z</time>
      </trkpt>
      <trkpt lat="45.58099" lon="5.82578">
        <ele>970.04352709213</ele>
        <time>2015-11-08T12:49:30Z</time>
      </trkpt>
      <trkpt lat="45.581" lon="5.82577">
        <ele>970.04352709213</ele>
        <time>2015-11-08T12:49:45Z</time>
      </trkpt>
      <trkpt lat="45.581" lon="5.82577">
        <ele>971.41388651414</ele>
        <time>2015-11-08T12:49:50Z</time>
      </trkpt>
      <trkpt lat="45.58101" lon="5.82578">
        <ele>971.41388651414</ele>
        <time>2015-11-08T12:50:00Z</time>
      </trkpt>
      <trkpt lat="45.58102" lon="5.82577">
        <ele>971.41388651414</ele>
        <time>2015-11-08T12:50:05Z</time>
      </trkpt>
      <trkpt lat="45.58099" lon="5.82579">
        <ele>971.41388651414</ele>
        <time>2015-11-08T12:50:15Z</time>
      </trkpt>
      <trkpt lat="45.58096" lon="5.82578">
        <ele>971.41388651414</ele>
        <time>2015-11-08T12:50:20Z</time>
      </trkpt>
      <trkpt lat="45.58097" lon="5.82577">
        <ele>971.41388651414</ele>
        <time>2015-11-08T12:50:30Z</time>
      </trkpt>
      <trkpt lat="45.58096" lon="5.82577">
        <ele>971.41388651414</ele>
        <time>2015-11-08T12:50:35Z</time>
      </trkpt>
      <trkpt lat="45.58097" lon="5.82578">
        <ele>972.37570857707</ele>
        <time>2015-11-08T12:50:45Z</time>
      </trkpt>
      <trkpt lat="45.58098" lon="5.82581">
        <ele>972.37570857707</ele>
        <time>2015-11-08T13:40:32Z</time>
      </trkpt>
      <trkpt lat="45.58099" lon="5.8257">
        <ele>971.66388386753</ele>
        <time>2015-11-08T13:40:37Z</time>
      </trkpt>
      <trkpt lat="45.58096" lon="5.82574">
        <ele>971.66388386753</ele>
        <time>2015-11-08T13:40:47Z</time>
      </trkpt>
      <trkpt lat="45.58098" lon="5.82573">
        <ele>971.66388386753</ele>
        <time>2015-11-08T13:40:52Z</time>
      </trkpt>
      <trkpt lat="45.58099" lon="5.82572">
        <ele>971.66388386753</ele>
        <time>2015-11-08T13:41:02Z</time>
      </trkpt>
      <trkpt lat="45.581" lon="5.82571">
        <ele>971.66388386753</ele>
        <time>2015-11-08T13:41:07Z</time>
      </trkpt>
      <trkpt lat="45.581" lon="5.82571">
        <ele>971.66388386753</ele>
        <time>2015-11-08T13:41:17Z</time>
      </trkpt>
      <trkpt lat="45.581" lon="5.82571">
        <ele>971.66388386753</ele>
        <time>2015-11-08T13:41:22Z</time>
      </trkpt>
      <trkpt lat="45.581" lon="5.82571">
        <ele>971.66388386753</ele>
        <time>2015-11-08T13:41:32Z</time>
      </trkpt>
      <trkpt lat="45.581" lon="5.82571">
        <ele>971.66388386753</ele>
        <time>2015-11-08T13:41:37Z</time>
      </trkpt>
      <trkpt lat="45.581" lon="5.8257">
        <ele>971.66388386753</ele>
        <time>2015-11-08T13:41:47Z</time>
      </trkpt>
      <trkpt lat="45.581" lon="5.8257">
        <ele>971.66388386753</ele>
        <time>2015-11-08T13:41:52Z</time>
      </trkpt>
      <trkpt lat="45.581" lon="5.8257">
        <ele>971.66388386753</ele>
        <time>2015-11-08T13:42:07Z</time>
      </trkpt>
      <trkpt lat="45.58101" lon="5.82573">
        <ele>971.69930299876</ele>
        <time>2015-11-08T13:42:12Z</time>
      </trkpt>
      <trkpt lat="45.58102" lon="5.82572">
        <ele>971.69930299876</ele>
        <time>2015-11-08T13:42:22Z</time>
      </trkpt>
      <trkpt lat="45.58103" lon="5.82571">
        <ele>971.69930299876</ele>
        <time>2015-11-08T13:42:27Z</time>
      </trkpt>
      <trkpt lat="45.58101" lon="5.82567">
        <ele>971.69930299876</ele>
        <time>2015-11-08T13:42:37Z</time>
      </trkpt>
      <trkpt lat="45.58098" lon="5.82566">
        <ele>971.69930299876</ele>
        <time>2015-11-08T13:42:42Z</time>
      </trkpt>
      <trkpt lat="45.58092" lon="5.82563">
        <ele>971.20660082924</ele>
        <time>2015-11-08T13:42:52Z</time>
      </trkpt>
      <trkpt lat="45.58087" lon="5.82558">
        <ele>971.20660082924</ele>
        <time>2015-11-08T13:42:57Z</time>
      </trkpt>
      <trkpt lat="45.58076" lon="5.82551">
        <ele>971.729259649</ele>
        <time>2015-11-08T13:43:07Z</time>
      </trkpt>
      <trkpt lat="45.58073" lon="5.82547">
        <ele>971.729259649</ele>
        <time>2015-11-08T13:43:12Z</time>
      </trkpt>
      <trkpt lat="45.58065" lon="5.82539">
        <ele>971.5816926404</ele>
        <time>2015-11-08T13:43:22Z</time>
      </trkpt>
      <trkpt lat="45.58062" lon="5.82536">
        <ele>971.5816926404</ele>
        <time>2015-11-08T13:43:27Z</time>
      </trkpt>
      <trkpt lat="45.58051" lon="5.82525">
        <ele>972.38882639508</ele>
        <time>2015-11-08T13:43:37Z</time>
      </trkpt>
      <trkpt lat="45.58044" lon="5.8252">
        <ele>972.38882639508</ele>
        <time>2015-11-08T13:43:42Z</time>
      </trkpt>
      <trkpt lat="45.58037" lon="5.82511">
        <ele>973.44858948704</ele>
        <time>2015-11-08T13:43:52Z</time>
      </trkpt>
      <trkpt lat="45.58033" lon="5.82507">
        <ele>973.44858948704</ele>
        <time>2015-11-08T13:43:57Z</time>
      </trkpt>
      <trkpt lat="45.58023" lon="5.82486">
        <ele>974.13854034466</ele>
        <time>2015-11-08T13:44:12Z</time>
      </trkpt>
      <trkpt lat="45.58023" lon="5.82479">
        <ele>974.13854034466</ele>
        <time>2015-11-08T13:44:17Z</time>
      </trkpt>
      <trkpt lat="45.5802" lon="5.82463">
        <ele>975.19435074929</ele>
        <time>2015-11-08T13:44:27Z</time>
      </trkpt>
      <trkpt lat="45.58019" lon="5.82451">
        <ele>975.19435074929</ele>
        <time>2015-11-08T13:44:32Z</time>
      </trkpt>
      <trkpt lat="45.58022" lon="5.82433">
        <ele>976.41748585569</ele>
        <time>2015-11-08T13:44:42Z</time>
      </trkpt>
      <trkpt lat="45.58026" lon="5.82425">
        <ele>976.41748585569</ele>
        <time>2015-11-08T13:44:47Z</time>
      </trkpt>
      <trkpt lat="45.58033" lon="5.82409">
        <ele>977.5369991678</ele>
        <time>2015-11-08T13:44:57Z</time>
      </trkpt>
      <trkpt lat="45.58036" lon="5.82401">
        <ele>977.5369991678</ele>
        <time>2015-11-08T13:45:02Z</time>
      </trkpt>
      <trkpt lat="45.58041" lon="5.82388">
        <ele>978.37413466164</ele>
        <time>2015-11-08T13:45:12Z</time>
      </trkpt>
      <trkpt lat="45.58046" lon="5.82382">
        <ele>978.37413466164</ele>
        <time>2015-11-08T13:45:17Z</time>
      </trkpt>
      <trkpt lat="45.58049" lon="5.82368">
        <ele>979.67190237992</ele>
        <time>2015-11-08T13:45:27Z</time>
      </trkpt>
      <trkpt lat="45.58052" lon="5.82358">
        <ele>979.67190237992</ele>
        <time>2015-11-08T13:45:32Z</time>
      </trkpt>
      <trkpt lat="45.58066" lon="5.8233">
        <ele>980.80597115947</ele>
        <time>2015-11-08T13:45:47Z</time>
      </trkpt>
      <trkpt lat="45.58069" lon="5.82325">
        <ele>980.80597115947</ele>
        <time>2015-11-08T13:45:52Z</time>
      </trkpt>
      <trkpt lat="45.58076" lon="5.82322">
        <ele>981.74589938783</ele>
        <time>2015-11-08T13:46:02Z</time>
      </trkpt>
      <trkpt lat="45.58079" lon="5.8232">
        <ele>981.74589938783</ele>
        <time>2015-11-08T13:46:07Z</time>
      </trkpt>
      <trkpt lat="45.58091" lon="5.82322">
        <ele>983.34305165674</ele>
        <time>2015-11-08T13:46:17Z</time>
      </trkpt>
      <trkpt lat="45.58095" lon="5.82322">
        <ele>983.34305165674</ele>
        <time>2015-11-08T13:46:22Z</time>
      </trkpt>
      <trkpt lat="45.581" lon="5.82325">
        <ele>985.01530251324</ele>
        <time>2015-11-08T13:46:32Z</time>
      </trkpt>
      <trkpt lat="45.58101" lon="5.82326">
        <ele>985.01530251324</ele>
        <time>2015-11-08T13:46:37Z</time>
      </trkpt>
      <trkpt lat="45.58111" lon="5.82325">
        <ele>986.20862095063</ele>
        <time>2015-11-08T13:46:47Z</time>
      </trkpt>
      <trkpt lat="45.58117" lon="5.82321">
        <ele>986.20862095063</ele>
        <time>2015-11-08T13:46:52Z</time>
      </trkpt>
      <trkpt lat="45.5813" lon="5.82313">
        <ele>987.80885458085</ele>
        <time>2015-11-08T13:47:02Z</time>
      </trkpt>
      <trkpt lat="45.58132" lon="5.82313">
        <ele>987.80885458085</ele>
        <time>2015-11-08T13:47:07Z</time>
      </trkpt>
      <trkpt lat="45.58142" lon="5.82306">
        <ele>989.12243059418</ele>
        <time>2015-11-08T13:47:22Z</time>
      </trkpt>
      <trkpt lat="45.58148" lon="5.82295">
        <ele>990.11276193312</ele>
        <time>2015-11-08T13:47:27Z</time>
      </trkpt>
      <trkpt lat="45.58155" lon="5.82282">
        <ele>991.22239036396</ele>
        <time>2015-11-08T13:47:37Z</time>
      </trkpt>
      <trkpt lat="45.58155" lon="5.82274">
        <ele>991.22239036396</ele>
        <time>2015-11-08T13:47:42Z</time>
      </trkpt>
      <trkpt lat="45.58153" lon="5.82257">
        <ele>992.01072687681</ele>
        <time>2015-11-08T13:47:52Z</time>
      </trkpt>
      <trkpt lat="45.58152" lon="5.8225">
        <ele>992.01072687681</ele>
        <time>2015-11-08T13:47:57Z</time>
      </trkpt>
      <trkpt lat="45.58153" lon="5.82241">
        <ele>992.58921755701</ele>
        <time>2015-11-08T13:48:07Z</time>
      </trkpt>
      <trkpt lat="45.58153" lon="5.8224">
        <ele>992.58921755701</ele>
        <time>2015-11-08T13:48:12Z</time>
      </trkpt>
      <trkpt lat="45.58156" lon="5.82233">
        <ele>992.58921755701</ele>
        <time>2015-11-08T13:48:22Z</time>
      </trkpt>
      <trkpt lat="45.58158" lon="5.82221">
        <ele>991.85114101243</ele>
        <time>2015-11-08T13:48:27Z</time>
      </trkpt>
      <trkpt lat="45.58161" lon="5.82204">
        <ele>991.2102055583</ele>
        <time>2015-11-08T13:48:37Z</time>
      </trkpt>
      <trkpt lat="45.58164" lon="5.82192">
        <ele>991.2102055583</ele>
        <time>2015-11-08T13:48:42Z</time>
      </trkpt>
      <trkpt lat="45.58162" lon="5.82176">
        <ele>990.16014520599</ele>
        <time>2015-11-08T13:48:57Z</time>
      </trkpt>
      <trkpt lat="45.58162" lon="5.82171">
        <ele>990.16014520599</ele>
        <time>2015-11-08T13:49:02Z</time>
      </trkpt>
      <trkpt lat="45.58161" lon="5.82159">
        <ele>989.12645820131</ele>
        <time>2015-11-08T13:49:12Z</time>
      </trkpt>
      <trkpt lat="45.58159" lon="5.82151">
        <ele>989.12645820131</ele>
        <time>2015-11-08T13:49:17Z</time>
      </trkpt>
      <trkpt lat="45.58151" lon="5.8213">
        <ele>987.6818298014</ele>
        <time>2015-11-08T13:49:27Z</time>
      </trkpt>
      <trkpt lat="45.5815" lon="5.82122">
        <ele>987.6818298014</ele>
        <time>2015-11-08T13:49:32Z</time>
      </trkpt>
      <trkpt lat="45.5814" lon="5.82104">
        <ele>985.34492980253</ele>
        <time>2015-11-08T13:49:42Z</time>
      </trkpt>
      <trkpt lat="45.58134" lon="5.82094">
        <ele>982.76742547779</ele>
        <time>2015-11-08T13:49:47Z</time>
      </trkpt>
      <trkpt lat="45.58125" lon="5.8207">
        <ele>980.51042828453</ele>
        <time>2015-11-08T13:49:57Z</time>
      </trkpt>
      <trkpt lat="45.58124" lon="5.82059">
        <ele>980.51042828453</ele>
        <time>2015-11-08T13:50:02Z</time>
      </trkpt>
      <trkpt lat="45.58118" lon="5.8205">
        <ele>977.63726315024</ele>
        <time>2015-11-08T13:50:12Z</time>
      </trkpt>
      <trkpt lat="45.58112" lon="5.82044">
        <ele>977.63726315024</ele>
        <time>2015-11-08T13:50:17Z</time>
      </trkpt>
      <trkpt lat="45.58102" lon="5.82033">
        <ele>974.00218061346</ele>
        <time>2015-11-08T13:50:27Z</time>
      </trkpt>
      <trkpt lat="45.58098" lon="5.82026">
        <ele>974.00218061346</ele>
        <time>2015-11-08T13:50:32Z</time>
      </trkpt>
      <trkpt lat="45.58079" lon="5.82024">
        <ele>970.04853250142</ele>
        <time>2015-11-08T13:50:47Z</time>
      </trkpt>
      <trkpt lat="45.58073" lon="5.82023">
        <ele>970.04853250142</ele>
        <time>2015-11-08T13:50:52Z</time>
      </trkpt>
      <trkpt lat="45.5806" lon="5.82018">
        <ele>966.72099919426</ele>
        <time>2015-11-08T13:51:02Z</time>
      </trkpt>
      <trkpt lat="45.58059" lon="5.8201">
        <ele>966.72099919426</ele>
        <time>2015-11-08T13:51:07Z</time>
      </trkpt>
      <trkpt lat="45.58068" lon="5.82002">
        <ele>962.94737878939</ele>
        <time>2015-11-08T13:51:17Z</time>
      </trkpt>
      <trkpt lat="45.58073" lon="5.82001">
        <ele>962.94737878939</ele>
        <time>2015-11-08T13:51:22Z</time>
      </trkpt>
      <trkpt lat="45.58083" lon="5.81986">
        <ele>960.58863821513</ele>
        <time>2015-11-08T13:51:32Z</time>
      </trkpt>
      <trkpt lat="45.58084" lon="5.81976">
        <ele>960.58863821513</ele>
        <time>2015-11-08T13:51:37Z</time>
      </trkpt>
      <trkpt lat="45.58083" lon="5.81962">
        <ele>959.23196551411</ele>
        <time>2015-11-08T13:51:47Z</time>
      </trkpt>
      <trkpt lat="45.58084" lon="5.81957">
        <ele>959.23196551411</ele>
        <time>2015-11-08T13:51:52Z</time>
      </trkpt>
      <trkpt lat="45.58084" lon="5.81951">
        <ele>959.23196551411</ele>
        <time>2015-11-08T13:52:02Z</time>
      </trkpt>
      <trkpt lat="45.58085" lon="5.81942">
        <ele>955.92661544932</ele>
        <time>2015-11-08T13:52:07Z</time>
      </trkpt>
      <trkpt lat="45.58084" lon="5.8192">
        <ele>952.58417434036</ele>
        <time>2015-11-08T13:52:17Z</time>
      </trkpt>
      <trkpt lat="45.58082" lon="5.81909">
        <ele>952.58417434036</ele>
        <time>2015-11-08T13:52:22Z</time>
      </trkpt>
      <trkpt lat="45.58076" lon="5.81893">
        <ele>950.15419674202</ele>
        <time>2015-11-08T13:52:32Z</time>
      </trkpt>
      <trkpt lat="45.58074" lon="5.81885">
        <ele>950.15419674202</ele>
        <time>2015-11-08T13:52:37Z</time>
      </trkpt>
      <trkpt lat="45.58069" lon="5.81861">
        <ele>945.3200026813</ele>
        <time>2015-11-08T13:52:47Z</time>
      </trkpt>
      <trkpt lat="45.58066" lon="5.81849">
        <ele>941.16854937678</ele>
        <time>2015-11-08T13:52:52Z</time>
      </trkpt>
      <trkpt lat="45.58061" lon="5.81835">
        <ele>938.09350806935</ele>
        <time>2015-11-08T13:53:02Z</time>
      </trkpt>
      <trkpt lat="45.58058" lon="5.81828">
        <ele>938.09350806935</ele>
        <time>2015-11-08T13:53:07Z</time>
      </trkpt>
      <trkpt lat="45.58056" lon="5.81822">
        <ele>935.3466450731</ele>
        <time>2015-11-08T13:53:17Z</time>
      </trkpt>
      <trkpt lat="45.58054" lon="5.81819">
        <ele>935.3466450731</ele>
        <time>2015-11-08T13:53:22Z</time>
      </trkpt>
      <trkpt lat="45.5805" lon="5.81812">
        <ele>932.85313434419</ele>
        <time>2015-11-08T13:53:32Z</time>
      </trkpt>
      <trkpt lat="45.58048" lon="5.81808">
        <ele>932.85313434419</ele>
        <time>2015-11-08T13:53:37Z</time>
      </trkpt>
      <trkpt lat="45.58039" lon="5.81798">
        <ele>930.8308456402</ele>
        <time>2015-11-08T13:53:47Z</time>
      </trkpt>
      <trkpt lat="45.58033" lon="5.81794">
        <ele>930.8308456402</ele>
        <time>2015-11-08T13:53:52Z</time>
      </trkpt>
      <trkpt lat="45.58011" lon="5.81776">
        <ele>929.27826104096</ele>
        <time>2015-11-08T13:54:07Z</time>
      </trkpt>
      <trkpt lat="45.58005" lon="5.81775">
        <ele>929.27826104096</ele>
        <time>2015-11-08T13:54:12Z</time>
      </trkpt>
      <trkpt lat="45.57995" lon="5.8178">
        <ele>926.78006973728</ele>
        <time>2015-11-08T13:54:22Z</time>
      </trkpt>
      <trkpt lat="45.57989" lon="5.81785">
        <ele>926.78006973728</ele>
        <time>2015-11-08T13:54:27Z</time>
      </trkpt>
      <trkpt lat="45.5798" lon="5.81791">
        <ele>922.7190245955</ele>
        <time>2015-11-08T13:54:37Z</time>
      </trkpt>
      <trkpt lat="45.57975" lon="5.81795">
        <ele>922.7190245955</ele>
        <time>2015-11-08T13:54:42Z</time>
      </trkpt>
      <trkpt lat="45.57963" lon="5.81806">
        <ele>919.56806669733</ele>
        <time>2015-11-08T13:54:52Z</time>
      </trkpt>
      <trkpt lat="45.57954" lon="5.81805">
        <ele>919.56806669733</ele>
        <time>2015-11-08T13:54:57Z</time>
      </trkpt>
      <trkpt lat="45.57951" lon="5.81804">
        <ele>918.37628975814</ele>
        <time>2015-11-08T13:55:07Z</time>
      </trkpt>
      <trkpt lat="45.5795" lon="5.81805">
        <ele>918.37628975814</ele>
        <time>2015-11-08T13:55:12Z</time>
      </trkpt>
      <trkpt lat="45.57942" lon="5.81803">
        <ele>916.19012989838</ele>
        <time>2015-11-08T13:55:22Z</time>
      </trkpt>
      <trkpt lat="45.57936" lon="5.81801">
        <ele>916.19012989838</ele>
        <time>2015-11-08T13:55:27Z</time>
      </trkpt>
      <trkpt lat="45.57927" lon="5.81796">
        <ele>914.31062934728</ele>
        <time>2015-11-08T13:55:37Z</time>
      </trkpt>
      <trkpt lat="45.57924" lon="5.81793">
        <ele>914.31062934728</ele>
        <time>2015-11-08T13:55:42Z</time>
      </trkpt>
      <trkpt lat="45.57917" lon="5.81782">
        <ele>913.09189082753</ele>
        <time>2015-11-08T13:55:52Z</time>
      </trkpt>
      <trkpt lat="45.57914" lon="5.81774">
        <ele>913.09189082753</ele>
        <time>2015-11-08T13:55:57Z</time>
      </trkpt>
      <trkpt lat="45.57909" lon="5.8175">
        <ele>913.52283144378</ele>
        <time>2015-11-08T13:56:12Z</time>
      </trkpt>
      <trkpt lat="45.57911" lon="5.81746">
        <ele>913.52283144378</ele>
        <time>2015-11-08T13:56:17Z</time>
      </trkpt>
      <trkpt lat="45.57915" lon="5.8173">
        <ele>914.78555198339</ele>
        <time>2015-11-08T13:56:27Z</time>
      </trkpt>
      <trkpt lat="45.57917" lon="5.81718">
        <ele>914.78555198339</ele>
        <time>2015-11-08T13:56:32Z</time>
      </trkpt>
      <trkpt lat="45.57923" lon="5.81703">
        <ele>915.80267519671</ele>
        <time>2015-11-08T13:56:42Z</time>
      </trkpt>
      <trkpt lat="45.57922" lon="5.81691">
        <ele>915.80267519671</ele>
        <time>2015-11-08T13:56:47Z</time>
      </trkpt>
      <trkpt lat="45.57926" lon="5.81668">
        <ele>918.3290305495</ele>
        <time>2015-11-08T13:56:57Z</time>
      </trkpt>
      <trkpt lat="45.57929" lon="5.81662">
        <ele>918.3290305495</ele>
        <time>2015-11-08T13:57:02Z</time>
      </trkpt>
      <trkpt lat="45.5793" lon="5.81655">
        <ele>920.13842325573</ele>
        <time>2015-11-08T13:57:12Z</time>
      </trkpt>
      <trkpt lat="45.57932" lon="5.81648">
        <ele>920.13842325573</ele>
        <time>2015-11-08T13:57:17Z</time>
      </trkpt>
      <trkpt lat="45.57934" lon="5.81633">
        <ele>922.13881755249</ele>
        <time>2015-11-08T13:57:32Z</time>
      </trkpt>
      <trkpt lat="45.57932" lon="5.8163">
        <ele>922.13881755249</ele>
        <time>2015-11-08T13:57:37Z</time>
      </trkpt>
      <trkpt lat="45.5793" lon="5.81621">
        <ele>923.57126633638</ele>
        <time>2015-11-08T13:57:47Z</time>
      </trkpt>
      <trkpt lat="45.57929" lon="5.81618">
        <ele>923.57126633638</ele>
        <time>2015-11-08T13:57:52Z</time>
      </trkpt>
      <trkpt lat="45.57927" lon="5.81611">
        <ele>923.57126633638</ele>
        <time>2015-11-08T13:58:02Z</time>
      </trkpt>
      <trkpt lat="45.57924" lon="5.81605">
        <ele>923.97914368705</ele>
        <time>2015-11-08T13:58:07Z</time>
      </trkpt>
      <trkpt lat="45.57922" lon="5.81594">
        <ele>923.97914368705</ele>
        <time>2015-11-08T13:58:17Z</time>
      </trkpt>
      <trkpt lat="45.57924" lon="5.81585">
        <ele>924.15278670446</ele>
        <time>2015-11-08T13:58:22Z</time>
      </trkpt>
      <trkpt lat="45.57929" lon="5.81558">
        <ele>923.8452058404</ele>
        <time>2015-11-08T13:58:32Z</time>
      </trkpt>
      <trkpt lat="45.57931" lon="5.81547">
        <ele>923.8452058404</ele>
        <time>2015-11-08T13:58:37Z</time>
      </trkpt>
      <trkpt lat="45.57932" lon="5.81536">
        <ele>923.56391503964</ele>
        <time>2015-11-08T13:58:47Z</time>
      </trkpt>
      <trkpt lat="45.57932" lon="5.81535">
        <ele>923.56391503964</ele>
        <time>2015-11-08T13:58:52Z</time>
      </trkpt>
      <trkpt lat="45.57932" lon="5.81534">
        <ele>923.56391503964</ele>
        <time>2015-11-08T13:59:02Z</time>
      </trkpt>
      <trkpt lat="45.57932" lon="5.81534">
        <ele>923.56391503964</ele>
        <time>2015-11-08T13:59:07Z</time>
      </trkpt>
      <trkpt lat="45.57939" lon="5.8152">
        <ele>923.05856850213</ele>
        <time>2015-11-08T13:59:17Z</time>
      </trkpt>
      <trkpt lat="45.57941" lon="5.81512">
        <ele>923.05856850213</ele>
        <time>2015-11-08T13:59:22Z</time>
      </trkpt>
      <trkpt lat="45.57947" lon="5.81502">
        <ele>921.80967342841</ele>
        <time>2015-11-08T13:59:32Z</time>
      </trkpt>
      <trkpt lat="45.57949" lon="5.81494">
        <ele>921.80967342841</ele>
        <time>2015-11-08T13:59:37Z</time>
      </trkpt>
      <trkpt lat="45.57951" lon="5.81481">
        <ele>920.75033323208</ele>
        <time>2015-11-08T13:59:47Z</time>
      </trkpt>
      <trkpt lat="45.57955" lon="5.81474">
        <ele>920.75033323208</ele>
        <time>2015-11-08T13:59:52Z</time>
      </trkpt>
      <trkpt lat="45.57964" lon="5.81462">
        <ele>918.84236540252</ele>
        <time>2015-11-08T14:00:02Z</time>
      </trkpt>
      <trkpt lat="45.57969" lon="5.81454">
        <ele>918.84236540252</ele>
        <time>2015-11-08T14:00:07Z</time>
      </trkpt>
      <trkpt lat="45.57976" lon="5.81441">
        <ele>917.61941172477</ele>
        <time>2015-11-08T14:00:17Z</time>
      </trkpt>
      <trkpt lat="45.57978" lon="5.81434">
        <ele>917.61941172477</ele>
        <time>2015-11-08T14:00:22Z</time>
      </trkpt>
      <trkpt lat="45.57986" lon="5.81414">
        <ele>915.77688222809</ele>
        <time>2015-11-08T14:00:37Z</time>
      </trkpt>
      <trkpt lat="45.57987" lon="5.81407">
        <ele>915.77688222809</ele>
        <time>2015-11-08T14:00:42Z</time>
      </trkpt>
      <trkpt lat="45.57993" lon="5.81397">
        <ele>913.98125062483</ele>
        <time>2015-11-08T14:00:52Z</time>
      </trkpt>
      <trkpt lat="45.58" lon="5.81385">
        <ele>912.51848510905</ele>
        <time>2015-11-08T14:00:57Z</time>
      </trkpt>
      <trkpt lat="45.5801" lon="5.81373">
        <ele>910.84562564619</ele>
        <time>2015-11-08T14:01:07Z</time>
      </trkpt>
      <trkpt lat="45.58022" lon="5.81373">
        <ele>908.95019443691</ele>
        <time>2015-11-08T14:01:12Z</time>
      </trkpt>
      <trkpt lat="45.58031" lon="5.81363">
        <ele>906.92215619766</ele>
        <time>2015-11-08T14:01:22Z</time>
      </trkpt>
      <trkpt lat="45.58034" lon="5.81357">
        <ele>906.92215619766</ele>
        <time>2015-11-08T14:01:27Z</time>
      </trkpt>
      <trkpt lat="45.58041" lon="5.81332">
        <ele>904.71555633609</ele>
        <time>2015-11-08T14:01:37Z</time>
      </trkpt>
      <trkpt lat="45.58047" lon="5.8131">
        <ele>902.64860559452</ele>
        <time>2015-11-08T14:01:42Z</time>
      </trkpt>
      <trkpt lat="45.5807" lon="5.81276">
        <ele>900.03579415337</ele>
        <time>2015-11-08T14:01:52Z</time>
      </trkpt>
      <trkpt lat="45.58084" lon="5.81265">
        <ele>897.56931794865</ele>
        <time>2015-11-08T14:01:57Z</time>
      </trkpt>
      <trkpt lat="45.58111" lon="5.81259">
        <ele>895.35688941592</ele>
        <time>2015-11-08T14:02:07Z</time>
      </trkpt>
      <trkpt lat="45.58119" lon="5.81266">
        <ele>893.18053040187</ele>
        <time>2015-11-08T14:02:12Z</time>
      </trkpt>
      <trkpt lat="45.58137" lon="5.81292">
        <ele>891.63075903606</ele>
        <time>2015-11-08T14:02:22Z</time>
      </trkpt>
      <trkpt lat="45.58151" lon="5.81289">
        <ele>890.40267124066</ele>
        <time>2015-11-08T14:02:27Z</time>
      </trkpt>
      <trkpt lat="45.58184" lon="5.81276">
        <ele>889.54428497252</ele>
        <time>2015-11-08T14:02:37Z</time>
      </trkpt>
      <trkpt lat="45.58195" lon="5.81263">
        <ele>888.36405955726</ele>
        <time>2015-11-08T14:02:42Z</time>
      </trkpt>
      <trkpt lat="45.58237" lon="5.8125">
        <ele>887.9226470638</ele>
        <time>2015-11-08T14:02:52Z</time>
      </trkpt>
      <trkpt lat="45.58256" lon="5.81241">
        <ele>887.8604631798</ele>
        <time>2015-11-08T14:02:57Z</time>
      </trkpt>
      <trkpt lat="45.58292" lon="5.81228">
        <ele>887.52622287285</ele>
        <time>2015-11-08T14:03:12Z</time>
      </trkpt>
      <trkpt lat="45.58308" lon="5.81228">
        <ele>887.13868250199</ele>
        <time>2015-11-08T14:03:17Z</time>
      </trkpt>
      <trkpt lat="45.58346" lon="5.81212">
        <ele>887.01597830421</ele>
        <time>2015-11-08T14:03:27Z</time>
      </trkpt>
      <trkpt lat="45.58358" lon="5.81195">
        <ele>886.9765869632</ele>
        <time>2015-11-08T14:03:32Z</time>
      </trkpt>
      <trkpt lat="45.58377" lon="5.81173">
        <ele>886.93858170677</ele>
        <time>2015-11-08T14:03:42Z</time>
      </trkpt>
      <trkpt lat="45.58392" lon="5.81173">
        <ele>887.05666577795</ele>
        <time>2015-11-08T14:03:47Z</time>
      </trkpt>
      <trkpt lat="45.58425" lon="5.81176">
        <ele>886.83969689711</ele>
        <time>2015-11-08T14:03:57Z</time>
      </trkpt>
      <trkpt lat="45.58441" lon="5.81172">
        <ele>885.70390335698</ele>
        <time>2015-11-08T14:04:02Z</time>
      </trkpt>
      <trkpt lat="45.58464" lon="5.81145">
        <ele>885.64738820942</ele>
        <time>2015-11-08T14:04:12Z</time>
      </trkpt>
      <trkpt lat="45.58477" lon="5.8114">
        <ele>885.46335147697</ele>
        <time>2015-11-08T14:04:17Z</time>
      </trkpt>
      <trkpt lat="45.58508" lon="5.8114">
        <ele>884.74020941966</ele>
        <time>2015-11-08T14:04:27Z</time>
      </trkpt>
      <trkpt lat="45.58522" lon="5.81131">
        <ele>883.06936609993</ele>
        <time>2015-11-08T14:04:32Z</time>
      </trkpt>
      <trkpt lat="45.58551" lon="5.81117">
        <ele>882.29427454478</ele>
        <time>2015-11-08T14:04:42Z</time>
      </trkpt>
      <trkpt lat="45.58565" lon="5.81111">
        <ele>882.13178413726</ele>
        <time>2015-11-08T14:04:47Z</time>
      </trkpt>
      <trkpt lat="45.58599" lon="5.81107">
        <ele>880.97765151762</ele>
        <time>2015-11-08T14:04:57Z</time>
      </trkpt>
      <trkpt lat="45.58616" lon="5.81094">
        <ele>880.36024355012</ele>
        <time>2015-11-08T14:05:02Z</time>
      </trkpt>
      <trkpt lat="45.58645" lon="5.81077">
        <ele>880.25309564906</ele>
        <time>2015-11-08T14:05:12Z</time>
      </trkpt>
      <trkpt lat="45.58651" lon="5.81073">
        <ele>880.25309564906</ele>
        <time>2015-11-08T14:05:17Z</time>
      </trkpt>
      <trkpt lat="45.58668" lon="5.81053">
        <ele>880.83207253257</ele>
        <time>2015-11-08T14:05:32Z</time>
      </trkpt>
      <trkpt lat="45.58674" lon="5.81044">
        <ele>880.83207253257</ele>
        <time>2015-11-08T14:05:37Z</time>
      </trkpt>
      <trkpt lat="45.58683" lon="5.8103">
        <ele>881.35035934103</ele>
        <time>2015-11-08T14:05:47Z</time>
      </trkpt>
      <trkpt lat="45.58685" lon="5.81021">
        <ele>881.35035934103</ele>
        <time>2015-11-08T14:05:52Z</time>
      </trkpt>
      <trkpt lat="45.58699" lon="5.81005">
        <ele>882.90322284825</ele>
        <time>2015-11-08T14:06:02Z</time>
      </trkpt>
      <trkpt lat="45.58706" lon="5.81007">
        <ele>882.90322284825</ele>
        <time>2015-11-08T14:06:07Z</time>
      </trkpt>
      <trkpt lat="45.58711" lon="5.81023">
        <ele>884.254518036</ele>
        <time>2015-11-08T14:06:17Z</time>
      </trkpt>
      <trkpt lat="45.58712" lon="5.8103">
        <ele>884.254518036</ele>
        <time>2015-11-08T14:06:22Z</time>
      </trkpt>
      <trkpt lat="45.58718" lon="5.81044">
        <ele>885.28275457641</ele>
        <time>2015-11-08T14:06:32Z</time>
      </trkpt>
      <trkpt lat="45.58721" lon="5.81054">
        <ele>885.28275457641</ele>
        <time>2015-11-08T14:06:37Z</time>
      </trkpt>
      <trkpt lat="45.58725" lon="5.81072">
        <ele>886.49605593848</ele>
        <time>2015-11-08T14:06:47Z</time>
      </trkpt>
      <trkpt lat="45.58728" lon="5.81078">
        <ele>886.49605593848</ele>
        <time>2015-11-08T14:06:52Z</time>
      </trkpt>
      <trkpt lat="45.58736" lon="5.81104">
        <ele>888.43687255733</ele>
        <time>2015-11-08T14:07:07Z</time>
      </trkpt>
      <trkpt lat="45.58737" lon="5.81114">
        <ele>888.43687255733</ele>
        <time>2015-11-08T14:07:12Z</time>
      </trkpt>
      <trkpt lat="45.58741" lon="5.81133">
        <ele>890.66917206324</ele>
        <time>2015-11-08T14:07:22Z</time>
      </trkpt>
      <trkpt lat="45.58742" lon="5.81144">
        <ele>890.66917206324</ele>
        <time>2015-11-08T14:07:27Z</time>
      </trkpt>
      <trkpt lat="45.58742" lon="5.81164">
        <ele>893.35031046256</ele>
        <time>2015-11-08T14:07:37Z</time>
      </trkpt>
      <trkpt lat="45.58743" lon="5.81171">
        <ele>893.35031046256</ele>
        <time>2015-11-08T14:07:42Z</time>
      </trkpt>
      <trkpt lat="45.58739" lon="5.81187">
        <ele>896.63939392572</ele>
        <time>2015-11-08T14:07:52Z</time>
      </trkpt>
      <trkpt lat="45.58738" lon="5.8119">
        <ele>896.63939392572</ele>
        <time>2015-11-08T14:07:57Z</time>
      </trkpt>
      <trkpt lat="45.58732" lon="5.81199">
        <ele>899.65912026776</ele>
        <time>2015-11-08T14:08:07Z</time>
      </trkpt>
      <trkpt lat="45.58728" lon="5.8121">
        <ele>899.65912026776</ele>
        <time>2015-11-08T14:08:12Z</time>
      </trkpt>
      <trkpt lat="45.58725" lon="5.81232">
        <ele>902.15961307492</ele>
        <time>2015-11-08T14:08:22Z</time>
      </trkpt>
      <trkpt lat="45.58725" lon="5.81242">
        <ele>902.15961307492</ele>
        <time>2015-11-08T14:08:27Z</time>
      </trkpt>
      <trkpt lat="45.5872" lon="5.81266">
        <ele>903.89660136983</ele>
        <time>2015-11-08T14:08:37Z</time>
      </trkpt>
      <trkpt lat="45.58722" lon="5.81278">
        <ele>905.94311546265</ele>
        <time>2015-11-08T14:08:42Z</time>
      </trkpt>
      <trkpt lat="45.58732" lon="5.81301">
        <ele>908.02453663185</ele>
        <time>2015-11-08T14:08:57Z</time>
      </trkpt>
      <trkpt lat="45.58738" lon="5.81307">
        <ele>908.02453663185</ele>
        <time>2015-11-08T14:09:02Z</time>
      </trkpt>
      <trkpt lat="45.58747" lon="5.81324">
        <ele>910.24682550004</ele>
        <time>2015-11-08T14:09:12Z</time>
      </trkpt>
      <trkpt lat="45.58753" lon="5.8133">
        <ele>910.24682550004</ele>
        <time>2015-11-08T14:09:17Z</time>
      </trkpt>
      <trkpt lat="45.58758" lon="5.81353">
        <ele>912.21801445994</ele>
        <time>2015-11-08T14:09:27Z</time>
      </trkpt>
      <trkpt lat="45.58761" lon="5.81363">
        <ele>912.21801445994</ele>
        <time>2015-11-08T14:09:32Z</time>
      </trkpt>
      <trkpt lat="45.58769" lon="5.81371">
        <ele>914.25318757368</ele>
        <time>2015-11-08T14:09:42Z</time>
      </trkpt>
      <trkpt lat="45.58771" lon="5.81374">
        <ele>914.25318757368</ele>
        <time>2015-11-08T14:09:47Z</time>
      </trkpt>
      <trkpt lat="45.58773" lon="5.81389">
        <ele>916.01024633999</ele>
        <time>2015-11-08T14:09:57Z</time>
      </trkpt>
      <trkpt lat="45.58775" lon="5.81394">
        <ele>916.01024633999</ele>
        <time>2015-11-08T14:10:02Z</time>
      </trkpt>
      <trkpt lat="45.58787" lon="5.8141">
        <ele>919.04668171391</ele>
        <time>2015-11-08T14:10:12Z</time>
      </trkpt>
      <trkpt lat="45.58793" lon="5.81413">
        <ele>919.04668171391</ele>
        <time>2015-11-08T14:10:17Z</time>
      </trkpt>
      <trkpt lat="45.58802" lon="5.81411">
        <ele>922.2802738019</ele>
        <time>2015-11-08T14:10:27Z</time>
      </trkpt>
      <trkpt lat="45.58807" lon="5.81407">
        <ele>922.2802738019</ele>
        <time>2015-11-08T14:10:32Z</time>
      </trkpt>
      <trkpt lat="45.5882" lon="5.81407">
        <ele>926.26439049797</ele>
        <time>2015-11-08T14:10:42Z</time>
      </trkpt>
      <trkpt lat="45.58827" lon="5.81405">
        <ele>926.26439049797</ele>
        <time>2015-11-08T14:10:47Z</time>
      </trkpt>
      <trkpt lat="45.5884" lon="5.81398">
        <ele>930.60199301304</ele>
        <time>2015-11-08T14:10:57Z</time>
      </trkpt>
      <trkpt lat="45.58846" lon="5.81395">
        <ele>930.60199301304</ele>
        <time>2015-11-08T14:11:02Z</time>
      </trkpt>
      <trkpt lat="45.58853" lon="5.81379">
        <ele>935.24152236989</ele>
        <time>2015-11-08T14:11:12Z</time>
      </trkpt>
      <trkpt lat="45.58857" lon="5.81368">
        <ele>939.67347732395</ele>
        <time>2015-11-08T14:11:17Z</time>
      </trkpt>
      <trkpt lat="45.58856" lon="5.81335">
        <ele>943.48429558043</ele>
        <time>2015-11-08T14:11:32Z</time>
      </trkpt>
      <trkpt lat="45.58855" lon="5.81325">
        <ele>943.48429558043</ele>
        <time>2015-11-08T14:11:37Z</time>
      </trkpt>
      <trkpt lat="45.58855" lon="5.81306">
        <ele>947.64747707771</ele>
        <time>2015-11-08T14:11:47Z</time>
      </trkpt>
      <trkpt lat="45.58856" lon="5.81299">
        <ele>947.64747707771</ele>
        <time>2015-11-08T14:11:52Z</time>
      </trkpt>
      <trkpt lat="45.58864" lon="5.81287">
        <ele>950.81618712272</ele>
        <time>2015-11-08T14:12:02Z</time>
      </trkpt>
      <trkpt lat="45.58872" lon="5.81286">
        <ele>950.81618712272</ele>
        <time>2015-11-08T14:12:07Z</time>
      </trkpt>
      <trkpt lat="45.5888" lon="5.81276">
        <ele>952.52381956341</ele>
        <time>2015-11-08T14:12:17Z</time>
      </trkpt>
      <trkpt lat="45.58884" lon="5.81271">
        <ele>952.52381956341</ele>
        <time>2015-11-08T14:12:22Z</time>
      </trkpt>
      <trkpt lat="45.58894" lon="5.8126">
        <ele>954.8787969748</ele>
        <time>2015-11-08T14:12:32Z</time>
      </trkpt>
      <trkpt lat="45.58901" lon="5.81254">
        <ele>954.8787969748</ele>
        <time>2015-11-08T14:12:37Z</time>
      </trkpt>
      <trkpt lat="45.58917" lon="5.81247">
        <ele>956.50416188871</ele>
        <time>2015-11-08T14:12:47Z</time>
      </trkpt>
      <trkpt lat="45.58922" lon="5.81247">
        <ele>956.50416188871</ele>
        <time>2015-11-08T14:12:52Z</time>
      </trkpt>
      <trkpt lat="45.58925" lon="5.81247">
        <ele>956.50416188871</ele>
        <time>2015-11-08T14:13:07Z</time>
      </trkpt>
      <trkpt lat="45.58929" lon="5.81241">
        <ele>957.17843783405</ele>
        <time>2015-11-08T14:13:12Z</time>
      </trkpt>
      <trkpt lat="45.58934" lon="5.81225">
        <ele>957.79458463621</ele>
        <time>2015-11-08T14:13:22Z</time>
      </trkpt>
      <trkpt lat="45.58935" lon="5.81215">
        <ele>957.79458463621</ele>
        <time>2015-11-08T14:13:27Z</time>
      </trkpt>
      <trkpt lat="45.58944" lon="5.81204">
        <ele>958.44539543462</ele>
        <time>2015-11-08T14:13:37Z</time>
      </trkpt>
      <trkpt lat="45.58948" lon="5.81195">
        <ele>958.44539543462</ele>
        <time>2015-11-08T14:13:42Z</time>
      </trkpt>
      <trkpt lat="45.58955" lon="5.81179">
        <ele>959.73576197137</ele>
        <time>2015-11-08T14:13:52Z</time>
      </trkpt>
      <trkpt lat="45.58958" lon="5.81174">
        <ele>959.73576197137</ele>
        <time>2015-11-08T14:13:57Z</time>
      </trkpt>
      <trkpt lat="45.58961" lon="5.81162">
        <ele>959.87552419808</ele>
        <time>2015-11-08T14:14:07Z</time>
      </trkpt>
      <trkpt lat="45.58963" lon="5.81155">
        <ele>959.87552419808</ele>
        <time>2015-11-08T14:14:12Z</time>
      </trkpt>
      <trkpt lat="45.58966" lon="5.81138">
        <ele>959.8754777626</ele>
        <time>2015-11-08T14:14:22Z</time>
      </trkpt>
      <trkpt lat="45.58969" lon="5.81128">
        <ele>959.8754777626</ele>
        <time>2015-11-08T14:14:27Z</time>
      </trkpt>
      <trkpt lat="45.5898" lon="5.81105">
        <ele>960.88887161894</ele>
        <time>2015-11-08T14:14:37Z</time>
      </trkpt>
      <trkpt lat="45.58983" lon="5.811">
        <ele>960.88887161894</ele>
        <time>2015-11-08T14:14:42Z</time>
      </trkpt>
      <trkpt lat="45.58995" lon="5.81087">
        <ele>961.04165258418</ele>
        <time>2015-11-08T14:14:57Z</time>
      </trkpt>
      <trkpt lat="45.58996" lon="5.81086">
        <ele>961.04165258418</ele>
        <time>2015-11-08T14:15:02Z</time>
      </trkpt>
      <trkpt lat="45.58995" lon="5.81088">
        <ele>961.04165258418</ele>
        <time>2015-11-08T14:15:12Z</time>
      </trkpt>
      <trkpt lat="45.58993" lon="5.81091">
        <ele>961.04165258418</ele>
        <time>2015-11-08T14:15:17Z</time>
      </trkpt>
      <trkpt lat="45.58987" lon="5.81095">
        <ele>960.66074216075</ele>
        <time>2015-11-08T14:15:27Z</time>
      </trkpt>
      <trkpt lat="45.58985" lon="5.81098">
        <ele>960.66074216075</ele>
        <time>2015-11-08T14:15:32Z</time>
      </trkpt>
      <trkpt lat="45.58979" lon="5.81104">
        <ele>959.58946943015</ele>
        <time>2015-11-08T14:15:42Z</time>
      </trkpt>
      <trkpt lat="45.58976" lon="5.81108">
        <ele>959.58946943015</ele>
        <time>2015-11-08T14:15:47Z</time>
      </trkpt>
      <trkpt lat="45.5897" lon="5.81133">
        <ele>958.03053347468</ele>
        <time>2015-11-08T14:15:57Z</time>
      </trkpt>
      <trkpt lat="45.58965" lon="5.81143">
        <ele>958.03053347468</ele>
        <time>2015-11-08T14:16:02Z</time>
      </trkpt>
      <trkpt lat="45.58959" lon="5.81157">
        <ele>957.36926639805</ele>
        <time>2015-11-08T14:16:12Z</time>
      </trkpt>
      <trkpt lat="45.58957" lon="5.8116">
        <ele>957.36926639805</ele>
        <time>2015-11-08T14:16:17Z</time>
      </trkpt>
      <trkpt lat="45.58954" lon="5.81167">
        <ele>957.25826842201</ele>
        <time>2015-11-08T14:16:27Z</time>
      </trkpt>
      <trkpt lat="45.5895" lon="5.81178">
        <ele>957.25826842201</ele>
        <time>2015-11-08T14:16:32Z</time>
      </trkpt>
      <trkpt lat="45.58944" lon="5.81195">
        <ele>957.12911332895</ele>
        <time>2015-11-08T14:16:42Z</time>
      </trkpt>
      <trkpt lat="45.58941" lon="5.81207">
        <ele>957.12911332895</ele>
        <time>2015-11-08T14:16:47Z</time>
      </trkpt>
      <trkpt lat="45.58931" lon="5.81221">
        <ele>956.64249457165</ele>
        <time>2015-11-08T14:16:57Z</time>
      </trkpt>
      <trkpt lat="45.58933" lon="5.81227">
        <ele>956.64249457165</ele>
        <time>2015-11-08T14:17:02Z</time>
      </trkpt>
      <trkpt lat="45.58948" lon="5.81215">
        <ele>957.15667772629</ele>
        <time>2015-11-08T14:17:17Z</time>
      </trkpt>
      <trkpt lat="45.58952" lon="5.8121">
        <ele>957.15667772629</ele>
        <time>2015-11-08T14:17:22Z</time>
      </trkpt>
      <trkpt lat="45.58962" lon="5.812">
        <ele>957.86649769275</ele>
        <time>2015-11-08T14:17:32Z</time>
      </trkpt>
      <trkpt lat="45.58968" lon="5.81196">
        <ele>957.86649769275</ele>
        <time>2015-11-08T14:17:37Z</time>
      </trkpt>
      <trkpt lat="45.58975" lon="5.81182">
        <ele>959.49525890427</ele>
        <time>2015-11-08T14:17:47Z</time>
      </trkpt>
      <trkpt lat="45.58983" lon="5.81177">
        <ele>959.49525890427</ele>
        <time>2015-11-08T14:17:52Z</time>
      </trkpt>
      <trkpt lat="45.58992" lon="5.81165">
        <ele>960.4623539092</ele>
        <time>2015-11-08T14:18:02Z</time>
      </trkpt>
      <trkpt lat="45.58995" lon="5.81159">
        <ele>960.4623539092</ele>
        <time>2015-11-08T14:18:07Z</time>
      </trkpt>
      <trkpt lat="45.59004" lon="5.81144">
        <ele>961.46674268736</ele>
        <time>2015-11-08T14:18:17Z</time>
      </trkpt>
      <trkpt lat="45.59007" lon="5.81134">
        <ele>961.46674268736</ele>
        <time>2015-11-08T14:18:22Z</time>
      </trkpt>
      <trkpt lat="45.5902" lon="5.81124">
        <ele>962.70912503942</ele>
        <time>2015-11-08T14:18:32Z</time>
      </trkpt>
      <trkpt lat="45.59024" lon="5.81125">
        <ele>962.70912503942</ele>
        <time>2015-11-08T14:18:37Z</time>
      </trkpt>
      <trkpt lat="45.59031" lon="5.81114">
        <ele>963.3371240392</ele>
        <time>2015-11-08T14:18:47Z</time>
      </trkpt>
      <trkpt lat="45.59035" lon="5.81103">
        <ele>963.3371240392</ele>
        <time>2015-11-08T14:18:52Z</time>
      </trkpt>
      <trkpt lat="45.59036" lon="5.81087">
        <ele>963.75875769069</ele>
        <time>2015-11-08T14:19:02Z</time>
      </trkpt>
      <trkpt lat="45.59038" lon="5.81077">
        <ele>963.75875769069</ele>
        <time>2015-11-08T14:19:07Z</time>
      </trkpt>
      <trkpt lat="45.59043" lon="5.81055">
        <ele>965.44782910434</ele>
        <time>2015-11-08T14:19:17Z</time>
      </trkpt>
      <trkpt lat="45.59045" lon="5.81048">
        <ele>965.44782910434</ele>
        <time>2015-11-08T14:19:22Z</time>
      </trkpt>
      <trkpt lat="45.59049" lon="5.81035">
        <ele>967.43165585883</ele>
        <time>2015-11-08T14:19:32Z</time>
      </trkpt>
      <trkpt lat="45.59049" lon="5.81029">
        <ele>967.43165585883</ele>
        <time>2015-11-08T14:19:37Z</time>
      </trkpt>
      <trkpt lat="45.59052" lon="5.81017">
        <ele>970.3212891321</ele>
        <time>2015-11-08T14:19:47Z</time>
      </trkpt>
      <trkpt lat="45.59053" lon="5.81008">
        <ele>970.3212891321</ele>
        <time>2015-11-08T14:19:52Z</time>
      </trkpt>
      <trkpt lat="45.59057" lon="5.80985">
        <ele>973.03743334153</ele>
        <time>2015-11-08T14:20:07Z</time>
      </trkpt>
      <trkpt lat="45.59061" lon="5.80978">
        <ele>973.03743334153</ele>
        <time>2015-11-08T14:20:12Z</time>
      </trkpt>
      <trkpt lat="45.59066" lon="5.80959">
        <ele>974.52287840808</ele>
        <time>2015-11-08T14:20:22Z</time>
      </trkpt>
      <trkpt lat="45.59065" lon="5.8095">
        <ele>974.52287840808</ele>
        <time>2015-11-08T14:20:27Z</time>
      </trkpt>
      <trkpt lat="45.59072" lon="5.80936">
        <ele>974.85350651354</ele>
        <time>2015-11-08T14:20:37Z</time>
      </trkpt>
      <trkpt lat="45.59077" lon="5.80931">
        <ele>974.85350651354</ele>
        <time>2015-11-08T14:20:42Z</time>
      </trkpt>
      <trkpt lat="45.59084" lon="5.80912">
        <ele>976.86977246981</ele>
        <time>2015-11-08T14:20:52Z</time>
      </trkpt>
      <trkpt lat="45.59085" lon="5.80903">
        <ele>976.86977246981</ele>
        <time>2015-11-08T14:20:57Z</time>
      </trkpt>
      <trkpt lat="45.59098" lon="5.80895">
        <ele>980.40296655769</ele>
        <time>2015-11-08T14:21:07Z</time>
      </trkpt>
      <trkpt lat="45.59104" lon="5.80894">
        <ele>980.40296655769</ele>
        <time>2015-11-08T14:21:12Z</time>
      </trkpt>
      <trkpt lat="45.59115" lon="5.80883">
        <ele>983.80815784856</ele>
        <time>2015-11-08T14:21:22Z</time>
      </trkpt>
      <trkpt lat="45.59119" lon="5.8087">
        <ele>986.78655147133</ele>
        <time>2015-11-08T14:21:27Z</time>
      </trkpt>
      <trkpt lat="45.59125" lon="5.80859">
        <ele>990.31627781621</ele>
        <time>2015-11-08T14:21:37Z</time>
      </trkpt>
      <trkpt lat="45.59128" lon="5.80851">
        <ele>990.31627781621</ele>
        <time>2015-11-08T14:21:42Z</time>
      </trkpt>
      <trkpt lat="45.59142" lon="5.80847">
        <ele>994.04832807069</ele>
        <time>2015-11-08T14:21:57Z</time>
      </trkpt>
      <trkpt lat="45.59147" lon="5.80845">
        <ele>994.04832807069</ele>
        <time>2015-11-08T14:22:02Z</time>
      </trkpt>
      <trkpt lat="45.59158" lon="5.8084">
        <ele>998.63876376901</ele>
        <time>2015-11-08T14:22:12Z</time>
      </trkpt>
      <trkpt lat="45.59167" lon="5.80844">
        <ele>998.63876376901</ele>
        <time>2015-11-08T14:22:17Z</time>
      </trkpt>
      <trkpt lat="45.59179" lon="5.80844">
        <ele>1001.3064900045</ele>
        <time>2015-11-08T14:22:27Z</time>
      </trkpt>
      <trkpt lat="45.59184" lon="5.80841">
        <ele>1001.3064900045</ele>
        <time>2015-11-08T14:22:32Z</time>
      </trkpt>
      <trkpt lat="45.59197" lon="5.80836">
        <ele>1004.5240658955</ele>
        <time>2015-11-08T14:22:42Z</time>
      </trkpt>
      <trkpt lat="45.59205" lon="5.80835">
        <ele>1004.5240658955</ele>
        <time>2015-11-08T14:22:47Z</time>
      </trkpt>
      <trkpt lat="45.59221" lon="5.80834">
        <ele>1008.1310694389</ele>
        <time>2015-11-08T14:22:57Z</time>
      </trkpt>
      <trkpt lat="45.5923" lon="5.80833">
        <ele>1008.1310694389</ele>
        <time>2015-11-08T14:23:02Z</time>
      </trkpt>
      <trkpt lat="45.59242" lon="5.80825">
        <ele>1012.0787429425</ele>
        <time>2015-11-08T14:23:12Z</time>
      </trkpt>
      <trkpt lat="45.59253" lon="5.80824">
        <ele>1016.5948705622</ele>
        <time>2015-11-08T14:23:17Z</time>
      </trkpt>
      <trkpt lat="45.59339" lon="5.80835">
        <ele>1021.586392907</ele>
        <time>2015-11-08T14:24:07Z</time>
      </trkpt>
      <trkpt lat="45.59342" lon="5.80838">
        <ele>1021.586392907</ele>
        <time>2015-11-08T14:24:12Z</time>
      </trkpt>
      <trkpt lat="45.59348" lon="5.8084">
        <ele>1028.234066224</ele>
        <time>2015-11-08T14:24:22Z</time>
      </trkpt>
      <trkpt lat="45.59353" lon="5.80843">
        <ele>1028.234066224</ele>
        <time>2015-11-08T14:24:28Z</time>
      </trkpt>
      <trkpt lat="45.59364" lon="5.80847">
        <ele>1033.8372930109</ele>
        <time>2015-11-08T14:24:37Z</time>
      </trkpt>
      <trkpt lat="45.59368" lon="5.80852">
        <ele>1033.8372930109</ele>
        <time>2015-11-08T14:24:42Z</time>
      </trkpt>
      <trkpt lat="45.59378" lon="5.80852">
        <ele>1038.7647751831</ele>
        <time>2015-11-08T14:24:52Z</time>
      </trkpt>
      <trkpt lat="45.59384" lon="5.80851">
        <ele>1038.7647751831</ele>
        <time>2015-11-08T14:24:57Z</time>
      </trkpt>
      <trkpt lat="45.59395" lon="5.80855">
        <ele>1043.5907945323</ele>
        <time>2015-11-08T14:25:07Z</time>
      </trkpt>
      <trkpt lat="45.59415" lon="5.80856">
        <ele>1048.4588367179</ele>
        <time>2015-11-08T14:25:12Z</time>
      </trkpt>
      <trkpt lat="45.59446" lon="5.80865">
        <ele>1052.2625871892</ele>
        <time>2015-11-08T14:25:22Z</time>
      </trkpt>
      <trkpt lat="45.59452" lon="5.80863">
        <ele>1052.2625871892</ele>
        <time>2015-11-08T14:25:27Z</time>
      </trkpt>
      <trkpt lat="45.59462" lon="5.80872">
        <ele>1055.6086602813</ele>
        <time>2015-11-08T14:25:37Z</time>
      </trkpt>
      <trkpt lat="45.59466" lon="5.80875">
        <ele>1055.6086602813</ele>
        <time>2015-11-08T14:25:42Z</time>
      </trkpt>
      <trkpt lat="45.59484" lon="5.80881">
        <ele>1058.3112313211</ele>
        <time>2015-11-08T14:25:52Z</time>
      </trkpt>
      <trkpt lat="45.5949" lon="5.80886">
        <ele>1058.3112313211</ele>
        <time>2015-11-08T14:25:57Z</time>
      </trkpt>
      <trkpt lat="45.59508" lon="5.80897">
        <ele>1061.2809766998</ele>
        <time>2015-11-08T14:26:07Z</time>
      </trkpt>
      <trkpt lat="45.59514" lon="5.80899">
        <ele>1061.2809766998</ele>
        <time>2015-11-08T14:26:12Z</time>
      </trkpt>
      <trkpt lat="45.59531" lon="5.80901">
        <ele>1064.5108729452</ele>
        <time>2015-11-08T14:26:22Z</time>
      </trkpt>
      <trkpt lat="45.59536" lon="5.80902">
        <ele>1064.5108729452</ele>
        <time>2015-11-08T14:26:27Z</time>
      </trkpt>
      <trkpt lat="45.59539" lon="5.80902">
        <ele>1064.5108729452</ele>
        <time>2015-11-08T14:26:37Z</time>
      </trkpt>
      <trkpt lat="45.59539" lon="5.80902">
        <ele>1064.5108729452</ele>
        <time>2015-11-08T14:26:42Z</time>
      </trkpt>
      <trkpt lat="45.59557" lon="5.80899">
        <ele>1066.7545190039</ele>
        <time>2015-11-08T14:26:57Z</time>
      </trkpt>
      <trkpt lat="45.59565" lon="5.80901">
        <ele>1066.7545190039</ele>
        <time>2015-11-08T14:27:02Z</time>
      </trkpt>
      <trkpt lat="45.59583" lon="5.80908">
        <ele>1068.8631658851</ele>
        <time>2015-11-08T14:27:12Z</time>
      </trkpt>
      <trkpt lat="45.5959" lon="5.80911">
        <ele>1068.8631658851</ele>
        <time>2015-11-08T14:27:17Z</time>
      </trkpt>
      <trkpt lat="45.59602" lon="5.80917">
        <ele>1069.7526308372</ele>
        <time>2015-11-08T14:27:27Z</time>
      </trkpt>
      <trkpt lat="45.59607" lon="5.8092">
        <ele>1069.7526308372</ele>
        <time>2015-11-08T14:27:32Z</time>
      </trkpt>
      <trkpt lat="45.59617" lon="5.80928">
        <ele>1070.5259646029</ele>
        <time>2015-11-08T14:27:42Z</time>
      </trkpt>
      <trkpt lat="45.59624" lon="5.80933">
        <ele>1070.5259646029</ele>
        <time>2015-11-08T14:27:47Z</time>
      </trkpt>
      <trkpt lat="45.59645" lon="5.80943">
        <ele>1071.5139063452</ele>
        <time>2015-11-08T14:27:57Z</time>
      </trkpt>
      <trkpt lat="45.5966" lon="5.80944">
        <ele>1072.3162554375</ele>
        <time>2015-11-08T14:28:02Z</time>
      </trkpt>
      <trkpt lat="45.59668" lon="5.80945">
        <ele>1072.3162554375</ele>
        <time>2015-11-08T14:28:12Z</time>
      </trkpt>
      <trkpt lat="45.59675" lon="5.80949">
        <ele>1072.6060426326</ele>
        <time>2015-11-08T14:28:17Z</time>
      </trkpt>
      <trkpt lat="45.59681" lon="5.80963">
        <ele>1072.6150220591</ele>
        <time>2015-11-08T14:28:27Z</time>
      </trkpt>
      <trkpt lat="45.59681" lon="5.80967">
        <ele>1072.6150220591</ele>
        <time>2015-11-08T14:28:32Z</time>
      </trkpt>
      <trkpt lat="45.59682" lon="5.80974">
        <ele>1072.6150220591</ele>
        <time>2015-11-08T14:28:42Z</time>
      </trkpt>
      <trkpt lat="45.59682" lon="5.80978">
        <ele>1072.3425754835</ele>
        <time>2015-11-08T14:28:47Z</time>
      </trkpt>
      <trkpt lat="45.59683" lon="5.80982">
        <ele>1072.3425754835</ele>
        <time>2015-11-08T14:28:57Z</time>
      </trkpt>
      <trkpt lat="45.59686" lon="5.80989">
        <ele>1071.1692466175</ele>
        <time>2015-11-08T14:29:02Z</time>
      </trkpt>
      <trkpt lat="45.59691" lon="5.81023">
        <ele>1070.3970350656</ele>
        <time>2015-11-08T14:29:17Z</time>
      </trkpt>
      <trkpt lat="45.59692" lon="5.81032">
        <ele>1070.3970350656</ele>
        <time>2015-11-08T14:29:22Z</time>
      </trkpt>
      <trkpt lat="45.59699" lon="5.81051">
        <ele>1068.0606746208</ele>
        <time>2015-11-08T14:29:32Z</time>
      </trkpt>
      <trkpt lat="45.59701" lon="5.81061">
        <ele>1068.0606746208</ele>
        <time>2015-11-08T14:29:37Z</time>
      </trkpt>
      <trkpt lat="45.59704" lon="5.81085">
        <ele>1066.0760529064</ele>
        <time>2015-11-08T14:29:47Z</time>
      </trkpt>
      <trkpt lat="45.59706" lon="5.81097">
        <ele>1066.0760529064</ele>
        <time>2015-11-08T14:29:52Z</time>
      </trkpt>
      <trkpt lat="45.59704" lon="5.81123">
        <ele>1064.7040536074</ele>
        <time>2015-11-08T14:30:02Z</time>
      </trkpt>
      <trkpt lat="45.59706" lon="5.81132">
        <ele>1064.7040536074</ele>
        <time>2015-11-08T14:30:07Z</time>
      </trkpt>
      <trkpt lat="45.59717" lon="5.81149">
        <ele>1063.9971962679</ele>
        <time>2015-11-08T14:30:17Z</time>
      </trkpt>
      <trkpt lat="45.59721" lon="5.81159">
        <ele>1063.9971962679</ele>
        <time>2015-11-08T14:30:22Z</time>
      </trkpt>
      <trkpt lat="45.59723" lon="5.81178">
        <ele>1063.3680272677</ele>
        <time>2015-11-08T14:30:32Z</time>
      </trkpt>
      <trkpt lat="45.59725" lon="5.81186">
        <ele>1063.3680272677</ele>
        <time>2015-11-08T14:30:37Z</time>
      </trkpt>
      <trkpt lat="45.59726" lon="5.81207">
        <ele>1062.560073067</ele>
        <time>2015-11-08T14:30:47Z</time>
      </trkpt>
      <trkpt lat="45.5973" lon="5.81208">
        <ele>1062.560073067</ele>
        <time>2015-11-08T14:30:52Z</time>
      </trkpt>
      <trkpt lat="45.59734" lon="5.81226">
        <ele>1061.638642763</ele>
        <time>2015-11-08T14:31:02Z</time>
      </trkpt>
      <trkpt lat="45.59735" lon="5.81238">
        <ele>1061.638642763</ele>
        <time>2015-11-08T14:31:07Z</time>
      </trkpt>
      <trkpt lat="45.59739" lon="5.81267">
        <ele>1061.5866742251</ele>
        <time>2015-11-08T14:31:22Z</time>
      </trkpt>
      <trkpt lat="45.59741" lon="5.81275">
        <ele>1061.5866742251</ele>
        <time>2015-11-08T14:31:27Z</time>
      </trkpt>
      <trkpt lat="45.59744" lon="5.81298">
        <ele>1061.8855481964</ele>
        <time>2015-11-08T14:31:37Z</time>
      </trkpt>
      <trkpt lat="45.59747" lon="5.81304">
        <ele>1061.8855481964</ele>
        <time>2015-11-08T14:31:42Z</time>
      </trkpt>
      <trkpt lat="45.59756" lon="5.81315">
        <ele>1062.2552980389</ele>
        <time>2015-11-08T14:31:52Z</time>
      </trkpt>
      <trkpt lat="45.59759" lon="5.81323">
        <ele>1062.2552980389</ele>
        <time>2015-11-08T14:31:57Z</time>
      </trkpt>
      <trkpt lat="45.59772" lon="5.81336">
        <ele>1062.7099181699</ele>
        <time>2015-11-08T14:32:07Z</time>
      </trkpt>
      <trkpt lat="45.59777" lon="5.81342">
        <ele>1062.7099181699</ele>
        <time>2015-11-08T14:32:12Z</time>
      </trkpt>
      <trkpt lat="45.59784" lon="5.8136">
        <ele>1064.28511225</ele>
        <time>2015-11-08T14:32:22Z</time>
      </trkpt>
      <trkpt lat="45.59789" lon="5.81368">
        <ele>1064.28511225</ele>
        <time>2015-11-08T14:32:27Z</time>
      </trkpt>
      <trkpt lat="45.59795" lon="5.81383">
        <ele>1065.7466606148</ele>
        <time>2015-11-08T14:32:37Z</time>
      </trkpt>
      <trkpt lat="45.59798" lon="5.8139">
        <ele>1065.7466606148</ele>
        <time>2015-11-08T14:32:42Z</time>
      </trkpt>
      <trkpt lat="45.5981" lon="5.81417">
        <ele>1067.3634179357</ele>
        <time>2015-11-08T14:32:57Z</time>
      </trkpt>
      <trkpt lat="45.59814" lon="5.81424">
        <ele>1067.3634179357</ele>
        <time>2015-11-08T14:33:02Z</time>
      </trkpt>
      <trkpt lat="45.59821" lon="5.81438">
        <ele>1068.8362430918</ele>
        <time>2015-11-08T14:33:12Z</time>
      </trkpt>
      <trkpt lat="45.59826" lon="5.81442">
        <ele>1068.8362430918</ele>
        <time>2015-11-08T14:33:17Z</time>
      </trkpt>
      <trkpt lat="45.59835" lon="5.81453">
        <ele>1070.4646424239</ele>
        <time>2015-11-08T14:33:27Z</time>
      </trkpt>
      <trkpt lat="45.59842" lon="5.81457">
        <ele>1070.4646424239</ele>
        <time>2015-11-08T14:33:32Z</time>
      </trkpt>
      <trkpt lat="45.59855" lon="5.81464">
        <ele>1072.122009357</ele>
        <time>2015-11-08T14:33:42Z</time>
      </trkpt>
      <trkpt lat="45.5986" lon="5.81469">
        <ele>1072.122009357</ele>
        <time>2015-11-08T14:33:47Z</time>
      </trkpt>
      <trkpt lat="45.59873" lon="5.81481">
        <ele>1073.2440591999</ele>
        <time>2015-11-08T14:33:57Z</time>
      </trkpt>
      <trkpt lat="45.59879" lon="5.81486">
        <ele>1073.2440591999</ele>
        <time>2015-11-08T14:34:02Z</time>
      </trkpt>
      <trkpt lat="45.59893" lon="5.815">
        <ele>1074.6783750064</ele>
        <time>2015-11-08T14:34:12Z</time>
      </trkpt>
      <trkpt lat="45.59901" lon="5.81503">
        <ele>1074.6783750064</ele>
        <time>2015-11-08T14:34:17Z</time>
      </trkpt>
      <trkpt lat="45.59914" lon="5.81508">
        <ele>1075.4511112261</ele>
        <time>2015-11-08T14:34:27Z</time>
      </trkpt>
      <trkpt lat="45.59918" lon="5.81508">
        <ele>1075.4511112261</ele>
        <time>2015-11-08T14:34:32Z</time>
      </trkpt>
      <trkpt lat="45.59939" lon="5.81513">
        <ele>1076.3766132112</ele>
        <time>2015-11-08T14:34:42Z</time>
      </trkpt>
      <trkpt lat="45.59947" lon="5.81517">
        <ele>1076.3766132112</ele>
        <time>2015-11-08T14:34:47Z</time>
      </trkpt>
      <trkpt lat="45.59967" lon="5.81527">
        <ele>1076.9839108863</ele>
        <time>2015-11-08T14:35:02Z</time>
      </trkpt>
      <trkpt lat="45.59973" lon="5.81535">
        <ele>1076.9839108863</ele>
        <time>2015-11-08T14:35:07Z</time>
      </trkpt>
      <trkpt lat="45.59986" lon="5.81551">
        <ele>1077.6156080762</ele>
        <time>2015-11-08T14:35:17Z</time>
      </trkpt>
      <trkpt lat="45.5999" lon="5.81555">
        <ele>1077.6156080762</ele>
        <time>2015-11-08T14:35:22Z</time>
      </trkpt>
      <trkpt lat="45.59999" lon="5.81569">
        <ele>1078.0125145554</ele>
        <time>2015-11-08T14:35:32Z</time>
      </trkpt>
      <trkpt lat="45.60004" lon="5.81575">
        <ele>1078.0125145554</ele>
        <time>2015-11-08T14:35:37Z</time>
      </trkpt>
      <trkpt lat="45.60012" lon="5.81589">
        <ele>1078.6411725953</ele>
        <time>2015-11-08T14:35:47Z</time>
      </trkpt>
      <trkpt lat="45.60019" lon="5.81595">
        <ele>1078.6411725953</ele>
        <time>2015-11-08T14:35:52Z</time>
      </trkpt>
      <trkpt lat="45.60029" lon="5.81606">
        <ele>1080.9130525684</ele>
        <time>2015-11-08T14:36:02Z</time>
      </trkpt>
      <trkpt lat="45.60035" lon="5.81613">
        <ele>1080.9130525684</ele>
        <time>2015-11-08T14:36:07Z</time>
      </trkpt>
      <trkpt lat="45.60046" lon="5.81625">
        <ele>1083.5228192768</ele>
        <time>2015-11-08T14:36:17Z</time>
      </trkpt>
      <trkpt lat="45.60052" lon="5.81632">
        <ele>1083.5228192768</ele>
        <time>2015-11-08T14:36:22Z</time>
      </trkpt>
      <trkpt lat="45.60069" lon="5.8164">
        <ele>1086.2975930462</ele>
        <time>2015-11-08T14:36:37Z</time>
      </trkpt>
      <trkpt lat="45.60077" lon="5.81639">
        <ele>1086.2975930462</ele>
        <time>2015-11-08T14:36:42Z</time>
      </trkpt>
      <trkpt lat="45.60094" lon="5.81623">
        <ele>1088.7740264798</ele>
        <time>2015-11-08T14:36:52Z</time>
      </trkpt>
      <trkpt lat="45.60097" lon="5.81606">
        <ele>1091.1288590561</ele>
        <time>2015-11-08T14:36:57Z</time>
      </trkpt>
      <trkpt lat="45.60099" lon="5.81585">
        <ele>1094.4916963122</ele>
        <time>2015-11-08T14:37:07Z</time>
      </trkpt>
      <trkpt lat="45.60101" lon="5.81574">
        <ele>1094.4916963122</ele>
        <time>2015-11-08T14:37:12Z</time>
      </trkpt>
      <trkpt lat="45.60101" lon="5.81557">
        <ele>1097.643770478</ele>
        <time>2015-11-08T14:37:22Z</time>
      </trkpt>
      <trkpt lat="45.601" lon="5.81547">
        <ele>1097.643770478</ele>
        <time>2015-11-08T14:37:27Z</time>
      </trkpt>
      <trkpt lat="45.60101" lon="5.81527">
        <ele>1100.0616970986</ele>
        <time>2015-11-08T14:37:37Z</time>
      </trkpt>
      <trkpt lat="45.60102" lon="5.81519">
        <ele>1100.0616970986</ele>
        <time>2015-11-08T14:37:42Z</time>
      </trkpt>
      <trkpt lat="45.60096" lon="5.815">
        <ele>1102.8334208194</ele>
        <time>2015-11-08T14:37:52Z</time>
      </trkpt>
      <trkpt lat="45.60095" lon="5.8149">
        <ele>1102.8334208194</ele>
        <time>2015-11-08T14:37:57Z</time>
      </trkpt>
      <trkpt lat="45.60097" lon="5.81469">
        <ele>1105.6834090289</ele>
        <time>2015-11-08T14:38:12Z</time>
      </trkpt>
      <trkpt lat="45.60095" lon="5.81461">
        <ele>1105.6834090289</ele>
        <time>2015-11-08T14:38:17Z</time>
      </trkpt>
      <trkpt lat="45.60097" lon="5.81443">
        <ele>1108.8461649112</ele>
        <time>2015-11-08T14:38:27Z</time>
      </trkpt>
      <trkpt lat="45.60097" lon="5.81429">
        <ele>1112.6822487752</ele>
        <time>2015-11-08T14:38:32Z</time>
      </trkpt>
      <trkpt lat="45.60101" lon="5.81405">
        <ele>1116.0827968634</ele>
        <time>2015-11-08T14:38:42Z</time>
      </trkpt>
      <trkpt lat="45.60103" lon="5.81396">
        <ele>1116.0827968634</ele>
        <time>2015-11-08T14:38:47Z</time>
      </trkpt>
      <trkpt lat="45.60105" lon="5.81379">
        <ele>1119.9672018578</ele>
        <time>2015-11-08T14:38:57Z</time>
      </trkpt>
      <trkpt lat="45.60107" lon="5.81372">
        <ele>1119.9672018578</ele>
        <time>2015-11-08T14:39:02Z</time>
      </trkpt>
      <trkpt lat="45.60111" lon="5.81359">
        <ele>1123.1973177683</ele>
        <time>2015-11-08T14:39:12Z</time>
      </trkpt>
      <trkpt lat="45.60113" lon="5.81351">
        <ele>1123.1973177683</ele>
        <time>2015-11-08T14:39:17Z</time>
      </trkpt>
      <trkpt lat="45.60116" lon="5.81334">
        <ele>1126.1472448007</ele>
        <time>2015-11-08T14:39:27Z</time>
      </trkpt>
      <trkpt lat="45.60116" lon="5.8132">
        <ele>1129.0924442845</ele>
        <time>2015-11-08T14:39:32Z</time>
      </trkpt>
      <trkpt lat="45.6012" lon="5.81302">
        <ele>1131.9712297426</ele>
        <time>2015-11-08T14:39:42Z</time>
      </trkpt>
      <trkpt lat="45.60121" lon="5.81295">
        <ele>1131.9712297426</ele>
        <time>2015-11-08T14:39:47Z</time>
      </trkpt>
      <trkpt lat="45.60119" lon="5.81266">
        <ele>1135.2887899198</ele>
        <time>2015-11-08T14:40:02Z</time>
      </trkpt>
      <trkpt lat="45.60119" lon="5.81255">
        <ele>1135.2887899198</ele>
        <time>2015-11-08T14:40:07Z</time>
      </trkpt>
      <trkpt lat="45.60114" lon="5.81239">
        <ele>1137.5233642046</ele>
        <time>2015-11-08T14:40:17Z</time>
      </trkpt>
      <trkpt lat="45.60112" lon="5.81233">
        <ele>1137.5233642046</ele>
        <time>2015-11-08T14:40:22Z</time>
      </trkpt>
      <trkpt lat="45.60105" lon="5.81216">
        <ele>1139.9053801495</ele>
        <time>2015-11-08T14:40:32Z</time>
      </trkpt>
      <trkpt lat="45.60102" lon="5.81211">
        <ele>1139.9053801495</ele>
        <time>2015-11-08T14:40:37Z</time>
      </trkpt>
      <trkpt lat="45.60097" lon="5.81198">
        <ele>1141.2688126781</ele>
        <time>2015-11-08T14:40:47Z</time>
      </trkpt>
      <trkpt lat="45.60093" lon="5.81189">
        <ele>1141.2688126781</ele>
        <time>2015-11-08T14:40:52Z</time>
      </trkpt>
      <trkpt lat="45.60085" lon="5.8117">
        <ele>1141.8332700998</ele>
        <time>2015-11-08T14:41:02Z</time>
      </trkpt>
      <trkpt lat="45.60081" lon="5.81162">
        <ele>1141.8332700998</ele>
        <time>2015-11-08T14:41:07Z</time>
      </trkpt>
      <trkpt lat="45.60075" lon="5.81145">
        <ele>1141.7037002788</ele>
        <time>2015-11-08T14:41:17Z</time>
      </trkpt>
      <trkpt lat="45.60073" lon="5.81135">
        <ele>1141.7037002788</ele>
        <time>2015-11-08T14:41:22Z</time>
      </trkpt>
      <trkpt lat="45.60067" lon="5.81114">
        <ele>1142.03139376</ele>
        <time>2015-11-08T14:41:32Z</time>
      </trkpt>
      <trkpt lat="45.60064" lon="5.81107">
        <ele>1142.03139376</ele>
        <time>2015-11-08T14:41:37Z</time>
      </trkpt>
      <trkpt lat="45.60062" lon="5.81096">
        <ele>1142.4119273783</ele>
        <time>2015-11-08T14:41:47Z</time>
      </trkpt>
      <trkpt lat="45.60061" lon="5.81084">
        <ele>1142.4119273783</ele>
        <time>2015-11-08T14:41:52Z</time>
      </trkpt>
      <trkpt lat="45.60063" lon="5.8105">
        <ele>1143.508098244</ele>
        <time>2015-11-08T14:42:07Z</time>
      </trkpt>
      <trkpt lat="45.60066" lon="5.81039">
        <ele>1143.508098244</ele>
        <time>2015-11-08T14:42:12Z</time>
      </trkpt>
      <trkpt lat="45.60073" lon="5.8102">
        <ele>1145.5429535853</ele>
        <time>2015-11-08T14:42:22Z</time>
      </trkpt>
      <trkpt lat="45.6008" lon="5.81015">
        <ele>1145.5429535853</ele>
        <time>2015-11-08T14:42:27Z</time>
      </trkpt>
      <trkpt lat="45.60092" lon="5.81005">
        <ele>1146.7462359322</ele>
        <time>2015-11-08T14:42:37Z</time>
      </trkpt>
      <trkpt lat="45.60098" lon="5.80998">
        <ele>1146.7462359322</ele>
        <time>2015-11-08T14:42:42Z</time>
      </trkpt>
      <trkpt lat="45.60107" lon="5.80983">
        <ele>1148.9964063965</ele>
        <time>2015-11-08T14:42:52Z</time>
      </trkpt>
      <trkpt lat="45.60112" lon="5.80977">
        <ele>1148.9964063965</ele>
        <time>2015-11-08T14:42:57Z</time>
      </trkpt>
      <trkpt lat="45.60126" lon="5.80973">
        <ele>1150.4282468567</ele>
        <time>2015-11-08T14:43:07Z</time>
      </trkpt>
      <trkpt lat="45.60135" lon="5.8097">
        <ele>1150.4282468567</ele>
        <time>2015-11-08T14:43:12Z</time>
      </trkpt>
      <trkpt lat="45.60143" lon="5.8096">
        <ele>1151.520777394</ele>
        <time>2015-11-08T14:43:22Z</time>
      </trkpt>
      <trkpt lat="45.60179" lon="5.80926">
        <ele>1152.7188009533</ele>
        <time>2015-11-08T14:43:52Z</time>
      </trkpt>
      <trkpt lat="45.60148" lon="5.80948">
        <ele>1152.3013162058</ele>
        <time>2015-11-08T14:43:57Z</time>
      </trkpt>
      <trkpt lat="45.60174" lon="5.80899">
        <ele>1152.4828144427</ele>
        <time>2015-11-08T14:44:12Z</time>
      </trkpt>
      <trkpt lat="45.60179" lon="5.80887">
        <ele>1152.6617762149</ele>
        <time>2015-11-08T14:44:17Z</time>
      </trkpt>
      <trkpt lat="45.60191" lon="5.80873">
        <ele>1153.0590546648</ele>
        <time>2015-11-08T14:44:27Z</time>
      </trkpt>
      <trkpt lat="45.60196" lon="5.80864">
        <ele>1153.0590546648</ele>
        <time>2015-11-08T14:44:32Z</time>
      </trkpt>
      <trkpt lat="45.60204" lon="5.80851">
        <ele>1153.806577622</ele>
        <time>2015-11-08T14:44:42Z</time>
      </trkpt>
      <trkpt lat="45.60206" lon="5.80842">
        <ele>1153.806577622</ele>
        <time>2015-11-08T14:44:47Z</time>
      </trkpt>
      <trkpt lat="45.60215" lon="5.8083">
        <ele>1153.8150216523</ele>
        <time>2015-11-08T14:44:57Z</time>
      </trkpt>
      <trkpt lat="45.60219" lon="5.80824">
        <ele>1153.8150216523</ele>
        <time>2015-11-08T14:45:02Z</time>
      </trkpt>
      <trkpt lat="45.60225" lon="5.80796">
        <ele>1154.0226062427</ele>
        <time>2015-11-08T14:45:12Z</time>
      </trkpt>
      <trkpt lat="45.60232" lon="5.80792">
        <ele>1154.0226062427</ele>
        <time>2015-11-08T14:45:17Z</time>
      </trkpt>
      <trkpt lat="45.6024" lon="5.80782">
        <ele>1154.3901108119</ele>
        <time>2015-11-08T14:45:27Z</time>
      </trkpt>
      <trkpt lat="45.60242" lon="5.80776">
        <ele>1154.3901108119</ele>
        <time>2015-11-08T14:45:32Z</time>
      </trkpt>
      <trkpt lat="45.60253" lon="5.80767">
        <ele>1153.5692661795</ele>
        <time>2015-11-08T14:45:42Z</time>
      </trkpt>
      <trkpt lat="45.60259" lon="5.80765">
        <ele>1153.5692661795</ele>
        <time>2015-11-08T14:45:47Z</time>
      </trkpt>
      <trkpt lat="45.60275" lon="5.80762">
        <ele>1151.2652311324</ele>
        <time>2015-11-08T14:45:57Z</time>
      </trkpt>
      <trkpt lat="45.60278" lon="5.8076">
        <ele>1151.2652311324</ele>
        <time>2015-11-08T14:46:02Z</time>
      </trkpt>
      <trkpt lat="45.60287" lon="5.80749">
        <ele>1150.5090344592</ele>
        <time>2015-11-08T14:46:17Z</time>
      </trkpt>
      <trkpt lat="45.60292" lon="5.80742">
        <ele>1150.5090344592</ele>
        <time>2015-11-08T14:46:22Z</time>
      </trkpt>
      <trkpt lat="45.60304" lon="5.80732">
        <ele>1150.7612177925</ele>
        <time>2015-11-08T14:46:32Z</time>
      </trkpt>
      <trkpt lat="45.60311" lon="5.80727">
        <ele>1150.7612177925</ele>
        <time>2015-11-08T14:46:37Z</time>
      </trkpt>
      <trkpt lat="45.60317" lon="5.80708">
        <ele>1151.158724523</ele>
        <time>2015-11-08T14:46:47Z</time>
      </trkpt>
      <trkpt lat="45.6032" lon="5.807">
        <ele>1151.158724523</ele>
        <time>2015-11-08T14:46:52Z</time>
      </trkpt>
      <trkpt lat="45.60333" lon="5.80697">
        <ele>1150.7140173173</ele>
        <time>2015-11-08T14:47:02Z</time>
      </trkpt>
      <trkpt lat="45.6034" lon="5.80698">
        <ele>1150.7140173173</ele>
        <time>2015-11-08T14:47:07Z</time>
      </trkpt>
      <trkpt lat="45.60354" lon="5.80695">
        <ele>1150.4742454287</ele>
        <time>2015-11-08T14:47:17Z</time>
      </trkpt>
      <trkpt lat="45.60359" lon="5.80694">
        <ele>1150.4742454287</ele>
        <time>2015-11-08T14:47:22Z</time>
      </trkpt>
      <trkpt lat="45.60367" lon="5.80694">
        <ele>1150.4145588504</ele>
        <time>2015-11-08T14:47:32Z</time>
      </trkpt>
      <trkpt lat="45.60373" lon="5.80695">
        <ele>1150.4145588504</ele>
        <time>2015-11-08T14:47:37Z</time>
      </trkpt>
      <trkpt lat="45.6039" lon="5.80692">
        <ele>1149.3872220188</ele>
        <time>2015-11-08T14:47:52Z</time>
      </trkpt>
      <trkpt lat="45.60397" lon="5.80688">
        <ele>1149.3872220188</ele>
        <time>2015-11-08T14:47:57Z</time>
      </trkpt>
      <trkpt lat="45.6041" lon="5.80682">
        <ele>1148.7524501389</ele>
        <time>2015-11-08T14:48:07Z</time>
      </trkpt>
      <trkpt lat="45.60418" lon="5.80681">
        <ele>1148.7524501389</ele>
        <time>2015-11-08T14:48:12Z</time>
      </trkpt>
      <trkpt lat="45.60439" lon="5.80682">
        <ele>1145.8926942849</ele>
        <time>2015-11-08T14:48:22Z</time>
      </trkpt>
      <trkpt lat="45.60445" lon="5.80682">
        <ele>1145.8926942849</ele>
        <time>2015-11-08T14:48:27Z</time>
      </trkpt>
      <trkpt lat="45.60458" lon="5.80676">
        <ele>1142.6112241555</ele>
        <time>2015-11-08T14:48:37Z</time>
      </trkpt>
      <trkpt lat="45.60465" lon="5.80675">
        <ele>1142.6112241555</ele>
        <time>2015-11-08T14:48:42Z</time>
      </trkpt>
      <trkpt lat="45.60479" lon="5.8067">
        <ele>1140.8680701847</ele>
        <time>2015-11-08T14:48:52Z</time>
      </trkpt>
      <trkpt lat="45.60484" lon="5.80669">
        <ele>1140.8680701847</ele>
        <time>2015-11-08T14:48:57Z</time>
      </trkpt>
      <trkpt lat="45.60488" lon="5.80669">
        <ele>1140.2410513201</ele>
        <time>2015-11-08T14:49:07Z</time>
      </trkpt>
      <trkpt lat="45.60494" lon="5.80669">
        <ele>1140.2410513201</ele>
        <time>2015-11-08T14:49:12Z</time>
      </trkpt>
      <trkpt lat="45.60505" lon="5.80672">
        <ele>1137.2805070711</ele>
        <time>2015-11-08T14:49:22Z</time>
      </trkpt>
      <trkpt lat="45.60513" lon="5.80672">
        <ele>1137.2805070711</ele>
        <time>2015-11-08T14:49:27Z</time>
      </trkpt>
      <trkpt lat="45.60525" lon="5.80667">
        <ele>1132.7883939481</ele>
        <time>2015-11-08T14:49:37Z</time>
      </trkpt>
      <trkpt lat="45.60534" lon="5.80662">
        <ele>1128.6070659389</ele>
        <time>2015-11-08T14:49:42Z</time>
      </trkpt>
      <trkpt lat="45.6055" lon="5.80654">
        <ele>1125.5489288704</ele>
        <time>2015-11-08T14:49:52Z</time>
      </trkpt>
      <trkpt lat="45.60557" lon="5.8065">
        <ele>1125.5489288704</ele>
        <time>2015-11-08T14:49:57Z</time>
      </trkpt>
      <trkpt lat="45.60582" lon="5.80638">
        <ele>1122.5042576705</ele>
        <time>2015-11-08T14:50:12Z</time>
      </trkpt>
      <trkpt lat="45.6059" lon="5.80635">
        <ele>1122.5042576705</ele>
        <time>2015-11-08T14:50:17Z</time>
      </trkpt>
      <trkpt lat="45.60601" lon="5.80624">
        <ele>1120.8223635434</ele>
        <time>2015-11-08T14:50:27Z</time>
      </trkpt>
      <trkpt lat="45.60605" lon="5.8062">
        <ele>1120.8223635434</ele>
        <time>2015-11-08T14:50:32Z</time>
      </trkpt>
      <trkpt lat="45.60608" lon="5.80618">
        <ele>1120.8223635434</ele>
        <time>2015-11-08T14:50:42Z</time>
      </trkpt>
      <trkpt lat="45.6061" lon="5.80617">
        <ele>1119.2417945364</ele>
        <time>2015-11-08T14:50:47Z</time>
      </trkpt>
      <trkpt lat="45.60621" lon="5.80612">
        <ele>1117.8469607071</ele>
        <time>2015-11-08T14:50:57Z</time>
      </trkpt>
      <trkpt lat="45.60628" lon="5.8061">
        <ele>1117.8469607071</ele>
        <time>2015-11-08T14:51:02Z</time>
      </trkpt>
      <trkpt lat="45.60633" lon="5.806">
        <ele>1116.9026131674</ele>
        <time>2015-11-08T14:51:12Z</time>
      </trkpt>
      <trkpt lat="45.60637" lon="5.8059">
        <ele>1116.9026131674</ele>
        <time>2015-11-08T14:51:17Z</time>
      </trkpt>
      <trkpt lat="45.60648" lon="5.80574">
        <ele>1115.0817041117</ele>
        <time>2015-11-08T14:51:27Z</time>
      </trkpt>
      <trkpt lat="45.60654" lon="5.80569">
        <ele>1115.0817041117</ele>
        <time>2015-11-08T14:51:32Z</time>
      </trkpt>
      <trkpt lat="45.60662" lon="5.80556">
        <ele>1114.154375015</ele>
        <time>2015-11-08T14:51:42Z</time>
      </trkpt>
      <trkpt lat="45.60669" lon="5.80547">
        <ele>1113.7548261211</ele>
        <time>2015-11-08T14:51:47Z</time>
      </trkpt>
      <trkpt lat="45.60674" lon="5.8051">
        <ele>1114.8538188704</ele>
        <time>2015-11-08T14:51:57Z</time>
      </trkpt>
      <trkpt lat="45.6068" lon="5.80497">
        <ele>1116.242353235</ele>
        <time>2015-11-08T14:52:02Z</time>
      </trkpt>
      <trkpt lat="45.60685" lon="5.8048">
        <ele>1118.0674086463</ele>
        <time>2015-11-08T14:52:12Z</time>
      </trkpt>
      <trkpt lat="45.6069" lon="5.80476">
        <ele>1118.0674086463</ele>
        <time>2015-11-08T14:52:17Z</time>
      </trkpt>
      <trkpt lat="45.60698" lon="5.80459">
        <ele>1117.7256557117</ele>
        <time>2015-11-08T14:52:27Z</time>
      </trkpt>
      <trkpt lat="45.60703" lon="5.80452">
        <ele>1117.7256557117</ele>
        <time>2015-11-08T14:52:32Z</time>
      </trkpt>
      <trkpt lat="45.60715" lon="5.80442">
        <ele>1117.5377773138</ele>
        <time>2015-11-08T14:52:42Z</time>
      </trkpt>
      <trkpt lat="45.60721" lon="5.80439">
        <ele>1117.5377773138</ele>
        <time>2015-11-08T14:52:47Z</time>
      </trkpt>
      <trkpt lat="45.60733" lon="5.80433">
        <ele>1116.338857691</ele>
        <time>2015-11-08T14:52:57Z</time>
      </trkpt>
      <trkpt lat="45.60738" lon="5.80428">
        <ele>1116.338857691</ele>
        <time>2015-11-08T14:53:02Z</time>
      </trkpt>
      <trkpt lat="45.60746" lon="5.80422">
        <ele>1116.0209605191</ele>
        <time>2015-11-08T14:53:17Z</time>
      </trkpt>
      <trkpt lat="45.60748" lon="5.8042">
        <ele>1116.0209605191</ele>
        <time>2015-11-08T14:53:22Z</time>
      </trkpt>
      <trkpt lat="45.60749" lon="5.80419">
        <ele>1116.0209605191</ele>
        <time>2015-11-08T14:53:32Z</time>
      </trkpt>
      <trkpt lat="45.60749" lon="5.80419">
        <ele>1116.0209605191</ele>
        <time>2015-11-08T14:53:37Z</time>
      </trkpt>
      <trkpt lat="45.60762" lon="5.80417">
        <ele>1116.0432092984</ele>
        <time>2015-11-08T14:53:47Z</time>
      </trkpt>
      <trkpt lat="45.60768" lon="5.80415">
        <ele>1116.0432092984</ele>
        <time>2015-11-08T14:53:52Z</time>
      </trkpt>
      <trkpt lat="45.6078" lon="5.80415">
        <ele>1113.5976213541</ele>
        <time>2015-11-08T14:54:02Z</time>
      </trkpt>
      <trkpt lat="45.60792" lon="5.80415">
        <ele>1111.4214207571</ele>
        <time>2015-11-08T14:54:07Z</time>
      </trkpt>
      <trkpt lat="45.60801" lon="5.80413">
        <ele>1111.4214207571</ele>
        <time>2015-11-08T14:54:17Z</time>
      </trkpt>
      <trkpt lat="45.60802" lon="5.80413">
        <ele>1109.6576549517</ele>
        <time>2015-11-08T14:54:22Z</time>
      </trkpt>
      <trkpt lat="45.60806" lon="5.80415">
        <ele>1109.6576549517</ele>
        <time>2015-11-08T14:54:32Z</time>
      </trkpt>
      <trkpt lat="45.60815" lon="5.80412">
        <ele>1108.6681830732</ele>
        <time>2015-11-08T14:54:37Z</time>
      </trkpt>
      <trkpt lat="45.60852" lon="5.80408">
        <ele>1107.8925194106</ele>
        <time>2015-11-08T14:54:52Z</time>
      </trkpt>
      <trkpt lat="45.60861" lon="5.80413">
        <ele>1106.9979970634</ele>
        <time>2015-11-08T14:54:57Z</time>
      </trkpt>
      <trkpt lat="45.60881" lon="5.80417">
        <ele>1106.1233710193</ele>
        <time>2015-11-08T14:55:07Z</time>
      </trkpt>
      <trkpt lat="45.60889" lon="5.80418">
        <ele>1106.1233710193</ele>
        <time>2015-11-08T14:55:12Z</time>
      </trkpt>
      <trkpt lat="45.60901" lon="5.80422">
        <ele>1105.1953045213</ele>
        <time>2015-11-08T14:55:22Z</time>
      </trkpt>
      <trkpt lat="45.60909" lon="5.80425">
        <ele>1105.1953045213</ele>
        <time>2015-11-08T14:55:27Z</time>
      </trkpt>
      <trkpt lat="45.60921" lon="5.8043">
        <ele>1104.0018049909</ele>
        <time>2015-11-08T14:55:37Z</time>
      </trkpt>
      <trkpt lat="45.60928" lon="5.80429">
        <ele>1104.0018049909</ele>
        <time>2015-11-08T14:55:42Z</time>
      </trkpt>
      <trkpt lat="45.60946" lon="5.80432">
        <ele>1102.9812097279</ele>
        <time>2015-11-08T14:55:52Z</time>
      </trkpt>
      <trkpt lat="45.60954" lon="5.8043">
        <ele>1102.9812097279</ele>
        <time>2015-11-08T14:55:57Z</time>
      </trkpt>
      <trkpt lat="45.60974" lon="5.80428">
        <ele>1102.8705560995</ele>
        <time>2015-11-08T14:56:12Z</time>
      </trkpt>
      <trkpt lat="45.60979" lon="5.80424">
        <ele>1102.8705560995</ele>
        <time>2015-11-08T14:56:17Z</time>
      </trkpt>
      <trkpt lat="45.60992" lon="5.8042">
        <ele>1102.5343217013</ele>
        <time>2015-11-08T14:56:27Z</time>
      </trkpt>
      <trkpt lat="45.61" lon="5.80417">
        <ele>1102.5343217013</ele>
        <time>2015-11-08T14:56:32Z</time>
      </trkpt>
      <trkpt lat="45.61013" lon="5.80411">
        <ele>1101.2668405858</ele>
        <time>2015-11-08T14:56:42Z</time>
      </trkpt>
      <trkpt lat="45.61019" lon="5.80408">
        <ele>1101.2668405858</ele>
        <time>2015-11-08T14:56:47Z</time>
      </trkpt>
      <trkpt lat="45.61035" lon="5.80408">
        <ele>1099.6994340809</ele>
        <time>2015-11-08T14:56:57Z</time>
      </trkpt>
      <trkpt lat="45.6104" lon="5.80404">
        <ele>1099.6994340809</ele>
        <time>2015-11-08T14:57:02Z</time>
      </trkpt>
      <trkpt lat="45.6105" lon="5.80393">
        <ele>1098.5043072486</ele>
        <time>2015-11-08T14:57:12Z</time>
      </trkpt>
      <trkpt lat="45.61055" lon="5.80389">
        <ele>1098.5043072486</ele>
        <time>2015-11-08T14:57:17Z</time>
      </trkpt>
      <trkpt lat="45.61063" lon="5.80373">
        <ele>1096.7323824428</ele>
        <time>2015-11-08T14:57:27Z</time>
      </trkpt>
      <trkpt lat="45.61068" lon="5.80367">
        <ele>1096.7323824428</ele>
        <time>2015-11-08T14:57:32Z</time>
      </trkpt>
      <trkpt lat="45.6108" lon="5.80356">
        <ele>1095.0910941969</ele>
        <time>2015-11-08T14:57:42Z</time>
      </trkpt>
      <trkpt lat="45.61084" lon="5.80353">
        <ele>1095.0910941969</ele>
        <time>2015-11-08T14:57:47Z</time>
      </trkpt>
      <trkpt lat="45.61093" lon="5.80343">
        <ele>1094.5813631204</ele>
        <time>2015-11-08T14:57:57Z</time>
      </trkpt>
      <trkpt lat="45.61099" lon="5.80339">
        <ele>1094.5813631204</ele>
        <time>2015-11-08T14:58:02Z</time>
      </trkpt>
      <trkpt lat="45.61109" lon="5.80343">
        <ele>1093.7639403576</ele>
        <time>2015-11-08T14:58:12Z</time>
      </trkpt>
      <trkpt lat="45.61111" lon="5.80342">
        <ele>1093.7639403576</ele>
        <time>2015-11-08T14:58:17Z</time>
      </trkpt>
      <trkpt lat="45.6113" lon="5.80337">
        <ele>1093.0066365088</ele>
        <time>2015-11-08T14:58:32Z</time>
      </trkpt>
      <trkpt lat="45.61136" lon="5.80337">
        <ele>1093.0066365088</ele>
        <time>2015-11-08T14:58:37Z</time>
      </trkpt>
      <trkpt lat="45.61147" lon="5.80339">
        <ele>1091.6700804485</ele>
        <time>2015-11-08T14:58:47Z</time>
      </trkpt>
      <trkpt lat="45.61153" lon="5.80339">
        <ele>1091.6700804485</ele>
        <time>2015-11-08T14:58:52Z</time>
      </trkpt>
      <trkpt lat="45.61165" lon="5.80342">
        <ele>1090.9216170625</ele>
        <time>2015-11-08T14:59:02Z</time>
      </trkpt>
      <trkpt lat="45.61171" lon="5.80345">
        <ele>1090.9216170625</ele>
        <time>2015-11-08T14:59:07Z</time>
      </trkpt>
      <trkpt lat="45.61185" lon="5.80351">
        <ele>1090.7315049542</ele>
        <time>2015-11-08T14:59:17Z</time>
      </trkpt>
      <trkpt lat="45.61193" lon="5.80355">
        <ele>1090.7315049542</ele>
        <time>2015-11-08T14:59:22Z</time>
      </trkpt>
      <trkpt lat="45.61204" lon="5.80354">
        <ele>1090.4941539209</ele>
        <time>2015-11-08T14:59:32Z</time>
      </trkpt>
      <trkpt lat="45.6121" lon="5.80357">
        <ele>1090.4941539209</ele>
        <time>2015-11-08T14:59:37Z</time>
      </trkpt>
      <trkpt lat="45.61223" lon="5.80361">
        <ele>1089.9656206483</ele>
        <time>2015-11-08T14:59:47Z</time>
      </trkpt>
      <trkpt lat="45.61229" lon="5.80364">
        <ele>1089.9656206483</ele>
        <time>2015-11-08T14:59:52Z</time>
      </trkpt>
      <trkpt lat="45.61244" lon="5.80364">
        <ele>1089.280966852</ele>
        <time>2015-11-08T15:00:02Z</time>
      </trkpt>
      <trkpt lat="45.61251" lon="5.80362">
        <ele>1089.280966852</ele>
        <time>2015-11-08T15:00:07Z</time>
      </trkpt>
      <trkpt lat="45.61269" lon="5.80359">
        <ele>1087.4272869295</ele>
        <time>2015-11-08T15:00:17Z</time>
      </trkpt>
      <trkpt lat="45.6128" lon="5.80356">
        <ele>1085.8760150093</ele>
        <time>2015-11-08T15:00:22Z</time>
      </trkpt>
      <trkpt lat="45.61301" lon="5.80339">
        <ele>1083.1794718026</ele>
        <time>2015-11-08T15:00:37Z</time>
      </trkpt>
      <trkpt lat="45.61307" lon="5.80333">
        <ele>1083.1794718026</ele>
        <time>2015-11-08T15:00:42Z</time>
      </trkpt>
      <trkpt lat="45.61321" lon="5.80322">
        <ele>1080.5935248752</ele>
        <time>2015-11-08T15:00:52Z</time>
      </trkpt>
      <trkpt lat="45.6133" lon="5.80319">
        <ele>1078.2294437869</ele>
        <time>2015-11-08T15:00:57Z</time>
      </trkpt>
      <trkpt lat="45.61343" lon="5.80318">
        <ele>1076.5067176838</ele>
        <time>2015-11-08T15:01:07Z</time>
      </trkpt>
      <trkpt lat="45.6135" lon="5.8032">
        <ele>1076.5067176838</ele>
        <time>2015-11-08T15:01:12Z</time>
      </trkpt>
      <trkpt lat="45.61363" lon="5.80321">
        <ele>1074.2701947612</ele>
        <time>2015-11-08T15:01:22Z</time>
      </trkpt>
      <trkpt lat="45.61367" lon="5.8032">
        <ele>1074.2701947612</ele>
        <time>2015-11-08T15:01:27Z</time>
      </trkpt>
      <trkpt lat="45.61378" lon="5.80325">
        <ele>1073.2323259647</ele>
        <time>2015-11-08T15:01:37Z</time>
      </trkpt>
      <trkpt lat="45.61384" lon="5.80326">
        <ele>1073.2323259647</ele>
        <time>2015-11-08T15:01:42Z</time>
      </trkpt>
      <trkpt lat="45.61396" lon="5.80328">
        <ele>1070.6097905605</ele>
        <time>2015-11-08T15:01:52Z</time>
      </trkpt>
      <trkpt lat="45.61399" lon="5.80329">
        <ele>1070.6097905605</ele>
        <time>2015-11-08T15:01:57Z</time>
      </trkpt>
      <trkpt lat="45.61404" lon="5.80331">
        <ele>1070.6097905605</ele>
        <time>2015-11-08T15:02:07Z</time>
      </trkpt>
      <trkpt lat="45.61413" lon="5.80333">
        <ele>1068.6846732031</ele>
        <time>2015-11-08T15:02:12Z</time>
      </trkpt>
      <trkpt lat="45.61434" lon="5.8033">
        <ele>1066.802477001</ele>
        <time>2015-11-08T15:02:22Z</time>
      </trkpt>
      <trkpt lat="45.61444" lon="5.8033">
        <ele>1065.68243529</ele>
        <time>2015-11-08T15:02:27Z</time>
      </trkpt>
      <trkpt lat="45.6146" lon="5.8033">
        <ele>1063.7406218086</ele>
        <time>2015-11-08T15:02:37Z</time>
      </trkpt>
      <trkpt lat="45.61465" lon="5.80331">
        <ele>1063.7406218086</ele>
        <time>2015-11-08T15:02:42Z</time>
      </trkpt>
      <trkpt lat="45.61485" lon="5.80334">
        <ele>1061.0537051905</ele>
        <time>2015-11-08T15:02:57Z</time>
      </trkpt>
      <trkpt lat="45.61492" lon="5.80337">
        <ele>1061.0537051905</ele>
        <time>2015-11-08T15:03:02Z</time>
      </trkpt>
      <trkpt lat="45.61506" lon="5.80343">
        <ele>1058.6314789577</ele>
        <time>2015-11-08T15:03:12Z</time>
      </trkpt>
      <trkpt lat="45.61512" lon="5.80345">
        <ele>1058.6314789577</ele>
        <time>2015-11-08T15:03:17Z</time>
      </trkpt>
      <trkpt lat="45.61525" lon="5.80354">
        <ele>1055.7802992494</ele>
        <time>2015-11-08T15:03:27Z</time>
      </trkpt>
      <trkpt lat="45.61531" lon="5.80359">
        <ele>1055.7802992494</ele>
        <time>2015-11-08T15:03:32Z</time>
      </trkpt>
      <trkpt lat="45.61543" lon="5.80366">
        <ele>1052.7088698039</ele>
        <time>2015-11-08T15:03:42Z</time>
      </trkpt>
      <trkpt lat="45.6155" lon="5.8037">
        <ele>1052.7088698039</ele>
        <time>2015-11-08T15:03:47Z</time>
      </trkpt>
      <trkpt lat="45.61562" lon="5.80379">
        <ele>1050.3172531387</ele>
        <time>2015-11-08T15:03:57Z</time>
      </trkpt>
      <trkpt lat="45.6157" lon="5.80381">
        <ele>1050.3172531387</ele>
        <time>2015-11-08T15:04:02Z</time>
      </trkpt>
      <trkpt lat="45.61585" lon="5.80385">
        <ele>1048.8177320254</ele>
        <time>2015-11-08T15:04:12Z</time>
      </trkpt>
      <trkpt lat="45.61591" lon="5.80384">
        <ele>1048.8177320254</ele>
        <time>2015-11-08T15:04:17Z</time>
      </trkpt>
      <trkpt lat="45.61604" lon="5.80378">
        <ele>1045.6374766378</ele>
        <time>2015-11-08T15:04:27Z</time>
      </trkpt>
      <trkpt lat="45.6161" lon="5.80373">
        <ele>1045.6374766378</ele>
        <time>2015-11-08T15:04:32Z</time>
      </trkpt>
      <trkpt lat="45.61617" lon="5.80363">
        <ele>1042.677387659</ele>
        <time>2015-11-08T15:04:42Z</time>
      </trkpt>
      <trkpt lat="45.61618" lon="5.80356">
        <ele>1042.677387659</ele>
        <time>2015-11-08T15:04:47Z</time>
      </trkpt>
      <trkpt lat="45.61614" lon="5.80351">
        <ele>1038.4987512456</ele>
        <time>2015-11-08T15:04:57Z</time>
      </trkpt>
      <trkpt lat="45.61614" lon="5.80351">
        <ele>1038.4987512456</ele>
        <time>2015-11-08T15:05:02Z</time>
      </trkpt>
      <trkpt lat="45.61614" lon="5.80352">
        <ele>1038.4987512456</ele>
        <time>2015-11-08T15:05:12Z</time>
      </trkpt>
      <trkpt lat="45.61612" lon="5.80351">
        <ele>1038.4987512456</ele>
        <time>2015-11-08T15:05:17Z</time>
      </trkpt>
      <trkpt lat="45.61613" lon="5.8035">
        <ele>1038.4987512456</ele>
        <time>2015-11-08T15:05:27Z</time>
      </trkpt>
      <trkpt lat="45.61613" lon="5.8035">
        <ele>1038.4987512456</ele>
        <time>2015-11-08T15:05:32Z</time>
      </trkpt>
      <trkpt lat="45.61613" lon="5.8035">
        <ele>1038.4987512456</ele>
        <time>2015-11-08T15:05:47Z</time>
      </trkpt>
      <trkpt lat="45.61613" lon="5.8035">
        <ele>1038.4987512456</ele>
        <time>2015-11-08T15:05:52Z</time>
      </trkpt>
      <trkpt lat="45.61613" lon="5.80348">
        <ele>1038.4987512456</ele>
        <time>2015-11-08T15:06:02Z</time>
      </trkpt>
      <trkpt lat="45.61611" lon="5.80341">
        <ele>1034.9711301513</ele>
        <time>2015-11-08T15:06:07Z</time>
      </trkpt>
      <trkpt lat="45.61597" lon="5.80337">
        <ele>1031.0722937032</ele>
        <time>2015-11-08T15:06:17Z</time>
      </trkpt>
      <trkpt lat="45.61593" lon="5.80336">
        <ele>1031.0722937032</ele>
        <time>2015-11-08T15:06:22Z</time>
      </trkpt>
      <trkpt lat="45.61589" lon="5.80331">
        <ele>1027.3836066052</ele>
        <time>2015-11-08T15:06:32Z</time>
      </trkpt>
      <trkpt lat="45.61585" lon="5.80331">
        <ele>1027.3836066052</ele>
        <time>2015-11-08T15:06:37Z</time>
      </trkpt>
      <trkpt lat="45.61581" lon="5.80328">
        <ele>1027.3836066052</ele>
        <time>2015-11-08T15:06:47Z</time>
      </trkpt>
      <trkpt lat="45.61579" lon="5.80324">
        <ele>1023.6936327582</ele>
        <time>2015-11-08T15:06:52Z</time>
      </trkpt>
      <trkpt lat="45.61576" lon="5.80314">
        <ele>1023.6936327582</ele>
        <time>2015-11-08T15:07:02Z</time>
      </trkpt>
      <trkpt lat="45.61575" lon="5.8031">
        <ele>1020.2242599344</ele>
        <time>2015-11-08T15:07:07Z</time>
      </trkpt>
      <trkpt lat="45.61575" lon="5.80302">
        <ele>1020.2242599344</ele>
        <time>2015-11-08T15:07:17Z</time>
      </trkpt>
      <trkpt lat="45.61576" lon="5.80293">
        <ele>1017.7279409379</ele>
        <time>2015-11-08T15:07:22Z</time>
      </trkpt>
      <trkpt lat="45.61581" lon="5.80274">
        <ele>1016.2793072399</ele>
        <time>2015-11-08T15:07:32Z</time>
      </trkpt>
      <trkpt lat="45.61583" lon="5.8027">
        <ele>1016.2793072399</ele>
        <time>2015-11-08T15:07:37Z</time>
      </trkpt>
      <trkpt lat="45.61584" lon="5.80267">
        <ele>1016.2793072399</ele>
        <time>2015-11-08T15:07:47Z</time>
      </trkpt>
      <trkpt lat="45.61584" lon="5.80265">
        <ele>1016.2793072399</ele>
        <time>2015-11-08T15:07:52Z</time>
      </trkpt>
      <trkpt lat="45.61588" lon="5.80255">
        <ele>1013.9412874301</ele>
        <time>2015-11-08T15:08:07Z</time>
      </trkpt>
      <trkpt lat="45.61586" lon="5.80254">
        <ele>1013.9412874301</ele>
        <time>2015-11-08T15:08:12Z</time>
      </trkpt>
      <trkpt lat="45.61586" lon="5.80253">
        <ele>1013.9412874301</ele>
        <time>2015-11-08T15:08:22Z</time>
      </trkpt>
      <trkpt lat="45.61586" lon="5.80253">
        <ele>1013.9412874301</ele>
        <time>2015-11-08T15:08:27Z</time>
      </trkpt>
      <trkpt lat="45.61586" lon="5.80253">
        <ele>1013.9412874301</ele>
        <time>2015-11-08T15:08:37Z</time>
      </trkpt>
      <trkpt lat="45.61586" lon="5.80253">
        <ele>1013.9412874301</ele>
        <time>2015-11-08T15:08:42Z</time>
      </trkpt>
      <trkpt lat="45.61586" lon="5.80253">
        <ele>1013.9412874301</ele>
        <time>2015-11-08T15:08:52Z</time>
      </trkpt>
      <trkpt lat="45.61586" lon="5.80253">
        <ele>1013.9412874301</ele>
        <time>2015-11-08T15:08:57Z</time>
      </trkpt>
      <trkpt lat="45.61586" lon="5.80253">
        <ele>1013.9412874301</ele>
        <time>2015-11-08T15:09:07Z</time>
      </trkpt>
      <trkpt lat="45.61586" lon="5.80253">
        <ele>1013.9412874301</ele>
        <time>2015-11-08T15:09:12Z</time>
      </trkpt>
      <trkpt lat="45.61586" lon="5.80253">
        <ele>1013.9412874301</ele>
        <time>2015-11-08T15:09:22Z</time>
      </trkpt>
      <trkpt lat="45.61587" lon="5.80255">
        <ele>1013.9412874301</ele>
        <time>2015-11-08T15:09:27Z</time>
      </trkpt>
      <trkpt lat="45.61589" lon="5.80254">
        <ele>1013.9412874301</ele>
        <time>2015-11-08T15:09:37Z</time>
      </trkpt>
      <trkpt lat="45.61589" lon="5.80254">
        <ele>1013.9412874301</ele>
        <time>2015-11-08T15:09:42Z</time>
      </trkpt>
      <trkpt lat="45.61589" lon="5.80254">
        <ele>1013.9412874301</ele>
        <time>2015-11-08T15:09:52Z</time>
      </trkpt>
      <trkpt lat="45.61589" lon="5.80254">
        <ele>1013.9412874301</ele>
        <time>2015-11-08T15:09:57Z</time>
      </trkpt>
      <trkpt lat="45.61589" lon="5.80254">
        <ele>1013.9412874301</ele>
        <time>2015-11-08T15:10:07Z</time>
      </trkpt>
      <trkpt lat="45.61589" lon="5.80254">
        <ele>1013.9412874301</ele>
        <time>2015-11-08T15:10:12Z</time>
      </trkpt>
      <trkpt lat="45.61589" lon="5.80254">
        <ele>1013.9412874301</ele>
        <time>2015-11-08T15:10:22Z</time>
      </trkpt>
      <trkpt lat="45.61589" lon="5.80254">
        <ele>1013.9412874301</ele>
        <time>2015-11-08T15:10:27Z</time>
      </trkpt>
      <trkpt lat="45.61589" lon="5.80254">
        <ele>1013.9412874301</ele>
        <time>2015-11-08T15:10:42Z</time>
      </trkpt>
      <trkpt lat="45.61589" lon="5.80254">
        <ele>1013.9412874301</ele>
        <time>2015-11-08T15:10:47Z</time>
      </trkpt>
      <trkpt lat="45.61589" lon="5.80254">
        <ele>1013.9412874301</ele>
        <time>2015-11-08T15:10:57Z</time>
      </trkpt>
      <trkpt lat="45.61589" lon="5.80254">
        <ele>1013.9412874301</ele>
        <time>2015-11-08T15:11:02Z</time>
      </trkpt>
      <trkpt lat="45.61589" lon="5.80254">
        <ele>1013.9412874301</ele>
        <time>2015-11-08T15:11:12Z</time>
      </trkpt>
      <trkpt lat="45.61589" lon="5.80254">
        <ele>1013.9412874301</ele>
        <time>2015-11-08T15:11:17Z</time>
      </trkpt>
      <trkpt lat="45.61589" lon="5.80254">
        <ele>1013.9412874301</ele>
        <time>2015-11-08T15:11:27Z</time>
      </trkpt>
      <trkpt lat="45.61589" lon="5.80254">
        <ele>1013.9412874301</ele>
        <time>2015-11-08T15:11:32Z</time>
      </trkpt>
      <trkpt lat="45.61589" lon="5.80254">
        <ele>1013.9412874301</ele>
        <time>2015-11-08T15:11:42Z</time>
      </trkpt>
      <trkpt lat="45.61589" lon="5.80254">
        <ele>1013.9412874301</ele>
        <time>2015-11-08T15:11:47Z</time>
      </trkpt>
      <trkpt lat="45.61589" lon="5.80254">
        <ele>1013.9412874301</ele>
        <time>2015-11-08T15:11:57Z</time>
      </trkpt>
      <trkpt lat="45.61589" lon="5.80254">
        <ele>1013.9412874301</ele>
        <time>2015-11-08T15:12:02Z</time>
      </trkpt>
      <trkpt lat="45.61588" lon="5.80248">
        <ele>1012.1063287206</ele>
        <time>2015-11-08T15:12:17Z</time>
      </trkpt>
      <trkpt lat="45.61589" lon="5.80247">
        <ele>1012.1063287206</ele>
        <time>2015-11-08T15:12:22Z</time>
      </trkpt>
      <trkpt lat="45.61587" lon="5.80249">
        <ele>1012.1063287206</ele>
        <time>2015-11-08T15:12:32Z</time>
      </trkpt>
      <trkpt lat="45.61587" lon="5.80249">
        <ele>1012.1063287206</ele>
        <time>2015-11-08T15:12:37Z</time>
      </trkpt>
      <trkpt lat="45.61587" lon="5.80249">
        <ele>1012.1063287206</ele>
        <time>2015-11-08T15:12:47Z</time>
      </trkpt>
      <trkpt lat="45.61587" lon="5.80249">
        <ele>1012.1063287206</ele>
        <time>2015-11-08T15:12:52Z</time>
      </trkpt>
      <trkpt lat="45.61588" lon="5.80247">
        <ele>1012.1063287206</ele>
        <time>2015-11-08T15:13:02Z</time>
      </trkpt>
      <trkpt lat="45.61588" lon="5.80247">
        <ele>1012.1063287206</ele>
        <time>2015-11-08T15:13:07Z</time>
      </trkpt>
      <trkpt lat="45.61588" lon="5.80248">
        <ele>1012.1063287206</ele>
        <time>2015-11-08T15:13:17Z</time>
      </trkpt>
      <trkpt lat="45.61588" lon="5.80248">
        <ele>1012.1063287206</ele>
        <time>2015-11-08T15:13:22Z</time>
      </trkpt>
      <trkpt lat="45.61588" lon="5.80248">
        <ele>1012.1063287206</ele>
        <time>2015-11-08T15:13:32Z</time>
      </trkpt>
      <trkpt lat="45.61588" lon="5.80248">
        <ele>1012.1063287206</ele>
        <time>2015-11-08T15:13:37Z</time>
      </trkpt>
      <trkpt lat="45.61585" lon="5.80248">
        <ele>1012.1063287206</ele>
        <time>2015-11-08T15:13:52Z</time>
      </trkpt>
      <trkpt lat="45.61584" lon="5.80247">
        <ele>1009.6852232526</ele>
        <time>2015-11-08T15:13:57Z</time>
      </trkpt>
      <trkpt lat="45.61582" lon="5.80246">
        <ele>1009.6852232526</ele>
        <time>2015-11-08T15:14:07Z</time>
      </trkpt>
      <trkpt lat="45.61582" lon="5.80246">
        <ele>1009.6852232526</ele>
        <time>2015-11-08T15:14:12Z</time>
      </trkpt>
      <trkpt lat="45.61582" lon="5.80246">
        <ele>1009.6852232526</ele>
        <time>2015-11-08T15:14:22Z</time>
      </trkpt>
      <trkpt lat="45.61582" lon="5.80246">
        <ele>1009.6852232526</ele>
        <time>2015-11-08T15:14:27Z</time>
      </trkpt>
      <trkpt lat="45.61582" lon="5.80247">
        <ele>1009.6852232526</ele>
        <time>2015-11-08T15:14:37Z</time>
      </trkpt>
      <trkpt lat="45.61584" lon="5.80244">
        <ele>1009.6852232526</ele>
        <time>2015-11-08T15:14:42Z</time>
      </trkpt>
      <trkpt lat="45.61586" lon="5.8024">
        <ele>1009.6852232526</ele>
        <time>2015-11-08T15:14:52Z</time>
      </trkpt>
      <trkpt lat="45.61585" lon="5.80238">
        <ele>1006.8087839326</ele>
        <time>2015-11-08T15:14:57Z</time>
      </trkpt>
      <trkpt lat="45.61587" lon="5.80234">
        <ele>1006.8087839326</ele>
        <time>2015-11-08T15:15:07Z</time>
      </trkpt>
      <trkpt lat="45.61587" lon="5.80228">
        <ele>1006.8087839326</ele>
        <time>2015-11-08T15:15:12Z</time>
      </trkpt>
      <trkpt lat="45.61595" lon="5.80211">
        <ele>1004.8531506883</ele>
        <time>2015-11-08T15:15:27Z</time>
      </trkpt>
      <trkpt lat="45.61597" lon="5.80207">
        <ele>1004.8531506883</ele>
        <time>2015-11-08T15:15:32Z</time>
      </trkpt>
      <trkpt lat="45.61601" lon="5.80196">
        <ele>1002.9146092256</ele>
        <time>2015-11-08T15:15:42Z</time>
      </trkpt>
      <trkpt lat="45.61602" lon="5.80191">
        <ele>1002.9146092256</ele>
        <time>2015-11-08T15:15:47Z</time>
      </trkpt>
      <trkpt lat="45.61606" lon="5.80176">
        <ele>1001.2941664028</ele>
        <time>2015-11-08T15:15:57Z</time>
      </trkpt>
      <trkpt lat="45.61606" lon="5.80168">
        <ele>1001.2941664028</ele>
        <time>2015-11-08T15:16:02Z</time>
      </trkpt>
      <trkpt lat="45.61604" lon="5.80155">
        <ele>998.81421329005</ele>
        <time>2015-11-08T15:16:12Z</time>
      </trkpt>
      <trkpt lat="45.61603" lon="5.80149">
        <ele>998.81421329005</ele>
        <time>2015-11-08T15:16:17Z</time>
      </trkpt>
      <trkpt lat="45.61601" lon="5.80134">
        <ele>995.91355450295</ele>
        <time>2015-11-08T15:16:27Z</time>
      </trkpt>
      <trkpt lat="45.616" lon="5.80128">
        <ele>995.91355450295</ele>
        <time>2015-11-08T15:16:32Z</time>
      </trkpt>
      <trkpt lat="45.61596" lon="5.80114">
        <ele>993.1151516688</ele>
        <time>2015-11-08T15:16:42Z</time>
      </trkpt>
      <trkpt lat="45.61597" lon="5.80104">
        <ele>993.1151516688</ele>
        <time>2015-11-08T15:16:47Z</time>
      </trkpt>
      <trkpt lat="45.61593" lon="5.80093">
        <ele>991.37875653715</ele>
        <time>2015-11-08T15:16:57Z</time>
      </trkpt>
      <trkpt lat="45.61593" lon="5.80086">
        <ele>991.37875653715</ele>
        <time>2015-11-08T15:17:02Z</time>
      </trkpt>
      <trkpt lat="45.61587" lon="5.8007">
        <ele>989.2847900094</ele>
        <time>2015-11-08T15:17:12Z</time>
      </trkpt>
      <trkpt lat="45.61585" lon="5.80067">
        <ele>989.2847900094</ele>
        <time>2015-11-08T15:17:17Z</time>
      </trkpt>
      <trkpt lat="45.61586" lon="5.80049">
        <ele>987.8534940119</ele>
        <time>2015-11-08T15:17:27Z</time>
      </trkpt>
      <trkpt lat="45.61586" lon="5.80041">
        <ele>987.8534940119</ele>
        <time>2015-11-08T15:17:32Z</time>
      </trkpt>
      <trkpt lat="45.61587" lon="5.8002">
        <ele>985.75129099862</ele>
        <time>2015-11-08T15:17:47Z</time>
      </trkpt>
      <trkpt lat="45.61588" lon="5.80012">
        <ele>985.75129099862</ele>
        <time>2015-11-08T15:17:52Z</time>
      </trkpt>
      <trkpt lat="45.61584" lon="5.79996">
        <ele>982.78199812976</ele>
        <time>2015-11-08T15:18:02Z</time>
      </trkpt>
      <trkpt lat="45.61583" lon="5.79997">
        <ele>982.78199812976</ele>
        <time>2015-11-08T15:18:07Z</time>
      </trkpt>
      <trkpt lat="45.61582" lon="5.79997">
        <ele>982.78199812976</ele>
        <time>2015-11-08T15:18:17Z</time>
      </trkpt>
      <trkpt lat="45.61582" lon="5.79997">
        <ele>982.78199812976</ele>
        <time>2015-11-08T15:18:22Z</time>
      </trkpt>
      <trkpt lat="45.61583" lon="5.79997">
        <ele>982.78199812976</ele>
        <time>2015-11-08T15:18:32Z</time>
      </trkpt>
      <trkpt lat="45.61583" lon="5.79997">
        <ele>982.78199812976</ele>
        <time>2015-11-08T15:18:37Z</time>
      </trkpt>
      <trkpt lat="45.61585" lon="5.79994">
        <ele>982.78199812976</ele>
        <time>2015-11-08T15:18:47Z</time>
      </trkpt>
      <trkpt lat="45.61585" lon="5.79992">
        <ele>982.78199812976</ele>
        <time>2015-11-08T15:18:52Z</time>
      </trkpt>
      <trkpt lat="45.61584" lon="5.79992">
        <ele>982.78199812976</ele>
        <time>2015-11-08T15:19:02Z</time>
      </trkpt>
      <trkpt lat="45.61584" lon="5.79992">
        <ele>982.78199812976</ele>
        <time>2015-11-08T15:19:07Z</time>
      </trkpt>
      <trkpt lat="45.61584" lon="5.79991">
        <ele>982.78199812976</ele>
        <time>2015-11-08T15:19:17Z</time>
      </trkpt>
      <trkpt lat="45.61584" lon="5.79989">
        <ele>980.27939699725</ele>
        <time>2015-11-08T15:19:22Z</time>
      </trkpt>
      <trkpt lat="45.61584" lon="5.79988">
        <ele>980.27939699725</ele>
        <time>2015-11-08T15:19:32Z</time>
      </trkpt>
      <trkpt lat="45.61583" lon="5.79989">
        <ele>980.27939699725</ele>
        <time>2015-11-08T15:19:37Z</time>
      </trkpt>
      <trkpt lat="45.61581" lon="5.79988">
        <ele>980.27939699725</ele>
        <time>2015-11-08T15:19:47Z</time>
      </trkpt>
      <trkpt lat="45.61582" lon="5.79988">
        <ele>980.27939699725</ele>
        <time>2015-11-08T15:19:52Z</time>
      </trkpt>
      <trkpt lat="45.61583" lon="5.79989">
        <ele>980.27939699725</ele>
        <time>2015-11-08T15:20:07Z</time>
      </trkpt>
      <trkpt lat="45.61582" lon="5.79987">
        <ele>980.27939699725</ele>
        <time>2015-11-08T15:20:12Z</time>
      </trkpt>
      <trkpt lat="45.61582" lon="5.79982">
        <ele>977.05686863544</ele>
        <time>2015-11-08T15:20:22Z</time>
      </trkpt>
      <trkpt lat="45.61582" lon="5.79983">
        <ele>977.05686863544</ele>
        <time>2015-11-08T15:20:27Z</time>
      </trkpt>
      <trkpt lat="45.61582" lon="5.79983">
        <ele>977.05686863544</ele>
        <time>2015-11-08T15:20:37Z</time>
      </trkpt>
      <trkpt lat="45.61582" lon="5.79983">
        <ele>977.05686863544</ele>
        <time>2015-11-08T15:20:42Z</time>
      </trkpt>
      <trkpt lat="45.61581" lon="5.79982">
        <ele>977.05686863544</ele>
        <time>2015-11-08T15:20:52Z</time>
      </trkpt>
      <trkpt lat="45.6158" lon="5.79977">
        <ele>977.05686863544</ele>
        <time>2015-11-08T15:20:57Z</time>
      </trkpt>
      <trkpt lat="45.61581" lon="5.7997">
        <ele>973.71744778827</ele>
        <time>2015-11-08T15:21:07Z</time>
      </trkpt>
      <trkpt lat="45.61582" lon="5.79964">
        <ele>973.71744778827</ele>
        <time>2015-11-08T15:21:12Z</time>
      </trkpt>
      <trkpt lat="45.61579" lon="5.79948">
        <ele>970.28693834967</ele>
        <time>2015-11-08T15:21:22Z</time>
      </trkpt>
      <trkpt lat="45.61575" lon="5.7994">
        <ele>970.28693834967</ele>
        <time>2015-11-08T15:21:27Z</time>
      </trkpt>
      <trkpt lat="45.6157" lon="5.79925">
        <ele>965.96801646199</ele>
        <time>2015-11-08T15:21:37Z</time>
      </trkpt>
      <trkpt lat="45.6157" lon="5.79918">
        <ele>965.96801646199</ele>
        <time>2015-11-08T15:21:42Z</time>
      </trkpt>
      <trkpt lat="45.61564" lon="5.79901">
        <ele>962.07073942363</ele>
        <time>2015-11-08T15:21:52Z</time>
      </trkpt>
      <trkpt lat="45.61563" lon="5.79892">
        <ele>962.07073942363</ele>
        <time>2015-11-08T15:21:57Z</time>
      </trkpt>
      <trkpt lat="45.61557" lon="5.79868">
        <ele>958.98624537308</ele>
        <time>2015-11-08T15:22:12Z</time>
      </trkpt>
      <trkpt lat="45.61555" lon="5.79859">
        <ele>958.98624537308</ele>
        <time>2015-11-08T15:22:17Z</time>
      </trkpt>
      <trkpt lat="45.61554" lon="5.79851">
        <ele>956.64225542936</ele>
        <time>2015-11-08T15:22:27Z</time>
      </trkpt>
      <trkpt lat="45.6155" lon="5.79846">
        <ele>956.64225542936</ele>
        <time>2015-11-08T15:22:32Z</time>
      </trkpt>
      <trkpt lat="45.61544" lon="5.79834">
        <ele>954.17703947681</ele>
        <time>2015-11-08T15:22:42Z</time>
      </trkpt>
      <trkpt lat="45.61543" lon="5.7983">
        <ele>954.17703947681</ele>
        <time>2015-11-08T15:22:47Z</time>
      </trkpt>
      <trkpt lat="45.6154" lon="5.79819">
        <ele>952.07503009967</ele>
        <time>2015-11-08T15:22:57Z</time>
      </trkpt>
      <trkpt lat="45.61539" lon="5.79815">
        <ele>952.07503009967</ele>
        <time>2015-11-08T15:23:02Z</time>
      </trkpt>
      <trkpt lat="45.61541" lon="5.79808">
        <ele>952.07503009967</ele>
        <time>2015-11-08T15:23:12Z</time>
      </trkpt>
      <trkpt lat="45.61541" lon="5.79806">
        <ele>949.81844671474</ele>
        <time>2015-11-08T15:23:17Z</time>
      </trkpt>
      <trkpt lat="45.61542" lon="5.79798">
        <ele>949.81844671474</ele>
        <time>2015-11-08T15:23:27Z</time>
      </trkpt>
      <trkpt lat="45.6154" lon="5.79795">
        <ele>949.81844671474</ele>
        <time>2015-11-08T15:23:32Z</time>
      </trkpt>
      <trkpt lat="45.61537" lon="5.79784">
        <ele>947.14408762151</ele>
        <time>2015-11-08T15:23:42Z</time>
      </trkpt>
      <trkpt lat="45.61534" lon="5.79776">
        <ele>947.14408762151</ele>
        <time>2015-11-08T15:23:47Z</time>
      </trkpt>
      <trkpt lat="45.61529" lon="5.79769">
        <ele>943.59303748842</ele>
        <time>2015-11-08T15:23:57Z</time>
      </trkpt>
      <trkpt lat="45.61528" lon="5.79766">
        <ele>943.59303748842</ele>
        <time>2015-11-08T15:24:02Z</time>
      </trkpt>
      <trkpt lat="45.61526" lon="5.79753">
        <ele>941.32209247099</ele>
        <time>2015-11-08T15:24:12Z</time>
      </trkpt>
      <trkpt lat="45.61527" lon="5.79748">
        <ele>941.32209247099</ele>
        <time>2015-11-08T15:24:17Z</time>
      </trkpt>
      <trkpt lat="45.61516" lon="5.79736">
        <ele>937.59912526306</ele>
        <time>2015-11-08T15:24:32Z</time>
      </trkpt>
      <trkpt lat="45.61511" lon="5.79734">
        <ele>937.59912526306</ele>
        <time>2015-11-08T15:24:37Z</time>
      </trkpt>
      <trkpt lat="45.61509" lon="5.79726">
        <ele>934.33535672138</ele>
        <time>2015-11-08T15:24:47Z</time>
      </trkpt>
      <trkpt lat="45.61506" lon="5.79722">
        <ele>934.33535672138</ele>
        <time>2015-11-08T15:24:52Z</time>
      </trkpt>
      <trkpt lat="45.61499" lon="5.79713">
        <ele>931.21065984034</ele>
        <time>2015-11-08T15:25:02Z</time>
      </trkpt>
      <trkpt lat="45.61494" lon="5.79711">
        <ele>931.21065984034</ele>
        <time>2015-11-08T15:25:07Z</time>
      </trkpt>
      <trkpt lat="45.61488" lon="5.79704">
        <ele>927.8559264249</ele>
        <time>2015-11-08T15:25:17Z</time>
      </trkpt>
      <trkpt lat="45.61486" lon="5.79704">
        <ele>927.8559264249</ele>
        <time>2015-11-08T15:25:22Z</time>
      </trkpt>
      <trkpt lat="45.61482" lon="5.79701">
        <ele>927.8559264249</ele>
        <time>2015-11-08T15:25:32Z</time>
      </trkpt>
      <trkpt lat="45.61479" lon="5.79699">
        <ele>924.7800105863</ele>
        <time>2015-11-08T15:25:37Z</time>
      </trkpt>
      <trkpt lat="45.61476" lon="5.7969">
        <ele>924.7800105863</ele>
        <time>2015-11-08T15:25:47Z</time>
      </trkpt>
      <trkpt lat="45.61473" lon="5.79685">
        <ele>922.2085621981</ele>
        <time>2015-11-08T15:25:52Z</time>
      </trkpt>
      <trkpt lat="45.61467" lon="5.79677">
        <ele>922.2085621981</ele>
        <time>2015-11-08T15:26:02Z</time>
      </trkpt>
      <trkpt lat="45.61465" lon="5.79671">
        <ele>919.98891108975</ele>
        <time>2015-11-08T15:26:07Z</time>
      </trkpt>
      <trkpt lat="45.61464" lon="5.79668">
        <ele>919.98891108975</ele>
        <time>2015-11-08T15:26:17Z</time>
      </trkpt>
      <trkpt lat="45.61464" lon="5.79669">
        <ele>919.98891108975</ele>
        <time>2015-11-08T15:26:22Z</time>
      </trkpt>
      <trkpt lat="45.61464" lon="5.79669">
        <ele>919.98891108975</ele>
        <time>2015-11-08T15:26:32Z</time>
      </trkpt>
      <trkpt lat="45.61464" lon="5.79669">
        <ele>919.98891108975</ele>
        <time>2015-11-08T15:26:37Z</time>
      </trkpt>
      <trkpt lat="45.61464" lon="5.79669">
        <ele>919.98891108975</ele>
        <time>2015-11-08T15:26:47Z</time>
      </trkpt>
      <trkpt lat="45.61464" lon="5.79668">
        <ele>919.98891108975</ele>
        <time>2015-11-08T15:26:52Z</time>
      </trkpt>
      <trkpt lat="45.61459" lon="5.7966">
        <ele>917.84886837369</ele>
        <time>2015-11-08T15:27:07Z</time>
      </trkpt>
      <trkpt lat="45.61458" lon="5.79658">
        <ele>917.84886837369</ele>
        <time>2015-11-08T15:27:12Z</time>
      </trkpt>
      <trkpt lat="45.61453" lon="5.79652">
        <ele>917.84886837369</ele>
        <time>2015-11-08T15:27:22Z</time>
      </trkpt>
      <trkpt lat="45.6145" lon="5.7965">
        <ele>915.03158563846</ele>
        <time>2015-11-08T15:27:27Z</time>
      </trkpt>
      <trkpt lat="45.6144" lon="5.79644">
        <ele>912.01938652254</ele>
        <time>2015-11-08T15:27:37Z</time>
      </trkpt>
      <trkpt lat="45.61435" lon="5.79639">
        <ele>912.01938652254</ele>
        <time>2015-11-08T15:27:42Z</time>
      </trkpt>
      <trkpt lat="45.61425" lon="5.79634">
        <ele>908.78410965718</ele>
        <time>2015-11-08T15:27:52Z</time>
      </trkpt>
      <trkpt lat="45.6142" lon="5.79631">
        <ele>908.78410965718</ele>
        <time>2015-11-08T15:27:57Z</time>
      </trkpt>
      <trkpt lat="45.61414" lon="5.79622">
        <ele>905.53083345948</ele>
        <time>2015-11-08T15:28:07Z</time>
      </trkpt>
      <trkpt lat="45.6141" lon="5.79619">
        <ele>905.53083345948</ele>
        <time>2015-11-08T15:28:12Z</time>
      </trkpt>
      <trkpt lat="45.61401" lon="5.79611">
        <ele>902.80986751191</ele>
        <time>2015-11-08T15:28:22Z</time>
      </trkpt>
      <trkpt lat="45.61395" lon="5.79609">
        <ele>902.80986751191</ele>
        <time>2015-11-08T15:28:27Z</time>
      </trkpt>
      <trkpt lat="45.61382" lon="5.79602">
        <ele>899.83256977843</ele>
        <time>2015-11-08T15:28:37Z</time>
      </trkpt>
      <trkpt lat="45.61377" lon="5.79598">
        <ele>899.83256977843</ele>
        <time>2015-11-08T15:28:42Z</time>
      </trkpt>
      <trkpt lat="45.61368" lon="5.79591">
        <ele>896.63270727987</ele>
        <time>2015-11-08T15:28:52Z</time>
      </trkpt>
      <trkpt lat="45.61362" lon="5.79587">
        <ele>896.63270727987</ele>
        <time>2015-11-08T15:28:57Z</time>
      </trkpt>
      <trkpt lat="45.61351" lon="5.79576">
        <ele>893.71772617295</ele>
        <time>2015-11-08T15:29:07Z</time>
      </trkpt>
      <trkpt lat="45.61344" lon="5.7957">
        <ele>893.71772617295</ele>
        <time>2015-11-08T15:29:12Z</time>
      </trkpt>
      <trkpt lat="45.61331" lon="5.79562">
        <ele>890.28878700824</ele>
        <time>2015-11-08T15:29:22Z</time>
      </trkpt>
      <trkpt lat="45.61324" lon="5.79562">
        <ele>890.28878700824</ele>
        <time>2015-11-08T15:29:27Z</time>
      </trkpt>
      <trkpt lat="45.61307" lon="5.79563">
        <ele>886.58709769873</ele>
        <time>2015-11-08T15:29:42Z</time>
      </trkpt>
      <trkpt lat="45.61301" lon="5.79564">
        <ele>886.58709769873</ele>
        <time>2015-11-08T15:29:47Z</time>
      </trkpt>
      <trkpt lat="45.6129" lon="5.79556">
        <ele>883.24038939288</ele>
        <time>2015-11-08T15:29:57Z</time>
      </trkpt>
      <trkpt lat="45.61284" lon="5.79552">
        <ele>883.24038939288</ele>
        <time>2015-11-08T15:30:02Z</time>
      </trkpt>
      <trkpt lat="45.61276" lon="5.79539">
        <ele>879.95017041452</ele>
        <time>2015-11-08T15:30:12Z</time>
      </trkpt>
      <trkpt lat="45.61273" lon="5.79531">
        <ele>879.95017041452</ele>
        <time>2015-11-08T15:30:17Z</time>
      </trkpt>
      <trkpt lat="45.61262" lon="5.79522">
        <ele>876.74231299665</ele>
        <time>2015-11-08T15:30:27Z</time>
      </trkpt>
      <trkpt lat="45.61258" lon="5.79519">
        <ele>876.74231299665</ele>
        <time>2015-11-08T15:30:32Z</time>
      </trkpt>
      <trkpt lat="45.61253" lon="5.79518">
        <ele>873.58287414456</ele>
        <time>2015-11-08T15:30:42Z</time>
      </trkpt>
      <trkpt lat="45.61249" lon="5.79513">
        <ele>873.58287414456</ele>
        <time>2015-11-08T15:30:47Z</time>
      </trkpt>
      <trkpt lat="45.61245" lon="5.79504">
        <ele>870.6852187215</ele>
        <time>2015-11-08T15:30:57Z</time>
      </trkpt>
      <trkpt lat="45.61241" lon="5.79498">
        <ele>870.6852187215</ele>
        <time>2015-11-08T15:31:02Z</time>
      </trkpt>
      <trkpt lat="45.61239" lon="5.79485">
        <ele>867.91481056352</ele>
        <time>2015-11-08T15:31:12Z</time>
      </trkpt>
      <trkpt lat="45.61236" lon="5.79478">
        <ele>867.91481056352</ele>
        <time>2015-11-08T15:31:17Z</time>
      </trkpt>
      <trkpt lat="45.61226" lon="5.79473">
        <ele>864.55574771916</ele>
        <time>2015-11-08T15:31:27Z</time>
      </trkpt>
      <trkpt lat="45.61223" lon="5.7947">
        <ele>864.55574771916</ele>
        <time>2015-11-08T15:31:32Z</time>
      </trkpt>
      <trkpt lat="45.61218" lon="5.79459">
        <ele>861.96389239103</ele>
        <time>2015-11-08T15:31:42Z</time>
      </trkpt>
      <trkpt lat="45.61213" lon="5.79455">
        <ele>861.96389239103</ele>
        <time>2015-11-08T15:31:47Z</time>
      </trkpt>
      <trkpt lat="45.61206" lon="5.79445">
        <ele>859.11636660214</ele>
        <time>2015-11-08T15:31:57Z</time>
      </trkpt>
      <trkpt lat="45.61202" lon="5.79439">
        <ele>859.11636660214</ele>
        <time>2015-11-08T15:32:02Z</time>
      </trkpt>
      <trkpt lat="45.61194" lon="5.7943">
        <ele>855.62815411992</ele>
        <time>2015-11-08T15:32:12Z</time>
      </trkpt>
      <trkpt lat="45.61192" lon="5.79423">
        <ele>855.62815411992</ele>
        <time>2015-11-08T15:32:17Z</time>
      </trkpt>
      <trkpt lat="45.61188" lon="5.79408">
        <ele>852.6862813969</ele>
        <time>2015-11-08T15:32:27Z</time>
      </trkpt>
      <trkpt lat="45.61184" lon="5.79399">
        <ele>852.6862813969</ele>
        <time>2015-11-08T15:32:32Z</time>
      </trkpt>
      <trkpt lat="45.61177" lon="5.79388">
        <ele>849.22735016137</ele>
        <time>2015-11-08T15:32:42Z</time>
      </trkpt>
      <trkpt lat="45.61172" lon="5.79377">
        <ele>849.22735016137</ele>
        <time>2015-11-08T15:32:47Z</time>
      </trkpt>
      <trkpt lat="45.61169" lon="5.79358">
        <ele>845.76625874687</ele>
        <time>2015-11-08T15:32:57Z</time>
      </trkpt>
      <trkpt lat="45.61168" lon="5.79348">
        <ele>845.76625874687</ele>
        <time>2015-11-08T15:33:02Z</time>
      </trkpt>
      <trkpt lat="45.61168" lon="5.79319">
        <ele>843.3132727812</ele>
        <time>2015-11-08T15:33:17Z</time>
      </trkpt>
      <trkpt lat="45.61165" lon="5.79311">
        <ele>843.3132727812</ele>
        <time>2015-11-08T15:33:22Z</time>
      </trkpt>
      <trkpt lat="45.61161" lon="5.79293">
        <ele>840.17876774422</ele>
        <time>2015-11-08T15:33:32Z</time>
      </trkpt>
      <trkpt lat="45.61158" lon="5.79285">
        <ele>840.17876774422</ele>
        <time>2015-11-08T15:33:37Z</time>
      </trkpt>
      <trkpt lat="45.61158" lon="5.79267">
        <ele>837.53723853029</ele>
        <time>2015-11-08T15:33:47Z</time>
      </trkpt>
      <trkpt lat="45.61158" lon="5.79259">
        <ele>837.53723853029</ele>
        <time>2015-11-08T15:33:52Z</time>
      </trkpt>
      <trkpt lat="45.61161" lon="5.79241">
        <ele>834.80380937953</ele>
        <time>2015-11-08T15:34:02Z</time>
      </trkpt>
      <trkpt lat="45.61162" lon="5.79233">
        <ele>834.80380937953</ele>
        <time>2015-11-08T15:34:07Z</time>
      </trkpt>
      <trkpt lat="45.61165" lon="5.79216">
        <ele>832.12854389052</ele>
        <time>2015-11-08T15:34:17Z</time>
      </trkpt>
      <trkpt lat="45.61164" lon="5.79207">
        <ele>832.12854389052</ele>
        <time>2015-11-08T15:34:22Z</time>
      </trkpt>
      <trkpt lat="45.61165" lon="5.79189">
        <ele>829.63589494163</ele>
        <time>2015-11-08T15:34:32Z</time>
      </trkpt>
      <trkpt lat="45.61165" lon="5.79181">
        <ele>829.63589494163</ele>
        <time>2015-11-08T15:34:37Z</time>
      </trkpt>
      <trkpt lat="45.61172" lon="5.79165">
        <ele>827.45506410936</ele>
        <time>2015-11-08T15:34:47Z</time>
      </trkpt>
      <trkpt lat="45.61174" lon="5.79161">
        <ele>827.45506410936</ele>
        <time>2015-11-08T15:34:52Z</time>
      </trkpt>
      <trkpt lat="45.61181" lon="5.7914">
        <ele>825.79135225993</ele>
        <time>2015-11-08T15:35:02Z</time>
      </trkpt>
      <trkpt lat="45.61185" lon="5.7913">
        <ele>825.79135225993</ele>
        <time>2015-11-08T15:35:07Z</time>
      </trkpt>
      <trkpt lat="45.61193" lon="5.79117">
        <ele>824.12738959092</ele>
        <time>2015-11-08T15:35:17Z</time>
      </trkpt>
      <trkpt lat="45.61191" lon="5.7911">
        <ele>824.12738959092</ele>
        <time>2015-11-08T15:35:22Z</time>
      </trkpt>
      <trkpt lat="45.61211" lon="5.79082">
        <ele>822.77643957661</ele>
        <time>2015-11-08T15:35:37Z</time>
      </trkpt>
      <trkpt lat="45.61214" lon="5.79074">
        <ele>822.77643957661</ele>
        <time>2015-11-08T15:35:42Z</time>
      </trkpt>
      <trkpt lat="45.61218" lon="5.79056">
        <ele>821.0911783404</ele>
        <time>2015-11-08T15:35:52Z</time>
      </trkpt>
      <trkpt lat="45.61216" lon="5.79048">
        <ele>821.0911783404</ele>
        <time>2015-11-08T15:35:57Z</time>
      </trkpt>
      <trkpt lat="45.61215" lon="5.79027">
        <ele>819.71216397522</ele>
        <time>2015-11-08T15:36:07Z</time>
      </trkpt>
      <trkpt lat="45.61216" lon="5.79025">
        <ele>819.71216397522</ele>
        <time>2015-11-08T15:36:12Z</time>
      </trkpt>
      <trkpt lat="45.61214" lon="5.79025">
        <ele>819.71216397522</ele>
        <time>2015-11-08T15:36:22Z</time>
      </trkpt>
      <trkpt lat="45.61214" lon="5.79025">
        <ele>819.71216397522</ele>
        <time>2015-11-08T15:36:27Z</time>
      </trkpt>
      <trkpt lat="45.61214" lon="5.79017">
        <ele>818.25213045121</ele>
        <time>2015-11-08T15:36:37Z</time>
      </trkpt>
      <trkpt lat="45.61212" lon="5.7901">
        <ele>818.25213045121</ele>
        <time>2015-11-08T15:36:42Z</time>
      </trkpt>
      <trkpt lat="45.61207" lon="5.78991">
        <ele>817.21721030405</ele>
        <time>2015-11-08T15:36:52Z</time>
      </trkpt>
      <trkpt lat="45.61206" lon="5.7898">
        <ele>817.21721030405</ele>
        <time>2015-11-08T15:36:57Z</time>
      </trkpt>
      <trkpt lat="45.61204" lon="5.78962">
        <ele>816.41231791881</ele>
        <time>2015-11-08T15:37:07Z</time>
      </trkpt>
      <trkpt lat="45.61202" lon="5.78953">
        <ele>816.41231791881</ele>
        <time>2015-11-08T15:37:12Z</time>
      </trkpt>
      <trkpt lat="45.61207" lon="5.78936">
        <ele>814.90675046388</ele>
        <time>2015-11-08T15:37:22Z</time>
      </trkpt>
      <trkpt lat="45.61207" lon="5.78934">
        <ele>814.90675046388</ele>
        <time>2015-11-08T15:37:27Z</time>
      </trkpt>
      <trkpt lat="45.61213" lon="5.78926">
        <ele>813.74249147505</ele>
        <time>2015-11-08T15:37:42Z</time>
      </trkpt>
      <trkpt lat="45.61218" lon="5.78918">
        <ele>813.74249147505</ele>
        <time>2015-11-08T15:37:47Z</time>
      </trkpt>
      <trkpt lat="45.61221" lon="5.78906">
        <ele>812.54388240719</ele>
        <time>2015-11-08T15:37:57Z</time>
      </trkpt>
      <trkpt lat="45.61221" lon="5.78901">
        <ele>812.54388240719</ele>
        <time>2015-11-08T15:38:02Z</time>
      </trkpt>
      <trkpt lat="45.6122" lon="5.78887">
        <ele>810.83335544213</ele>
        <time>2015-11-08T15:38:12Z</time>
      </trkpt>
      <trkpt lat="45.6122" lon="5.7888">
        <ele>810.83335544213</ele>
        <time>2015-11-08T15:38:17Z</time>
      </trkpt>
      <trkpt lat="45.61217" lon="5.78869">
        <ele>808.89051911641</ele>
        <time>2015-11-08T15:38:27Z</time>
      </trkpt>
      <trkpt lat="45.61216" lon="5.78864">
        <ele>808.89051911641</ele>
        <time>2015-11-08T15:38:32Z</time>
      </trkpt>
      <trkpt lat="45.61214" lon="5.78851">
        <ele>807.10489895666</ele>
        <time>2015-11-08T15:38:42Z</time>
      </trkpt>
      <trkpt lat="45.61214" lon="5.78845">
        <ele>807.10489895666</ele>
        <time>2015-11-08T15:38:47Z</time>
      </trkpt>
      <trkpt lat="45.6121" lon="5.78825">
        <ele>804.87152535126</ele>
        <time>2015-11-08T15:39:02Z</time>
      </trkpt>
      <trkpt lat="45.6121" lon="5.78817">
        <ele>804.87152535126</ele>
        <time>2015-11-08T15:39:07Z</time>
      </trkpt>
      <trkpt lat="45.61206" lon="5.78808">
        <ele>801.93386089957</ele>
        <time>2015-11-08T15:39:17Z</time>
      </trkpt>
      <trkpt lat="45.61206" lon="5.78805">
        <ele>801.93386089957</ele>
        <time>2015-11-08T15:39:22Z</time>
      </trkpt>
      <trkpt lat="45.61206" lon="5.78799">
        <ele>801.93386089957</ele>
        <time>2015-11-08T15:39:32Z</time>
      </trkpt>
      <trkpt lat="45.61204" lon="5.78794">
        <ele>799.32446483022</ele>
        <time>2015-11-08T15:39:37Z</time>
      </trkpt>
      <trkpt lat="45.61201" lon="5.78782">
        <ele>796.55810380443</ele>
        <time>2015-11-08T15:39:47Z</time>
      </trkpt>
      <trkpt lat="45.61198" lon="5.78776">
        <ele>796.55810380443</ele>
        <time>2015-11-08T15:39:52Z</time>
      </trkpt>
      <trkpt lat="45.61194" lon="5.78767">
        <ele>794.02155842757</ele>
        <time>2015-11-08T15:40:02Z</time>
      </trkpt>
      <trkpt lat="45.61191" lon="5.78757">
        <ele>794.02155842757</ele>
        <time>2015-11-08T15:40:07Z</time>
      </trkpt>
      <trkpt lat="45.61187" lon="5.78738">
        <ele>791.4241281563</ele>
        <time>2015-11-08T15:40:17Z</time>
      </trkpt>
      <trkpt lat="45.61187" lon="5.78728">
        <ele>791.4241281563</ele>
        <time>2015-11-08T15:40:22Z</time>
      </trkpt>
      <trkpt lat="45.61188" lon="5.78711">
        <ele>788.77051897973</ele>
        <time>2015-11-08T15:40:32Z</time>
      </trkpt>
      <trkpt lat="45.61191" lon="5.78705">
        <ele>788.77051897973</ele>
        <time>2015-11-08T15:40:37Z</time>
      </trkpt>
      <trkpt lat="45.61195" lon="5.7869">
        <ele>785.12858799855</ele>
        <time>2015-11-08T15:40:47Z</time>
      </trkpt>
      <trkpt lat="45.61199" lon="5.78682">
        <ele>785.12858799855</ele>
        <time>2015-11-08T15:40:52Z</time>
      </trkpt>
      <trkpt lat="45.61205" lon="5.78664">
        <ele>780.77596943579</ele>
        <time>2015-11-08T15:41:07Z</time>
      </trkpt>
      <trkpt lat="45.61206" lon="5.78661">
        <ele>780.77596943579</ele>
        <time>2015-11-08T15:41:12Z</time>
      </trkpt>
      <trkpt lat="45.61208" lon="5.78656">
        <ele>780.77596943579</ele>
        <time>2015-11-08T15:41:22Z</time>
      </trkpt>
      <trkpt lat="45.6121" lon="5.78648">
        <ele>777.13923709308</ele>
        <time>2015-11-08T15:41:27Z</time>
      </trkpt>
      <trkpt lat="45.61211" lon="5.78634">
        <ele>772.82889719929</ele>
        <time>2015-11-08T15:41:37Z</time>
      </trkpt>
      <trkpt lat="45.61212" lon="5.78629">
        <ele>772.82889719929</ele>
        <time>2015-11-08T15:41:42Z</time>
      </trkpt>
      <trkpt lat="45.61214" lon="5.78617">
        <ele>768.40405012431</ele>
        <time>2015-11-08T15:41:52Z</time>
      </trkpt>
      <trkpt lat="45.61212" lon="5.78613">
        <ele>768.40405012431</ele>
        <time>2015-11-08T15:41:57Z</time>
      </trkpt>
      <trkpt lat="45.6121" lon="5.786">
        <ele>763.82100693824</ele>
        <time>2015-11-08T15:42:07Z</time>
      </trkpt>
      <trkpt lat="45.61208" lon="5.78592">
        <ele>763.82100693824</ele>
        <time>2015-11-08T15:42:12Z</time>
      </trkpt>
      <trkpt lat="45.61206" lon="5.78576">
        <ele>758.44885339042</ele>
        <time>2015-11-08T15:42:22Z</time>
      </trkpt>
      <trkpt lat="45.61206" lon="5.78571">
        <ele>758.44885339042</ele>
        <time>2015-11-08T15:42:27Z</time>
      </trkpt>
      <trkpt lat="45.61201" lon="5.78558">
        <ele>752.8869059888</ele>
        <time>2015-11-08T15:42:37Z</time>
      </trkpt>
      <trkpt lat="45.61199" lon="5.78551">
        <ele>752.8869059888</ele>
        <time>2015-11-08T15:42:42Z</time>
      </trkpt>
      <trkpt lat="45.61195" lon="5.78544">
        <ele>747.22977203048</ele>
        <time>2015-11-08T15:42:52Z</time>
      </trkpt>
      <trkpt lat="45.61192" lon="5.78536">
        <ele>747.22977203048</ele>
        <time>2015-11-08T15:42:57Z</time>
      </trkpt>
      <trkpt lat="45.61189" lon="5.7852">
        <ele>741.92557407654</ele>
        <time>2015-11-08T15:43:07Z</time>
      </trkpt>
      <trkpt lat="45.61188" lon="5.78515">
        <ele>741.92557407654</ele>
        <time>2015-11-08T15:43:12Z</time>
      </trkpt>
      <trkpt lat="45.61186" lon="5.78502">
        <ele>736.58140442921</ele>
        <time>2015-11-08T15:43:27Z</time>
      </trkpt>
      <trkpt lat="45.61185" lon="5.7849">
        <ele>736.58140442921</ele>
        <time>2015-11-08T15:43:32Z</time>
      </trkpt>
      <trkpt lat="45.61182" lon="5.78484">
        <ele>731.88522715007</ele>
        <time>2015-11-08T15:43:42Z</time>
      </trkpt>
      <trkpt lat="45.61179" lon="5.78477">
        <ele>731.88522715007</ele>
        <time>2015-11-08T15:43:47Z</time>
      </trkpt>
      <trkpt lat="45.61175" lon="5.78466">
        <ele>726.95935582654</ele>
        <time>2015-11-08T15:43:57Z</time>
      </trkpt>
      <trkpt lat="45.61174" lon="5.78465">
        <ele>726.95935582654</ele>
        <time>2015-11-08T15:44:02Z</time>
      </trkpt>
      <trkpt lat="45.61173" lon="5.78463">
        <ele>726.95935582654</ele>
        <time>2015-11-08T15:44:12Z</time>
      </trkpt>
      <trkpt lat="45.61173" lon="5.78463">
        <ele>726.95935582654</ele>
        <time>2015-11-08T15:44:17Z</time>
      </trkpt>
      <trkpt lat="45.61173" lon="5.78463">
        <ele>726.95935582654</ele>
        <time>2015-11-08T15:44:27Z</time>
      </trkpt>
      <trkpt lat="45.61173" lon="5.78463">
        <ele>726.95935582654</ele>
        <time>2015-11-08T15:44:32Z</time>
      </trkpt>
      <trkpt lat="45.61173" lon="5.78463">
        <ele>726.95935582654</ele>
        <time>2015-11-08T15:44:42Z</time>
      </trkpt>
      <trkpt lat="45.61173" lon="5.78463">
        <ele>726.95935582654</ele>
        <time>2015-11-08T15:44:47Z</time>
      </trkpt>
      <trkpt lat="45.61173" lon="5.78463">
        <ele>726.95935582654</ele>
        <time>2015-11-08T15:45:02Z</time>
      </trkpt>
      <trkpt lat="45.61173" lon="5.78463">
        <ele>726.95935582654</ele>
        <time>2015-11-08T15:45:07Z</time>
      </trkpt>
      <trkpt lat="45.61173" lon="5.78463">
        <ele>726.95935582654</ele>
        <time>2015-11-08T15:45:17Z</time>
      </trkpt>
      <trkpt lat="45.61173" lon="5.78463">
        <ele>726.95935582654</ele>
        <time>2015-11-08T15:45:22Z</time>
      </trkpt>
      <trkpt lat="45.61172" lon="5.78461">
        <ele>726.95935582654</ele>
        <time>2015-11-08T15:45:32Z</time>
      </trkpt>
      <trkpt lat="45.6117" lon="5.78456">
        <ele>726.95935582654</ele>
        <time>2015-11-08T15:45:37Z</time>
      </trkpt>
      <trkpt lat="45.61166" lon="5.78443">
        <ele>722.20161834862</ele>
        <time>2015-11-08T15:45:47Z</time>
      </trkpt>
      <trkpt lat="45.61164" lon="5.78436">
        <ele>722.20161834862</ele>
        <time>2015-11-08T15:45:52Z</time>
      </trkpt>
      <trkpt lat="45.61159" lon="5.78425">
        <ele>717.44678922717</ele>
        <time>2015-11-08T15:46:02Z</time>
      </trkpt>
      <trkpt lat="45.61157" lon="5.78418">
        <ele>717.44678922717</ele>
        <time>2015-11-08T15:46:07Z</time>
      </trkpt>
      <trkpt lat="45.61152" lon="5.78405">
        <ele>713.26217662453</ele>
        <time>2015-11-08T15:46:17Z</time>
      </trkpt>
      <trkpt lat="45.61149" lon="5.78399">
        <ele>713.26217662453</ele>
        <time>2015-11-08T15:46:22Z</time>
      </trkpt>
      <trkpt lat="45.61143" lon="5.78378">
        <ele>708.78819231598</ele>
        <time>2015-11-08T15:46:37Z</time>
      </trkpt>
      <trkpt lat="45.61141" lon="5.78372">
        <ele>708.78819231598</ele>
        <time>2015-11-08T15:46:42Z</time>
      </trkpt>
      <trkpt lat="45.61139" lon="5.78362">
        <ele>704.12253590459</ele>
        <time>2015-11-08T15:46:52Z</time>
      </trkpt>
      <trkpt lat="45.61141" lon="5.78356">
        <ele>704.12253590459</ele>
        <time>2015-11-08T15:46:57Z</time>
      </trkpt>
      <trkpt lat="45.61136" lon="5.78346">
        <ele>698.92377366422</ele>
        <time>2015-11-08T15:47:07Z</time>
      </trkpt>
      <trkpt lat="45.61134" lon="5.78341">
        <ele>698.92377366422</ele>
        <time>2015-11-08T15:47:12Z</time>
      </trkpt>
      <trkpt lat="45.61131" lon="5.78334">
        <ele>694.18829797889</ele>
        <time>2015-11-08T15:47:22Z</time>
      </trkpt>
      <trkpt lat="45.61129" lon="5.78327">
        <ele>694.18829797889</ele>
        <time>2015-11-08T15:47:27Z</time>
      </trkpt>
      <trkpt lat="45.61127" lon="5.78319">
        <ele>689.62730855624</ele>
        <time>2015-11-08T15:47:37Z</time>
      </trkpt>
      <trkpt lat="45.61126" lon="5.78311">
        <ele>689.62730855624</ele>
        <time>2015-11-08T15:47:42Z</time>
      </trkpt>
      <trkpt lat="45.61125" lon="5.78302">
        <ele>685.39048709943</ele>
        <time>2015-11-08T15:47:52Z</time>
      </trkpt>
      <trkpt lat="45.61124" lon="5.78297">
        <ele>685.39048709943</ele>
        <time>2015-11-08T15:47:57Z</time>
      </trkpt>
      <trkpt lat="45.61118" lon="5.78283">
        <ele>681.54338989488</ele>
        <time>2015-11-08T15:48:07Z</time>
      </trkpt>
      <trkpt lat="45.61116" lon="5.78273">
        <ele>681.54338989488</ele>
        <time>2015-11-08T15:48:12Z</time>
      </trkpt>
      <trkpt lat="45.61112" lon="5.78252">
        <ele>677.69875835067</ele>
        <time>2015-11-08T15:48:22Z</time>
      </trkpt>
      <trkpt lat="45.61111" lon="5.78242">
        <ele>677.69875835067</ele>
        <time>2015-11-08T15:48:27Z</time>
      </trkpt>
      <trkpt lat="45.61111" lon="5.78223">
        <ele>674.01641955226</ele>
        <time>2015-11-08T15:48:37Z</time>
      </trkpt>
      <trkpt lat="45.61111" lon="5.78213">
        <ele>674.01641955226</ele>
        <time>2015-11-08T15:48:42Z</time>
      </trkpt>
      <trkpt lat="45.61105" lon="5.78195">
        <ele>669.98094444363</ele>
        <time>2015-11-08T15:48:57Z</time>
      </trkpt>
      <trkpt lat="45.61099" lon="5.78195">
        <ele>669.98094444363</ele>
        <time>2015-11-08T15:49:02Z</time>
      </trkpt>
      <trkpt lat="45.61089" lon="5.78187">
        <ele>666.52790652181</ele>
        <time>2015-11-08T15:49:12Z</time>
      </trkpt>
      <trkpt lat="45.61085" lon="5.78178">
        <ele>666.52790652181</ele>
        <time>2015-11-08T15:49:17Z</time>
      </trkpt>
      <trkpt lat="45.61076" lon="5.78167">
        <ele>663.74418715621</ele>
        <time>2015-11-08T15:49:27Z</time>
      </trkpt>
      <trkpt lat="45.61071" lon="5.78164">
        <ele>663.74418715621</ele>
        <time>2015-11-08T15:49:32Z</time>
      </trkpt>
      <trkpt lat="45.61069" lon="5.78163">
        <ele>663.74418715621</ele>
        <time>2015-11-08T15:49:42Z</time>
      </trkpt>
      <trkpt lat="45.61068" lon="5.78163">
        <ele>663.74418715621</ele>
        <time>2015-11-08T15:49:47Z</time>
      </trkpt>
      <trkpt lat="45.61062" lon="5.78156">
        <ele>661.2183097641</ele>
        <time>2015-11-08T15:49:57Z</time>
      </trkpt>
      <trkpt lat="45.6106" lon="5.7815">
        <ele>661.2183097641</ele>
        <time>2015-11-08T15:50:02Z</time>
      </trkpt>
      <trkpt lat="45.61057" lon="5.78133">
        <ele>658.20791547678</ele>
        <time>2015-11-08T15:50:12Z</time>
      </trkpt>
      <trkpt lat="45.61055" lon="5.78125">
        <ele>658.20791547678</ele>
        <time>2015-11-08T15:50:17Z</time>
      </trkpt>
      <trkpt lat="45.61047" lon="5.7811">
        <ele>655.65490060776</ele>
        <time>2015-11-08T15:50:27Z</time>
      </trkpt>
      <trkpt lat="45.61044" lon="5.78107">
        <ele>655.65490060776</ele>
        <time>2015-11-08T15:50:32Z</time>
      </trkpt>
      <trkpt lat="45.61037" lon="5.78093">
        <ele>653.24889710882</ele>
        <time>2015-11-08T15:50:42Z</time>
      </trkpt>
      <trkpt lat="45.61034" lon="5.78086">
        <ele>653.24889710882</ele>
        <time>2015-11-08T15:50:47Z</time>
      </trkpt>
      <trkpt lat="45.61028" lon="5.78075">
        <ele>650.52892598768</ele>
        <time>2015-11-08T15:50:57Z</time>
      </trkpt>
      <trkpt lat="45.61027" lon="5.78075">
        <ele>650.52892598768</ele>
        <time>2015-11-08T15:51:02Z</time>
      </trkpt>
      <trkpt lat="45.61022" lon="5.78062">
        <ele>647.52985616768</ele>
        <time>2015-11-08T15:51:12Z</time>
      </trkpt>
      <trkpt lat="45.6102" lon="5.78053">
        <ele>647.52985616768</ele>
        <time>2015-11-08T15:51:17Z</time>
      </trkpt>
      <trkpt lat="45.6101" lon="5.78027">
        <ele>646.1437749255</ele>
        <time>2015-11-08T15:51:32Z</time>
      </trkpt>
      <trkpt lat="45.61006" lon="5.78019">
        <ele>646.1437749255</ele>
        <time>2015-11-08T15:51:37Z</time>
      </trkpt>
      <trkpt lat="45.60998" lon="5.78004">
        <ele>645.46758637876</ele>
        <time>2015-11-08T15:51:47Z</time>
      </trkpt>
      <trkpt lat="45.60994" lon="5.77996">
        <ele>645.46758637876</ele>
        <time>2015-11-08T15:51:52Z</time>
      </trkpt>
      <trkpt lat="45.60983" lon="5.77984">
        <ele>644.44637372267</ele>
        <time>2015-11-08T15:52:02Z</time>
      </trkpt>
      <trkpt lat="45.60979" lon="5.77978">
        <ele>644.44637372267</ele>
        <time>2015-11-08T15:52:07Z</time>
      </trkpt>
      <trkpt lat="45.6097" lon="5.7797">
        <ele>642.95395313766</ele>
        <time>2015-11-08T15:52:17Z</time>
      </trkpt>
      <trkpt lat="45.6097" lon="5.77976">
        <ele>642.95395313766</ele>
        <time>2015-11-08T15:52:22Z</time>
      </trkpt>
      <trkpt lat="45.6097" lon="5.77979">
        <ele>642.95395313766</ele>
        <time>2015-11-08T15:52:32Z</time>
      </trkpt>
      <trkpt lat="45.6097" lon="5.7798">
        <ele>642.95395313766</ele>
        <time>2015-11-08T15:52:37Z</time>
      </trkpt>
      <trkpt lat="45.60969" lon="5.7798">
        <ele>642.95395313766</ele>
        <time>2015-11-08T15:52:47Z</time>
      </trkpt>
      <trkpt lat="45.60968" lon="5.7798">
        <ele>642.95395313766</ele>
        <time>2015-11-08T15:52:52Z</time>
      </trkpt>
      <trkpt lat="45.60967" lon="5.7798">
        <ele>641.01887810354</ele>
        <time>2015-11-08T15:53:02Z</time>
      </trkpt>
      <trkpt lat="45.60967" lon="5.7798">
        <ele>641.01887810354</ele>
        <time>2015-11-08T15:53:07Z</time>
      </trkpt>
      <trkpt lat="45.60965" lon="5.77976">
        <ele>641.01887810354</ele>
        <time>2015-11-08T15:53:17Z</time>
      </trkpt>
      <trkpt lat="45.60963" lon="5.77971">
        <ele>641.01887810354</ele>
        <time>2015-11-08T15:53:22Z</time>
      </trkpt>
      <trkpt lat="45.6096" lon="5.77971">
        <ele>639.27416481946</ele>
        <time>2015-11-08T15:53:32Z</time>
      </trkpt>
      <trkpt lat="45.60961" lon="5.77972">
        <ele>639.27416481946</ele>
        <time>2015-11-08T15:53:37Z</time>
      </trkpt>
      <trkpt lat="45.60961" lon="5.77972">
        <ele>639.27416481946</ele>
        <time>2015-11-08T15:53:52Z</time>
      </trkpt>
      <trkpt lat="45.60961" lon="5.77972">
        <ele>639.27416481946</ele>
        <time>2015-11-08T15:53:57Z</time>
      </trkpt>
      <trkpt lat="45.60954" lon="5.77966">
        <ele>639.27416481946</ele>
        <time>2015-11-08T15:54:07Z</time>
      </trkpt>
      <trkpt lat="45.60951" lon="5.77963">
        <ele>637.88793747824</ele>
        <time>2015-11-08T15:54:12Z</time>
      </trkpt>
      <trkpt lat="45.6095" lon="5.77961">
        <ele>637.88793747824</ele>
        <time>2015-11-08T15:54:22Z</time>
      </trkpt>
      <trkpt lat="45.60946" lon="5.77957">
        <ele>637.88793747824</ele>
        <time>2015-11-08T15:54:27Z</time>
      </trkpt>
      <trkpt lat="45.60943" lon="5.7794">
        <ele>636.94298681609</ele>
        <time>2015-11-08T15:54:37Z</time>
      </trkpt>
      <trkpt lat="45.60946" lon="5.77931">
        <ele>636.94298681609</ele>
        <time>2015-11-08T15:54:42Z</time>
      </trkpt>
      <trkpt lat="45.60952" lon="5.77913">
        <ele>636.39958635195</ele>
        <time>2015-11-08T15:54:52Z</time>
      </trkpt>
      <trkpt lat="45.60956" lon="5.77903">
        <ele>636.39958635195</ele>
        <time>2015-11-08T15:54:57Z</time>
      </trkpt>
      <trkpt lat="45.60964" lon="5.77885">
        <ele>636.32078585774</ele>
        <time>2015-11-08T15:55:07Z</time>
      </trkpt>
      <trkpt lat="45.60966" lon="5.77875">
        <ele>636.32078585774</ele>
        <time>2015-11-08T15:55:12Z</time>
      </trkpt>
      <trkpt lat="45.60973" lon="5.7786">
        <ele>636.34590114824</ele>
        <time>2015-11-08T15:55:22Z</time>
      </trkpt>
      <trkpt lat="45.60977" lon="5.77852">
        <ele>636.34590114824</ele>
        <time>2015-11-08T15:55:27Z</time>
      </trkpt>
      <trkpt lat="45.60989" lon="5.77842">
        <ele>636.81791638712</ele>
        <time>2015-11-08T15:55:37Z</time>
      </trkpt>
      <trkpt lat="45.60996" lon="5.77838">
        <ele>636.81791638712</ele>
        <time>2015-11-08T15:55:42Z</time>
      </trkpt>
      <trkpt lat="45.61008" lon="5.77831">
        <ele>637.27532686768</ele>
        <time>2015-11-08T15:55:52Z</time>
      </trkpt>
      <trkpt lat="45.61015" lon="5.77828">
        <ele>637.27532686768</ele>
        <time>2015-11-08T15:55:57Z</time>
      </trkpt>
      <trkpt lat="45.61029" lon="5.77822">
        <ele>638.2851178742</ele>
        <time>2015-11-08T15:56:07Z</time>
      </trkpt>
      <trkpt lat="45.61035" lon="5.77818">
        <ele>638.2851178742</ele>
        <time>2015-11-08T15:56:12Z</time>
      </trkpt>
      <trkpt lat="45.61049" lon="5.77814">
        <ele>639.34808489417</ele>
        <time>2015-11-08T15:56:27Z</time>
      </trkpt>
      <trkpt lat="45.61049" lon="5.77814">
        <ele>639.34808489417</ele>
        <time>2015-11-08T15:56:32Z</time>
      </trkpt>
      <trkpt lat="45.61049" lon="5.77803">
        <ele>639.34808489417</ele>
        <time>2015-11-08T15:56:42Z</time>
      </trkpt>
      <trkpt lat="45.61047" lon="5.7779">
        <ele>639.95852993459</ele>
        <time>2015-11-08T15:56:47Z</time>
      </trkpt>
      <trkpt lat="45.61046" lon="5.77765">
        <ele>640.8311193544</ele>
        <time>2015-11-08T15:56:57Z</time>
      </trkpt>
      <trkpt lat="45.61045" lon="5.77757">
        <ele>640.8311193544</ele>
        <time>2015-11-08T15:57:02Z</time>
      </trkpt>
      <trkpt lat="45.61043" lon="5.77743">
        <ele>641.53229056386</ele>
        <time>2015-11-08T15:57:12Z</time>
      </trkpt>
      <trkpt lat="45.61041" lon="5.77733">
        <ele>641.53229056386</ele>
        <time>2015-11-08T15:57:17Z</time>
      </trkpt>
      <trkpt lat="45.61038" lon="5.77716">
        <ele>642.15105199642</ele>
        <time>2015-11-08T15:57:27Z</time>
      </trkpt>
      <trkpt lat="45.61037" lon="5.77719">
        <ele>642.15105199642</ele>
        <time>2015-11-08T15:57:32Z</time>
      </trkpt>
      <trkpt lat="45.61037" lon="5.77717">
        <ele>642.15105199642</ele>
        <time>2015-11-08T15:57:42Z</time>
      </trkpt>
      <trkpt lat="45.61036" lon="5.77712">
        <ele>642.15105199642</ele>
        <time>2015-11-08T15:57:47Z</time>
      </trkpt>
      <trkpt lat="45.61037" lon="5.77706">
        <ele>642.88566715248</ele>
        <time>2015-11-08T15:58:02Z</time>
      </trkpt>
      <trkpt lat="45.61035" lon="5.77703">
        <ele>642.88566715248</ele>
        <time>2015-11-08T15:58:07Z</time>
      </trkpt>
      <trkpt lat="45.61034" lon="5.77697">
        <ele>642.88566715248</ele>
        <time>2015-11-08T15:58:17Z</time>
      </trkpt>
      <trkpt lat="45.61034" lon="5.77697">
        <ele>642.88566715248</ele>
        <time>2015-11-08T15:58:22Z</time>
      </trkpt>
      <trkpt lat="45.6103" lon="5.77697">
        <ele>643.3289362779</ele>
        <time>2015-11-08T15:58:32Z</time>
      </trkpt>
      <trkpt lat="45.61029" lon="5.77689">
        <ele>643.3289362779</ele>
        <time>2015-11-08T15:58:37Z</time>
      </trkpt>
      <trkpt lat="45.61029" lon="5.7769">
        <ele>643.3289362779</ele>
        <time>2015-11-08T15:58:47Z</time>
      </trkpt>
      <trkpt lat="45.61029" lon="5.7769">
        <ele>643.3289362779</ele>
        <time>2015-11-08T15:58:52Z</time>
      </trkpt>
      <trkpt lat="45.61025" lon="5.77677">
        <ele>643.47936631276</ele>
        <time>2015-11-08T15:59:02Z</time>
      </trkpt>
      <trkpt lat="45.61021" lon="5.77668">
        <ele>643.47936631276</ele>
        <time>2015-11-08T15:59:07Z</time>
      </trkpt>
      <trkpt lat="45.61015" lon="5.77651">
        <ele>643.62490904985</ele>
        <time>2015-11-08T15:59:17Z</time>
      </trkpt>
      <trkpt lat="45.61011" lon="5.77641">
        <ele>643.62490904985</ele>
        <time>2015-11-08T15:59:22Z</time>
      </trkpt>
      <trkpt lat="45.61004" lon="5.77622">
        <ele>643.85973677168</ele>
        <time>2015-11-08T15:59:32Z</time>
      </trkpt>
      <trkpt lat="45.61001" lon="5.77612">
        <ele>643.85973677168</ele>
        <time>2015-11-08T15:59:37Z</time>
      </trkpt>
      <trkpt lat="45.60992" lon="5.77595">
        <ele>643.83881218343</ele>
        <time>2015-11-08T15:59:47Z</time>
      </trkpt>
      <trkpt lat="45.60988" lon="5.77587">
        <ele>643.83881218343</ele>
        <time>2015-11-08T15:59:52Z</time>
      </trkpt>
      <trkpt lat="45.60973" lon="5.77573">
        <ele>643.84871876212</ele>
        <time>2015-11-08T16:00:07Z</time>
      </trkpt>
      <trkpt lat="45.60969" lon="5.77565">
        <ele>643.84871876212</ele>
        <time>2015-11-08T16:00:12Z</time>
      </trkpt>
      <trkpt lat="45.60966" lon="5.77556">
        <ele>643.76608801198</ele>
        <time>2015-11-08T16:00:22Z</time>
      </trkpt>
      <trkpt lat="45.60965" lon="5.77557">
        <ele>643.76608801198</ele>
        <time>2015-11-08T16:00:27Z</time>
      </trkpt>
      <trkpt lat="45.60963" lon="5.77545">
        <ele>643.82302324893</ele>
        <time>2015-11-08T16:00:37Z</time>
      </trkpt>
      <trkpt lat="45.60961" lon="5.77536">
        <ele>643.82302324893</ele>
        <time>2015-11-08T16:00:42Z</time>
      </trkpt>
      <trkpt lat="45.60953" lon="5.77531">
        <ele>643.80213038301</ele>
        <time>2015-11-08T16:00:52Z</time>
      </trkpt>
      <trkpt lat="45.60948" lon="5.77532">
        <ele>643.80213038301</ele>
        <time>2015-11-08T16:00:57Z</time>
      </trkpt>
      <trkpt lat="45.60918" lon="5.7752">
        <ele>643.34395257891</ele>
        <time>2015-11-08T16:01:07Z</time>
      </trkpt>
      <trkpt lat="45.60911" lon="5.77517">
        <ele>643.34395257891</ele>
        <time>2015-11-08T16:01:12Z</time>
      </trkpt>
      <trkpt lat="45.60896" lon="5.7751">
        <ele>643.02483019118</ele>
        <time>2015-11-08T16:01:22Z</time>
      </trkpt>
      <trkpt lat="45.60889" lon="5.77508">
        <ele>643.02483019118</ele>
        <time>2015-11-08T16:01:27Z</time>
      </trkpt>
      <trkpt lat="45.60878" lon="5.77504">
        <ele>642.34103158959</ele>
        <time>2015-11-08T16:01:37Z</time>
      </trkpt>
      <trkpt lat="45.60875" lon="5.77504">
        <ele>642.34103158959</ele>
        <time>2015-11-08T16:01:42Z</time>
      </trkpt>
      <trkpt lat="45.60875" lon="5.77509">
        <ele>642.34103158959</ele>
        <time>2015-11-08T16:01:52Z</time>
      </trkpt>
      <trkpt lat="45.60874" lon="5.7751">
        <ele>642.34103158959</ele>
        <time>2015-11-08T16:01:57Z</time>
      </trkpt>
      <trkpt lat="45.60875" lon="5.77511">
        <ele>642.34103158959</ele>
        <time>2015-11-08T16:02:07Z</time>
      </trkpt>
      <trkpt lat="45.60874" lon="5.77512">
        <ele>641.95116591942</ele>
        <time>2015-11-08T16:02:12Z</time>
      </trkpt>
      <trkpt lat="45.60874" lon="5.77512">
        <ele>641.95116591942</ele>
        <time>2015-11-08T16:02:22Z</time>
      </trkpt>
      <trkpt lat="45.60873" lon="5.77512">
        <ele>641.95116591942</ele>
        <time>2015-11-08T16:02:27Z</time>
      </trkpt>
      <trkpt lat="45.60874" lon="5.77513">
        <ele>641.95116591942</ele>
        <time>2015-11-08T16:02:37Z</time>
      </trkpt>
      <trkpt lat="45.60875" lon="5.77513">
        <ele>641.95116591942</ele>
        <time>2015-11-08T16:02:42Z</time>
      </trkpt>
      <trkpt lat="45.60878" lon="5.77512">
        <ele>641.95116591942</ele>
        <time>2015-11-08T16:02:57Z</time>
      </trkpt>
      <trkpt lat="45.60879" lon="5.77513">
        <ele>641.95116591942</ele>
        <time>2015-11-08T16:03:02Z</time>
      </trkpt>
      <trkpt lat="45.60878" lon="5.77512">
        <ele>641.95116591942</ele>
        <time>2015-11-08T16:03:12Z</time>
      </trkpt>
      <trkpt lat="45.60877" lon="5.77511">
        <ele>641.95116591942</ele>
        <time>2015-11-08T16:03:17Z</time>
      </trkpt>
      <trkpt lat="45.60875" lon="5.77512">
        <ele>641.90284056782</ele>
        <time>2015-11-08T16:03:27Z</time>
      </trkpt>
      <trkpt lat="45.60876" lon="5.77512">
        <ele>641.90284056782</ele>
        <time>2015-11-08T16:03:32Z</time>
      </trkpt>
      <trkpt lat="45.6087" lon="5.77506">
        <ele>641.90284056782</ele>
        <time>2015-11-08T16:03:42Z</time>
      </trkpt>
      <trkpt lat="45.60864" lon="5.77504">
        <ele>641.67740223562</ele>
        <time>2015-11-08T16:03:47Z</time>
      </trkpt>
      <trkpt lat="45.60854" lon="5.77502">
        <ele>641.61644793593</ele>
        <time>2015-11-08T16:03:57Z</time>
      </trkpt>
      <trkpt lat="45.6085" lon="5.77501">
        <ele>641.61644793593</ele>
        <time>2015-11-08T16:04:02Z</time>
      </trkpt>
      <trkpt lat="45.60837" lon="5.77499">
        <ele>641.25803132163</ele>
        <time>2015-11-08T16:04:12Z</time>
      </trkpt>
      <trkpt lat="45.60832" lon="5.77495">
        <ele>641.25803132163</ele>
        <time>2015-11-08T16:04:17Z</time>
      </trkpt>
      <trkpt lat="45.60823" lon="5.77491">
        <ele>640.89573458344</ele>
        <time>2015-11-08T16:04:27Z</time>
      </trkpt>
      <trkpt lat="45.60819" lon="5.77488">
        <ele>640.89573458344</ele>
        <time>2015-11-08T16:04:32Z</time>
      </trkpt>
      <trkpt lat="45.6081" lon="5.77483">
        <ele>640.16769008898</ele>
        <time>2015-11-08T16:04:42Z</time>
      </trkpt>
      <trkpt lat="45.60805" lon="5.77482">
        <ele>640.16769008898</ele>
        <time>2015-11-08T16:04:47Z</time>
      </trkpt>
      <trkpt lat="45.60797" lon="5.7748">
        <ele>639.04245648825</ele>
        <time>2015-11-08T16:04:57Z</time>
      </trkpt>
      <trkpt lat="45.60792" lon="5.77478">
        <ele>639.04245648825</ele>
        <time>2015-11-08T16:05:02Z</time>
      </trkpt>
      <trkpt lat="45.60782" lon="5.77475">
        <ele>637.2760206524</ele>
        <time>2015-11-08T16:05:12Z</time>
      </trkpt>
      <trkpt lat="45.60778" lon="5.77474">
        <ele>637.2760206524</ele>
        <time>2015-11-08T16:05:17Z</time>
      </trkpt>
      <trkpt lat="45.60775" lon="5.77474">
        <ele>637.2760206524</ele>
        <time>2015-11-08T16:05:32Z</time>
      </trkpt>
      <trkpt lat="45.60771" lon="5.77472">
        <ele>635.69626111957</ele>
        <time>2015-11-08T16:05:37Z</time>
      </trkpt>
      <trkpt lat="45.60762" lon="5.77467">
        <ele>634.10431231513</ele>
        <time>2015-11-08T16:05:47Z</time>
      </trkpt>
      <trkpt lat="45.60762" lon="5.77466">
        <ele>634.10431231513</ele>
        <time>2015-11-08T16:05:52Z</time>
      </trkpt>
      <trkpt lat="45.60758" lon="5.77464">
        <ele>634.10431231513</ele>
        <time>2015-11-08T16:06:02Z</time>
      </trkpt>
      <trkpt lat="45.60757" lon="5.77464">
        <ele>634.10431231513</ele>
        <time>2015-11-08T16:06:07Z</time>
      </trkpt>
      <trkpt lat="45.60757" lon="5.77464">
        <ele>634.10431231513</ele>
        <time>2015-11-08T16:06:17Z</time>
      </trkpt>
      <trkpt lat="45.60757" lon="5.77464">
        <ele>634.10431231513</ele>
        <time>2015-11-08T16:06:22Z</time>
      </trkpt>
      <trkpt lat="45.60754" lon="5.77461">
        <ele>633.20956461714</ele>
        <time>2015-11-08T16:06:32Z</time>
      </trkpt>
      <trkpt lat="45.60749" lon="5.77457">
        <ele>633.20956461714</ele>
        <time>2015-11-08T16:06:37Z</time>
      </trkpt>
      <trkpt lat="45.6074" lon="5.77444">
        <ele>631.347259032</ele>
        <time>2015-11-08T16:06:47Z</time>
      </trkpt>
      <trkpt lat="45.60736" lon="5.77437">
        <ele>631.347259032</ele>
        <time>2015-11-08T16:06:52Z</time>
      </trkpt>
      <trkpt lat="45.60727" lon="5.77422">
        <ele>629.81672625995</ele>
        <time>2015-11-08T16:07:07Z</time>
      </trkpt>
      <trkpt lat="45.60725" lon="5.77418">
        <ele>629.81672625995</ele>
        <time>2015-11-08T16:07:12Z</time>
      </trkpt>
      <trkpt lat="45.60722" lon="5.77408">
        <ele>627.22699477847</ele>
        <time>2015-11-08T16:07:22Z</time>
      </trkpt>
      <trkpt lat="45.60721" lon="5.77401">
        <ele>627.22699477847</ele>
        <time>2015-11-08T16:07:27Z</time>
      </trkpt>
      <trkpt lat="45.60722" lon="5.77388">
        <ele>624.03604960577</ele>
        <time>2015-11-08T16:07:37Z</time>
      </trkpt>
      <trkpt lat="45.60722" lon="5.77379">
        <ele>624.03604960577</ele>
        <time>2015-11-08T16:07:42Z</time>
      </trkpt>
      <trkpt lat="45.60722" lon="5.77362">
        <ele>621.75079452253</ele>
        <time>2015-11-08T16:07:52Z</time>
      </trkpt>
      <trkpt lat="45.60722" lon="5.77356">
        <ele>621.75079452253</ele>
        <time>2015-11-08T16:07:57Z</time>
      </trkpt>
      <trkpt lat="45.6072" lon="5.77336">
        <ele>619.28620690516</ele>
        <time>2015-11-08T16:08:07Z</time>
      </trkpt>
      <trkpt lat="45.60721" lon="5.77326">
        <ele>619.28620690516</ele>
        <time>2015-11-08T16:08:12Z</time>
      </trkpt>
      <trkpt lat="45.60721" lon="5.77303">
        <ele>617.12182180918</ele>
        <time>2015-11-08T16:08:27Z</time>
      </trkpt>
      <trkpt lat="45.60719" lon="5.77296">
        <ele>617.12182180918</ele>
        <time>2015-11-08T16:08:32Z</time>
      </trkpt>
      <trkpt lat="45.60717" lon="5.77279">
        <ele>615.4128728905</ele>
        <time>2015-11-08T16:08:42Z</time>
      </trkpt>
      <trkpt lat="45.60717" lon="5.77273">
        <ele>615.4128728905</ele>
        <time>2015-11-08T16:08:47Z</time>
      </trkpt>
      <trkpt lat="45.60716" lon="5.77264">
        <ele>613.23546707735</ele>
        <time>2015-11-08T16:08:57Z</time>
      </trkpt>
      <trkpt lat="45.60716" lon="5.77264">
        <ele>613.23546707735</ele>
        <time>2015-11-08T16:09:02Z</time>
      </trkpt>
      <trkpt lat="45.60715" lon="5.77255">
        <ele>613.23546707735</ele>
        <time>2015-11-08T16:09:12Z</time>
      </trkpt>
      <trkpt lat="45.60714" lon="5.77252">
        <ele>613.23546707735</ele>
        <time>2015-11-08T16:09:17Z</time>
      </trkpt>
      <trkpt lat="45.60711" lon="5.77248">
        <ele>611.29126116069</ele>
        <time>2015-11-08T16:09:27Z</time>
      </trkpt>
      <trkpt lat="45.60711" lon="5.77247">
        <ele>611.29126116069</ele>
        <time>2015-11-08T16:09:32Z</time>
      </trkpt>
      <trkpt lat="45.60711" lon="5.77247">
        <ele>611.29126116069</ele>
        <time>2015-11-08T16:09:42Z</time>
      </trkpt>
      <trkpt lat="45.60711" lon="5.77247">
        <ele>611.29126116069</ele>
        <time>2015-11-08T16:09:47Z</time>
      </trkpt>
      <trkpt lat="45.60711" lon="5.77247">
        <ele>611.29126116069</ele>
        <time>2015-11-08T16:09:57Z</time>
      </trkpt>
      <trkpt lat="45.60711" lon="5.77247">
        <ele>611.29126116069</ele>
        <time>2015-11-08T16:10:02Z</time>
      </trkpt>
      <trkpt lat="45.60711" lon="5.77247">
        <ele>611.29126116069</ele>
        <time>2015-11-08T16:10:17Z</time>
      </trkpt>
      <trkpt lat="45.60711" lon="5.77247">
        <ele>611.29126116069</ele>
        <time>2015-11-08T16:10:22Z</time>
      </trkpt>
      <trkpt lat="45.60711" lon="5.77247">
        <ele>611.29126116069</ele>
        <time>2015-11-08T16:10:32Z</time>
      </trkpt>
      <trkpt lat="45.60711" lon="5.77247">
        <ele>611.29126116069</ele>
        <time>2015-11-08T16:10:37Z</time>
      </trkpt>
      <trkpt lat="45.60711" lon="5.77247">
        <ele>611.29126116069</ele>
        <time>2015-11-08T16:10:47Z</time>
      </trkpt>
      <trkpt lat="45.60709" lon="5.77245">
        <ele>611.29126116069</ele>
        <time>2015-11-08T16:10:52Z</time>
      </trkpt>
      <trkpt lat="45.60706" lon="5.77231">
        <ele>608.41386969882</ele>
        <time>2015-11-08T16:11:02Z</time>
      </trkpt>
      <trkpt lat="45.60702" lon="5.77224">
        <ele>608.41386969882</ele>
        <time>2015-11-08T16:11:07Z</time>
      </trkpt>
      <trkpt lat="45.60694" lon="5.77214">
        <ele>605.31213046938</ele>
        <time>2015-11-08T16:11:17Z</time>
      </trkpt>
      <trkpt lat="45.60692" lon="5.77213">
        <ele>605.31213046938</ele>
        <time>2015-11-08T16:11:22Z</time>
      </trkpt>
      <trkpt lat="45.60686" lon="5.77209">
        <ele>605.31213046938</ele>
        <time>2015-11-08T16:11:32Z</time>
      </trkpt>
      <trkpt lat="45.60685" lon="5.77207">
        <ele>602.06692736152</ele>
        <time>2015-11-08T16:11:37Z</time>
      </trkpt>
      <trkpt lat="45.60685" lon="5.77207">
        <ele>602.06692736152</ele>
        <time>2015-11-08T16:11:47Z</time>
      </trkpt>
      <trkpt lat="45.60685" lon="5.77207">
        <ele>602.06692736152</ele>
        <time>2015-11-08T16:11:52Z</time>
      </trkpt>
      <trkpt lat="45.60685" lon="5.77207">
        <ele>602.06692736152</ele>
        <time>2015-11-08T16:12:02Z</time>
      </trkpt>
      <trkpt lat="45.60685" lon="5.77207">
        <ele>602.06692736152</ele>
        <time>2015-11-08T16:12:07Z</time>
      </trkpt>
      <trkpt lat="45.60685" lon="5.77207">
        <ele>602.06692736152</ele>
        <time>2015-11-08T16:12:17Z</time>
      </trkpt>
      <trkpt lat="45.60685" lon="5.77207">
        <ele>602.06692736152</ele>
        <time>2015-11-08T16:12:22Z</time>
      </trkpt>
      <trkpt lat="45.60685" lon="5.77207">
        <ele>602.06692736152</ele>
        <time>2015-11-08T16:12:32Z</time>
      </trkpt>
      <trkpt lat="45.60685" lon="5.77207">
        <ele>602.06692736152</ele>
        <time>2015-11-08T16:12:37Z</time>
      </trkpt>
      <trkpt lat="45.6068" lon="5.77205">
        <ele>602.06692736152</ele>
        <time>2015-11-08T16:12:52Z</time>
      </trkpt>
      <trkpt lat="45.6068" lon="5.77204">
        <ele>602.06692736152</ele>
        <time>2015-11-08T16:12:57Z</time>
      </trkpt>
      <trkpt lat="45.6068" lon="5.77204">
        <ele>602.06692736152</ele>
        <time>2015-11-08T16:13:07Z</time>
      </trkpt>
      <trkpt lat="45.60678" lon="5.772">
        <ele>598.494122885</ele>
        <time>2015-11-08T16:13:12Z</time>
      </trkpt>
      <trkpt lat="45.60676" lon="5.77196">
        <ele>598.494122885</ele>
        <time>2015-11-08T16:13:22Z</time>
      </trkpt>
      <trkpt lat="45.60673" lon="5.77194">
        <ele>598.494122885</ele>
        <time>2015-11-08T16:13:27Z</time>
      </trkpt>
      <trkpt lat="45.60672" lon="5.77193">
        <ele>598.494122885</ele>
        <time>2015-11-08T16:13:37Z</time>
      </trkpt>
      <trkpt lat="45.60671" lon="5.77194">
        <ele>598.494122885</ele>
        <time>2015-11-08T16:13:42Z</time>
      </trkpt>
      <trkpt lat="45.60671" lon="5.77194">
        <ele>598.494122885</ele>
        <time>2015-11-08T16:13:52Z</time>
      </trkpt>
      <trkpt lat="45.60671" lon="5.77194">
        <ele>598.494122885</ele>
        <time>2015-11-08T16:13:57Z</time>
      </trkpt>
      <trkpt lat="45.60671" lon="5.77194">
        <ele>598.494122885</ele>
        <time>2015-11-08T16:14:07Z</time>
      </trkpt>
      <trkpt lat="45.60671" lon="5.77193">
        <ele>598.494122885</ele>
        <time>2015-11-08T16:14:12Z</time>
      </trkpt>
      <trkpt lat="45.60671" lon="5.77193">
        <ele>598.494122885</ele>
        <time>2015-11-08T16:14:22Z</time>
      </trkpt>
      <trkpt lat="45.60671" lon="5.77193">
        <ele>598.494122885</ele>
        <time>2015-11-08T16:14:27Z</time>
      </trkpt>
      <trkpt lat="45.60671" lon="5.77193">
        <ele>598.494122885</ele>
        <time>2015-11-08T16:14:37Z</time>
      </trkpt>
      <trkpt lat="45.60671" lon="5.77193">
        <ele>598.494122885</ele>
        <time>2015-11-08T16:14:42Z</time>
      </trkpt>
      <trkpt lat="45.60671" lon="5.77193">
        <ele>598.494122885</ele>
        <time>2015-11-08T16:14:52Z</time>
      </trkpt>
      <trkpt lat="45.60671" lon="5.77193">
        <ele>598.494122885</ele>
        <time>2015-11-08T16:14:57Z</time>
      </trkpt>
      <trkpt lat="45.60667" lon="5.77187">
        <ele>595.30300653409</ele>
        <time>2015-11-08T16:15:07Z</time>
      </trkpt>
      <trkpt lat="45.60663" lon="5.7718">
        <ele>595.30300653409</ele>
        <time>2015-11-08T16:15:12Z</time>
      </trkpt>
      <trkpt lat="45.60658" lon="5.7716">
        <ele>592.31373780649</ele>
        <time>2015-11-08T16:15:27Z</time>
      </trkpt>
      <trkpt lat="45.60657" lon="5.77152">
        <ele>592.31373780649</ele>
        <time>2015-11-08T16:15:32Z</time>
      </trkpt>
      <trkpt lat="45.60653" lon="5.77137">
        <ele>589.14283125198</ele>
        <time>2015-11-08T16:15:42Z</time>
      </trkpt>
      <trkpt lat="45.60652" lon="5.77129">
        <ele>589.14283125198</ele>
        <time>2015-11-08T16:15:47Z</time>
      </trkpt>
      <trkpt lat="45.6065" lon="5.77113">
        <ele>585.9253259034</ele>
        <time>2015-11-08T16:15:57Z</time>
      </trkpt>
      <trkpt lat="45.60647" lon="5.77104">
        <ele>585.9253259034</ele>
        <time>2015-11-08T16:16:02Z</time>
      </trkpt>
      <trkpt lat="45.60639" lon="5.77087">
        <ele>582.65662883669</ele>
        <time>2015-11-08T16:16:12Z</time>
      </trkpt>
      <trkpt lat="45.60636" lon="5.7708">
        <ele>582.65662883669</ele>
        <time>2015-11-08T16:16:17Z</time>
      </trkpt>
      <trkpt lat="45.60632" lon="5.77072">
        <ele>578.88573167454</ele>
        <time>2015-11-08T16:16:27Z</time>
      </trkpt>
      <trkpt lat="45.60631" lon="5.77067">
        <ele>578.88573167454</ele>
        <time>2015-11-08T16:16:32Z</time>
      </trkpt>
      <trkpt lat="45.60628" lon="5.77057">
        <ele>574.74362655671</ele>
        <time>2015-11-08T16:16:42Z</time>
      </trkpt>
      <trkpt lat="45.60625" lon="5.77048">
        <ele>574.74362655671</ele>
        <time>2015-11-08T16:16:47Z</time>
      </trkpt>
      <trkpt lat="45.60616" lon="5.77028">
        <ele>571.11634272296</ele>
        <time>2015-11-08T16:16:57Z</time>
      </trkpt>
      <trkpt lat="45.60613" lon="5.77023">
        <ele>571.11634272296</ele>
        <time>2015-11-08T16:17:02Z</time>
      </trkpt>
      <trkpt lat="45.60613" lon="5.77024">
        <ele>571.11634272296</ele>
        <time>2015-11-08T16:17:12Z</time>
      </trkpt>
      <trkpt lat="45.60613" lon="5.77024">
        <ele>571.11634272296</ele>
        <time>2015-11-08T16:17:17Z</time>
      </trkpt>
      <trkpt lat="45.60613" lon="5.77024">
        <ele>571.11634272296</ele>
        <time>2015-11-08T16:17:27Z</time>
      </trkpt>
      <trkpt lat="45.60613" lon="5.77024">
        <ele>571.11634272296</ele>
        <time>2015-11-08T16:17:32Z</time>
      </trkpt>
      <trkpt lat="45.60614" lon="5.77024">
        <ele>571.11634272296</ele>
        <time>2015-11-08T16:17:42Z</time>
      </trkpt>
      <trkpt lat="45.60614" lon="5.77024">
        <ele>571.11634272296</ele>
        <time>2015-11-08T16:17:47Z</time>
      </trkpt>
      <trkpt lat="45.60614" lon="5.77024">
        <ele>571.11634272296</ele>
        <time>2015-11-08T16:18:02Z</time>
      </trkpt>
      <trkpt lat="45.60614" lon="5.77024">
        <ele>571.11634272296</ele>
        <time>2015-11-08T16:18:07Z</time>
      </trkpt>
      <trkpt lat="45.60613" lon="5.77022">
        <ele>571.11634272296</ele>
        <time>2015-11-08T16:18:17Z</time>
      </trkpt>
      <trkpt lat="45.60613" lon="5.77022">
        <ele>571.11634272296</ele>
        <time>2015-11-08T16:18:22Z</time>
      </trkpt>
      <trkpt lat="45.6061" lon="5.77017">
        <ele>567.46855297643</ele>
        <time>2015-11-08T16:18:32Z</time>
      </trkpt>
      <trkpt lat="45.60609" lon="5.77013">
        <ele>567.46855297643</ele>
        <time>2015-11-08T16:18:37Z</time>
      </trkpt>
      <trkpt lat="45.60606" lon="5.77005">
        <ele>563.99585793591</ele>
        <time>2015-11-08T16:18:47Z</time>
      </trkpt>
      <trkpt lat="45.60605" lon="5.77005">
        <ele>563.99585793591</ele>
        <time>2015-11-08T16:18:52Z</time>
      </trkpt>
      <trkpt lat="45.60605" lon="5.77005">
        <ele>563.99585793591</ele>
        <time>2015-11-08T16:19:02Z</time>
      </trkpt>
      <trkpt lat="45.60605" lon="5.77006">
        <ele>563.99585793591</ele>
        <time>2015-11-08T16:19:07Z</time>
      </trkpt>
      <trkpt lat="45.60605" lon="5.77006">
        <ele>563.99585793591</ele>
        <time>2015-11-08T16:19:17Z</time>
      </trkpt>
      <trkpt lat="45.60605" lon="5.77006">
        <ele>563.99585793591</ele>
        <time>2015-11-08T16:19:22Z</time>
      </trkpt>
      <trkpt lat="45.60605" lon="5.77006">
        <ele>563.99585793591</ele>
        <time>2015-11-08T16:19:32Z</time>
      </trkpt>
      <trkpt lat="45.60605" lon="5.77006">
        <ele>563.99585793591</ele>
        <time>2015-11-08T16:19:37Z</time>
      </trkpt>
      <trkpt lat="45.60605" lon="5.77006">
        <ele>563.99585793591</ele>
        <time>2015-11-08T16:19:52Z</time>
      </trkpt>
      <trkpt lat="45.60605" lon="5.77006">
        <ele>563.99585793591</ele>
        <time>2015-11-08T16:19:57Z</time>
      </trkpt>
      <trkpt lat="45.60605" lon="5.77006">
        <ele>563.99585793591</ele>
        <time>2015-11-08T16:20:07Z</time>
      </trkpt>
      <trkpt lat="45.60605" lon="5.77006">
        <ele>563.99585793591</ele>
        <time>2015-11-08T16:20:12Z</time>
      </trkpt>
      <trkpt lat="45.60605" lon="5.77006">
        <ele>563.99585793591</ele>
        <time>2015-11-08T16:20:22Z</time>
      </trkpt>
      <trkpt lat="45.60605" lon="5.77006">
        <ele>563.99585793591</ele>
        <time>2015-11-08T16:20:27Z</time>
      </trkpt>
      <trkpt lat="45.60605" lon="5.77006">
        <ele>563.99585793591</ele>
        <time>2015-11-08T16:20:37Z</time>
      </trkpt>
      <trkpt lat="45.60605" lon="5.77005">
        <ele>563.99585793591</ele>
        <time>2015-11-08T16:20:42Z</time>
      </trkpt>
      <trkpt lat="45.60606" lon="5.76966">
        <ele>560.48970381212</ele>
        <time>2015-11-08T16:20:52Z</time>
      </trkpt>
      <trkpt lat="45.60608" lon="5.7696">
        <ele>560.48970381212</ele>
        <time>2015-11-08T16:20:57Z</time>
      </trkpt>
      <trkpt lat="45.60604" lon="5.76952">
        <ele>557.52054248078</ele>
        <time>2015-11-08T16:21:07Z</time>
      </trkpt>
      <trkpt lat="45.60603" lon="5.7695">
        <ele>557.52054248078</ele>
        <time>2015-11-08T16:21:12Z</time>
      </trkpt>
      <trkpt lat="45.60602" lon="5.76946">
        <ele>557.52054248078</ele>
        <time>2015-11-08T16:21:27Z</time>
      </trkpt>
      <trkpt lat="45.60606" lon="5.76939">
        <ele>554.86583775713</ele>
        <time>2015-11-08T16:21:32Z</time>
      </trkpt>
      <trkpt lat="45.60615" lon="5.76927">
        <ele>552.53448896369</ele>
        <time>2015-11-08T16:21:42Z</time>
      </trkpt>
      <trkpt lat="45.6062" lon="5.76922">
        <ele>552.53448896369</ele>
        <time>2015-11-08T16:21:47Z</time>
      </trkpt>
      <trkpt lat="45.60632" lon="5.7691">
        <ele>550.25983156196</ele>
        <time>2015-11-08T16:21:57Z</time>
      </trkpt>
      <trkpt lat="45.60638" lon="5.76906">
        <ele>550.25983156196</ele>
        <time>2015-11-08T16:22:02Z</time>
      </trkpt>
      <trkpt lat="45.6065" lon="5.76897">
        <ele>548.67352551378</ele>
        <time>2015-11-08T16:22:12Z</time>
      </trkpt>
      <trkpt lat="45.60656" lon="5.76892">
        <ele>548.67352551378</ele>
        <time>2015-11-08T16:22:17Z</time>
      </trkpt>
      <trkpt lat="45.60669" lon="5.76884">
        <ele>547.75345928213</ele>
        <time>2015-11-08T16:22:27Z</time>
      </trkpt>
      <trkpt lat="45.60675" lon="5.76881">
        <ele>547.75345928213</ele>
        <time>2015-11-08T16:22:32Z</time>
      </trkpt>
      <trkpt lat="45.60688" lon="5.76877">
        <ele>547.36183032775</ele>
        <time>2015-11-08T16:22:42Z</time>
      </trkpt>
      <trkpt lat="45.60694" lon="5.76875">
        <ele>547.36183032775</ele>
        <time>2015-11-08T16:22:47Z</time>
      </trkpt>
      <trkpt lat="45.60708" lon="5.7687">
        <ele>547.18199276899</ele>
        <time>2015-11-08T16:22:57Z</time>
      </trkpt>
      <trkpt lat="45.60714" lon="5.76867">
        <ele>547.18199276899</ele>
        <time>2015-11-08T16:23:02Z</time>
      </trkpt>
      <trkpt lat="45.60725" lon="5.76857">
        <ele>547.06395993536</ele>
        <time>2015-11-08T16:23:12Z</time>
      </trkpt>
      <trkpt lat="45.60729" lon="5.76851">
        <ele>547.06395993536</ele>
        <time>2015-11-08T16:23:17Z</time>
      </trkpt>
      <trkpt lat="45.60746" lon="5.76811">
        <ele>546.94054894751</ele>
        <time>2015-11-08T16:23:32Z</time>
      </trkpt>
      <trkpt lat="45.6075" lon="5.76804">
        <ele>546.94054894751</ele>
        <time>2015-11-08T16:23:37Z</time>
      </trkpt>
      <trkpt lat="45.60755" lon="5.76784">
        <ele>547.05208670311</ele>
        <time>2015-11-08T16:23:47Z</time>
      </trkpt>
      <trkpt lat="45.60757" lon="5.76774">
        <ele>547.05208670311</ele>
        <time>2015-11-08T16:23:52Z</time>
      </trkpt>
      <trkpt lat="45.6076" lon="5.76754">
        <ele>547.3034900312</ele>
        <time>2015-11-08T16:24:02Z</time>
      </trkpt>
      <trkpt lat="45.60761" lon="5.76744">
        <ele>547.3034900312</ele>
        <time>2015-11-08T16:24:07Z</time>
      </trkpt>
      <trkpt lat="45.60762" lon="5.76725">
        <ele>547.6638817594</ele>
        <time>2015-11-08T16:24:17Z</time>
      </trkpt>
      <trkpt lat="45.60762" lon="5.76721">
        <ele>547.6638817594</ele>
        <time>2015-11-08T16:24:22Z</time>
      </trkpt>
      <trkpt lat="45.60765" lon="5.76697">
        <ele>548.20521510079</ele>
        <time>2015-11-08T16:24:32Z</time>
      </trkpt>
      <trkpt lat="45.60768" lon="5.76685">
        <ele>548.74867159795</ele>
        <time>2015-11-08T16:24:37Z</time>
      </trkpt>
      <trkpt lat="45.60773" lon="5.76665">
        <ele>549.35917091104</ele>
        <time>2015-11-08T16:24:47Z</time>
      </trkpt>
      <trkpt lat="45.60778" lon="5.76657">
        <ele>549.35917091104</ele>
        <time>2015-11-08T16:24:52Z</time>
      </trkpt>
      <trkpt lat="45.60788" lon="5.76642">
        <ele>550.22642523514</ele>
        <time>2015-11-08T16:25:02Z</time>
      </trkpt>
      <trkpt lat="45.60795" lon="5.76635">
        <ele>550.22642523514</ele>
        <time>2015-11-08T16:25:07Z</time>
      </trkpt>
      <trkpt lat="45.60807" lon="5.76625">
        <ele>551.49673666208</ele>
        <time>2015-11-08T16:25:17Z</time>
      </trkpt>
      <trkpt lat="45.60812" lon="5.76622">
        <ele>551.49673666208</ele>
        <time>2015-11-08T16:25:22Z</time>
      </trkpt>
      <trkpt lat="45.60828" lon="5.76615">
        <ele>553.13168368496</ele>
        <time>2015-11-08T16:25:32Z</time>
      </trkpt>
      <trkpt lat="45.60835" lon="5.7661">
        <ele>553.13168368496</ele>
        <time>2015-11-08T16:25:37Z</time>
      </trkpt>
      <trkpt lat="45.60849" lon="5.76601">
        <ele>554.57595093922</ele>
        <time>2015-11-08T16:25:52Z</time>
      </trkpt>
      <trkpt lat="45.60855" lon="5.76602">
        <ele>554.57595093922</ele>
        <time>2015-11-08T16:25:57Z</time>
      </trkpt>
      <trkpt lat="45.60869" lon="5.76602">
        <ele>555.35890908381</ele>
        <time>2015-11-08T16:26:07Z</time>
      </trkpt>
      <trkpt lat="45.60875" lon="5.76602">
        <ele>555.35890908381</ele>
        <time>2015-11-08T16:26:12Z</time>
      </trkpt>
      <trkpt lat="45.6089" lon="5.76602">
        <ele>556.02645250208</ele>
        <time>2015-11-08T16:26:22Z</time>
      </trkpt>
      <trkpt lat="45.60898" lon="5.76603">
        <ele>556.02645250208</ele>
        <time>2015-11-08T16:26:27Z</time>
      </trkpt>
      <trkpt lat="45.60923" lon="5.766">
        <ele>557.51718648652</ele>
        <time>2015-11-08T16:26:37Z</time>
      </trkpt>
      <trkpt lat="45.60931" lon="5.76598">
        <ele>557.51718648652</ele>
        <time>2015-11-08T16:26:42Z</time>
      </trkpt>
      <trkpt lat="45.60945" lon="5.76592">
        <ele>558.82517886207</ele>
        <time>2015-11-08T16:26:52Z</time>
      </trkpt>
      <trkpt lat="45.60953" lon="5.7659">
        <ele>558.82517886207</ele>
        <time>2015-11-08T16:26:57Z</time>
      </trkpt>
      <trkpt lat="45.60979" lon="5.76585">
        <ele>559.30730315532</ele>
        <time>2015-11-08T16:27:12Z</time>
      </trkpt>
      <trkpt lat="45.60982" lon="5.76584">
        <ele>559.30730315532</ele>
        <time>2015-11-08T16:27:17Z</time>
      </trkpt>
      <trkpt lat="45.61002" lon="5.76578">
        <ele>560.3733230839</ele>
        <time>2015-11-08T16:27:27Z</time>
      </trkpt>
      <trkpt lat="45.61011" lon="5.76575">
        <ele>560.3733230839</ele>
        <time>2015-11-08T16:27:32Z</time>
      </trkpt>
      <trkpt lat="45.61026" lon="5.76573">
        <ele>561.02221658272</ele>
        <time>2015-11-08T16:27:42Z</time>
      </trkpt>
      <trkpt lat="45.61033" lon="5.76571">
        <ele>561.02221658272</ele>
        <time>2015-11-08T16:27:47Z</time>
      </trkpt>
      <trkpt lat="45.61052" lon="5.76568">
        <ele>561.71132926863</ele>
        <time>2015-11-08T16:27:57Z</time>
      </trkpt>
      <trkpt lat="45.61059" lon="5.76566">
        <ele>561.71132926863</ele>
        <time>2015-11-08T16:28:02Z</time>
      </trkpt>
      <trkpt lat="45.61071" lon="5.76562">
        <ele>562.50421851685</ele>
        <time>2015-11-08T16:28:12Z</time>
      </trkpt>
      <trkpt lat="45.61077" lon="5.76559">
        <ele>562.50421851685</ele>
        <time>2015-11-08T16:28:17Z</time>
      </trkpt>
      <trkpt lat="45.61092" lon="5.76554">
        <ele>563.04176007146</ele>
        <time>2015-11-08T16:28:27Z</time>
      </trkpt>
      <trkpt lat="45.61098" lon="5.76552">
        <ele>563.04176007146</ele>
        <time>2015-11-08T16:28:32Z</time>
      </trkpt>
      <trkpt lat="45.61103" lon="5.7655">
        <ele>563.98649613065</ele>
        <time>2015-11-08T16:28:42Z</time>
      </trkpt>
      <trkpt lat="45.61104" lon="5.76548">
        <ele>563.98649613065</ele>
        <time>2015-11-08T16:28:47Z</time>
      </trkpt>
      <trkpt lat="45.61102" lon="5.76532">
        <ele>564.3805468168</ele>
        <time>2015-11-08T16:28:57Z</time>
      </trkpt>
      <trkpt lat="45.611" lon="5.76523">
        <ele>564.3805468168</ele>
        <time>2015-11-08T16:29:02Z</time>
      </trkpt>
      <trkpt lat="45.61095" lon="5.76491">
        <ele>564.44779870083</ele>
        <time>2015-11-08T16:29:17Z</time>
      </trkpt>
      <trkpt lat="45.61094" lon="5.76482">
        <ele>564.44779870083</ele>
        <time>2015-11-08T16:29:22Z</time>
      </trkpt>
      <trkpt lat="45.61093" lon="5.76462">
        <ele>564.00770469656</ele>
        <time>2015-11-08T16:29:32Z</time>
      </trkpt>
      <trkpt lat="45.61093" lon="5.76454">
        <ele>564.00770469656</ele>
        <time>2015-11-08T16:29:37Z</time>
      </trkpt>
      <trkpt lat="45.61093" lon="5.76438">
        <ele>563.06752646612</ele>
        <time>2015-11-08T16:29:47Z</time>
      </trkpt>
      <trkpt lat="45.61093" lon="5.76431">
        <ele>563.06752646612</ele>
        <time>2015-11-08T16:29:52Z</time>
      </trkpt>
      <trkpt lat="45.61091" lon="5.76411">
        <ele>561.96702949634</ele>
        <time>2015-11-08T16:30:02Z</time>
      </trkpt>
      <trkpt lat="45.61091" lon="5.76405">
        <ele>561.96702949634</ele>
        <time>2015-11-08T16:30:07Z</time>
      </trkpt>
      <trkpt lat="45.61089" lon="5.76388">
        <ele>560.31549011036</ele>
        <time>2015-11-08T16:30:17Z</time>
      </trkpt>
      <trkpt lat="45.61088" lon="5.7638">
        <ele>560.31549011036</ele>
        <time>2015-11-08T16:30:22Z</time>
      </trkpt>
      <trkpt lat="45.61086" lon="5.76365">
        <ele>558.38667012929</ele>
        <time>2015-11-08T16:30:32Z</time>
      </trkpt>
      <trkpt lat="45.61085" lon="5.76358">
        <ele>558.38667012929</ele>
        <time>2015-11-08T16:30:37Z</time>
      </trkpt>
      <trkpt lat="45.61081" lon="5.76342">
        <ele>556.20455046111</ele>
        <time>2015-11-08T16:30:47Z</time>
      </trkpt>
      <trkpt lat="45.61079" lon="5.76334">
        <ele>556.20455046111</ele>
        <time>2015-11-08T16:30:52Z</time>
      </trkpt>
      <trkpt lat="45.61075" lon="5.76314">
        <ele>553.51835845332</ele>
        <time>2015-11-08T16:31:02Z</time>
      </trkpt>
      <trkpt lat="45.61074" lon="5.76309">
        <ele>553.51835845332</ele>
        <time>2015-11-08T16:31:07Z</time>
      </trkpt>
      <trkpt lat="45.61072" lon="5.76295">
        <ele>550.88985532602</ele>
        <time>2015-11-08T16:31:17Z</time>
      </trkpt>
      <trkpt lat="45.6107" lon="5.76285">
        <ele>550.88985532602</ele>
        <time>2015-11-08T16:31:22Z</time>
      </trkpt>
      <trkpt lat="45.61065" lon="5.76255">
        <ele>547.91712616808</ele>
        <time>2015-11-08T16:31:37Z</time>
      </trkpt>
      <trkpt lat="45.61064" lon="5.76245">
        <ele>547.91712616808</ele>
        <time>2015-11-08T16:31:42Z</time>
      </trkpt>
      <trkpt lat="45.61061" lon="5.76222">
        <ele>544.66111989124</ele>
        <time>2015-11-08T16:31:52Z</time>
      </trkpt>
      <trkpt lat="45.6106" lon="5.76213">
        <ele>544.66111989124</ele>
        <time>2015-11-08T16:31:57Z</time>
      </trkpt>
      <trkpt lat="45.6106" lon="5.76196">
        <ele>541.10706338073</ele>
        <time>2015-11-08T16:32:07Z</time>
      </trkpt>
      <trkpt lat="45.6106" lon="5.76186">
        <ele>541.10706338073</ele>
        <time>2015-11-08T16:32:12Z</time>
      </trkpt>
      <trkpt lat="45.61058" lon="5.7617">
        <ele>537.48708599986</ele>
        <time>2015-11-08T16:32:22Z</time>
      </trkpt>
      <trkpt lat="45.61057" lon="5.76162">
        <ele>537.48708599986</ele>
        <time>2015-11-08T16:32:27Z</time>
      </trkpt>
      <trkpt lat="45.61055" lon="5.76143">
        <ele>533.91554049211</ele>
        <time>2015-11-08T16:32:37Z</time>
      </trkpt>
      <trkpt lat="45.61055" lon="5.76134">
        <ele>533.91554049211</ele>
        <time>2015-11-08T16:32:42Z</time>
      </trkpt>
      <trkpt lat="45.61052" lon="5.76117">
        <ele>530.68553398079</ele>
        <time>2015-11-08T16:32:52Z</time>
      </trkpt>
      <trkpt lat="45.6105" lon="5.76106">
        <ele>530.68553398079</ele>
        <time>2015-11-08T16:32:57Z</time>
      </trkpt>
      <trkpt lat="45.61048" lon="5.76085">
        <ele>527.66409865245</ele>
        <time>2015-11-08T16:33:07Z</time>
      </trkpt>
      <trkpt lat="45.61046" lon="5.76075">
        <ele>527.66409865245</ele>
        <time>2015-11-08T16:33:12Z</time>
      </trkpt>
      <trkpt lat="45.61042" lon="5.76058">
        <ele>524.35266836962</ele>
        <time>2015-11-08T16:33:22Z</time>
      </trkpt>
      <trkpt lat="45.61042" lon="5.76052">
        <ele>524.35266836962</ele>
        <time>2015-11-08T16:33:27Z</time>
      </trkpt>
      <trkpt lat="45.61039" lon="5.76037">
        <ele>521.12585245662</ele>
        <time>2015-11-08T16:33:37Z</time>
      </trkpt>
      <trkpt lat="45.61037" lon="5.76029">
        <ele>521.12585245662</ele>
        <time>2015-11-08T16:33:42Z</time>
      </trkpt>
      <trkpt lat="45.61034" lon="5.76012">
        <ele>518.17186188918</ele>
        <time>2015-11-08T16:33:52Z</time>
      </trkpt>
      <trkpt lat="45.61033" lon="5.76002">
        <ele>518.17186188918</ele>
        <time>2015-11-08T16:33:57Z</time>
      </trkpt>
      <trkpt lat="45.6103" lon="5.75984">
        <ele>515.0156843806</ele>
        <time>2015-11-08T16:34:12Z</time>
      </trkpt>
      <trkpt lat="45.61028" lon="5.75975">
        <ele>515.0156843806</ele>
        <time>2015-11-08T16:34:17Z</time>
      </trkpt>
      <trkpt lat="45.61021" lon="5.75952">
        <ele>512.47139506436</ele>
        <time>2015-11-08T16:34:27Z</time>
      </trkpt>
      <trkpt lat="45.61018" lon="5.75941">
        <ele>512.47139506436</ele>
        <time>2015-11-08T16:34:32Z</time>
      </trkpt>
      <trkpt lat="45.61009" lon="5.75928">
        <ele>509.41795691107</ele>
        <time>2015-11-08T16:34:42Z</time>
      </trkpt>
      <trkpt lat="45.61004" lon="5.75922">
        <ele>509.41795691107</ele>
        <time>2015-11-08T16:34:47Z</time>
      </trkpt>
      <trkpt lat="45.61004" lon="5.75904">
        <ele>506.30230149674</ele>
        <time>2015-11-08T16:34:57Z</time>
      </trkpt>
      <trkpt lat="45.61001" lon="5.75895">
        <ele>506.30230149674</ele>
        <time>2015-11-08T16:35:02Z</time>
      </trkpt>
      <trkpt lat="45.60994" lon="5.7588">
        <ele>502.8756305777</ele>
        <time>2015-11-08T16:35:12Z</time>
      </trkpt>
      <trkpt lat="45.6099" lon="5.7587">
        <ele>502.8756305777</ele>
        <time>2015-11-08T16:35:17Z</time>
      </trkpt>
      <trkpt lat="45.60977" lon="5.75854">
        <ele>500.03219544265</ele>
        <time>2015-11-08T16:35:27Z</time>
      </trkpt>
      <trkpt lat="45.60972" lon="5.75848">
        <ele>500.03219544265</ele>
        <time>2015-11-08T16:35:32Z</time>
      </trkpt>
      <trkpt lat="45.60974" lon="5.75849">
        <ele>500.03219544265</ele>
        <time>2015-11-08T16:35:42Z</time>
      </trkpt>
      <trkpt lat="45.60975" lon="5.75849">
        <ele>497.92142746119</ele>
        <time>2015-11-08T16:35:47Z</time>
      </trkpt>
      <trkpt lat="45.60964" lon="5.75831">
        <ele>496.23281029265</ele>
        <time>2015-11-08T16:36:02Z</time>
      </trkpt>
      <trkpt lat="45.60959" lon="5.75824">
        <ele>496.23281029265</ele>
        <time>2015-11-08T16:36:07Z</time>
      </trkpt>
      <trkpt lat="45.6095" lon="5.75809">
        <ele>495.31137642288</ele>
        <time>2015-11-08T16:36:17Z</time>
      </trkpt>
      <trkpt lat="45.60947" lon="5.75798">
        <ele>495.31137642288</ele>
        <time>2015-11-08T16:36:22Z</time>
      </trkpt>
      <trkpt lat="45.60939" lon="5.75775">
        <ele>494.9701143508</ele>
        <time>2015-11-08T16:36:32Z</time>
      </trkpt>
      <trkpt lat="45.60937" lon="5.75765">
        <ele>494.9701143508</ele>
        <time>2015-11-08T16:36:37Z</time>
      </trkpt>
      <trkpt lat="45.60934" lon="5.75743">
        <ele>493.90991107443</ele>
        <time>2015-11-08T16:36:47Z</time>
      </trkpt>
      <trkpt lat="45.6093" lon="5.75733">
        <ele>493.90991107443</ele>
        <time>2015-11-08T16:36:52Z</time>
      </trkpt>
      <trkpt lat="45.60926" lon="5.75701">
        <ele>493.86884155319</ele>
        <time>2015-11-08T16:37:02Z</time>
      </trkpt>
      <trkpt lat="45.60927" lon="5.75692">
        <ele>493.86884155319</ele>
        <time>2015-11-08T16:37:07Z</time>
      </trkpt>
      <trkpt lat="45.60927" lon="5.7567">
        <ele>493.2838855639</ele>
        <time>2015-11-08T16:37:17Z</time>
      </trkpt>
      <trkpt lat="45.60927" lon="5.75662">
        <ele>493.2838855639</ele>
        <time>2015-11-08T16:37:22Z</time>
      </trkpt>
      <trkpt lat="45.60922" lon="5.75644">
        <ele>492.69700470368</ele>
        <time>2015-11-08T16:37:32Z</time>
      </trkpt>
      <trkpt lat="45.60925" lon="5.75633">
        <ele>492.69700470368</ele>
        <time>2015-11-08T16:37:37Z</time>
      </trkpt>
      <trkpt lat="45.60925" lon="5.75611">
        <ele>492.46616165865</ele>
        <time>2015-11-08T16:37:47Z</time>
      </trkpt>
      <trkpt lat="45.60928" lon="5.75598">
        <ele>492.21581433149</ele>
        <time>2015-11-08T16:37:52Z</time>
      </trkpt>
      <trkpt lat="45.6093" lon="5.75579">
        <ele>492.63561286058</ele>
        <time>2015-11-08T16:38:02Z</time>
      </trkpt>
      <trkpt lat="45.60927" lon="5.75566">
        <ele>493.75736657259</ele>
        <time>2015-11-08T16:38:07Z</time>
      </trkpt>
      <trkpt lat="45.60933" lon="5.7553">
        <ele>495.46445495966</ele>
        <time>2015-11-08T16:38:22Z</time>
      </trkpt>
      <trkpt lat="45.60932" lon="5.75523">
        <ele>495.46445495966</ele>
        <time>2015-11-08T16:38:27Z</time>
      </trkpt>
      <trkpt lat="45.60927" lon="5.75505">
        <ele>496.58076785099</ele>
        <time>2015-11-08T16:38:37Z</time>
      </trkpt>
      <trkpt lat="45.60934" lon="5.75494">
        <ele>497.5602681283</ele>
        <time>2015-11-08T16:38:42Z</time>
      </trkpt>
      <trkpt lat="45.60929" lon="5.75474">
        <ele>499.35721802173</ele>
        <time>2015-11-08T16:38:52Z</time>
      </trkpt>
      <trkpt lat="45.60932" lon="5.75464">
        <ele>499.35721802173</ele>
        <time>2015-11-08T16:38:57Z</time>
      </trkpt>
      <trkpt lat="45.6093" lon="5.75447">
        <ele>500.83600298031</ele>
        <time>2015-11-08T16:39:07Z</time>
      </trkpt>
      <trkpt lat="45.60934" lon="5.75436">
        <ele>500.83600298031</ele>
        <time>2015-11-08T16:39:12Z</time>
      </trkpt>
      <trkpt lat="45.60928" lon="5.75405">
        <ele>502.41534755128</ele>
        <time>2015-11-08T16:39:22Z</time>
      </trkpt>
      <trkpt lat="45.60926" lon="5.75385">
        <ele>504.20923316738</ele>
        <time>2015-11-08T16:39:27Z</time>
      </trkpt>
      <trkpt lat="45.6092" lon="5.75363">
        <ele>506.23632718937</ele>
        <time>2015-11-08T16:39:37Z</time>
      </trkpt>
      <trkpt lat="45.60918" lon="5.75354">
        <ele>506.23632718937</ele>
        <time>2015-11-08T16:39:42Z</time>
      </trkpt>
      <trkpt lat="45.60917" lon="5.75332">
        <ele>508.61429417038</ele>
        <time>2015-11-08T16:39:52Z</time>
      </trkpt>
      <trkpt lat="45.60918" lon="5.75323">
        <ele>508.61429417038</ele>
        <time>2015-11-08T16:39:57Z</time>
      </trkpt>
      <trkpt lat="45.60919" lon="5.7531">
        <ele>510.94694366767</ele>
        <time>2015-11-08T16:40:07Z</time>
      </trkpt>
      <trkpt lat="45.60921" lon="5.75293">
        <ele>513.41511760669</ele>
        <time>2015-11-08T16:40:12Z</time>
      </trkpt>
      <trkpt lat="45.60923" lon="5.75267">
        <ele>515.92678825472</ele>
        <time>2015-11-08T16:40:22Z</time>
      </trkpt>
      <trkpt lat="45.60925" lon="5.75258">
        <ele>515.92678825472</ele>
        <time>2015-11-08T16:40:27Z</time>
      </trkpt>
      <trkpt lat="45.60929" lon="5.75212">
        <ele>518.61294355432</ele>
        <time>2015-11-08T16:40:42Z</time>
      </trkpt>
      <trkpt lat="45.60932" lon="5.75199">
        <ele>521.07588391501</ele>
        <time>2015-11-08T16:40:47Z</time>
      </trkpt>
      <trkpt lat="45.60935" lon="5.75178">
        <ele>523.91353301957</ele>
        <time>2015-11-08T16:40:57Z</time>
      </trkpt>
      <trkpt lat="45.60937" lon="5.75161">
        <ele>526.59825552879</ele>
        <time>2015-11-08T16:41:02Z</time>
      </trkpt>
      <trkpt lat="45.60938" lon="5.75134">
        <ele>529.4632981172</ele>
        <time>2015-11-08T16:41:12Z</time>
      </trkpt>
      <trkpt lat="45.60937" lon="5.75125">
        <ele>529.4632981172</ele>
        <time>2015-11-08T16:41:17Z</time>
      </trkpt>
      <trkpt lat="45.60932" lon="5.75099">
        <ele>532.29839017182</ele>
        <time>2015-11-08T16:41:27Z</time>
      </trkpt>
      <trkpt lat="45.6093" lon="5.75085">
        <ele>534.96671280173</ele>
        <time>2015-11-08T16:41:32Z</time>
      </trkpt>
      <trkpt lat="45.60941" lon="5.75025">
        <ele>537.58723779817</ele>
        <time>2015-11-08T16:41:42Z</time>
      </trkpt>
      <trkpt lat="45.60943" lon="5.75012">
        <ele>539.91034101738</ele>
        <time>2015-11-08T16:41:47Z</time>
      </trkpt>
      <trkpt lat="45.6094" lon="5.75001">
        <ele>539.91034101738</ele>
        <time>2015-11-08T16:41:57Z</time>
      </trkpt>
      <trkpt lat="45.60939" lon="5.7499">
        <ele>543.20461742789</ele>
        <time>2015-11-08T16:42:02Z</time>
      </trkpt>
      <trkpt lat="45.60938" lon="5.74968">
        <ele>545.81846174547</ele>
        <time>2015-11-08T16:42:12Z</time>
      </trkpt>
      <trkpt lat="45.60935" lon="5.74957">
        <ele>545.81846174547</ele>
        <time>2015-11-08T16:42:17Z</time>
      </trkpt>
      <trkpt lat="45.60937" lon="5.74949">
        <ele>548.52957685613</ele>
        <time>2015-11-08T16:42:32Z</time>
      </trkpt>
      <trkpt lat="45.60938" lon="5.74948">
        <ele>548.52957685613</ele>
        <time>2015-11-08T16:42:37Z</time>
      </trkpt>
      <trkpt lat="45.60939" lon="5.74932">
        <ele>551.09301356389</ele>
        <time>2015-11-08T16:42:47Z</time>
      </trkpt>
      <trkpt lat="45.60938" lon="5.74923">
        <ele>551.09301356389</ele>
        <time>2015-11-08T16:42:52Z</time>
      </trkpt>
      <trkpt lat="45.60938" lon="5.74909">
        <ele>553.41222510695</ele>
        <time>2015-11-08T16:43:02Z</time>
      </trkpt>
      <trkpt lat="45.60938" lon="5.74902">
        <ele>553.41222510695</ele>
        <time>2015-11-08T16:43:07Z</time>
      </trkpt>
      <trkpt lat="45.60937" lon="5.7488">
        <ele>555.70136668515</ele>
        <time>2015-11-08T16:43:17Z</time>
      </trkpt>
      <trkpt lat="45.60934" lon="5.74864">
        <ele>557.74130993802</ele>
        <time>2015-11-08T16:43:22Z</time>
      </trkpt>
      <trkpt lat="45.60938" lon="5.74841">
        <ele>559.79115804255</ele>
        <time>2015-11-08T16:43:32Z</time>
      </trkpt>
      <trkpt lat="45.60939" lon="5.7483">
        <ele>559.79115804255</ele>
        <time>2015-11-08T16:43:37Z</time>
      </trkpt>
      <trkpt lat="45.60941" lon="5.74818">
        <ele>561.87505808562</ele>
        <time>2015-11-08T16:43:47Z</time>
      </trkpt>
      <trkpt lat="45.60941" lon="5.74812">
        <ele>561.87505808562</ele>
        <time>2015-11-08T16:43:52Z</time>
      </trkpt>
      <trkpt lat="45.60942" lon="5.74791">
        <ele>563.69850640543</ele>
        <time>2015-11-08T16:44:02Z</time>
      </trkpt>
      <trkpt lat="45.60941" lon="5.74779">
        <ele>563.69850640543</ele>
        <time>2015-11-08T16:44:07Z</time>
      </trkpt>
      <trkpt lat="45.60942" lon="5.7476">
        <ele>566.041630084</ele>
        <time>2015-11-08T16:44:17Z</time>
      </trkpt>
      <trkpt lat="45.60943" lon="5.74746">
        <ele>568.54520320934</ele>
        <time>2015-11-08T16:44:22Z</time>
      </trkpt>
      <trkpt lat="45.60949" lon="5.74727">
        <ele>571.07793269458</ele>
        <time>2015-11-08T16:44:32Z</time>
      </trkpt>
      <trkpt lat="45.6095" lon="5.74718">
        <ele>571.07793269458</ele>
        <time>2015-11-08T16:44:37Z</time>
      </trkpt>
      <trkpt lat="45.60949" lon="5.74695">
        <ele>572.53836275459</ele>
        <time>2015-11-08T16:44:52Z</time>
      </trkpt>
      <trkpt lat="45.60951" lon="5.74689">
        <ele>572.53836275459</ele>
        <time>2015-11-08T16:44:57Z</time>
      </trkpt>
      <trkpt lat="45.6095" lon="5.74676">
        <ele>574.22936964284</ele>
        <time>2015-11-08T16:45:07Z</time>
      </trkpt>
      <trkpt lat="45.60951" lon="5.74665">
        <ele>574.22936964284</ele>
        <time>2015-11-08T16:45:12Z</time>
      </trkpt>
      <trkpt lat="45.60952" lon="5.74642">
        <ele>575.87334089084</ele>
        <time>2015-11-08T16:45:22Z</time>
      </trkpt>
      <trkpt lat="45.60951" lon="5.74629">
        <ele>577.47278915876</ele>
        <time>2015-11-08T16:45:27Z</time>
      </trkpt>
      <trkpt lat="45.60949" lon="5.74608">
        <ele>579.28975505929</ele>
        <time>2015-11-08T16:45:37Z</time>
      </trkpt>
      <trkpt lat="45.60953" lon="5.7459">
        <ele>581.10543994091</ele>
        <time>2015-11-08T16:45:42Z</time>
      </trkpt>
      <trkpt lat="45.60965" lon="5.74582">
        <ele>582.27054096394</ele>
        <time>2015-11-08T16:45:52Z</time>
      </trkpt>
      <trkpt lat="45.60973" lon="5.74584">
        <ele>582.27054096394</ele>
        <time>2015-11-08T16:45:57Z</time>
      </trkpt>
      <trkpt lat="45.60987" lon="5.74597">
        <ele>583.75624197141</ele>
        <time>2015-11-08T16:46:07Z</time>
      </trkpt>
      <trkpt lat="45.60994" lon="5.74603">
        <ele>583.75624197141</ele>
        <time>2015-11-08T16:46:12Z</time>
      </trkpt>
      <trkpt lat="45.61005" lon="5.74616">
        <ele>584.97728011416</ele>
        <time>2015-11-08T16:46:22Z</time>
      </trkpt>
      <trkpt lat="45.61011" lon="5.74619">
        <ele>584.97728011416</ele>
        <time>2015-11-08T16:46:27Z</time>
      </trkpt>
      <trkpt lat="45.61028" lon="5.74635">
        <ele>585.89664424034</ele>
        <time>2015-11-08T16:46:37Z</time>
      </trkpt>
      <trkpt lat="45.61036" lon="5.7464">
        <ele>585.89664424034</ele>
        <time>2015-11-08T16:46:42Z</time>
      </trkpt>
      <trkpt lat="45.61046" lon="5.74651">
        <ele>586.76922386999</ele>
        <time>2015-11-08T16:46:52Z</time>
      </trkpt>
      <trkpt lat="45.61053" lon="5.74658">
        <ele>586.76922386999</ele>
        <time>2015-11-08T16:46:57Z</time>
      </trkpt>
      <trkpt lat="45.61065" lon="5.74665">
        <ele>587.51437026499</ele>
        <time>2015-11-08T16:47:07Z</time>
      </trkpt>
      <trkpt lat="45.61071" lon="5.7467">
        <ele>587.51437026499</ele>
        <time>2015-11-08T16:47:12Z</time>
      </trkpt>
      <trkpt lat="45.61094" lon="5.74659">
        <ele>588.6198352695</ele>
        <time>2015-11-08T16:47:27Z</time>
      </trkpt>
      <trkpt lat="45.61101" lon="5.74654">
        <ele>588.6198352695</ele>
        <time>2015-11-08T16:47:32Z</time>
      </trkpt>
      <trkpt lat="45.61114" lon="5.74648">
        <ele>589.62870114633</ele>
        <time>2015-11-08T16:47:42Z</time>
      </trkpt>
      <trkpt lat="45.61119" lon="5.74647">
        <ele>589.62870114633</ele>
        <time>2015-11-08T16:47:47Z</time>
      </trkpt>
      <trkpt lat="45.61133" lon="5.74645">
        <ele>590.9393792713</ele>
        <time>2015-11-08T16:47:57Z</time>
      </trkpt>
      <trkpt lat="45.61135" lon="5.74644">
        <ele>590.9393792713</ele>
        <time>2015-11-08T16:48:02Z</time>
      </trkpt>
      <trkpt lat="45.6114" lon="5.7464">
        <ele>590.9393792713</ele>
        <time>2015-11-08T16:48:12Z</time>
      </trkpt>
      <trkpt lat="45.61147" lon="5.74636">
        <ele>592.71846154867</ele>
        <time>2015-11-08T16:48:17Z</time>
      </trkpt>
      <trkpt lat="45.61165" lon="5.74618">
        <ele>594.72993074661</ele>
        <time>2015-11-08T16:48:27Z</time>
      </trkpt>
      <trkpt lat="45.61184" lon="5.74585">
        <ele>597.41740574602</ele>
        <time>2015-11-08T16:48:32Z</time>
      </trkpt>
      <trkpt lat="45.61213" lon="5.74503">
        <ele>601.16123873178</ele>
        <time>2015-11-08T16:48:42Z</time>
      </trkpt>
      <trkpt lat="45.61237" lon="5.74465">
        <ele>605.05715573252</ele>
        <time>2015-11-08T16:48:47Z</time>
      </trkpt>
      <trkpt lat="45.61288" lon="5.74444">
        <ele>609.65040526827</ele>
        <time>2015-11-08T16:48:57Z</time>
      </trkpt>
      <trkpt lat="45.613" lon="5.74439">
        <ele>614.13288172459</ele>
        <time>2015-11-08T16:49:02Z</time>
      </trkpt>
      <trkpt lat="45.61302" lon="5.74439">
        <ele>614.13288172459</ele>
        <time>2015-11-08T16:49:12Z</time>
      </trkpt>
      <trkpt lat="45.61302" lon="5.74439">
        <ele>614.13288172459</ele>
        <time>2015-11-08T16:49:17Z</time>
      </trkpt>
      <trkpt lat="45.61303" lon="5.74439">
        <ele>614.13288172459</ele>
        <time>2015-11-08T16:49:27Z</time>
      </trkpt>
      <trkpt lat="45.61303" lon="5.74439">
        <ele>614.13288172459</ele>
        <time>2015-11-08T16:49:32Z</time>
      </trkpt>
      <trkpt lat="45.61303" lon="5.74439">
        <ele>614.13288172459</ele>
        <time>2015-11-08T16:49:42Z</time>
      </trkpt>
      <trkpt lat="45.61303" lon="5.74439">
        <ele>614.13288172459</ele>
        <time>2015-11-08T16:49:47Z</time>
      </trkpt>
      <trkpt lat="45.61303" lon="5.74439">
        <ele>614.13288172459</ele>
        <time>2015-11-08T16:50:02Z</time>
      </trkpt>
      <trkpt lat="45.61306" lon="5.74443">
        <ele>614.13288172459</ele>
        <time>2015-11-08T16:50:07Z</time>
      </trkpt>
      <trkpt lat="45.6132" lon="5.7445">
        <ele>619.2694036093</ele>
        <time>2015-11-08T16:50:17Z</time>
      </trkpt>
      <trkpt lat="45.61325" lon="5.74452">
        <ele>619.2694036093</ele>
        <time>2015-11-08T16:50:22Z</time>
      </trkpt>
      <trkpt lat="45.61324" lon="5.74454">
        <ele>619.2694036093</ele>
        <time>2015-11-08T16:50:32Z</time>
      </trkpt>
      <trkpt lat="45.61324" lon="5.74454">
        <ele>619.2694036093</ele>
        <time>2015-11-08T16:50:37Z</time>
      </trkpt>
      <trkpt lat="45.61323" lon="5.74448">
        <ele>624.31134834263</ele>
        <time>2015-11-08T16:50:47Z</time>
      </trkpt>
      <trkpt lat="45.61323" lon="5.74445">
        <ele>624.31134834263</ele>
        <time>2015-11-08T16:50:52Z</time>
      </trkpt>
      <trkpt lat="45.61357" lon="5.74411">
        <ele>629.09867934514</ele>
        <time>2015-11-08T16:51:02Z</time>
      </trkpt>
      <trkpt lat="45.61375" lon="5.74395">
        <ele>632.93633781251</ele>
        <time>2015-11-08T16:51:07Z</time>
      </trkpt>
      <trkpt lat="45.61399" lon="5.74369">
        <ele>636.1486723557</ele>
        <time>2015-11-08T16:51:17Z</time>
      </trkpt>
      <trkpt lat="45.61403" lon="5.74363">
        <ele>636.1486723557</ele>
        <time>2015-11-08T16:51:22Z</time>
      </trkpt>
      <trkpt lat="45.61405" lon="5.74358">
        <ele>639.18221558227</ele>
        <time>2015-11-08T16:51:32Z</time>
      </trkpt>
      <trkpt lat="45.6141" lon="5.7435">
        <ele>639.18221558227</ele>
        <time>2015-11-08T16:51:37Z</time>
      </trkpt>
      <trkpt lat="45.61417" lon="5.74335">
        <ele>641.44256579287</ele>
        <time>2015-11-08T16:51:47Z</time>
      </trkpt>
      <trkpt lat="45.6142" lon="5.74328">
        <ele>641.44256579287</ele>
        <time>2015-11-08T16:51:52Z</time>
      </trkpt>
      <trkpt lat="45.61424" lon="5.7432">
        <ele>643.27478245688</ele>
        <time>2015-11-08T16:52:07Z</time>
      </trkpt>
      <trkpt lat="45.61425" lon="5.7432">
        <ele>643.27478245688</ele>
        <time>2015-11-08T16:52:12Z</time>
      </trkpt>
      <trkpt lat="45.6143" lon="5.74316">
        <ele>643.27478245688</ele>
        <time>2015-11-08T16:52:22Z</time>
      </trkpt>
      <trkpt lat="45.61433" lon="5.74315">
        <ele>643.27478245688</ele>
        <time>2015-11-08T16:52:27Z</time>
      </trkpt>
      <trkpt lat="45.6144" lon="5.74319">
        <ele>643.61643776794</ele>
        <time>2015-11-08T16:52:37Z</time>
      </trkpt>
      <trkpt lat="45.61442" lon="5.74319">
        <ele>643.61643776794</ele>
        <time>2015-11-08T16:52:42Z</time>
      </trkpt>
      <trkpt lat="45.61442" lon="5.74319">
        <ele>643.61643776794</ele>
        <time>2015-11-08T16:52:52Z</time>
      </trkpt>
      <trkpt lat="45.61443" lon="5.74318">
        <ele>643.61643776794</ele>
        <time>2015-11-08T16:52:57Z</time>
      </trkpt>
      <trkpt lat="45.61443" lon="5.74318">
        <ele>643.61643776794</ele>
        <time>2015-11-08T16:53:07Z</time>
      </trkpt>
      <trkpt lat="45.61444" lon="5.74317">
        <ele>643.61643776794</ele>
        <time>2015-11-08T16:53:12Z</time>
      </trkpt>
      <trkpt lat="45.6146" lon="5.74306">
        <ele>643.53381937381</ele>
        <time>2015-11-08T16:53:22Z</time>
      </trkpt>
      <trkpt lat="45.6145" lon="5.74265">
        <ele>643.18031989014</ele>
        <time>2015-11-08T16:53:27Z</time>
      </trkpt>
      <trkpt lat="45.61428" lon="5.74194">
        <ele>642.52595304493</ele>
        <time>2015-11-08T16:53:37Z</time>
      </trkpt>
      <trkpt lat="45.61415" lon="5.7416">
        <ele>641.9905592188</ele>
        <time>2015-11-08T16:53:42Z</time>
      </trkpt>
      <trkpt lat="45.61389" lon="5.74093">
        <ele>641.70341229639</ele>
        <time>2015-11-08T16:53:52Z</time>
      </trkpt>
      <trkpt lat="45.61395" lon="5.74059">
        <ele>641.17830960732</ele>
        <time>2015-11-08T16:53:57Z</time>
      </trkpt>
      <trkpt lat="45.61424" lon="5.73996">
        <ele>640.85888146302</ele>
        <time>2015-11-08T16:54:07Z</time>
      </trkpt>
      <trkpt lat="45.61436" lon="5.73973">
        <ele>640.34850880301</ele>
        <time>2015-11-08T16:54:12Z</time>
      </trkpt>
      <trkpt lat="45.61435" lon="5.73886">
        <ele>639.798963449</ele>
        <time>2015-11-08T16:54:27Z</time>
      </trkpt>
      <trkpt lat="45.61425" lon="5.73856">
        <ele>639.13471274276</ele>
        <time>2015-11-08T16:54:32Z</time>
      </trkpt>
      <trkpt lat="45.61422" lon="5.73791">
        <ele>638.60302380949</ele>
        <time>2015-11-08T16:54:42Z</time>
      </trkpt>
      <trkpt lat="45.61426" lon="5.73784">
        <ele>638.60302380949</ele>
        <time>2015-11-08T16:54:47Z</time>
      </trkpt>
      <trkpt lat="45.61439" lon="5.73772">
        <ele>637.69752967393</ele>
        <time>2015-11-08T16:54:57Z</time>
      </trkpt>
      <trkpt lat="45.61444" lon="5.73767">
        <ele>637.69752967393</ele>
        <time>2015-11-08T16:55:02Z</time>
      </trkpt>
      <trkpt lat="45.61449" lon="5.73752">
        <ele>636.58405208696</ele>
        <time>2015-11-08T16:55:12Z</time>
      </trkpt>
      <trkpt lat="45.61451" lon="5.73743">
        <ele>636.58405208696</ele>
        <time>2015-11-08T16:55:17Z</time>
      </trkpt>
      <trkpt lat="45.61438" lon="5.73709">
        <ele>634.96990852561</ele>
        <time>2015-11-08T16:55:27Z</time>
      </trkpt>
      <trkpt lat="45.61434" lon="5.73689">
        <ele>633.4209887263</ele>
        <time>2015-11-08T16:55:32Z</time>
      </trkpt>
      <trkpt lat="45.6144" lon="5.7367">
        <ele>631.97125890348</ele>
        <time>2015-11-08T16:55:42Z</time>
      </trkpt>
      <trkpt lat="45.61446" lon="5.73665">
        <ele>631.97125890348</ele>
        <time>2015-11-08T16:55:47Z</time>
      </trkpt>
      <trkpt lat="45.6146" lon="5.73657">
        <ele>630.39230428716</ele>
        <time>2015-11-08T16:55:57Z</time>
      </trkpt>
      <trkpt lat="45.61466" lon="5.73651">
        <ele>630.39230428716</ele>
        <time>2015-11-08T16:56:02Z</time>
      </trkpt>
      <trkpt lat="45.61477" lon="5.73635">
        <ele>628.91937555354</ele>
        <time>2015-11-08T16:56:12Z</time>
      </trkpt>
      <trkpt lat="45.61483" lon="5.73625">
        <ele>627.29434500091</ele>
        <time>2015-11-08T16:56:17Z</time>
      </trkpt>
      <trkpt lat="45.61497" lon="5.73573">
        <ele>625.43675236497</ele>
        <time>2015-11-08T16:56:32Z</time>
      </trkpt>
      <trkpt lat="45.61501" lon="5.73565">
        <ele>625.43675236497</ele>
        <time>2015-11-08T16:56:37Z</time>
      </trkpt>
      <trkpt lat="45.6151" lon="5.73548">
        <ele>623.93535912839</ele>
        <time>2015-11-08T16:56:47Z</time>
      </trkpt>
      <trkpt lat="45.61514" lon="5.73536">
        <ele>623.93535912839</ele>
        <time>2015-11-08T16:56:52Z</time>
      </trkpt>
      <trkpt lat="45.61519" lon="5.73517">
        <ele>622.49857237508</ele>
        <time>2015-11-08T16:57:02Z</time>
      </trkpt>
      <trkpt lat="45.61521" lon="5.73507">
        <ele>622.49857237508</ele>
        <time>2015-11-08T16:57:07Z</time>
      </trkpt>
      <trkpt lat="45.61527" lon="5.73493">
        <ele>620.82694903313</ele>
        <time>2015-11-08T16:57:17Z</time>
      </trkpt>
      <trkpt lat="45.61532" lon="5.73487">
        <ele>620.82694903313</ele>
        <time>2015-11-08T16:57:22Z</time>
      </trkpt>
      <trkpt lat="45.61536" lon="5.7347">
        <ele>618.44167284167</ele>
        <time>2015-11-08T16:57:32Z</time>
      </trkpt>
      <trkpt lat="45.6154" lon="5.73459">
        <ele>618.44167284167</ele>
        <time>2015-11-08T16:57:37Z</time>
      </trkpt>
      <trkpt lat="45.61547" lon="5.73434">
        <ele>616.25546931947</ele>
        <time>2015-11-08T16:57:47Z</time>
      </trkpt>
      <trkpt lat="45.61554" lon="5.73424">
        <ele>614.969063074</ele>
        <time>2015-11-08T16:57:52Z</time>
      </trkpt>
      <trkpt lat="45.61566" lon="5.73393">
        <ele>614.19129397873</ele>
        <time>2015-11-08T16:58:07Z</time>
      </trkpt>
      <trkpt lat="45.6157" lon="5.73384">
        <ele>614.19129397873</ele>
        <time>2015-11-08T16:58:12Z</time>
      </trkpt>
      <trkpt lat="45.61576" lon="5.73363">
        <ele>613.48596933229</ele>
        <time>2015-11-08T16:58:22Z</time>
      </trkpt>
      <trkpt lat="45.61584" lon="5.73349">
        <ele>613.02490106798</ele>
        <time>2015-11-08T16:58:27Z</time>
      </trkpt>
      <trkpt lat="45.61614" lon="5.73372">
        <ele>612.56281257627</ele>
        <time>2015-11-08T16:58:37Z</time>
      </trkpt>
      <trkpt lat="45.61621" lon="5.73386">
        <ele>611.67043065858</ele>
        <time>2015-11-08T16:58:42Z</time>
      </trkpt>
      <trkpt lat="45.61632" lon="5.73397">
        <ele>611.29120568746</ele>
        <time>2015-11-08T16:58:52Z</time>
      </trkpt>
      <trkpt lat="45.61638" lon="5.73402">
        <ele>611.29120568746</ele>
        <time>2015-11-08T16:58:57Z</time>
      </trkpt>
      <trkpt lat="45.61649" lon="5.73411">
        <ele>611.40411353695</ele>
        <time>2015-11-08T16:59:07Z</time>
      </trkpt>
      <trkpt lat="45.61657" lon="5.73417">
        <ele>611.40411353695</ele>
        <time>2015-11-08T16:59:12Z</time>
      </trkpt>
      <trkpt lat="45.61672" lon="5.73426">
        <ele>611.6277876695</ele>
        <time>2015-11-08T16:59:22Z</time>
      </trkpt>
      <trkpt lat="45.61679" lon="5.73432">
        <ele>611.6277876695</ele>
        <time>2015-11-08T16:59:27Z</time>
      </trkpt>
      <trkpt lat="45.61693" lon="5.73442">
        <ele>611.92539556745</ele>
        <time>2015-11-08T16:59:37Z</time>
      </trkpt>
      <trkpt lat="45.61701" lon="5.73445">
        <ele>611.92539556745</ele>
        <time>2015-11-08T16:59:42Z</time>
      </trkpt>
      <trkpt lat="45.61724" lon="5.73455">
        <ele>612.62268201989</ele>
        <time>2015-11-08T16:59:57Z</time>
      </trkpt>
      <trkpt lat="45.61731" lon="5.73458">
        <ele>612.62268201989</ele>
        <time>2015-11-08T17:00:02Z</time>
      </trkpt>
      <trkpt lat="45.61745" lon="5.73461">
        <ele>613.81840476012</ele>
        <time>2015-11-08T17:00:12Z</time>
      </trkpt>
      <trkpt lat="45.61752" lon="5.73462">
        <ele>613.81840476012</ele>
        <time>2015-11-08T17:00:17Z</time>
      </trkpt>
      <trkpt lat="45.61767" lon="5.7346">
        <ele>615.47280683673</ele>
        <time>2015-11-08T17:00:27Z</time>
      </trkpt>
      <trkpt lat="45.61774" lon="5.73456">
        <ele>615.47280683673</ele>
        <time>2015-11-08T17:00:32Z</time>
      </trkpt>
      <trkpt lat="45.61788" lon="5.73446">
        <ele>617.20175776808</ele>
        <time>2015-11-08T17:00:42Z</time>
      </trkpt>
      <trkpt lat="45.61795" lon="5.73444">
        <ele>617.20175776808</ele>
        <time>2015-11-08T17:00:47Z</time>
      </trkpt>
      <trkpt lat="45.61816" lon="5.73437">
        <ele>618.85077347069</ele>
        <time>2015-11-08T17:00:57Z</time>
      </trkpt>
      <trkpt lat="45.61824" lon="5.73436">
        <ele>618.85077347069</ele>
        <time>2015-11-08T17:01:02Z</time>
      </trkpt>
      <trkpt lat="45.61839" lon="5.73433">
        <ele>620.72359202009</ele>
        <time>2015-11-08T17:01:12Z</time>
      </trkpt>
      <trkpt lat="45.61846" lon="5.73428">
        <ele>620.72359202009</ele>
        <time>2015-11-08T17:01:17Z</time>
      </trkpt>
      <trkpt lat="45.6186" lon="5.73425">
        <ele>623.25946219306</ele>
        <time>2015-11-08T17:01:27Z</time>
      </trkpt>
      <trkpt lat="45.61868" lon="5.73425">
        <ele>623.25946219306</ele>
        <time>2015-11-08T17:01:32Z</time>
      </trkpt>
      <trkpt lat="45.61882" lon="5.73423">
        <ele>625.98438002126</ele>
        <time>2015-11-08T17:01:42Z</time>
      </trkpt>
      <trkpt lat="45.61889" lon="5.73421">
        <ele>625.98438002126</ele>
        <time>2015-11-08T17:01:47Z</time>
      </trkpt>
      <trkpt lat="45.61903" lon="5.73416">
        <ele>629.09269743952</ele>
        <time>2015-11-08T17:01:57Z</time>
      </trkpt>
      <trkpt lat="45.6191" lon="5.73413">
        <ele>629.09269743952</ele>
        <time>2015-11-08T17:02:02Z</time>
      </trkpt>
      <trkpt lat="45.61924" lon="5.73409">
        <ele>632.18697160303</ele>
        <time>2015-11-08T17:02:12Z</time>
      </trkpt>
      <trkpt lat="45.61931" lon="5.73406">
        <ele>632.18697160303</ele>
        <time>2015-11-08T17:02:17Z</time>
      </trkpt>
      <trkpt lat="45.6195" lon="5.73406">
        <ele>635.60516814184</ele>
        <time>2015-11-08T17:02:27Z</time>
      </trkpt>
      <trkpt lat="45.61958" lon="5.73403">
        <ele>635.60516814184</ele>
        <time>2015-11-08T17:02:32Z</time>
      </trkpt>
      <trkpt lat="45.6197" lon="5.73398">
        <ele>639.61633874571</ele>
        <time>2015-11-08T17:02:47Z</time>
      </trkpt>
      <trkpt lat="45.6197" lon="5.73398">
        <ele>639.61633874571</ele>
        <time>2015-11-08T17:02:52Z</time>
      </trkpt>
      <trkpt lat="45.61974" lon="5.73396">
        <ele>639.61633874571</ele>
        <time>2015-11-08T17:03:02Z</time>
      </trkpt>
      <trkpt lat="45.61983" lon="5.7339">
        <ele>643.56028784867</ele>
        <time>2015-11-08T17:03:07Z</time>
      </trkpt>
      <trkpt lat="45.61997" lon="5.7338">
        <ele>647.20030108164</ele>
        <time>2015-11-08T17:03:17Z</time>
      </trkpt>
      <trkpt lat="45.62004" lon="5.73376">
        <ele>647.20030108164</ele>
        <time>2015-11-08T17:03:22Z</time>
      </trkpt>
      <trkpt lat="45.62015" lon="5.73369">
        <ele>650.31803461886</ele>
        <time>2015-11-08T17:03:32Z</time>
      </trkpt>
      <trkpt lat="45.62019" lon="5.73364">
        <ele>650.31803461886</ele>
        <time>2015-11-08T17:03:37Z</time>
      </trkpt>
      <trkpt lat="45.62029" lon="5.73344">
        <ele>653.51982109247</ele>
        <time>2015-11-08T17:03:47Z</time>
      </trkpt>
      <trkpt lat="45.62033" lon="5.73326">
        <ele>656.54594860544</ele>
        <time>2015-11-08T17:03:52Z</time>
      </trkpt>
      <trkpt lat="45.62036" lon="5.73297">
        <ele>659.61761099979</ele>
        <time>2015-11-08T17:04:02Z</time>
      </trkpt>
      <trkpt lat="45.62037" lon="5.73284">
        <ele>662.32013670492</ele>
        <time>2015-11-08T17:04:07Z</time>
      </trkpt>
      <trkpt lat="45.62034" lon="5.73245">
        <ele>664.78934830197</ele>
        <time>2015-11-08T17:04:22Z</time>
      </trkpt>
      <trkpt lat="45.62034" lon="5.73234">
        <ele>664.78934830197</ele>
        <time>2015-11-08T17:04:27Z</time>
      </trkpt>
      <trkpt lat="45.62028" lon="5.73214">
        <ele>666.82049124523</ele>
        <time>2015-11-08T17:04:37Z</time>
      </trkpt>
      <trkpt lat="45.62026" lon="5.73204">
        <ele>666.82049124523</ele>
        <time>2015-11-08T17:04:42Z</time>
      </trkpt>
      <trkpt lat="45.62019" lon="5.7319">
        <ele>668.29733905756</ele>
        <time>2015-11-08T17:04:52Z</time>
      </trkpt>
      <trkpt lat="45.62011" lon="5.73181">
        <ele>669.70481388032</ele>
        <time>2015-11-08T17:04:57Z</time>
      </trkpt>
      <trkpt lat="45.61997" lon="5.73163">
        <ele>671.39172766739</ele>
        <time>2015-11-08T17:05:07Z</time>
      </trkpt>
      <trkpt lat="45.61992" lon="5.73153">
        <ele>671.39172766739</ele>
        <time>2015-11-08T17:05:12Z</time>
      </trkpt>
      <trkpt lat="45.6198" lon="5.7314">
        <ele>672.68630580187</ele>
        <time>2015-11-08T17:05:22Z</time>
      </trkpt>
      <trkpt lat="45.61974" lon="5.73121">
        <ele>673.64472419185</ele>
        <time>2015-11-08T17:05:27Z</time>
      </trkpt>
      <trkpt lat="45.61983" lon="5.73101">
        <ele>674.49307825923</ele>
        <time>2015-11-08T17:05:37Z</time>
      </trkpt>
      <trkpt lat="45.61997" lon="5.73089">
        <ele>675.57102298683</ele>
        <time>2015-11-08T17:05:42Z</time>
      </trkpt>
      <trkpt lat="45.62028" lon="5.73031">
        <ele>677.13512341496</ele>
        <time>2015-11-08T17:05:52Z</time>
      </trkpt>
      <trkpt lat="45.62043" lon="5.73008">
        <ele>678.35545050894</ele>
        <time>2015-11-08T17:05:57Z</time>
      </trkpt>
      <trkpt lat="45.62082" lon="5.7297">
        <ele>679.38644755986</ele>
        <time>2015-11-08T17:06:12Z</time>
      </trkpt>
      <trkpt lat="45.6209" lon="5.72968">
        <ele>679.38644755986</ele>
        <time>2015-11-08T17:06:17Z</time>
      </trkpt>
      <trkpt lat="45.62103" lon="5.72965">
        <ele>680.41509890424</ele>
        <time>2015-11-08T17:06:27Z</time>
      </trkpt>
      <trkpt lat="45.62111" lon="5.72964">
        <ele>680.41509890424</ele>
        <time>2015-11-08T17:06:32Z</time>
      </trkpt>
      <trkpt lat="45.62125" lon="5.72961">
        <ele>681.29772812966</ele>
        <time>2015-11-08T17:06:42Z</time>
      </trkpt>
      <trkpt lat="45.62132" lon="5.72959">
        <ele>681.29772812966</ele>
        <time>2015-11-08T17:06:47Z</time>
      </trkpt>
      <trkpt lat="45.62141" lon="5.72952">
        <ele>681.64232520948</ele>
        <time>2015-11-08T17:06:57Z</time>
      </trkpt>
      <trkpt lat="45.62147" lon="5.72946">
        <ele>681.64232520948</ele>
        <time>2015-11-08T17:07:02Z</time>
      </trkpt>
      <trkpt lat="45.6216" lon="5.72934">
        <ele>681.63489924638</ele>
        <time>2015-11-08T17:07:12Z</time>
      </trkpt>
      <trkpt lat="45.62167" lon="5.72928">
        <ele>681.63489924638</ele>
        <time>2015-11-08T17:07:17Z</time>
      </trkpt>
      <trkpt lat="45.62186" lon="5.7291">
        <ele>681.56414893549</ele>
        <time>2015-11-08T17:07:32Z</time>
      </trkpt>
      <trkpt lat="45.62192" lon="5.72906">
        <ele>681.56414893549</ele>
        <time>2015-11-08T17:07:37Z</time>
      </trkpt>
      <trkpt lat="45.62202" lon="5.72898">
        <ele>681.0204823417</ele>
        <time>2015-11-08T17:07:47Z</time>
      </trkpt>
      <trkpt lat="45.62209" lon="5.72895">
        <ele>681.0204823417</ele>
        <time>2015-11-08T17:07:52Z</time>
      </trkpt>
      <trkpt lat="45.62223" lon="5.72893">
        <ele>680.51925711922</ele>
        <time>2015-11-08T17:08:02Z</time>
      </trkpt>
      <trkpt lat="45.62231" lon="5.72891">
        <ele>680.51925711922</ele>
        <time>2015-11-08T17:08:07Z</time>
      </trkpt>
      <trkpt lat="45.62244" lon="5.72886">
        <ele>679.61557019351</ele>
        <time>2015-11-08T17:08:17Z</time>
      </trkpt>
      <trkpt lat="45.6225" lon="5.72881">
        <ele>679.61557019351</ele>
        <time>2015-11-08T17:08:22Z</time>
      </trkpt>
      <trkpt lat="45.6226" lon="5.72865">
        <ele>678.57566188871</ele>
        <time>2015-11-08T17:08:32Z</time>
      </trkpt>
      <trkpt lat="45.62262" lon="5.72856">
        <ele>678.57566188871</ele>
        <time>2015-11-08T17:08:37Z</time>
      </trkpt>
      <trkpt lat="45.62268" lon="5.72836">
        <ele>677.12778716604</ele>
        <time>2015-11-08T17:08:47Z</time>
      </trkpt>
      <trkpt lat="45.62271" lon="5.72828">
        <ele>677.12778716604</ele>
        <time>2015-11-08T17:08:52Z</time>
      </trkpt>
      <trkpt lat="45.62282" lon="5.7281">
        <ele>675.84271305482</ele>
        <time>2015-11-08T17:09:02Z</time>
      </trkpt>
      <trkpt lat="45.62287" lon="5.72803">
        <ele>675.84271305482</ele>
        <time>2015-11-08T17:09:07Z</time>
      </trkpt>
      <trkpt lat="45.62299" lon="5.72794">
        <ele>674.11029565031</ele>
        <time>2015-11-08T17:09:17Z</time>
      </trkpt>
      <trkpt lat="45.62299" lon="5.72791">
        <ele>674.11029565031</ele>
        <time>2015-11-08T17:09:22Z</time>
      </trkpt>
      <trkpt lat="45.62307" lon="5.72787">
        <ele>672.40400027384</ele>
        <time>2015-11-08T17:09:32Z</time>
      </trkpt>
      <trkpt lat="45.62314" lon="5.72783">
        <ele>672.40400027384</ele>
        <time>2015-11-08T17:09:37Z</time>
      </trkpt>
      <trkpt lat="45.62328" lon="5.72773">
        <ele>670.71560841612</ele>
        <time>2015-11-08T17:09:47Z</time>
      </trkpt>
      <trkpt lat="45.62335" lon="5.72767">
        <ele>670.71560841612</ele>
        <time>2015-11-08T17:09:52Z</time>
      </trkpt>
      <trkpt lat="45.6235" lon="5.72758">
        <ele>669.35439729926</ele>
        <time>2015-11-08T17:10:02Z</time>
      </trkpt>
      <trkpt lat="45.62357" lon="5.72753">
        <ele>669.35439729926</ele>
        <time>2015-11-08T17:10:07Z</time>
      </trkpt>
      <trkpt lat="45.62376" lon="5.72739">
        <ele>668.33207865029</ele>
        <time>2015-11-08T17:10:22Z</time>
      </trkpt>
      <trkpt lat="45.62381" lon="5.72734">
        <ele>668.33207865029</ele>
        <time>2015-11-08T17:10:27Z</time>
      </trkpt>
      <trkpt lat="45.62393" lon="5.72724">
        <ele>667.09639002891</ele>
        <time>2015-11-08T17:10:37Z</time>
      </trkpt>
      <trkpt lat="45.62396" lon="5.72719">
        <ele>667.09639002891</ele>
        <time>2015-11-08T17:10:42Z</time>
      </trkpt>
      <trkpt lat="45.62394" lon="5.72717">
        <ele>667.09639002891</ele>
        <time>2015-11-08T17:10:52Z</time>
      </trkpt>
      <trkpt lat="45.62395" lon="5.72717">
        <ele>667.09639002891</ele>
        <time>2015-11-08T17:10:57Z</time>
      </trkpt>
      <trkpt lat="45.62397" lon="5.72715">
        <ele>665.66930778987</ele>
        <time>2015-11-08T17:11:07Z</time>
      </trkpt>
      <trkpt lat="45.62399" lon="5.72714">
        <ele>665.66930778987</ele>
        <time>2015-11-08T17:11:12Z</time>
      </trkpt>
      <trkpt lat="45.6241" lon="5.72707">
        <ele>664.41744924251</ele>
        <time>2015-11-08T17:11:22Z</time>
      </trkpt>
      <trkpt lat="45.62416" lon="5.72702">
        <ele>664.41744924251</ele>
        <time>2015-11-08T17:11:27Z</time>
      </trkpt>
      <trkpt lat="45.62429" lon="5.72693">
        <ele>663.63662026724</ele>
        <time>2015-11-08T17:11:37Z</time>
      </trkpt>
      <trkpt lat="45.62436" lon="5.72688">
        <ele>663.63662026724</ele>
        <time>2015-11-08T17:11:42Z</time>
      </trkpt>
      <trkpt lat="45.62447" lon="5.72681">
        <ele>662.97973746247</ele>
        <time>2015-11-08T17:11:52Z</time>
      </trkpt>
      <trkpt lat="45.62454" lon="5.72679">
        <ele>662.97973746247</ele>
        <time>2015-11-08T17:11:57Z</time>
      </trkpt>
      <trkpt lat="45.62466" lon="5.72672">
        <ele>662.36969213563</ele>
        <time>2015-11-08T17:12:07Z</time>
      </trkpt>
      <trkpt lat="45.62472" lon="5.72669">
        <ele>662.36969213563</ele>
        <time>2015-11-08T17:12:12Z</time>
      </trkpt>
      <trkpt lat="45.62485" lon="5.72663">
        <ele>661.67710010412</ele>
        <time>2015-11-08T17:12:22Z</time>
      </trkpt>
      <trkpt lat="45.62491" lon="5.7266">
        <ele>661.67710010412</ele>
        <time>2015-11-08T17:12:27Z</time>
      </trkpt>
      <trkpt lat="45.62504" lon="5.72655">
        <ele>661.27212827301</ele>
        <time>2015-11-08T17:12:37Z</time>
      </trkpt>
      <trkpt lat="45.62512" lon="5.72652">
        <ele>661.27212827301</ele>
        <time>2015-11-08T17:12:42Z</time>
      </trkpt>
      <trkpt lat="45.6253" lon="5.72644">
        <ele>661.22297286213</ele>
        <time>2015-11-08T17:12:57Z</time>
      </trkpt>
      <trkpt lat="45.62537" lon="5.72641">
        <ele>661.22297286213</ele>
        <time>2015-11-08T17:13:02Z</time>
      </trkpt>
      <trkpt lat="45.6255" lon="5.72636">
        <ele>661.08727649171</ele>
        <time>2015-11-08T17:13:12Z</time>
      </trkpt>
      <trkpt lat="45.62557" lon="5.72634">
        <ele>661.08727649171</ele>
        <time>2015-11-08T17:13:17Z</time>
      </trkpt>
      <trkpt lat="45.6257" lon="5.72629">
        <ele>660.94524607521</ele>
        <time>2015-11-08T17:13:27Z</time>
      </trkpt>
      <trkpt lat="45.62576" lon="5.72628">
        <ele>660.94524607521</ele>
        <time>2015-11-08T17:13:32Z</time>
      </trkpt>
      <trkpt lat="45.62589" lon="5.72629">
        <ele>660.89989091492</ele>
        <time>2015-11-08T17:13:42Z</time>
      </trkpt>
      <trkpt lat="45.62596" lon="5.72629">
        <ele>660.89989091492</ele>
        <time>2015-11-08T17:13:47Z</time>
      </trkpt>
      <trkpt lat="45.62609" lon="5.72629">
        <ele>660.98859871507</ele>
        <time>2015-11-08T17:13:57Z</time>
      </trkpt>
      <trkpt lat="45.62613" lon="5.72629">
        <ele>660.98859871507</ele>
        <time>2015-11-08T17:14:02Z</time>
      </trkpt>
      <trkpt lat="45.62626" lon="5.72628">
        <ele>661.07256917103</ele>
        <time>2015-11-08T17:14:12Z</time>
      </trkpt>
      <trkpt lat="45.62634" lon="5.72626">
        <ele>661.07256917103</ele>
        <time>2015-11-08T17:14:17Z</time>
      </trkpt>
      <trkpt lat="45.62651" lon="5.7262">
        <ele>660.64839670615</ele>
        <time>2015-11-08T17:14:32Z</time>
      </trkpt>
    </trkseg>
  </trk>
</gpx>